<?xml version="1.0" encoding="UTF-8" standalone="no" ?>
<gpx xmlns="http://www.topografix.com/GPX/1/1" xmlns:xsi="http://www.w3.org/2001/XMLSchema-instance" xsi:schemaLocation="http://www.topografix.com/GPX/1/1 http://www.topografix.com/GPX/1/1/gpx.xsd" version="1.1" creator="VisuGPX - https://www.visugpx.com">
  <metadata>
    <name>Mollard gargot</name>
  </metadata>
  <trk>
    <name><![CDATA[Mollard gargot_1]]></name>
    <trkseg>
      <trkpt lat="45.18076" lon="5.70777">
        <ele>216.3</ele>
        <time>2021-01-30T10:55:08Z</time>
      </trkpt>
      <trkpt lat="45.18072" lon="5.70764">
        <ele>216.4</ele>
        <time>2021-01-30T10:55:12Z</time>
      </trkpt>
      <trkpt lat="45.18065" lon="5.70753">
        <ele>225.8</ele>
        <time>2021-01-30T10:55:15Z</time>
      </trkpt>
      <trkpt lat="45.18056" lon="5.70744">
        <ele>226.6</ele>
        <time>2021-01-30T10:55:18Z</time>
      </trkpt>
      <trkpt lat="45.18052" lon="5.70731">
        <ele>226.8</ele>
        <time>2021-01-30T10:55:21Z</time>
      </trkpt>
      <trkpt lat="45.18045" lon="5.7072">
        <ele>226.6</ele>
        <time>2021-01-30T10:55:26Z</time>
      </trkpt>
      <trkpt lat="45.18041" lon="5.70708">
        <ele>226.6</ele>
        <time>2021-01-30T10:55:30Z</time>
      </trkpt>
      <trkpt lat="45.18041" lon="5.70692">
        <ele>226.4</ele>
        <time>2021-01-30T10:55:34Z</time>
      </trkpt>
      <trkpt lat="45.18046" lon="5.70675">
        <ele>226.8</ele>
        <time>2021-01-30T10:55:37Z</time>
      </trkpt>
      <trkpt lat="45.1805" lon="5.70662">
        <ele>226.6</ele>
        <time>2021-01-30T10:55:40Z</time>
      </trkpt>
      <trkpt lat="45.18052" lon="5.70648">
        <ele>226.8</ele>
        <time>2021-01-30T10:55:44Z</time>
      </trkpt>
      <trkpt lat="45.18054" lon="5.70636">
        <ele>226.8</ele>
        <time>2021-01-30T10:55:48Z</time>
      </trkpt>
      <trkpt lat="45.18052" lon="5.70621">
        <ele>227.4</ele>
        <time>2021-01-30T10:55:53Z</time>
      </trkpt>
      <trkpt lat="45.18052" lon="5.70606">
        <ele>227.6</ele>
        <time>2021-01-30T10:55:58Z</time>
      </trkpt>
      <trkpt lat="45.1805" lon="5.70592">
        <ele>227.6</ele>
        <time>2021-01-30T10:56:03Z</time>
      </trkpt>
      <trkpt lat="45.18056" lon="5.7058">
        <ele>228</ele>
        <time>2021-01-30T10:56:06Z</time>
      </trkpt>
      <trkpt lat="45.18058" lon="5.70576">
        <ele>227.8</ele>
        <time>2021-01-30T10:56:07Z</time>
      </trkpt>
      <trkpt lat="45.18062" lon="5.70565">
        <ele>228.6</ele>
        <time>2021-01-30T10:56:10Z</time>
      </trkpt>
      <trkpt lat="45.18067" lon="5.70555">
        <ele>228</ele>
        <time>2021-01-30T10:56:16Z</time>
      </trkpt>
      <trkpt lat="45.18064" lon="5.70553">
        <ele>227.8</ele>
        <time>2021-01-30T10:56:18Z</time>
      </trkpt>
      <trkpt lat="45.18062" lon="5.70552">
        <ele>228.6</ele>
        <time>2021-01-30T10:56:19Z</time>
      </trkpt>
      <trkpt lat="45.18059" lon="5.7055">
        <ele>228.4</ele>
        <time>2021-01-30T10:56:20Z</time>
      </trkpt>
      <trkpt lat="45.18056" lon="5.70548">
        <ele>228.4</ele>
        <time>2021-01-30T10:56:21Z</time>
      </trkpt>
      <trkpt lat="45.18054" lon="5.70547">
        <ele>228.4</ele>
        <time>2021-01-30T10:56:22Z</time>
      </trkpt>
      <trkpt lat="45.18052" lon="5.70547">
        <ele>228.2</ele>
        <time>2021-01-30T10:56:23Z</time>
      </trkpt>
      <trkpt lat="45.18049" lon="5.70545">
        <ele>228.2</ele>
        <time>2021-01-30T10:56:24Z</time>
      </trkpt>
      <trkpt lat="45.18046" lon="5.70542">
        <ele>227.8</ele>
        <time>2021-01-30T10:56:25Z</time>
      </trkpt>
      <trkpt lat="45.18041" lon="5.70534">
        <ele>228.8</ele>
        <time>2021-01-30T10:56:27Z</time>
      </trkpt>
      <trkpt lat="45.18039" lon="5.70531">
        <ele>228.8</ele>
        <time>2021-01-30T10:56:28Z</time>
      </trkpt>
      <trkpt lat="45.18037" lon="5.70528">
        <ele>229.2</ele>
        <time>2021-01-30T10:56:29Z</time>
      </trkpt>
      <trkpt lat="45.18035" lon="5.70529">
        <ele>229.2</ele>
        <time>2021-01-30T10:56:31Z</time>
      </trkpt>
      <trkpt lat="45.18033" lon="5.7053">
        <ele>229.2</ele>
        <time>2021-01-30T10:56:32Z</time>
      </trkpt>
      <trkpt lat="45.1803" lon="5.70529">
        <ele>229</ele>
        <time>2021-01-30T10:56:34Z</time>
      </trkpt>
      <trkpt lat="45.18028" lon="5.70531">
        <ele>228.8</ele>
        <time>2021-01-30T10:56:38Z</time>
      </trkpt>
      <trkpt lat="45.18028" lon="5.70535">
        <ele>229</ele>
        <time>2021-01-30T10:56:39Z</time>
      </trkpt>
      <trkpt lat="45.18028" lon="5.70538">
        <ele>229</ele>
        <time>2021-01-30T10:56:40Z</time>
      </trkpt>
      <trkpt lat="45.18029" lon="5.70541">
        <ele>229.2</ele>
        <time>2021-01-30T10:56:42Z</time>
      </trkpt>
      <trkpt lat="45.18029" lon="5.70536">
        <ele>229.4</ele>
        <time>2021-01-30T10:56:45Z</time>
      </trkpt>
      <trkpt lat="45.1803" lon="5.70532">
        <ele>229.4</ele>
        <time>2021-01-30T10:56:46Z</time>
      </trkpt>
      <trkpt lat="45.18029" lon="5.70528">
        <ele>229.2</ele>
        <time>2021-01-30T10:56:47Z</time>
      </trkpt>
      <trkpt lat="45.18028" lon="5.70524">
        <ele>229.6</ele>
        <time>2021-01-30T10:56:48Z</time>
      </trkpt>
      <trkpt lat="45.18027" lon="5.70521">
        <ele>229.6</ele>
        <time>2021-01-30T10:56:49Z</time>
      </trkpt>
      <trkpt lat="45.18027" lon="5.70518">
        <ele>229.8</ele>
        <time>2021-01-30T10:56:50Z</time>
      </trkpt>
      <trkpt lat="45.18026" lon="5.70514">
        <ele>229.6</ele>
        <time>2021-01-30T10:56:51Z</time>
      </trkpt>
      <trkpt lat="45.18023" lon="5.70502">
        <ele>230.2</ele>
        <time>2021-01-30T10:56:56Z</time>
      </trkpt>
      <trkpt lat="45.18021" lon="5.70501">
        <ele>230.2</ele>
        <time>2021-01-30T10:56:57Z</time>
      </trkpt>
      <trkpt lat="45.17995" lon="5.70431">
        <ele>232</ele>
        <time>2021-01-30T10:58:38Z</time>
      </trkpt>
      <trkpt lat="45.17995" lon="5.70427">
        <ele>232.2</ele>
        <time>2021-01-30T10:58:39Z</time>
      </trkpt>
      <trkpt lat="45.17995" lon="5.70424">
        <ele>232.2</ele>
        <time>2021-01-30T10:58:40Z</time>
      </trkpt>
      <trkpt lat="45.17995" lon="5.70421">
        <ele>232.4</ele>
        <time>2021-01-30T10:58:41Z</time>
      </trkpt>
      <trkpt lat="45.17995" lon="5.70417">
        <ele>232.2</ele>
        <time>2021-01-30T10:58:42Z</time>
      </trkpt>
      <trkpt lat="45.17994" lon="5.70413">
        <ele>232.6</ele>
        <time>2021-01-30T10:58:43Z</time>
      </trkpt>
      <trkpt lat="45.17994" lon="5.7041">
        <ele>232.6</ele>
        <time>2021-01-30T10:58:44Z</time>
      </trkpt>
      <trkpt lat="45.17994" lon="5.70407">
        <ele>232.8</ele>
        <time>2021-01-30T10:58:45Z</time>
      </trkpt>
      <trkpt lat="45.17994" lon="5.70404">
        <ele>232.6</ele>
        <time>2021-01-30T10:58:46Z</time>
      </trkpt>
      <trkpt lat="45.17994" lon="5.704">
        <ele>233</ele>
        <time>2021-01-30T10:58:47Z</time>
      </trkpt>
      <trkpt lat="45.17994" lon="5.70396">
        <ele>233</ele>
        <time>2021-01-30T10:58:48Z</time>
      </trkpt>
      <trkpt lat="45.17993" lon="5.70393">
        <ele>233.2</ele>
        <time>2021-01-30T10:58:49Z</time>
      </trkpt>
      <trkpt lat="45.17992" lon="5.70389">
        <ele>233.2</ele>
        <time>2021-01-30T10:58:50Z</time>
      </trkpt>
      <trkpt lat="45.17992" lon="5.70385">
        <ele>233.4</ele>
        <time>2021-01-30T10:58:51Z</time>
      </trkpt>
      <trkpt lat="45.17991" lon="5.70382">
        <ele>233.6</ele>
        <time>2021-01-30T10:58:52Z</time>
      </trkpt>
      <trkpt lat="45.17991" lon="5.70378">
        <ele>233.8</ele>
        <time>2021-01-30T10:58:53Z</time>
      </trkpt>
      <trkpt lat="45.1799" lon="5.70374">
        <ele>233.8</ele>
        <time>2021-01-30T10:58:54Z</time>
      </trkpt>
      <trkpt lat="45.1799" lon="5.7037">
        <ele>233.8</ele>
        <time>2021-01-30T10:58:55Z</time>
      </trkpt>
      <trkpt lat="45.1799" lon="5.70367">
        <ele>234.2</ele>
        <time>2021-01-30T10:58:56Z</time>
      </trkpt>
      <trkpt lat="45.17991" lon="5.70363">
        <ele>234.2</ele>
        <time>2021-01-30T10:58:57Z</time>
      </trkpt>
      <trkpt lat="45.17992" lon="5.70359">
        <ele>234.2</ele>
        <time>2021-01-30T10:58:58Z</time>
      </trkpt>
      <trkpt lat="45.17992" lon="5.70355">
        <ele>234</ele>
        <time>2021-01-30T10:58:59Z</time>
      </trkpt>
      <trkpt lat="45.17994" lon="5.70353">
        <ele>234.2</ele>
        <time>2021-01-30T10:59:00Z</time>
      </trkpt>
      <trkpt lat="45.17995" lon="5.70349">
        <ele>234.4</ele>
        <time>2021-01-30T10:59:01Z</time>
      </trkpt>
      <trkpt lat="45.17997" lon="5.70346">
        <ele>234.6</ele>
        <time>2021-01-30T10:59:02Z</time>
      </trkpt>
      <trkpt lat="45.17997" lon="5.70342">
        <ele>234.4</ele>
        <time>2021-01-30T10:59:03Z</time>
      </trkpt>
      <trkpt lat="45.17998" lon="5.70339">
        <ele>235.4</ele>
        <time>2021-01-30T10:59:04Z</time>
      </trkpt>
      <trkpt lat="45.17998" lon="5.70335">
        <ele>235</ele>
        <time>2021-01-30T10:59:05Z</time>
      </trkpt>
      <trkpt lat="45.17998" lon="5.70331">
        <ele>235.4</ele>
        <time>2021-01-30T10:59:06Z</time>
      </trkpt>
      <trkpt lat="45.17999" lon="5.70327">
        <ele>235.2</ele>
        <time>2021-01-30T10:59:07Z</time>
      </trkpt>
      <trkpt lat="45.17998" lon="5.70323">
        <ele>235.6</ele>
        <time>2021-01-30T10:59:08Z</time>
      </trkpt>
      <trkpt lat="45.17998" lon="5.70319">
        <ele>235.4</ele>
        <time>2021-01-30T10:59:09Z</time>
      </trkpt>
      <trkpt lat="45.17998" lon="5.70316">
        <ele>235.6</ele>
        <time>2021-01-30T10:59:10Z</time>
      </trkpt>
      <trkpt lat="45.17998" lon="5.70312">
        <ele>235.6</ele>
        <time>2021-01-30T10:59:11Z</time>
      </trkpt>
      <trkpt lat="45.17998" lon="5.70308">
        <ele>236</ele>
        <time>2021-01-30T10:59:12Z</time>
      </trkpt>
      <trkpt lat="45.17998" lon="5.70305">
        <ele>235.8</ele>
        <time>2021-01-30T10:59:13Z</time>
      </trkpt>
      <trkpt lat="45.17998" lon="5.70301">
        <ele>236</ele>
        <time>2021-01-30T10:59:14Z</time>
      </trkpt>
      <trkpt lat="45.17998" lon="5.70297">
        <ele>236</ele>
        <time>2021-01-30T10:59:15Z</time>
      </trkpt>
      <trkpt lat="45.17998" lon="5.70294">
        <ele>236.2</ele>
        <time>2021-01-30T10:59:16Z</time>
      </trkpt>
      <trkpt lat="45.17998" lon="5.7029">
        <ele>236.4</ele>
        <time>2021-01-30T10:59:17Z</time>
      </trkpt>
      <trkpt lat="45.17998" lon="5.70286">
        <ele>236.4</ele>
        <time>2021-01-30T10:59:18Z</time>
      </trkpt>
      <trkpt lat="45.17998" lon="5.70282">
        <ele>236.8</ele>
        <time>2021-01-30T10:59:19Z</time>
      </trkpt>
      <trkpt lat="45.17998" lon="5.70279">
        <ele>236.8</ele>
        <time>2021-01-30T10:59:20Z</time>
      </trkpt>
      <trkpt lat="45.17997" lon="5.70275">
        <ele>237</ele>
        <time>2021-01-30T10:59:21Z</time>
      </trkpt>
      <trkpt lat="45.17997" lon="5.70272">
        <ele>237</ele>
        <time>2021-01-30T10:59:22Z</time>
      </trkpt>
      <trkpt lat="45.17997" lon="5.70268">
        <ele>237.2</ele>
        <time>2021-01-30T10:59:23Z</time>
      </trkpt>
      <trkpt lat="45.17998" lon="5.70265">
        <ele>237</ele>
        <time>2021-01-30T10:59:24Z</time>
      </trkpt>
      <trkpt lat="45.17998" lon="5.70261">
        <ele>237.2</ele>
        <time>2021-01-30T10:59:25Z</time>
      </trkpt>
      <trkpt lat="45.17998" lon="5.70257">
        <ele>237.2</ele>
        <time>2021-01-30T10:59:26Z</time>
      </trkpt>
      <trkpt lat="45.17998" lon="5.70254">
        <ele>237.8</ele>
        <time>2021-01-30T10:59:27Z</time>
      </trkpt>
      <trkpt lat="45.17998" lon="5.7025">
        <ele>237.4</ele>
        <time>2021-01-30T10:59:28Z</time>
      </trkpt>
      <trkpt lat="45.17998" lon="5.70247">
        <ele>237.8</ele>
        <time>2021-01-30T10:59:29Z</time>
      </trkpt>
      <trkpt lat="45.17998" lon="5.70243">
        <ele>237.8</ele>
        <time>2021-01-30T10:59:30Z</time>
      </trkpt>
      <trkpt lat="45.17998" lon="5.70239">
        <ele>238.4</ele>
        <time>2021-01-30T10:59:31Z</time>
      </trkpt>
      <trkpt lat="45.17998" lon="5.70236">
        <ele>238</ele>
        <time>2021-01-30T10:59:32Z</time>
      </trkpt>
      <trkpt lat="45.17998" lon="5.70232">
        <ele>238.6</ele>
        <time>2021-01-30T10:59:33Z</time>
      </trkpt>
      <trkpt lat="45.17997" lon="5.70228">
        <ele>238.2</ele>
        <time>2021-01-30T10:59:34Z</time>
      </trkpt>
      <trkpt lat="45.17997" lon="5.70224">
        <ele>238.4</ele>
        <time>2021-01-30T10:59:35Z</time>
      </trkpt>
      <trkpt lat="45.17997" lon="5.7022">
        <ele>238.2</ele>
        <time>2021-01-30T10:59:36Z</time>
      </trkpt>
      <trkpt lat="45.17997" lon="5.70217">
        <ele>238.4</ele>
        <time>2021-01-30T10:59:37Z</time>
      </trkpt>
      <trkpt lat="45.17997" lon="5.70213">
        <ele>238.2</ele>
        <time>2021-01-30T10:59:38Z</time>
      </trkpt>
      <trkpt lat="45.17996" lon="5.7021">
        <ele>238.6</ele>
        <time>2021-01-30T10:59:39Z</time>
      </trkpt>
      <trkpt lat="45.17996" lon="5.70206">
        <ele>238.4</ele>
        <time>2021-01-30T10:59:40Z</time>
      </trkpt>
      <trkpt lat="45.17996" lon="5.70202">
        <ele>238.8</ele>
        <time>2021-01-30T10:59:41Z</time>
      </trkpt>
      <trkpt lat="45.17996" lon="5.70198">
        <ele>238.2</ele>
        <time>2021-01-30T10:59:42Z</time>
      </trkpt>
      <trkpt lat="45.17996" lon="5.70195">
        <ele>238.6</ele>
        <time>2021-01-30T10:59:43Z</time>
      </trkpt>
      <trkpt lat="45.17996" lon="5.70191">
        <ele>238.2</ele>
        <time>2021-01-30T10:59:44Z</time>
      </trkpt>
      <trkpt lat="45.17997" lon="5.70188">
        <ele>238.8</ele>
        <time>2021-01-30T10:59:45Z</time>
      </trkpt>
      <trkpt lat="45.17997" lon="5.70184">
        <ele>238.4</ele>
        <time>2021-01-30T10:59:46Z</time>
      </trkpt>
      <trkpt lat="45.17997" lon="5.7018">
        <ele>238.8</ele>
        <time>2021-01-30T10:59:47Z</time>
      </trkpt>
      <trkpt lat="45.17997" lon="5.70177">
        <ele>238.8</ele>
        <time>2021-01-30T10:59:48Z</time>
      </trkpt>
      <trkpt lat="45.17997" lon="5.70173">
        <ele>238.6</ele>
        <time>2021-01-30T10:59:49Z</time>
      </trkpt>
      <trkpt lat="45.17997" lon="5.7017">
        <ele>238.6</ele>
        <time>2021-01-30T10:59:50Z</time>
      </trkpt>
      <trkpt lat="45.17997" lon="5.70167">
        <ele>238.8</ele>
        <time>2021-01-30T10:59:51Z</time>
      </trkpt>
      <trkpt lat="45.17997" lon="5.70164">
        <ele>238.6</ele>
        <time>2021-01-30T10:59:52Z</time>
      </trkpt>
      <trkpt lat="45.17997" lon="5.7016">
        <ele>238.6</ele>
        <time>2021-01-30T10:59:53Z</time>
      </trkpt>
      <trkpt lat="45.17996" lon="5.70156">
        <ele>238.6</ele>
        <time>2021-01-30T10:59:54Z</time>
      </trkpt>
      <trkpt lat="45.17996" lon="5.70153">
        <ele>238.8</ele>
        <time>2021-01-30T10:59:55Z</time>
      </trkpt>
      <trkpt lat="45.17996" lon="5.70149">
        <ele>238.8</ele>
        <time>2021-01-30T10:59:56Z</time>
      </trkpt>
      <trkpt lat="45.17997" lon="5.70146">
        <ele>238.8</ele>
        <time>2021-01-30T10:59:57Z</time>
      </trkpt>
      <trkpt lat="45.17997" lon="5.70143">
        <ele>238.8</ele>
        <time>2021-01-30T10:59:58Z</time>
      </trkpt>
      <trkpt lat="45.17997" lon="5.70139">
        <ele>238.8</ele>
        <time>2021-01-30T10:59:59Z</time>
      </trkpt>
      <trkpt lat="45.17997" lon="5.70136">
        <ele>215</ele>
        <time>2021-01-30T11:00:00Z</time>
      </trkpt>
      <trkpt lat="45.17998" lon="5.70132">
        <ele>239</ele>
        <time>2021-01-30T11:00:01Z</time>
      </trkpt>
      <trkpt lat="45.17998" lon="5.70129">
        <ele>238.8</ele>
        <time>2021-01-30T11:00:02Z</time>
      </trkpt>
      <trkpt lat="45.17998" lon="5.70126">
        <ele>238.6</ele>
        <time>2021-01-30T11:00:03Z</time>
      </trkpt>
      <trkpt lat="45.17998" lon="5.70123">
        <ele>239</ele>
        <time>2021-01-30T11:00:04Z</time>
      </trkpt>
      <trkpt lat="45.17998" lon="5.70119">
        <ele>238.8</ele>
        <time>2021-01-30T11:00:05Z</time>
      </trkpt>
      <trkpt lat="45.17998" lon="5.70116">
        <ele>239.2</ele>
        <time>2021-01-30T11:00:06Z</time>
      </trkpt>
      <trkpt lat="45.17999" lon="5.70112">
        <ele>239.2</ele>
        <time>2021-01-30T11:00:07Z</time>
      </trkpt>
      <trkpt lat="45.17999" lon="5.70109">
        <ele>239.6</ele>
        <time>2021-01-30T11:00:08Z</time>
      </trkpt>
      <trkpt lat="45.17999" lon="5.70105">
        <ele>239.2</ele>
        <time>2021-01-30T11:00:09Z</time>
      </trkpt>
      <trkpt lat="45.17999" lon="5.70102">
        <ele>239.6</ele>
        <time>2021-01-30T11:00:10Z</time>
      </trkpt>
      <trkpt lat="45.17999" lon="5.70099">
        <ele>239.4</ele>
        <time>2021-01-30T11:00:11Z</time>
      </trkpt>
      <trkpt lat="45.17999" lon="5.70095">
        <ele>239.8</ele>
        <time>2021-01-30T11:00:12Z</time>
      </trkpt>
      <trkpt lat="45.17999" lon="5.70092">
        <ele>239.4</ele>
        <time>2021-01-30T11:00:13Z</time>
      </trkpt>
      <trkpt lat="45.17999" lon="5.70088">
        <ele>239.2</ele>
        <time>2021-01-30T11:00:14Z</time>
      </trkpt>
      <trkpt lat="45.17999" lon="5.70085">
        <ele>239</ele>
        <time>2021-01-30T11:00:15Z</time>
      </trkpt>
      <trkpt lat="45.17999" lon="5.70081">
        <ele>238.8</ele>
        <time>2021-01-30T11:00:16Z</time>
      </trkpt>
      <trkpt lat="45.17999" lon="5.70078">
        <ele>239</ele>
        <time>2021-01-30T11:00:17Z</time>
      </trkpt>
      <trkpt lat="45.18" lon="5.70074">
        <ele>239.6</ele>
        <time>2021-01-30T11:00:18Z</time>
      </trkpt>
      <trkpt lat="45.18" lon="5.7007">
        <ele>239.4</ele>
        <time>2021-01-30T11:00:19Z</time>
      </trkpt>
      <trkpt lat="45.18" lon="5.70067">
        <ele>239.2</ele>
        <time>2021-01-30T11:00:20Z</time>
      </trkpt>
      <trkpt lat="45.18" lon="5.70063">
        <ele>239</ele>
        <time>2021-01-30T11:00:21Z</time>
      </trkpt>
      <trkpt lat="45.18" lon="5.70059">
        <ele>239.2</ele>
        <time>2021-01-30T11:00:22Z</time>
      </trkpt>
      <trkpt lat="45.18" lon="5.70055">
        <ele>239</ele>
        <time>2021-01-30T11:00:23Z</time>
      </trkpt>
      <trkpt lat="45.18" lon="5.70052">
        <ele>238.8</ele>
        <time>2021-01-30T11:00:24Z</time>
      </trkpt>
      <trkpt lat="45.18" lon="5.70048">
        <ele>238.8</ele>
        <time>2021-01-30T11:00:25Z</time>
      </trkpt>
      <trkpt lat="45.18001" lon="5.70045">
        <ele>238.6</ele>
        <time>2021-01-30T11:00:26Z</time>
      </trkpt>
      <trkpt lat="45.18001" lon="5.70041">
        <ele>238.6</ele>
        <time>2021-01-30T11:00:27Z</time>
      </trkpt>
      <trkpt lat="45.18001" lon="5.70038">
        <ele>238.8</ele>
        <time>2021-01-30T11:00:28Z</time>
      </trkpt>
      <trkpt lat="45.18002" lon="5.70035">
        <ele>238.8</ele>
        <time>2021-01-30T11:00:29Z</time>
      </trkpt>
      <trkpt lat="45.18002" lon="5.70031">
        <ele>238.6</ele>
        <time>2021-01-30T11:00:30Z</time>
      </trkpt>
      <trkpt lat="45.18002" lon="5.70027">
        <ele>238.4</ele>
        <time>2021-01-30T11:00:31Z</time>
      </trkpt>
      <trkpt lat="45.18002" lon="5.70023">
        <ele>238.4</ele>
        <time>2021-01-30T11:00:32Z</time>
      </trkpt>
      <trkpt lat="45.18002" lon="5.7002">
        <ele>238.4</ele>
        <time>2021-01-30T11:00:33Z</time>
      </trkpt>
      <trkpt lat="45.18002" lon="5.70016">
        <ele>238.2</ele>
        <time>2021-01-30T11:00:34Z</time>
      </trkpt>
      <trkpt lat="45.18002" lon="5.70013">
        <ele>237.8</ele>
        <time>2021-01-30T11:00:35Z</time>
      </trkpt>
      <trkpt lat="45.18002" lon="5.70009">
        <ele>237.8</ele>
        <time>2021-01-30T11:00:36Z</time>
      </trkpt>
      <trkpt lat="45.18002" lon="5.70006">
        <ele>238</ele>
        <time>2021-01-30T11:00:37Z</time>
      </trkpt>
      <trkpt lat="45.18001" lon="5.70002">
        <ele>237.8</ele>
        <time>2021-01-30T11:00:38Z</time>
      </trkpt>
      <trkpt lat="45.18001" lon="5.69998">
        <ele>237.4</ele>
        <time>2021-01-30T11:00:39Z</time>
      </trkpt>
      <trkpt lat="45.18001" lon="5.69994">
        <ele>237.4</ele>
        <time>2021-01-30T11:00:40Z</time>
      </trkpt>
      <trkpt lat="45.18001" lon="5.6999">
        <ele>237.2</ele>
        <time>2021-01-30T11:00:41Z</time>
      </trkpt>
      <trkpt lat="45.18001" lon="5.69986">
        <ele>237.2</ele>
        <time>2021-01-30T11:00:42Z</time>
      </trkpt>
      <trkpt lat="45.18001" lon="5.69983">
        <ele>237</ele>
        <time>2021-01-30T11:00:43Z</time>
      </trkpt>
      <trkpt lat="45.18001" lon="5.69979">
        <ele>237</ele>
        <time>2021-01-30T11:00:44Z</time>
      </trkpt>
      <trkpt lat="45.18001" lon="5.69975">
        <ele>237</ele>
        <time>2021-01-30T11:00:45Z</time>
      </trkpt>
      <trkpt lat="45.18001" lon="5.69971">
        <ele>237</ele>
        <time>2021-01-30T11:00:46Z</time>
      </trkpt>
      <trkpt lat="45.18001" lon="5.69967">
        <ele>236.8</ele>
        <time>2021-01-30T11:00:47Z</time>
      </trkpt>
      <trkpt lat="45.18001" lon="5.69963">
        <ele>236.8</ele>
        <time>2021-01-30T11:00:48Z</time>
      </trkpt>
      <trkpt lat="45.18" lon="5.6996">
        <ele>236.8</ele>
        <time>2021-01-30T11:00:49Z</time>
      </trkpt>
      <trkpt lat="45.18" lon="5.69956">
        <ele>236.6</ele>
        <time>2021-01-30T11:00:50Z</time>
      </trkpt>
      <trkpt lat="45.18" lon="5.69952">
        <ele>236.8</ele>
        <time>2021-01-30T11:00:51Z</time>
      </trkpt>
      <trkpt lat="45.18" lon="5.69948">
        <ele>236.2</ele>
        <time>2021-01-30T11:00:52Z</time>
      </trkpt>
      <trkpt lat="45.18" lon="5.69944">
        <ele>237</ele>
        <time>2021-01-30T11:00:53Z</time>
      </trkpt>
      <trkpt lat="45.18" lon="5.69941">
        <ele>236.8</ele>
        <time>2021-01-30T11:00:54Z</time>
      </trkpt>
      <trkpt lat="45.18" lon="5.69937">
        <ele>236.8</ele>
        <time>2021-01-30T11:00:55Z</time>
      </trkpt>
      <trkpt lat="45.18001" lon="5.69934">
        <ele>236.6</ele>
        <time>2021-01-30T11:00:56Z</time>
      </trkpt>
      <trkpt lat="45.18001" lon="5.6993">
        <ele>236.8</ele>
        <time>2021-01-30T11:00:57Z</time>
      </trkpt>
      <trkpt lat="45.18002" lon="5.69927">
        <ele>236.4</ele>
        <time>2021-01-30T11:00:58Z</time>
      </trkpt>
      <trkpt lat="45.18003" lon="5.69924">
        <ele>236.2</ele>
        <time>2021-01-30T11:00:59Z</time>
      </trkpt>
      <trkpt lat="45.18003" lon="5.6992">
        <ele>236</ele>
        <time>2021-01-30T11:01:00Z</time>
      </trkpt>
      <trkpt lat="45.18002" lon="5.69916">
        <ele>235.6</ele>
        <time>2021-01-30T11:01:01Z</time>
      </trkpt>
      <trkpt lat="45.18002" lon="5.69913">
        <ele>235.8</ele>
        <time>2021-01-30T11:01:02Z</time>
      </trkpt>
      <trkpt lat="45.18002" lon="5.69909">
        <ele>235.4</ele>
        <time>2021-01-30T11:01:03Z</time>
      </trkpt>
      <trkpt lat="45.18003" lon="5.69905">
        <ele>236</ele>
        <time>2021-01-30T11:01:04Z</time>
      </trkpt>
      <trkpt lat="45.18002" lon="5.69901">
        <ele>235.4</ele>
        <time>2021-01-30T11:01:05Z</time>
      </trkpt>
      <trkpt lat="45.18002" lon="5.69897">
        <ele>235.4</ele>
        <time>2021-01-30T11:01:06Z</time>
      </trkpt>
      <trkpt lat="45.18003" lon="5.69893">
        <ele>234.8</ele>
        <time>2021-01-30T11:01:07Z</time>
      </trkpt>
      <trkpt lat="45.18003" lon="5.6989">
        <ele>235.2</ele>
        <time>2021-01-30T11:01:08Z</time>
      </trkpt>
      <trkpt lat="45.18003" lon="5.69886">
        <ele>234.4</ele>
        <time>2021-01-30T11:01:09Z</time>
      </trkpt>
      <trkpt lat="45.18003" lon="5.69882">
        <ele>234.6</ele>
        <time>2021-01-30T11:01:10Z</time>
      </trkpt>
      <trkpt lat="45.18003" lon="5.69878">
        <ele>234.2</ele>
        <time>2021-01-30T11:01:11Z</time>
      </trkpt>
      <trkpt lat="45.18004" lon="5.69875">
        <ele>234.4</ele>
        <time>2021-01-30T11:01:12Z</time>
      </trkpt>
      <trkpt lat="45.18006" lon="5.69869">
        <ele>233.2</ele>
        <time>2021-01-30T11:01:14Z</time>
      </trkpt>
      <trkpt lat="45.18006" lon="5.69855">
        <ele>232.6</ele>
        <time>2021-01-30T11:01:18Z</time>
      </trkpt>
      <trkpt lat="45.18006" lon="5.6984">
        <ele>231.6</ele>
        <time>2021-01-30T11:01:22Z</time>
      </trkpt>
      <trkpt lat="45.18007" lon="5.69829">
        <ele>231</ele>
        <time>2021-01-30T11:01:25Z</time>
      </trkpt>
      <trkpt lat="45.18007" lon="5.69826">
        <ele>230.4</ele>
        <time>2021-01-30T11:01:26Z</time>
      </trkpt>
      <trkpt lat="45.18008" lon="5.69822">
        <ele>230.2</ele>
        <time>2021-01-30T11:01:27Z</time>
      </trkpt>
      <trkpt lat="45.18008" lon="5.69818">
        <ele>230.2</ele>
        <time>2021-01-30T11:01:28Z</time>
      </trkpt>
      <trkpt lat="45.18008" lon="5.69815">
        <ele>230</ele>
        <time>2021-01-30T11:01:29Z</time>
      </trkpt>
      <trkpt lat="45.18009" lon="5.69811">
        <ele>229.8</ele>
        <time>2021-01-30T11:01:30Z</time>
      </trkpt>
      <trkpt lat="45.18009" lon="5.698">
        <ele>229.4</ele>
        <time>2021-01-30T11:01:33Z</time>
      </trkpt>
      <trkpt lat="45.18009" lon="5.69794">
        <ele>229.4</ele>
        <time>2021-01-30T11:01:35Z</time>
      </trkpt>
      <trkpt lat="45.18008" lon="5.6979">
        <ele>229</ele>
        <time>2021-01-30T11:01:36Z</time>
      </trkpt>
      <trkpt lat="45.18008" lon="5.69786">
        <ele>229.4</ele>
        <time>2021-01-30T11:01:37Z</time>
      </trkpt>
      <trkpt lat="45.18008" lon="5.69783">
        <ele>229</ele>
        <time>2021-01-30T11:01:38Z</time>
      </trkpt>
      <trkpt lat="45.18008" lon="5.69779">
        <ele>228.8</ele>
        <time>2021-01-30T11:01:39Z</time>
      </trkpt>
      <trkpt lat="45.18008" lon="5.69775">
        <ele>228.8</ele>
        <time>2021-01-30T11:01:40Z</time>
      </trkpt>
      <trkpt lat="45.18007" lon="5.69771">
        <ele>228.8</ele>
        <time>2021-01-30T11:01:41Z</time>
      </trkpt>
      <trkpt lat="45.18007" lon="5.69768">
        <ele>229</ele>
        <time>2021-01-30T11:01:42Z</time>
      </trkpt>
      <trkpt lat="45.18006" lon="5.69765">
        <ele>228.6</ele>
        <time>2021-01-30T11:01:43Z</time>
      </trkpt>
      <trkpt lat="45.18006" lon="5.69761">
        <ele>228.8</ele>
        <time>2021-01-30T11:01:44Z</time>
      </trkpt>
      <trkpt lat="45.18006" lon="5.69758">
        <ele>228.6</ele>
        <time>2021-01-30T11:01:45Z</time>
      </trkpt>
      <trkpt lat="45.18006" lon="5.69754">
        <ele>229</ele>
        <time>2021-01-30T11:01:46Z</time>
      </trkpt>
      <trkpt lat="45.18006" lon="5.69751">
        <ele>228.6</ele>
        <time>2021-01-30T11:01:47Z</time>
      </trkpt>
      <trkpt lat="45.18006" lon="5.69748">
        <ele>228.8</ele>
        <time>2021-01-30T11:01:48Z</time>
      </trkpt>
      <trkpt lat="45.18006" lon="5.69744">
        <ele>228.8</ele>
        <time>2021-01-30T11:01:49Z</time>
      </trkpt>
      <trkpt lat="45.18006" lon="5.69741">
        <ele>229</ele>
        <time>2021-01-30T11:01:50Z</time>
      </trkpt>
      <trkpt lat="45.18007" lon="5.69738">
        <ele>229</ele>
        <time>2021-01-30T11:01:51Z</time>
      </trkpt>
      <trkpt lat="45.18008" lon="5.69735">
        <ele>229.4</ele>
        <time>2021-01-30T11:01:52Z</time>
      </trkpt>
      <trkpt lat="45.18008" lon="5.69732">
        <ele>228.8</ele>
        <time>2021-01-30T11:01:53Z</time>
      </trkpt>
      <trkpt lat="45.1801" lon="5.69725">
        <ele>229.2</ele>
        <time>2021-01-30T11:01:55Z</time>
      </trkpt>
      <trkpt lat="45.1801" lon="5.69722">
        <ele>229.8</ele>
        <time>2021-01-30T11:01:56Z</time>
      </trkpt>
      <trkpt lat="45.18014" lon="5.69721">
        <ele>229.2</ele>
        <time>2021-01-30T11:01:59Z</time>
      </trkpt>
      <trkpt lat="45.18017" lon="5.69721">
        <ele>229</ele>
        <time>2021-01-30T11:02:00Z</time>
      </trkpt>
      <trkpt lat="45.18021" lon="5.69721">
        <ele>229</ele>
        <time>2021-01-30T11:02:01Z</time>
      </trkpt>
      <trkpt lat="45.18024" lon="5.69721">
        <ele>229</ele>
        <time>2021-01-30T11:02:02Z</time>
      </trkpt>
      <trkpt lat="45.18027" lon="5.69721">
        <ele>228.6</ele>
        <time>2021-01-30T11:02:03Z</time>
      </trkpt>
      <trkpt lat="45.18029" lon="5.69721">
        <ele>228.4</ele>
        <time>2021-01-30T11:02:04Z</time>
      </trkpt>
      <trkpt lat="45.18032" lon="5.6972">
        <ele>228.8</ele>
        <time>2021-01-30T11:02:05Z</time>
      </trkpt>
      <trkpt lat="45.18034" lon="5.69718">
        <ele>228.6</ele>
        <time>2021-01-30T11:02:06Z</time>
      </trkpt>
      <trkpt lat="45.18036" lon="5.69717">
        <ele>229</ele>
        <time>2021-01-30T11:02:07Z</time>
      </trkpt>
      <trkpt lat="45.18039" lon="5.69712">
        <ele>229</ele>
        <time>2021-01-30T11:02:09Z</time>
      </trkpt>
      <trkpt lat="45.1804" lon="5.69708">
        <ele>229.2</ele>
        <time>2021-01-30T11:02:10Z</time>
      </trkpt>
      <trkpt lat="45.1804" lon="5.69704">
        <ele>229.8</ele>
        <time>2021-01-30T11:02:11Z</time>
      </trkpt>
      <trkpt lat="45.1804" lon="5.697">
        <ele>229.4</ele>
        <time>2021-01-30T11:02:12Z</time>
      </trkpt>
      <trkpt lat="45.1804" lon="5.69696">
        <ele>229.6</ele>
        <time>2021-01-30T11:02:13Z</time>
      </trkpt>
      <trkpt lat="45.1804" lon="5.69692">
        <ele>229.4</ele>
        <time>2021-01-30T11:02:14Z</time>
      </trkpt>
      <trkpt lat="45.1804" lon="5.69688">
        <ele>229.4</ele>
        <time>2021-01-30T11:02:15Z</time>
      </trkpt>
      <trkpt lat="45.1804" lon="5.69684">
        <ele>228.8</ele>
        <time>2021-01-30T11:02:16Z</time>
      </trkpt>
      <trkpt lat="45.1804" lon="5.6968">
        <ele>228.8</ele>
        <time>2021-01-30T11:02:17Z</time>
      </trkpt>
      <trkpt lat="45.1804" lon="5.69676">
        <ele>229.2</ele>
        <time>2021-01-30T11:02:18Z</time>
      </trkpt>
      <trkpt lat="45.18039" lon="5.69672">
        <ele>229</ele>
        <time>2021-01-30T11:02:19Z</time>
      </trkpt>
      <trkpt lat="45.18038" lon="5.69669">
        <ele>229.2</ele>
        <time>2021-01-30T11:02:20Z</time>
      </trkpt>
      <trkpt lat="45.18038" lon="5.69666">
        <ele>229</ele>
        <time>2021-01-30T11:02:21Z</time>
      </trkpt>
      <trkpt lat="45.18037" lon="5.69662">
        <ele>229.2</ele>
        <time>2021-01-30T11:02:22Z</time>
      </trkpt>
      <trkpt lat="45.18035" lon="5.69648">
        <ele>229</ele>
        <time>2021-01-30T11:02:26Z</time>
      </trkpt>
      <trkpt lat="45.18034" lon="5.69641">
        <ele>229.2</ele>
        <time>2021-01-30T11:02:28Z</time>
      </trkpt>
      <trkpt lat="45.18034" lon="5.69638">
        <ele>229.6</ele>
        <time>2021-01-30T11:02:29Z</time>
      </trkpt>
      <trkpt lat="45.18034" lon="5.6963">
        <ele>229</ele>
        <time>2021-01-30T11:02:31Z</time>
      </trkpt>
      <trkpt lat="45.18034" lon="5.69627">
        <ele>229</ele>
        <time>2021-01-30T11:02:32Z</time>
      </trkpt>
      <trkpt lat="45.18034" lon="5.69623">
        <ele>229</ele>
        <time>2021-01-30T11:02:33Z</time>
      </trkpt>
      <trkpt lat="45.18034" lon="5.69619">
        <ele>229.2</ele>
        <time>2021-01-30T11:02:34Z</time>
      </trkpt>
      <trkpt lat="45.18035" lon="5.69611">
        <ele>229.6</ele>
        <time>2021-01-30T11:02:36Z</time>
      </trkpt>
      <trkpt lat="45.18039" lon="5.69598">
        <ele>229.4</ele>
        <time>2021-01-30T11:02:39Z</time>
      </trkpt>
      <trkpt lat="45.18041" lon="5.69585">
        <ele>229</ele>
        <time>2021-01-30T11:02:42Z</time>
      </trkpt>
      <trkpt lat="45.18042" lon="5.69582">
        <ele>229.6</ele>
        <time>2021-01-30T11:02:43Z</time>
      </trkpt>
      <trkpt lat="45.18042" lon="5.69578">
        <ele>229.2</ele>
        <time>2021-01-30T11:02:44Z</time>
      </trkpt>
      <trkpt lat="45.18043" lon="5.69574">
        <ele>229.8</ele>
        <time>2021-01-30T11:02:45Z</time>
      </trkpt>
      <trkpt lat="45.18044" lon="5.6957">
        <ele>229.6</ele>
        <time>2021-01-30T11:02:46Z</time>
      </trkpt>
      <trkpt lat="45.18044" lon="5.69562">
        <ele>229.4</ele>
        <time>2021-01-30T11:02:48Z</time>
      </trkpt>
      <trkpt lat="45.18045" lon="5.69558">
        <ele>229.6</ele>
        <time>2021-01-30T11:02:49Z</time>
      </trkpt>
      <trkpt lat="45.18045" lon="5.69555">
        <ele>229.4</ele>
        <time>2021-01-30T11:02:50Z</time>
      </trkpt>
      <trkpt lat="45.18046" lon="5.69551">
        <ele>229.6</ele>
        <time>2021-01-30T11:02:51Z</time>
      </trkpt>
      <trkpt lat="45.18046" lon="5.69548">
        <ele>229.4</ele>
        <time>2021-01-30T11:02:52Z</time>
      </trkpt>
      <trkpt lat="45.18046" lon="5.69544">
        <ele>229.2</ele>
        <time>2021-01-30T11:02:53Z</time>
      </trkpt>
      <trkpt lat="45.18047" lon="5.6954">
        <ele>229.4</ele>
        <time>2021-01-30T11:02:54Z</time>
      </trkpt>
      <trkpt lat="45.18047" lon="5.69537">
        <ele>229.4</ele>
        <time>2021-01-30T11:02:55Z</time>
      </trkpt>
      <trkpt lat="45.18047" lon="5.69532">
        <ele>229.8</ele>
        <time>2021-01-30T11:02:56Z</time>
      </trkpt>
      <trkpt lat="45.18048" lon="5.69529">
        <ele>229.4</ele>
        <time>2021-01-30T11:02:57Z</time>
      </trkpt>
      <trkpt lat="45.18048" lon="5.69525">
        <ele>229.8</ele>
        <time>2021-01-30T11:02:58Z</time>
      </trkpt>
      <trkpt lat="45.18048" lon="5.69522">
        <ele>229.4</ele>
        <time>2021-01-30T11:02:59Z</time>
      </trkpt>
      <trkpt lat="45.18048" lon="5.69518">
        <ele>229.6</ele>
        <time>2021-01-30T11:03:00Z</time>
      </trkpt>
      <trkpt lat="45.18049" lon="5.69515">
        <ele>229.2</ele>
        <time>2021-01-30T11:03:01Z</time>
      </trkpt>
      <trkpt lat="45.18048" lon="5.69511">
        <ele>229.6</ele>
        <time>2021-01-30T11:03:02Z</time>
      </trkpt>
      <trkpt lat="45.18048" lon="5.69507">
        <ele>229.2</ele>
        <time>2021-01-30T11:03:03Z</time>
      </trkpt>
      <trkpt lat="45.18048" lon="5.69504">
        <ele>229.2</ele>
        <time>2021-01-30T11:03:04Z</time>
      </trkpt>
      <trkpt lat="45.18047" lon="5.69501">
        <ele>229.2</ele>
        <time>2021-01-30T11:03:05Z</time>
      </trkpt>
      <trkpt lat="45.18046" lon="5.69497">
        <ele>229.2</ele>
        <time>2021-01-30T11:03:06Z</time>
      </trkpt>
      <trkpt lat="45.18046" lon="5.69493">
        <ele>228.8</ele>
        <time>2021-01-30T11:03:07Z</time>
      </trkpt>
      <trkpt lat="45.18046" lon="5.69489">
        <ele>228.8</ele>
        <time>2021-01-30T11:03:08Z</time>
      </trkpt>
      <trkpt lat="45.18046" lon="5.69485">
        <ele>229.6</ele>
        <time>2021-01-30T11:03:09Z</time>
      </trkpt>
      <trkpt lat="45.18048" lon="5.69472">
        <ele>228.8</ele>
        <time>2021-01-30T11:03:12Z</time>
      </trkpt>
      <trkpt lat="45.18047" lon="5.69457">
        <ele>228.6</ele>
        <time>2021-01-30T11:03:16Z</time>
      </trkpt>
      <trkpt lat="45.18049" lon="5.69444">
        <ele>229.4</ele>
        <time>2021-01-30T11:03:20Z</time>
      </trkpt>
      <trkpt lat="45.18044" lon="5.69432">
        <ele>229.8</ele>
        <time>2021-01-30T11:03:24Z</time>
      </trkpt>
      <trkpt lat="45.18039" lon="5.69419">
        <ele>229.2</ele>
        <time>2021-01-30T11:03:28Z</time>
      </trkpt>
      <trkpt lat="45.18037" lon="5.69405">
        <ele>228.4</ele>
        <time>2021-01-30T11:03:32Z</time>
      </trkpt>
      <trkpt lat="45.18035" lon="5.69393">
        <ele>228.4</ele>
        <time>2021-01-30T11:03:35Z</time>
      </trkpt>
      <trkpt lat="45.18041" lon="5.69383">
        <ele>228.2</ele>
        <time>2021-01-30T11:03:37Z</time>
      </trkpt>
      <trkpt lat="45.18047" lon="5.69372">
        <ele>228.4</ele>
        <time>2021-01-30T11:03:40Z</time>
      </trkpt>
      <trkpt lat="45.1805" lon="5.69366">
        <ele>228.4</ele>
        <time>2021-01-30T11:03:42Z</time>
      </trkpt>
      <trkpt lat="45.18057" lon="5.69356">
        <ele>228.2</ele>
        <time>2021-01-30T11:03:45Z</time>
      </trkpt>
      <trkpt lat="45.18065" lon="5.69347">
        <ele>228</ele>
        <time>2021-01-30T11:03:48Z</time>
      </trkpt>
      <trkpt lat="45.18068" lon="5.69344">
        <ele>228</ele>
        <time>2021-01-30T11:03:49Z</time>
      </trkpt>
      <trkpt lat="45.18072" lon="5.6934">
        <ele>228.4</ele>
        <time>2021-01-30T11:03:51Z</time>
      </trkpt>
      <trkpt lat="45.18075" lon="5.69338">
        <ele>228.4</ele>
        <time>2021-01-30T11:03:52Z</time>
      </trkpt>
      <trkpt lat="45.1808" lon="5.69331">
        <ele>228.4</ele>
        <time>2021-01-30T11:03:55Z</time>
      </trkpt>
      <trkpt lat="45.1808" lon="5.69328">
        <ele>229</ele>
        <time>2021-01-30T11:03:56Z</time>
      </trkpt>
      <trkpt lat="45.18085" lon="5.6932">
        <ele>228.6</ele>
        <time>2021-01-30T11:03:59Z</time>
      </trkpt>
      <trkpt lat="45.18089" lon="5.69314">
        <ele>228.6</ele>
        <time>2021-01-30T11:04:01Z</time>
      </trkpt>
      <trkpt lat="45.18091" lon="5.69312">
        <ele>229</ele>
        <time>2021-01-30T11:04:02Z</time>
      </trkpt>
      <trkpt lat="45.18099" lon="5.69301">
        <ele>227.8</ele>
        <time>2021-01-30T11:04:06Z</time>
      </trkpt>
      <trkpt lat="45.18102" lon="5.69299">
        <ele>227.8</ele>
        <time>2021-01-30T11:04:07Z</time>
      </trkpt>
      <trkpt lat="45.1811" lon="5.69292">
        <ele>227.4</ele>
        <time>2021-01-30T11:04:10Z</time>
      </trkpt>
      <trkpt lat="45.18112" lon="5.6929">
        <ele>227.6</ele>
        <time>2021-01-30T11:04:11Z</time>
      </trkpt>
      <trkpt lat="45.18114" lon="5.69288">
        <ele>227.6</ele>
        <time>2021-01-30T11:04:12Z</time>
      </trkpt>
      <trkpt lat="45.18116" lon="5.69285">
        <ele>227.8</ele>
        <time>2021-01-30T11:04:13Z</time>
      </trkpt>
      <trkpt lat="45.18119" lon="5.69282">
        <ele>227.4</ele>
        <time>2021-01-30T11:04:14Z</time>
      </trkpt>
      <trkpt lat="45.18121" lon="5.6928">
        <ele>227.6</ele>
        <time>2021-01-30T11:04:15Z</time>
      </trkpt>
      <trkpt lat="45.18123" lon="5.69277">
        <ele>227.6</ele>
        <time>2021-01-30T11:04:16Z</time>
      </trkpt>
      <trkpt lat="45.18125" lon="5.69274">
        <ele>227.2</ele>
        <time>2021-01-30T11:04:17Z</time>
      </trkpt>
      <trkpt lat="45.18126" lon="5.6927">
        <ele>227.2</ele>
        <time>2021-01-30T11:04:18Z</time>
      </trkpt>
      <trkpt lat="45.18125" lon="5.69266">
        <ele>227</ele>
        <time>2021-01-30T11:04:19Z</time>
      </trkpt>
      <trkpt lat="45.18123" lon="5.69262">
        <ele>227.2</ele>
        <time>2021-01-30T11:04:20Z</time>
      </trkpt>
      <trkpt lat="45.18122" lon="5.69259">
        <ele>227</ele>
        <time>2021-01-30T11:04:21Z</time>
      </trkpt>
      <trkpt lat="45.1812" lon="5.69255">
        <ele>227</ele>
        <time>2021-01-30T11:04:22Z</time>
      </trkpt>
      <trkpt lat="45.18118" lon="5.69251">
        <ele>226.8</ele>
        <time>2021-01-30T11:04:23Z</time>
      </trkpt>
      <trkpt lat="45.18117" lon="5.69248">
        <ele>227.2</ele>
        <time>2021-01-30T11:04:24Z</time>
      </trkpt>
      <trkpt lat="45.18117" lon="5.69245">
        <ele>227</ele>
        <time>2021-01-30T11:04:25Z</time>
      </trkpt>
      <trkpt lat="45.18116" lon="5.69241">
        <ele>227.4</ele>
        <time>2021-01-30T11:04:26Z</time>
      </trkpt>
      <trkpt lat="45.18116" lon="5.69237">
        <ele>227.2</ele>
        <time>2021-01-30T11:04:27Z</time>
      </trkpt>
      <trkpt lat="45.18116" lon="5.69233">
        <ele>228</ele>
        <time>2021-01-30T11:04:28Z</time>
      </trkpt>
      <trkpt lat="45.18117" lon="5.69229">
        <ele>227.6</ele>
        <time>2021-01-30T11:04:29Z</time>
      </trkpt>
      <trkpt lat="45.18118" lon="5.69225">
        <ele>228.4</ele>
        <time>2021-01-30T11:04:30Z</time>
      </trkpt>
      <trkpt lat="45.18119" lon="5.69222">
        <ele>228</ele>
        <time>2021-01-30T11:04:31Z</time>
      </trkpt>
      <trkpt lat="45.1812" lon="5.69218">
        <ele>228.2</ele>
        <time>2021-01-30T11:04:32Z</time>
      </trkpt>
      <trkpt lat="45.1812" lon="5.69214">
        <ele>227.6</ele>
        <time>2021-01-30T11:04:33Z</time>
      </trkpt>
      <trkpt lat="45.1812" lon="5.6921">
        <ele>227.6</ele>
        <time>2021-01-30T11:04:34Z</time>
      </trkpt>
      <trkpt lat="45.18119" lon="5.69207">
        <ele>227.4</ele>
        <time>2021-01-30T11:04:35Z</time>
      </trkpt>
      <trkpt lat="45.18119" lon="5.69203">
        <ele>227.8</ele>
        <time>2021-01-30T11:04:36Z</time>
      </trkpt>
      <trkpt lat="45.18117" lon="5.69196">
        <ele>227</ele>
        <time>2021-01-30T11:04:38Z</time>
      </trkpt>
      <trkpt lat="45.18116" lon="5.69184">
        <ele>226.8</ele>
        <time>2021-01-30T11:04:41Z</time>
      </trkpt>
      <trkpt lat="45.18114" lon="5.69176">
        <ele>226.8</ele>
        <time>2021-01-30T11:04:43Z</time>
      </trkpt>
      <trkpt lat="45.18113" lon="5.69173">
        <ele>226.8</ele>
        <time>2021-01-30T11:04:44Z</time>
      </trkpt>
      <trkpt lat="45.18112" lon="5.69169">
        <ele>226.4</ele>
        <time>2021-01-30T11:04:45Z</time>
      </trkpt>
      <trkpt lat="45.18111" lon="5.69166">
        <ele>226.4</ele>
        <time>2021-01-30T11:04:46Z</time>
      </trkpt>
      <trkpt lat="45.1811" lon="5.69162">
        <ele>226.8</ele>
        <time>2021-01-30T11:04:47Z</time>
      </trkpt>
      <trkpt lat="45.18109" lon="5.69159">
        <ele>226.6</ele>
        <time>2021-01-30T11:04:48Z</time>
      </trkpt>
      <trkpt lat="45.18109" lon="5.69155">
        <ele>226.4</ele>
        <time>2021-01-30T11:04:49Z</time>
      </trkpt>
      <trkpt lat="45.18108" lon="5.69152">
        <ele>226.4</ele>
        <time>2021-01-30T11:04:50Z</time>
      </trkpt>
      <trkpt lat="45.18107" lon="5.69149">
        <ele>226.8</ele>
        <time>2021-01-30T11:04:51Z</time>
      </trkpt>
      <trkpt lat="45.18107" lon="5.69146">
        <ele>226.8</ele>
        <time>2021-01-30T11:04:52Z</time>
      </trkpt>
      <trkpt lat="45.18106" lon="5.69142">
        <ele>226.6</ele>
        <time>2021-01-30T11:04:53Z</time>
      </trkpt>
      <trkpt lat="45.18105" lon="5.69138">
        <ele>226.8</ele>
        <time>2021-01-30T11:04:54Z</time>
      </trkpt>
      <trkpt lat="45.18104" lon="5.69135">
        <ele>226.6</ele>
        <time>2021-01-30T11:04:55Z</time>
      </trkpt>
      <trkpt lat="45.18103" lon="5.69131">
        <ele>227</ele>
        <time>2021-01-30T11:04:56Z</time>
      </trkpt>
      <trkpt lat="45.18102" lon="5.69128">
        <ele>226.6</ele>
        <time>2021-01-30T11:04:57Z</time>
      </trkpt>
      <trkpt lat="45.18101" lon="5.69124">
        <ele>227</ele>
        <time>2021-01-30T11:04:58Z</time>
      </trkpt>
      <trkpt lat="45.181" lon="5.6912">
        <ele>226.8</ele>
        <time>2021-01-30T11:04:59Z</time>
      </trkpt>
      <trkpt lat="45.18099" lon="5.69116">
        <ele>227</ele>
        <time>2021-01-30T11:05:00Z</time>
      </trkpt>
      <trkpt lat="45.18099" lon="5.69112">
        <ele>226.6</ele>
        <time>2021-01-30T11:05:01Z</time>
      </trkpt>
      <trkpt lat="45.18098" lon="5.69101">
        <ele>227</ele>
        <time>2021-01-30T11:05:04Z</time>
      </trkpt>
      <trkpt lat="45.18097" lon="5.69098">
        <ele>226.8</ele>
        <time>2021-01-30T11:05:05Z</time>
      </trkpt>
      <trkpt lat="45.18095" lon="5.69084">
        <ele>226.8</ele>
        <time>2021-01-30T11:05:09Z</time>
      </trkpt>
      <trkpt lat="45.1809" lon="5.69071">
        <ele>227</ele>
        <time>2021-01-30T11:05:13Z</time>
      </trkpt>
      <trkpt lat="45.18088" lon="5.69057">
        <ele>227.4</ele>
        <time>2021-01-30T11:05:17Z</time>
      </trkpt>
      <trkpt lat="45.18088" lon="5.69041">
        <ele>227.4</ele>
        <time>2021-01-30T11:05:21Z</time>
      </trkpt>
      <trkpt lat="45.18086" lon="5.69026">
        <ele>227.2</ele>
        <time>2021-01-30T11:05:25Z</time>
      </trkpt>
      <trkpt lat="45.18086" lon="5.69021">
        <ele>227</ele>
        <time>2021-01-30T11:05:26Z</time>
      </trkpt>
      <trkpt lat="45.18085" lon="5.69017">
        <ele>226.6</ele>
        <time>2021-01-30T11:05:27Z</time>
      </trkpt>
      <trkpt lat="45.18084" lon="5.69013">
        <ele>226.4</ele>
        <time>2021-01-30T11:05:28Z</time>
      </trkpt>
      <trkpt lat="45.18082" lon="5.69009">
        <ele>226.4</ele>
        <time>2021-01-30T11:05:29Z</time>
      </trkpt>
      <trkpt lat="45.18082" lon="5.69005">
        <ele>226.6</ele>
        <time>2021-01-30T11:05:30Z</time>
      </trkpt>
      <trkpt lat="45.18081" lon="5.69002">
        <ele>226.4</ele>
        <time>2021-01-30T11:05:31Z</time>
      </trkpt>
      <trkpt lat="45.18081" lon="5.68999">
        <ele>226.2</ele>
        <time>2021-01-30T11:05:32Z</time>
      </trkpt>
      <trkpt lat="45.1808" lon="5.68995">
        <ele>226</ele>
        <time>2021-01-30T11:05:33Z</time>
      </trkpt>
      <trkpt lat="45.1808" lon="5.68992">
        <ele>226.4</ele>
        <time>2021-01-30T11:05:34Z</time>
      </trkpt>
      <trkpt lat="45.1808" lon="5.68988">
        <ele>226.2</ele>
        <time>2021-01-30T11:05:35Z</time>
      </trkpt>
      <trkpt lat="45.1808" lon="5.68984">
        <ele>226.2</ele>
        <time>2021-01-30T11:05:36Z</time>
      </trkpt>
      <trkpt lat="45.1808" lon="5.6898">
        <ele>226.2</ele>
        <time>2021-01-30T11:05:37Z</time>
      </trkpt>
      <trkpt lat="45.1808" lon="5.68977">
        <ele>226.4</ele>
        <time>2021-01-30T11:05:38Z</time>
      </trkpt>
      <trkpt lat="45.1808" lon="5.68974">
        <ele>226.4</ele>
        <time>2021-01-30T11:05:39Z</time>
      </trkpt>
      <trkpt lat="45.1808" lon="5.68972">
        <ele>226.2</ele>
        <time>2021-01-30T11:05:40Z</time>
      </trkpt>
      <trkpt lat="45.18076" lon="5.68958">
        <ele>226.6</ele>
        <time>2021-01-30T11:05:45Z</time>
      </trkpt>
      <trkpt lat="45.18074" lon="5.68945">
        <ele>227</ele>
        <time>2021-01-30T11:05:50Z</time>
      </trkpt>
      <trkpt lat="45.1808" lon="5.6894">
        <ele>227</ele>
        <time>2021-01-30T11:05:54Z</time>
      </trkpt>
      <trkpt lat="45.18085" lon="5.68941">
        <ele>226.8</ele>
        <time>2021-01-30T11:05:57Z</time>
      </trkpt>
      <trkpt lat="45.18089" lon="5.68943">
        <ele>226.6</ele>
        <time>2021-01-30T11:05:59Z</time>
      </trkpt>
      <trkpt lat="45.18091" lon="5.68944">
        <ele>226.6</ele>
        <time>2021-01-30T11:06:02Z</time>
      </trkpt>
      <trkpt lat="45.18093" lon="5.68941">
        <ele>225.8</ele>
        <time>2021-01-30T11:06:04Z</time>
      </trkpt>
      <trkpt lat="45.18099" lon="5.68938">
        <ele>226.2</ele>
        <time>2021-01-30T11:06:08Z</time>
      </trkpt>
      <trkpt lat="45.18101" lon="5.68938">
        <ele>226.2</ele>
        <time>2021-01-30T11:06:09Z</time>
      </trkpt>
      <trkpt lat="45.18103" lon="5.68939">
        <ele>226.2</ele>
        <time>2021-01-30T11:06:11Z</time>
      </trkpt>
      <trkpt lat="45.18114" lon="5.68939">
        <ele>226.8</ele>
        <time>2021-01-30T11:06:17Z</time>
      </trkpt>
      <trkpt lat="45.18127" lon="5.68933">
        <ele>226.4</ele>
        <time>2021-01-30T11:06:20Z</time>
      </trkpt>
      <trkpt lat="45.18139" lon="5.6893">
        <ele>226.6</ele>
        <time>2021-01-30T11:06:22Z</time>
      </trkpt>
      <trkpt lat="45.18151" lon="5.68927">
        <ele>226.6</ele>
        <time>2021-01-30T11:06:24Z</time>
      </trkpt>
      <trkpt lat="45.18164" lon="5.68926">
        <ele>226.6</ele>
        <time>2021-01-30T11:06:27Z</time>
      </trkpt>
      <trkpt lat="45.18174" lon="5.68927">
        <ele>226.2</ele>
        <time>2021-01-30T11:06:30Z</time>
      </trkpt>
      <trkpt lat="45.18184" lon="5.68924">
        <ele>226</ele>
        <time>2021-01-30T11:06:33Z</time>
      </trkpt>
      <trkpt lat="45.18189" lon="5.68922">
        <ele>226</ele>
        <time>2021-01-30T11:06:35Z</time>
      </trkpt>
      <trkpt lat="45.18192" lon="5.68921">
        <ele>226.2</ele>
        <time>2021-01-30T11:06:37Z</time>
      </trkpt>
      <trkpt lat="45.18195" lon="5.68921">
        <ele>226.4</ele>
        <time>2021-01-30T11:06:38Z</time>
      </trkpt>
      <trkpt lat="45.18197" lon="5.6892">
        <ele>226.2</ele>
        <time>2021-01-30T11:06:39Z</time>
      </trkpt>
      <trkpt lat="45.18207" lon="5.68914">
        <ele>226.6</ele>
        <time>2021-01-30T11:06:43Z</time>
      </trkpt>
      <trkpt lat="45.18209" lon="5.68909">
        <ele>227.2</ele>
        <time>2021-01-30T11:06:44Z</time>
      </trkpt>
      <trkpt lat="45.18211" lon="5.68903">
        <ele>226.8</ele>
        <time>2021-01-30T11:06:45Z</time>
      </trkpt>
      <trkpt lat="45.18212" lon="5.68897">
        <ele>227</ele>
        <time>2021-01-30T11:06:46Z</time>
      </trkpt>
      <trkpt lat="45.18212" lon="5.68892">
        <ele>226.6</ele>
        <time>2021-01-30T11:06:47Z</time>
      </trkpt>
      <trkpt lat="45.18212" lon="5.68887">
        <ele>227.2</ele>
        <time>2021-01-30T11:06:48Z</time>
      </trkpt>
      <trkpt lat="45.18213" lon="5.68882">
        <ele>227</ele>
        <time>2021-01-30T11:06:49Z</time>
      </trkpt>
      <trkpt lat="45.18213" lon="5.68876">
        <ele>227.8</ele>
        <time>2021-01-30T11:06:50Z</time>
      </trkpt>
      <trkpt lat="45.18211" lon="5.68868">
        <ele>227.8</ele>
        <time>2021-01-30T11:06:52Z</time>
      </trkpt>
      <trkpt lat="45.18211" lon="5.68864">
        <ele>227.2</ele>
        <time>2021-01-30T11:06:53Z</time>
      </trkpt>
      <trkpt lat="45.18211" lon="5.6886">
        <ele>227.6</ele>
        <time>2021-01-30T11:06:54Z</time>
      </trkpt>
      <trkpt lat="45.1821" lon="5.68856">
        <ele>227.2</ele>
        <time>2021-01-30T11:06:55Z</time>
      </trkpt>
      <trkpt lat="45.1821" lon="5.68853">
        <ele>227.6</ele>
        <time>2021-01-30T11:06:56Z</time>
      </trkpt>
      <trkpt lat="45.18209" lon="5.6885">
        <ele>227.2</ele>
        <time>2021-01-30T11:06:57Z</time>
      </trkpt>
      <trkpt lat="45.18208" lon="5.68846">
        <ele>227.4</ele>
        <time>2021-01-30T11:06:58Z</time>
      </trkpt>
      <trkpt lat="45.18207" lon="5.68842">
        <ele>227.2</ele>
        <time>2021-01-30T11:06:59Z</time>
      </trkpt>
      <trkpt lat="45.18206" lon="5.68839">
        <ele>227.2</ele>
        <time>2021-01-30T11:07:00Z</time>
      </trkpt>
      <trkpt lat="45.18206" lon="5.68835">
        <ele>226.8</ele>
        <time>2021-01-30T11:07:01Z</time>
      </trkpt>
      <trkpt lat="45.18205" lon="5.68831">
        <ele>226.6</ele>
        <time>2021-01-30T11:07:02Z</time>
      </trkpt>
      <trkpt lat="45.18205" lon="5.68828">
        <ele>226.8</ele>
        <time>2021-01-30T11:07:03Z</time>
      </trkpt>
      <trkpt lat="45.18206" lon="5.68824">
        <ele>226.6</ele>
        <time>2021-01-30T11:07:04Z</time>
      </trkpt>
      <trkpt lat="45.18206" lon="5.68821">
        <ele>227</ele>
        <time>2021-01-30T11:07:05Z</time>
      </trkpt>
      <trkpt lat="45.18206" lon="5.68814">
        <ele>227.8</ele>
        <time>2021-01-30T11:07:07Z</time>
      </trkpt>
      <trkpt lat="45.18206" lon="5.6881">
        <ele>227.4</ele>
        <time>2021-01-30T11:07:08Z</time>
      </trkpt>
      <trkpt lat="45.18202" lon="5.68798">
        <ele>227.6</ele>
        <time>2021-01-30T11:07:12Z</time>
      </trkpt>
      <trkpt lat="45.18198" lon="5.68786">
        <ele>227.2</ele>
        <time>2021-01-30T11:07:16Z</time>
      </trkpt>
      <trkpt lat="45.18206" lon="5.68777">
        <ele>227.6</ele>
        <time>2021-01-30T11:07:22Z</time>
      </trkpt>
      <trkpt lat="45.18208" lon="5.68776">
        <ele>228</ele>
        <time>2021-01-30T11:07:23Z</time>
      </trkpt>
      <trkpt lat="45.18209" lon="5.68775">
        <ele>227.6</ele>
        <time>2021-01-30T11:07:24Z</time>
      </trkpt>
      <trkpt lat="45.18211" lon="5.68773">
        <ele>228.2</ele>
        <time>2021-01-30T11:07:25Z</time>
      </trkpt>
      <trkpt lat="45.18212" lon="5.68769">
        <ele>227.6</ele>
        <time>2021-01-30T11:07:26Z</time>
      </trkpt>
      <trkpt lat="45.18212" lon="5.68765">
        <ele>228.2</ele>
        <time>2021-01-30T11:07:27Z</time>
      </trkpt>
      <trkpt lat="45.18213" lon="5.68761">
        <ele>227.4</ele>
        <time>2021-01-30T11:07:28Z</time>
      </trkpt>
      <trkpt lat="45.18214" lon="5.68749">
        <ele>226.6</ele>
        <time>2021-01-30T11:07:31Z</time>
      </trkpt>
      <trkpt lat="45.18215" lon="5.68746">
        <ele>226.4</ele>
        <time>2021-01-30T11:07:32Z</time>
      </trkpt>
      <trkpt lat="45.18216" lon="5.68743">
        <ele>226.4</ele>
        <time>2021-01-30T11:07:33Z</time>
      </trkpt>
      <trkpt lat="45.18218" lon="5.6874">
        <ele>226.2</ele>
        <time>2021-01-30T11:07:35Z</time>
      </trkpt>
      <trkpt lat="45.18222" lon="5.68738">
        <ele>226.4</ele>
        <time>2021-01-30T11:07:37Z</time>
      </trkpt>
      <trkpt lat="45.18224" lon="5.68737">
        <ele>226.2</ele>
        <time>2021-01-30T11:07:38Z</time>
      </trkpt>
      <trkpt lat="45.18226" lon="5.68736">
        <ele>226.2</ele>
        <time>2021-01-30T11:07:39Z</time>
      </trkpt>
      <trkpt lat="45.18227" lon="5.68734">
        <ele>226.2</ele>
        <time>2021-01-30T11:07:40Z</time>
      </trkpt>
      <trkpt lat="45.18229" lon="5.68732">
        <ele>226</ele>
        <time>2021-01-30T11:07:41Z</time>
      </trkpt>
      <trkpt lat="45.18232" lon="5.6873">
        <ele>226</ele>
        <time>2021-01-30T11:07:44Z</time>
      </trkpt>
      <trkpt lat="45.18235" lon="5.6873">
        <ele>225.6</ele>
        <time>2021-01-30T11:07:45Z</time>
      </trkpt>
      <trkpt lat="45.18242" lon="5.68732">
        <ele>226</ele>
        <time>2021-01-30T11:07:48Z</time>
      </trkpt>
      <trkpt lat="45.18244" lon="5.68732">
        <ele>226</ele>
        <time>2021-01-30T11:07:49Z</time>
      </trkpt>
      <trkpt lat="45.18247" lon="5.68732">
        <ele>226.2</ele>
        <time>2021-01-30T11:07:50Z</time>
      </trkpt>
      <trkpt lat="45.18249" lon="5.68732">
        <ele>226.4</ele>
        <time>2021-01-30T11:07:51Z</time>
      </trkpt>
      <trkpt lat="45.18252" lon="5.68732">
        <ele>226.2</ele>
        <time>2021-01-30T11:07:52Z</time>
      </trkpt>
      <trkpt lat="45.18255" lon="5.68732">
        <ele>226.4</ele>
        <time>2021-01-30T11:07:53Z</time>
      </trkpt>
      <trkpt lat="45.18258" lon="5.68732">
        <ele>226.2</ele>
        <time>2021-01-30T11:07:54Z</time>
      </trkpt>
      <trkpt lat="45.18267" lon="5.68731">
        <ele>226</ele>
        <time>2021-01-30T11:07:58Z</time>
      </trkpt>
      <trkpt lat="45.1827" lon="5.68729">
        <ele>225.8</ele>
        <time>2021-01-30T11:07:59Z</time>
      </trkpt>
      <trkpt lat="45.18273" lon="5.68729">
        <ele>226</ele>
        <time>2021-01-30T11:08:00Z</time>
      </trkpt>
      <trkpt lat="45.18275" lon="5.68728">
        <ele>226.2</ele>
        <time>2021-01-30T11:08:01Z</time>
      </trkpt>
      <trkpt lat="45.18277" lon="5.68728">
        <ele>226.4</ele>
        <time>2021-01-30T11:08:02Z</time>
      </trkpt>
      <trkpt lat="45.18279" lon="5.68729">
        <ele>226.2</ele>
        <time>2021-01-30T11:08:04Z</time>
      </trkpt>
      <trkpt lat="45.18283" lon="5.6873">
        <ele>226.2</ele>
        <time>2021-01-30T11:08:06Z</time>
      </trkpt>
      <trkpt lat="45.18286" lon="5.6873">
        <ele>226.2</ele>
        <time>2021-01-30T11:08:08Z</time>
      </trkpt>
      <trkpt lat="45.18288" lon="5.68732">
        <ele>226.2</ele>
        <time>2021-01-30T11:08:10Z</time>
      </trkpt>
      <trkpt lat="45.18291" lon="5.68733">
        <ele>226.2</ele>
        <time>2021-01-30T11:08:12Z</time>
      </trkpt>
      <trkpt lat="45.18294" lon="5.68734">
        <ele>226.2</ele>
        <time>2021-01-30T11:08:14Z</time>
      </trkpt>
      <trkpt lat="45.18297" lon="5.68736">
        <ele>226.4</ele>
        <time>2021-01-30T11:08:16Z</time>
      </trkpt>
      <trkpt lat="45.18299" lon="5.68738">
        <ele>226.6</ele>
        <time>2021-01-30T11:08:18Z</time>
      </trkpt>
      <trkpt lat="45.18301" lon="5.6874">
        <ele>226.8</ele>
        <time>2021-01-30T11:08:20Z</time>
      </trkpt>
      <trkpt lat="45.18304" lon="5.6874">
        <ele>226.8</ele>
        <time>2021-01-30T11:08:22Z</time>
      </trkpt>
      <trkpt lat="45.18306" lon="5.68741">
        <ele>226.8</ele>
        <time>2021-01-30T11:08:24Z</time>
      </trkpt>
      <trkpt lat="45.18309" lon="5.68742">
        <ele>226.6</ele>
        <time>2021-01-30T11:08:26Z</time>
      </trkpt>
      <trkpt lat="45.18311" lon="5.68744">
        <ele>226.6</ele>
        <time>2021-01-30T11:08:28Z</time>
      </trkpt>
      <trkpt lat="45.18314" lon="5.68745">
        <ele>226.8</ele>
        <time>2021-01-30T11:08:30Z</time>
      </trkpt>
      <trkpt lat="45.18317" lon="5.68747">
        <ele>227.2</ele>
        <time>2021-01-30T11:08:32Z</time>
      </trkpt>
      <trkpt lat="45.18319" lon="5.68747">
        <ele>227.2</ele>
        <time>2021-01-30T11:08:34Z</time>
      </trkpt>
      <trkpt lat="45.18321" lon="5.68745">
        <ele>228</ele>
        <time>2021-01-30T11:08:38Z</time>
      </trkpt>
      <trkpt lat="45.18323" lon="5.68747">
        <ele>228</ele>
        <time>2021-01-30T11:08:44Z</time>
      </trkpt>
      <trkpt lat="45.18325" lon="5.68749">
        <ele>228.2</ele>
        <time>2021-01-30T11:08:46Z</time>
      </trkpt>
      <trkpt lat="45.18327" lon="5.6875">
        <ele>228.6</ele>
        <time>2021-01-30T11:08:47Z</time>
      </trkpt>
      <trkpt lat="45.18329" lon="5.68751">
        <ele>229</ele>
        <time>2021-01-30T11:08:48Z</time>
      </trkpt>
      <trkpt lat="45.18338" lon="5.68748">
        <ele>231</ele>
        <time>2021-01-30T11:08:54Z</time>
      </trkpt>
      <trkpt lat="45.18344" lon="5.68734">
        <ele>235.4</ele>
        <time>2021-01-30T11:09:02Z</time>
      </trkpt>
      <trkpt lat="45.18345" lon="5.68721">
        <ele>237.2</ele>
        <time>2021-01-30T11:09:06Z</time>
      </trkpt>
      <trkpt lat="45.18345" lon="5.68707">
        <ele>239.2</ele>
        <time>2021-01-30T11:09:12Z</time>
      </trkpt>
      <trkpt lat="45.1834" lon="5.68695">
        <ele>243</ele>
        <time>2021-01-30T11:09:21Z</time>
      </trkpt>
      <trkpt lat="45.18333" lon="5.68686">
        <ele>244.8</ele>
        <time>2021-01-30T11:09:26Z</time>
      </trkpt>
      <trkpt lat="45.18333" lon="5.68677">
        <ele>249</ele>
        <time>2021-01-30T11:09:36Z</time>
      </trkpt>
      <trkpt lat="45.18335" lon="5.68671">
        <ele>250.6</ele>
        <time>2021-01-30T11:09:39Z</time>
      </trkpt>
      <trkpt lat="45.18335" lon="5.68668">
        <ele>252.2</ele>
        <time>2021-01-30T11:09:43Z</time>
      </trkpt>
      <trkpt lat="45.18336" lon="5.68664">
        <ele>252.4</ele>
        <time>2021-01-30T11:09:45Z</time>
      </trkpt>
      <trkpt lat="45.18336" lon="5.68659">
        <ele>255.6</ele>
        <time>2021-01-30T11:09:52Z</time>
      </trkpt>
      <trkpt lat="45.18338" lon="5.68656">
        <ele>256.2</ele>
        <time>2021-01-30T11:09:54Z</time>
      </trkpt>
      <trkpt lat="45.1834" lon="5.68653">
        <ele>257</ele>
        <time>2021-01-30T11:09:56Z</time>
      </trkpt>
      <trkpt lat="45.18341" lon="5.68651">
        <ele>258.4</ele>
        <time>2021-01-30T11:09:58Z</time>
      </trkpt>
      <trkpt lat="45.18343" lon="5.68649">
        <ele>252.2</ele>
        <time>2021-01-30T11:10:00Z</time>
      </trkpt>
      <trkpt lat="45.18344" lon="5.68647">
        <ele>259.2</ele>
        <time>2021-01-30T11:10:02Z</time>
      </trkpt>
      <trkpt lat="45.18346" lon="5.68644">
        <ele>260</ele>
        <time>2021-01-30T11:10:04Z</time>
      </trkpt>
      <trkpt lat="45.18347" lon="5.68641">
        <ele>261</ele>
        <time>2021-01-30T11:10:06Z</time>
      </trkpt>
      <trkpt lat="45.18349" lon="5.68639">
        <ele>262</ele>
        <time>2021-01-30T11:10:08Z</time>
      </trkpt>
      <trkpt lat="45.1835" lon="5.68636">
        <ele>262.6</ele>
        <time>2021-01-30T11:10:10Z</time>
      </trkpt>
      <trkpt lat="45.1835" lon="5.68633">
        <ele>263.8</ele>
        <time>2021-01-30T11:10:12Z</time>
      </trkpt>
      <trkpt lat="45.18352" lon="5.68632">
        <ele>265.2</ele>
        <time>2021-01-30T11:10:15Z</time>
      </trkpt>
      <trkpt lat="45.18355" lon="5.68633">
        <ele>266.8</ele>
        <time>2021-01-30T11:10:19Z</time>
      </trkpt>
      <trkpt lat="45.18358" lon="5.68642">
        <ele>269.8</ele>
        <time>2021-01-30T11:11:08Z</time>
      </trkpt>
      <trkpt lat="45.1836" lon="5.68646">
        <ele>269.6</ele>
        <time>2021-01-30T11:11:10Z</time>
      </trkpt>
      <trkpt lat="45.18362" lon="5.68648">
        <ele>270.2</ele>
        <time>2021-01-30T11:11:11Z</time>
      </trkpt>
      <trkpt lat="45.18364" lon="5.6865">
        <ele>270</ele>
        <time>2021-01-30T11:11:12Z</time>
      </trkpt>
      <trkpt lat="45.18366" lon="5.68652">
        <ele>270.6</ele>
        <time>2021-01-30T11:11:13Z</time>
      </trkpt>
      <trkpt lat="45.18369" lon="5.68653">
        <ele>270.4</ele>
        <time>2021-01-30T11:11:14Z</time>
      </trkpt>
      <trkpt lat="45.18371" lon="5.68655">
        <ele>270.4</ele>
        <time>2021-01-30T11:11:15Z</time>
      </trkpt>
      <trkpt lat="45.18372" lon="5.68656">
        <ele>270.6</ele>
        <time>2021-01-30T11:11:16Z</time>
      </trkpt>
      <trkpt lat="45.18375" lon="5.68657">
        <ele>270.6</ele>
        <time>2021-01-30T11:11:17Z</time>
      </trkpt>
      <trkpt lat="45.18376" lon="5.68659">
        <ele>270.8</ele>
        <time>2021-01-30T11:11:18Z</time>
      </trkpt>
      <trkpt lat="45.18377" lon="5.68661">
        <ele>271</ele>
        <time>2021-01-30T11:11:19Z</time>
      </trkpt>
      <trkpt lat="45.18379" lon="5.68664">
        <ele>271.6</ele>
        <time>2021-01-30T11:11:21Z</time>
      </trkpt>
      <trkpt lat="45.1838" lon="5.68667">
        <ele>272</ele>
        <time>2021-01-30T11:11:22Z</time>
      </trkpt>
      <trkpt lat="45.18385" lon="5.6867">
        <ele>272.6</ele>
        <time>2021-01-30T11:11:24Z</time>
      </trkpt>
      <trkpt lat="45.18386" lon="5.68672">
        <ele>273</ele>
        <time>2021-01-30T11:11:25Z</time>
      </trkpt>
      <trkpt lat="45.18389" lon="5.68673">
        <ele>273.4</ele>
        <time>2021-01-30T11:11:26Z</time>
      </trkpt>
      <trkpt lat="45.18391" lon="5.68673">
        <ele>273.8</ele>
        <time>2021-01-30T11:11:27Z</time>
      </trkpt>
      <trkpt lat="45.18392" lon="5.68673">
        <ele>274</ele>
        <time>2021-01-30T11:11:28Z</time>
      </trkpt>
      <trkpt lat="45.18394" lon="5.68674">
        <ele>274</ele>
        <time>2021-01-30T11:11:29Z</time>
      </trkpt>
      <trkpt lat="45.18396" lon="5.68674">
        <ele>274.4</ele>
        <time>2021-01-30T11:11:30Z</time>
      </trkpt>
      <trkpt lat="45.18399" lon="5.68674">
        <ele>274.6</ele>
        <time>2021-01-30T11:11:31Z</time>
      </trkpt>
      <trkpt lat="45.18401" lon="5.68673">
        <ele>275</ele>
        <time>2021-01-30T11:11:32Z</time>
      </trkpt>
      <trkpt lat="45.18403" lon="5.68672">
        <ele>275</ele>
        <time>2021-01-30T11:11:33Z</time>
      </trkpt>
      <trkpt lat="45.18406" lon="5.68672">
        <ele>275.8</ele>
        <time>2021-01-30T11:11:35Z</time>
      </trkpt>
      <trkpt lat="45.18408" lon="5.6867">
        <ele>276.2</ele>
        <time>2021-01-30T11:11:36Z</time>
      </trkpt>
      <trkpt lat="45.1841" lon="5.68668">
        <ele>276.6</ele>
        <time>2021-01-30T11:11:38Z</time>
      </trkpt>
      <trkpt lat="45.18411" lon="5.68665">
        <ele>277</ele>
        <time>2021-01-30T11:11:40Z</time>
      </trkpt>
      <trkpt lat="45.18413" lon="5.68661">
        <ele>277.4</ele>
        <time>2021-01-30T11:11:42Z</time>
      </trkpt>
      <trkpt lat="45.18414" lon="5.6866">
        <ele>277.8</ele>
        <time>2021-01-30T11:11:44Z</time>
      </trkpt>
      <trkpt lat="45.18416" lon="5.68657">
        <ele>278.4</ele>
        <time>2021-01-30T11:11:46Z</time>
      </trkpt>
      <trkpt lat="45.18417" lon="5.68654">
        <ele>279.4</ele>
        <time>2021-01-30T11:11:48Z</time>
      </trkpt>
      <trkpt lat="45.18419" lon="5.68652">
        <ele>280.2</ele>
        <time>2021-01-30T11:11:50Z</time>
      </trkpt>
      <trkpt lat="45.18421" lon="5.6865">
        <ele>281</ele>
        <time>2021-01-30T11:11:52Z</time>
      </trkpt>
      <trkpt lat="45.18424" lon="5.68648">
        <ele>281.6</ele>
        <time>2021-01-30T11:11:54Z</time>
      </trkpt>
      <trkpt lat="45.18426" lon="5.68644">
        <ele>281.8</ele>
        <time>2021-01-30T11:11:56Z</time>
      </trkpt>
      <trkpt lat="45.18427" lon="5.68642">
        <ele>282</ele>
        <time>2021-01-30T11:11:57Z</time>
      </trkpt>
      <trkpt lat="45.18429" lon="5.68639">
        <ele>282.4</ele>
        <time>2021-01-30T11:11:58Z</time>
      </trkpt>
      <trkpt lat="45.18432" lon="5.68636">
        <ele>282.6</ele>
        <time>2021-01-30T11:12:00Z</time>
      </trkpt>
      <trkpt lat="45.18434" lon="5.68634">
        <ele>283</ele>
        <time>2021-01-30T11:12:01Z</time>
      </trkpt>
      <trkpt lat="45.18435" lon="5.68632">
        <ele>283.2</ele>
        <time>2021-01-30T11:12:02Z</time>
      </trkpt>
      <trkpt lat="45.18437" lon="5.68629">
        <ele>283.4</ele>
        <time>2021-01-30T11:12:03Z</time>
      </trkpt>
      <trkpt lat="45.18437" lon="5.68627">
        <ele>283.4</ele>
        <time>2021-01-30T11:12:04Z</time>
      </trkpt>
      <trkpt lat="45.18438" lon="5.68624">
        <ele>283.4</ele>
        <time>2021-01-30T11:12:05Z</time>
      </trkpt>
      <trkpt lat="45.18439" lon="5.68619">
        <ele>284.4</ele>
        <time>2021-01-30T11:12:07Z</time>
      </trkpt>
      <trkpt lat="45.18439" lon="5.68616">
        <ele>284.6</ele>
        <time>2021-01-30T11:12:08Z</time>
      </trkpt>
      <trkpt lat="45.18438" lon="5.68613">
        <ele>284.6</ele>
        <time>2021-01-30T11:12:09Z</time>
      </trkpt>
      <trkpt lat="45.18438" lon="5.6861">
        <ele>284.6</ele>
        <time>2021-01-30T11:12:10Z</time>
      </trkpt>
      <trkpt lat="45.18437" lon="5.68607">
        <ele>284.8</ele>
        <time>2021-01-30T11:12:11Z</time>
      </trkpt>
      <trkpt lat="45.18437" lon="5.68604">
        <ele>285.2</ele>
        <time>2021-01-30T11:12:12Z</time>
      </trkpt>
      <trkpt lat="45.18436" lon="5.68602">
        <ele>285.4</ele>
        <time>2021-01-30T11:12:13Z</time>
      </trkpt>
      <trkpt lat="45.18434" lon="5.68597">
        <ele>285.4</ele>
        <time>2021-01-30T11:12:15Z</time>
      </trkpt>
      <trkpt lat="45.18434" lon="5.68594">
        <ele>285.6</ele>
        <time>2021-01-30T11:12:16Z</time>
      </trkpt>
      <trkpt lat="45.18433" lon="5.6859">
        <ele>285.8</ele>
        <time>2021-01-30T11:12:18Z</time>
      </trkpt>
      <trkpt lat="45.18433" lon="5.68583">
        <ele>287.2</ele>
        <time>2021-01-30T11:12:21Z</time>
      </trkpt>
      <trkpt lat="45.18433" lon="5.68578">
        <ele>287.4</ele>
        <time>2021-01-30T11:12:23Z</time>
      </trkpt>
      <trkpt lat="45.18432" lon="5.68573">
        <ele>287.8</ele>
        <time>2021-01-30T11:12:25Z</time>
      </trkpt>
      <trkpt lat="45.18432" lon="5.68568">
        <ele>288.4</ele>
        <time>2021-01-30T11:12:27Z</time>
      </trkpt>
      <trkpt lat="45.18432" lon="5.68562">
        <ele>289</ele>
        <time>2021-01-30T11:12:29Z</time>
      </trkpt>
      <trkpt lat="45.18432" lon="5.6856">
        <ele>289.4</ele>
        <time>2021-01-30T11:12:30Z</time>
      </trkpt>
      <trkpt lat="45.18433" lon="5.68555">
        <ele>290</ele>
        <time>2021-01-30T11:12:32Z</time>
      </trkpt>
      <trkpt lat="45.18433" lon="5.68551">
        <ele>290.6</ele>
        <time>2021-01-30T11:12:34Z</time>
      </trkpt>
      <trkpt lat="45.18434" lon="5.68548">
        <ele>290.8</ele>
        <time>2021-01-30T11:12:35Z</time>
      </trkpt>
      <trkpt lat="45.18435" lon="5.68544">
        <ele>291.6</ele>
        <time>2021-01-30T11:12:37Z</time>
      </trkpt>
      <trkpt lat="45.18437" lon="5.68541">
        <ele>292.2</ele>
        <time>2021-01-30T11:12:39Z</time>
      </trkpt>
      <trkpt lat="45.18438" lon="5.68538">
        <ele>292.8</ele>
        <time>2021-01-30T11:12:41Z</time>
      </trkpt>
      <trkpt lat="45.18438" lon="5.68534">
        <ele>293.2</ele>
        <time>2021-01-30T11:12:43Z</time>
      </trkpt>
      <trkpt lat="45.18438" lon="5.68531">
        <ele>293.4</ele>
        <time>2021-01-30T11:12:44Z</time>
      </trkpt>
      <trkpt lat="45.18438" lon="5.68529">
        <ele>293.2</ele>
        <time>2021-01-30T11:12:45Z</time>
      </trkpt>
      <trkpt lat="45.18439" lon="5.68525">
        <ele>293.4</ele>
        <time>2021-01-30T11:12:47Z</time>
      </trkpt>
      <trkpt lat="45.18439" lon="5.68522">
        <ele>293.6</ele>
        <time>2021-01-30T11:12:48Z</time>
      </trkpt>
      <trkpt lat="45.1844" lon="5.6852">
        <ele>293.6</ele>
        <time>2021-01-30T11:12:49Z</time>
      </trkpt>
      <trkpt lat="45.18441" lon="5.68517">
        <ele>293.8</ele>
        <time>2021-01-30T11:12:50Z</time>
      </trkpt>
      <trkpt lat="45.18442" lon="5.68514">
        <ele>293.8</ele>
        <time>2021-01-30T11:12:51Z</time>
      </trkpt>
      <trkpt lat="45.18442" lon="5.68512">
        <ele>294</ele>
        <time>2021-01-30T11:12:52Z</time>
      </trkpt>
      <trkpt lat="45.18443" lon="5.68507">
        <ele>295.4</ele>
        <time>2021-01-30T11:12:54Z</time>
      </trkpt>
      <trkpt lat="45.18444" lon="5.68502">
        <ele>295.8</ele>
        <time>2021-01-30T11:12:56Z</time>
      </trkpt>
      <trkpt lat="45.18445" lon="5.68498">
        <ele>295.8</ele>
        <time>2021-01-30T11:12:58Z</time>
      </trkpt>
      <trkpt lat="45.18445" lon="5.68495">
        <ele>296</ele>
        <time>2021-01-30T11:12:59Z</time>
      </trkpt>
      <trkpt lat="45.18447" lon="5.6849">
        <ele>296.6</ele>
        <time>2021-01-30T11:13:01Z</time>
      </trkpt>
      <trkpt lat="45.18449" lon="5.68488">
        <ele>296.6</ele>
        <time>2021-01-30T11:13:02Z</time>
      </trkpt>
      <trkpt lat="45.1845" lon="5.68486">
        <ele>297.2</ele>
        <time>2021-01-30T11:13:03Z</time>
      </trkpt>
      <trkpt lat="45.18451" lon="5.68484">
        <ele>297.4</ele>
        <time>2021-01-30T11:13:04Z</time>
      </trkpt>
      <trkpt lat="45.18452" lon="5.68481">
        <ele>297.4</ele>
        <time>2021-01-30T11:13:05Z</time>
      </trkpt>
      <trkpt lat="45.18453" lon="5.68478">
        <ele>297.2</ele>
        <time>2021-01-30T11:13:06Z</time>
      </trkpt>
      <trkpt lat="45.18454" lon="5.68476">
        <ele>297.2</ele>
        <time>2021-01-30T11:13:07Z</time>
      </trkpt>
      <trkpt lat="45.18456" lon="5.68472">
        <ele>297.8</ele>
        <time>2021-01-30T11:13:09Z</time>
      </trkpt>
      <trkpt lat="45.18458" lon="5.68469">
        <ele>298.2</ele>
        <time>2021-01-30T11:13:11Z</time>
      </trkpt>
      <trkpt lat="45.1846" lon="5.68467">
        <ele>299.4</ele>
        <time>2021-01-30T11:13:13Z</time>
      </trkpt>
      <trkpt lat="45.18461" lon="5.68463">
        <ele>299.2</ele>
        <time>2021-01-30T11:13:15Z</time>
      </trkpt>
      <trkpt lat="45.18462" lon="5.68458">
        <ele>300</ele>
        <time>2021-01-30T11:13:17Z</time>
      </trkpt>
      <trkpt lat="45.18462" lon="5.68455">
        <ele>300.6</ele>
        <time>2021-01-30T11:13:18Z</time>
      </trkpt>
      <trkpt lat="45.18463" lon="5.68451">
        <ele>300.6</ele>
        <time>2021-01-30T11:13:19Z</time>
      </trkpt>
      <trkpt lat="45.18464" lon="5.68448">
        <ele>300.8</ele>
        <time>2021-01-30T11:13:20Z</time>
      </trkpt>
      <trkpt lat="45.18465" lon="5.68444">
        <ele>301</ele>
        <time>2021-01-30T11:13:21Z</time>
      </trkpt>
      <trkpt lat="45.18466" lon="5.6844">
        <ele>301.2</ele>
        <time>2021-01-30T11:13:22Z</time>
      </trkpt>
      <trkpt lat="45.18467" lon="5.68438">
        <ele>301.6</ele>
        <time>2021-01-30T11:13:23Z</time>
      </trkpt>
      <trkpt lat="45.18468" lon="5.68434">
        <ele>301.4</ele>
        <time>2021-01-30T11:13:24Z</time>
      </trkpt>
      <trkpt lat="45.18469" lon="5.68431">
        <ele>301.8</ele>
        <time>2021-01-30T11:13:25Z</time>
      </trkpt>
      <trkpt lat="45.18469" lon="5.68428">
        <ele>301.8</ele>
        <time>2021-01-30T11:13:26Z</time>
      </trkpt>
      <trkpt lat="45.18468" lon="5.68415">
        <ele>302.2</ele>
        <time>2021-01-30T11:13:30Z</time>
      </trkpt>
      <trkpt lat="45.18467" lon="5.68412">
        <ele>302</ele>
        <time>2021-01-30T11:13:31Z</time>
      </trkpt>
      <trkpt lat="45.18466" lon="5.68409">
        <ele>302.8</ele>
        <time>2021-01-30T11:13:32Z</time>
      </trkpt>
      <trkpt lat="45.18465" lon="5.68406">
        <ele>302.8</ele>
        <time>2021-01-30T11:13:33Z</time>
      </trkpt>
      <trkpt lat="45.18464" lon="5.68403">
        <ele>302.8</ele>
        <time>2021-01-30T11:13:34Z</time>
      </trkpt>
      <trkpt lat="45.18464" lon="5.684">
        <ele>302.6</ele>
        <time>2021-01-30T11:13:35Z</time>
      </trkpt>
      <trkpt lat="45.18461" lon="5.68386">
        <ele>303.2</ele>
        <time>2021-01-30T11:13:40Z</time>
      </trkpt>
      <trkpt lat="45.18465" lon="5.68381">
        <ele>302.8</ele>
        <time>2021-01-30T11:13:44Z</time>
      </trkpt>
      <trkpt lat="45.18467" lon="5.68379">
        <ele>302.6</ele>
        <time>2021-01-30T11:13:45Z</time>
      </trkpt>
      <trkpt lat="45.18471" lon="5.68375">
        <ele>301.6</ele>
        <time>2021-01-30T11:13:47Z</time>
      </trkpt>
      <trkpt lat="45.18473" lon="5.68371">
        <ele>301.4</ele>
        <time>2021-01-30T11:13:49Z</time>
      </trkpt>
      <trkpt lat="45.18463" lon="5.68373">
        <ele>302</ele>
        <time>2021-01-30T11:13:59Z</time>
      </trkpt>
      <trkpt lat="45.18465" lon="5.68358">
        <ele>304.2</ele>
        <time>2021-01-30T11:14:08Z</time>
      </trkpt>
      <trkpt lat="45.18466" lon="5.6835">
        <ele>304.2</ele>
        <time>2021-01-30T11:14:11Z</time>
      </trkpt>
      <trkpt lat="45.18467" lon="5.68348">
        <ele>304.4</ele>
        <time>2021-01-30T11:14:12Z</time>
      </trkpt>
      <trkpt lat="45.18468" lon="5.68345">
        <ele>304.6</ele>
        <time>2021-01-30T11:14:13Z</time>
      </trkpt>
      <trkpt lat="45.18468" lon="5.68342">
        <ele>304.4</ele>
        <time>2021-01-30T11:14:14Z</time>
      </trkpt>
      <trkpt lat="45.18469" lon="5.68338">
        <ele>304.6</ele>
        <time>2021-01-30T11:14:15Z</time>
      </trkpt>
      <trkpt lat="45.1847" lon="5.68335">
        <ele>304.8</ele>
        <time>2021-01-30T11:14:16Z</time>
      </trkpt>
      <trkpt lat="45.18472" lon="5.68331">
        <ele>304.6</ele>
        <time>2021-01-30T11:14:17Z</time>
      </trkpt>
      <trkpt lat="45.18473" lon="5.68328">
        <ele>305.2</ele>
        <time>2021-01-30T11:14:18Z</time>
      </trkpt>
      <trkpt lat="45.18472" lon="5.68314">
        <ele>304</ele>
        <time>2021-01-30T11:15:49Z</time>
      </trkpt>
      <trkpt lat="45.18475" lon="5.68312">
        <ele>304.2</ele>
        <time>2021-01-30T11:15:51Z</time>
      </trkpt>
      <trkpt lat="45.18478" lon="5.68309">
        <ele>304.4</ele>
        <time>2021-01-30T11:15:53Z</time>
      </trkpt>
      <trkpt lat="45.18481" lon="5.68306">
        <ele>304.8</ele>
        <time>2021-01-30T11:15:55Z</time>
      </trkpt>
      <trkpt lat="45.18482" lon="5.68305">
        <ele>305.2</ele>
        <time>2021-01-30T11:15:56Z</time>
      </trkpt>
      <trkpt lat="45.18485" lon="5.68303">
        <ele>305</ele>
        <time>2021-01-30T11:15:57Z</time>
      </trkpt>
      <trkpt lat="45.18487" lon="5.68301">
        <ele>305.2</ele>
        <time>2021-01-30T11:15:58Z</time>
      </trkpt>
      <trkpt lat="45.1849" lon="5.683">
        <ele>305.2</ele>
        <time>2021-01-30T11:15:59Z</time>
      </trkpt>
      <trkpt lat="45.18492" lon="5.68298">
        <ele>305.2</ele>
        <time>2021-01-30T11:16:00Z</time>
      </trkpt>
      <trkpt lat="45.18494" lon="5.68296">
        <ele>305.6</ele>
        <time>2021-01-30T11:16:01Z</time>
      </trkpt>
      <trkpt lat="45.18496" lon="5.68294">
        <ele>305.4</ele>
        <time>2021-01-30T11:16:02Z</time>
      </trkpt>
      <trkpt lat="45.18497" lon="5.68291">
        <ele>305.8</ele>
        <time>2021-01-30T11:16:03Z</time>
      </trkpt>
      <trkpt lat="45.18499" lon="5.68289">
        <ele>305.8</ele>
        <time>2021-01-30T11:16:04Z</time>
      </trkpt>
      <trkpt lat="45.185" lon="5.68287">
        <ele>306.6</ele>
        <time>2021-01-30T11:16:05Z</time>
      </trkpt>
      <trkpt lat="45.18502" lon="5.68284">
        <ele>306.8</ele>
        <time>2021-01-30T11:16:06Z</time>
      </trkpt>
      <trkpt lat="45.18503" lon="5.68282">
        <ele>306.6</ele>
        <time>2021-01-30T11:16:07Z</time>
      </trkpt>
      <trkpt lat="45.18505" lon="5.68279">
        <ele>306.6</ele>
        <time>2021-01-30T11:16:08Z</time>
      </trkpt>
      <trkpt lat="45.18506" lon="5.68276">
        <ele>306.6</ele>
        <time>2021-01-30T11:16:09Z</time>
      </trkpt>
      <trkpt lat="45.18507" lon="5.68273">
        <ele>306.6</ele>
        <time>2021-01-30T11:16:10Z</time>
      </trkpt>
      <trkpt lat="45.18508" lon="5.6827">
        <ele>306.8</ele>
        <time>2021-01-30T11:16:11Z</time>
      </trkpt>
      <trkpt lat="45.18509" lon="5.68268">
        <ele>306.8</ele>
        <time>2021-01-30T11:16:12Z</time>
      </trkpt>
      <trkpt lat="45.1851" lon="5.68266">
        <ele>307.2</ele>
        <time>2021-01-30T11:16:13Z</time>
      </trkpt>
      <trkpt lat="45.18512" lon="5.68262">
        <ele>307.4</ele>
        <time>2021-01-30T11:16:15Z</time>
      </trkpt>
      <trkpt lat="45.18513" lon="5.68258">
        <ele>307.8</ele>
        <time>2021-01-30T11:16:17Z</time>
      </trkpt>
      <trkpt lat="45.18515" lon="5.68255">
        <ele>308</ele>
        <time>2021-01-30T11:16:19Z</time>
      </trkpt>
      <trkpt lat="45.18517" lon="5.68252">
        <ele>308.4</ele>
        <time>2021-01-30T11:16:21Z</time>
      </trkpt>
      <trkpt lat="45.18518" lon="5.68249">
        <ele>308.8</ele>
        <time>2021-01-30T11:16:23Z</time>
      </trkpt>
      <trkpt lat="45.1852" lon="5.68246">
        <ele>309.4</ele>
        <time>2021-01-30T11:16:25Z</time>
      </trkpt>
      <trkpt lat="45.18521" lon="5.68241">
        <ele>309.8</ele>
        <time>2021-01-30T11:16:27Z</time>
      </trkpt>
      <trkpt lat="45.18523" lon="5.68238">
        <ele>310.2</ele>
        <time>2021-01-30T11:16:29Z</time>
      </trkpt>
      <trkpt lat="45.18524" lon="5.68235">
        <ele>310.4</ele>
        <time>2021-01-30T11:16:30Z</time>
      </trkpt>
      <trkpt lat="45.18526" lon="5.68233">
        <ele>310.6</ele>
        <time>2021-01-30T11:16:31Z</time>
      </trkpt>
      <trkpt lat="45.18527" lon="5.68231">
        <ele>310.8</ele>
        <time>2021-01-30T11:16:32Z</time>
      </trkpt>
      <trkpt lat="45.18528" lon="5.68226">
        <ele>311</ele>
        <time>2021-01-30T11:16:34Z</time>
      </trkpt>
      <trkpt lat="45.18528" lon="5.68222">
        <ele>311.4</ele>
        <time>2021-01-30T11:16:36Z</time>
      </trkpt>
      <trkpt lat="45.18528" lon="5.68218">
        <ele>311.2</ele>
        <time>2021-01-30T11:16:38Z</time>
      </trkpt>
      <trkpt lat="45.18529" lon="5.68214">
        <ele>311.2</ele>
        <time>2021-01-30T11:16:40Z</time>
      </trkpt>
      <trkpt lat="45.18529" lon="5.68211">
        <ele>311</ele>
        <time>2021-01-30T11:16:42Z</time>
      </trkpt>
      <trkpt lat="45.18529" lon="5.68207">
        <ele>311.4</ele>
        <time>2021-01-30T11:16:44Z</time>
      </trkpt>
      <trkpt lat="45.1853" lon="5.68204">
        <ele>312</ele>
        <time>2021-01-30T11:16:46Z</time>
      </trkpt>
      <trkpt lat="45.18531" lon="5.68199">
        <ele>312</ele>
        <time>2021-01-30T11:16:48Z</time>
      </trkpt>
      <trkpt lat="45.18532" lon="5.68196">
        <ele>312.4</ele>
        <time>2021-01-30T11:16:49Z</time>
      </trkpt>
      <trkpt lat="45.18533" lon="5.68192">
        <ele>312.6</ele>
        <time>2021-01-30T11:16:50Z</time>
      </trkpt>
      <trkpt lat="45.18535" lon="5.68188">
        <ele>313</ele>
        <time>2021-01-30T11:16:51Z</time>
      </trkpt>
      <trkpt lat="45.18536" lon="5.68184">
        <ele>312.8</ele>
        <time>2021-01-30T11:16:52Z</time>
      </trkpt>
      <trkpt lat="45.18537" lon="5.68181">
        <ele>313</ele>
        <time>2021-01-30T11:16:53Z</time>
      </trkpt>
      <trkpt lat="45.18538" lon="5.68177">
        <ele>313.4</ele>
        <time>2021-01-30T11:16:54Z</time>
      </trkpt>
      <trkpt lat="45.18539" lon="5.68174">
        <ele>314</ele>
        <time>2021-01-30T11:16:55Z</time>
      </trkpt>
      <trkpt lat="45.18543" lon="5.6816">
        <ele>315</ele>
        <time>2021-01-30T11:16:59Z</time>
      </trkpt>
      <trkpt lat="45.18544" lon="5.68147">
        <ele>316.2</ele>
        <time>2021-01-30T11:17:03Z</time>
      </trkpt>
      <trkpt lat="45.18544" lon="5.68144">
        <ele>316.6</ele>
        <time>2021-01-30T11:17:04Z</time>
      </trkpt>
      <trkpt lat="45.18544" lon="5.6814">
        <ele>316.8</ele>
        <time>2021-01-30T11:17:05Z</time>
      </trkpt>
      <trkpt lat="45.18545" lon="5.68138">
        <ele>317.2</ele>
        <time>2021-01-30T11:17:06Z</time>
      </trkpt>
      <trkpt lat="45.18546" lon="5.68132">
        <ele>317.6</ele>
        <time>2021-01-30T11:17:08Z</time>
      </trkpt>
      <trkpt lat="45.18548" lon="5.68129">
        <ele>318.2</ele>
        <time>2021-01-30T11:17:09Z</time>
      </trkpt>
      <trkpt lat="45.18549" lon="5.68126">
        <ele>318.2</ele>
        <time>2021-01-30T11:17:10Z</time>
      </trkpt>
      <trkpt lat="45.18551" lon="5.68123">
        <ele>318.6</ele>
        <time>2021-01-30T11:17:11Z</time>
      </trkpt>
      <trkpt lat="45.18551" lon="5.6812">
        <ele>318.6</ele>
        <time>2021-01-30T11:17:12Z</time>
      </trkpt>
      <trkpt lat="45.18552" lon="5.68117">
        <ele>319</ele>
        <time>2021-01-30T11:17:13Z</time>
      </trkpt>
      <trkpt lat="45.18553" lon="5.68114">
        <ele>319.2</ele>
        <time>2021-01-30T11:17:14Z</time>
      </trkpt>
      <trkpt lat="45.18554" lon="5.6811">
        <ele>319.4</ele>
        <time>2021-01-30T11:17:15Z</time>
      </trkpt>
      <trkpt lat="45.18555" lon="5.68107">
        <ele>319.4</ele>
        <time>2021-01-30T11:17:16Z</time>
      </trkpt>
      <trkpt lat="45.18555" lon="5.68104">
        <ele>319.6</ele>
        <time>2021-01-30T11:17:17Z</time>
      </trkpt>
      <trkpt lat="45.18556" lon="5.68101">
        <ele>319.6</ele>
        <time>2021-01-30T11:17:18Z</time>
      </trkpt>
      <trkpt lat="45.18557" lon="5.68098">
        <ele>319.6</ele>
        <time>2021-01-30T11:17:19Z</time>
      </trkpt>
      <trkpt lat="45.18558" lon="5.68094">
        <ele>320</ele>
        <time>2021-01-30T11:17:20Z</time>
      </trkpt>
      <trkpt lat="45.18559" lon="5.68092">
        <ele>320.2</ele>
        <time>2021-01-30T11:17:21Z</time>
      </trkpt>
      <trkpt lat="45.18561" lon="5.68089">
        <ele>320.4</ele>
        <time>2021-01-30T11:17:22Z</time>
      </trkpt>
      <trkpt lat="45.18562" lon="5.68086">
        <ele>320.6</ele>
        <time>2021-01-30T11:17:23Z</time>
      </trkpt>
      <trkpt lat="45.18563" lon="5.68083">
        <ele>320.8</ele>
        <time>2021-01-30T11:17:24Z</time>
      </trkpt>
      <trkpt lat="45.18565" lon="5.6808">
        <ele>320.6</ele>
        <time>2021-01-30T11:17:25Z</time>
      </trkpt>
      <trkpt lat="45.18566" lon="5.68077">
        <ele>320.6</ele>
        <time>2021-01-30T11:17:26Z</time>
      </trkpt>
      <trkpt lat="45.18567" lon="5.68074">
        <ele>320.6</ele>
        <time>2021-01-30T11:17:27Z</time>
      </trkpt>
      <trkpt lat="45.18569" lon="5.6807">
        <ele>320.8</ele>
        <time>2021-01-30T11:17:28Z</time>
      </trkpt>
      <trkpt lat="45.1857" lon="5.68067">
        <ele>321</ele>
        <time>2021-01-30T11:17:29Z</time>
      </trkpt>
      <trkpt lat="45.18571" lon="5.68064">
        <ele>320.8</ele>
        <time>2021-01-30T11:17:30Z</time>
      </trkpt>
      <trkpt lat="45.18571" lon="5.68061">
        <ele>320.8</ele>
        <time>2021-01-30T11:17:31Z</time>
      </trkpt>
      <trkpt lat="45.18572" lon="5.68058">
        <ele>320.6</ele>
        <time>2021-01-30T11:17:32Z</time>
      </trkpt>
      <trkpt lat="45.18573" lon="5.68054">
        <ele>320.6</ele>
        <time>2021-01-30T11:17:33Z</time>
      </trkpt>
      <trkpt lat="45.18573" lon="5.68051">
        <ele>320.4</ele>
        <time>2021-01-30T11:17:34Z</time>
      </trkpt>
      <trkpt lat="45.18574" lon="5.68048">
        <ele>320.6</ele>
        <time>2021-01-30T11:17:35Z</time>
      </trkpt>
      <trkpt lat="45.18574" lon="5.68044">
        <ele>320.6</ele>
        <time>2021-01-30T11:17:36Z</time>
      </trkpt>
      <trkpt lat="45.18574" lon="5.68041">
        <ele>320.6</ele>
        <time>2021-01-30T11:17:37Z</time>
      </trkpt>
      <trkpt lat="45.18574" lon="5.68038">
        <ele>320.6</ele>
        <time>2021-01-30T11:17:38Z</time>
      </trkpt>
      <trkpt lat="45.18574" lon="5.68035">
        <ele>321</ele>
        <time>2021-01-30T11:17:39Z</time>
      </trkpt>
      <trkpt lat="45.18574" lon="5.68031">
        <ele>321</ele>
        <time>2021-01-30T11:17:40Z</time>
      </trkpt>
      <trkpt lat="45.18574" lon="5.68028">
        <ele>321.8</ele>
        <time>2021-01-30T11:17:41Z</time>
      </trkpt>
      <trkpt lat="45.18574" lon="5.68025">
        <ele>322</ele>
        <time>2021-01-30T11:17:42Z</time>
      </trkpt>
      <trkpt lat="45.18574" lon="5.68021">
        <ele>322.4</ele>
        <time>2021-01-30T11:17:43Z</time>
      </trkpt>
      <trkpt lat="45.18573" lon="5.68018">
        <ele>322.6</ele>
        <time>2021-01-30T11:17:44Z</time>
      </trkpt>
      <trkpt lat="45.18572" lon="5.68015">
        <ele>322.8</ele>
        <time>2021-01-30T11:17:45Z</time>
      </trkpt>
      <trkpt lat="45.18572" lon="5.68012">
        <ele>323.2</ele>
        <time>2021-01-30T11:17:46Z</time>
      </trkpt>
      <trkpt lat="45.18571" lon="5.68008">
        <ele>323.4</ele>
        <time>2021-01-30T11:17:47Z</time>
      </trkpt>
      <trkpt lat="45.18573" lon="5.68004">
        <ele>323.8</ele>
        <time>2021-01-30T11:17:49Z</time>
      </trkpt>
      <trkpt lat="45.18574" lon="5.68002">
        <ele>323.6</ele>
        <time>2021-01-30T11:17:50Z</time>
      </trkpt>
      <trkpt lat="45.18575" lon="5.67998">
        <ele>323.4</ele>
        <time>2021-01-30T11:17:52Z</time>
      </trkpt>
      <trkpt lat="45.18575" lon="5.67995">
        <ele>323.2</ele>
        <time>2021-01-30T11:17:55Z</time>
      </trkpt>
      <trkpt lat="45.18574" lon="5.67991">
        <ele>323.2</ele>
        <time>2021-01-30T11:17:57Z</time>
      </trkpt>
      <trkpt lat="45.18572" lon="5.67987">
        <ele>323.6</ele>
        <time>2021-01-30T11:17:59Z</time>
      </trkpt>
      <trkpt lat="45.18572" lon="5.67984">
        <ele>323.4</ele>
        <time>2021-01-30T11:18:00Z</time>
      </trkpt>
      <trkpt lat="45.18572" lon="5.67981">
        <ele>323.8</ele>
        <time>2021-01-30T11:18:01Z</time>
      </trkpt>
      <trkpt lat="45.18571" lon="5.67978">
        <ele>323.8</ele>
        <time>2021-01-30T11:18:02Z</time>
      </trkpt>
      <trkpt lat="45.18571" lon="5.67976">
        <ele>324</ele>
        <time>2021-01-30T11:18:03Z</time>
      </trkpt>
      <trkpt lat="45.18571" lon="5.67972">
        <ele>324.4</ele>
        <time>2021-01-30T11:18:04Z</time>
      </trkpt>
      <trkpt lat="45.1857" lon="5.67964">
        <ele>324.8</ele>
        <time>2021-01-30T11:18:06Z</time>
      </trkpt>
      <trkpt lat="45.18569" lon="5.6796">
        <ele>324.8</ele>
        <time>2021-01-30T11:18:07Z</time>
      </trkpt>
      <trkpt lat="45.18569" lon="5.67957">
        <ele>325</ele>
        <time>2021-01-30T11:18:08Z</time>
      </trkpt>
      <trkpt lat="45.18568" lon="5.67953">
        <ele>325.4</ele>
        <time>2021-01-30T11:18:09Z</time>
      </trkpt>
      <trkpt lat="45.18568" lon="5.67949">
        <ele>325.6</ele>
        <time>2021-01-30T11:18:10Z</time>
      </trkpt>
      <trkpt lat="45.18567" lon="5.67941">
        <ele>326.2</ele>
        <time>2021-01-30T11:18:12Z</time>
      </trkpt>
      <trkpt lat="45.18566" lon="5.67938">
        <ele>326.8</ele>
        <time>2021-01-30T11:18:13Z</time>
      </trkpt>
      <trkpt lat="45.18566" lon="5.67934">
        <ele>326.8</ele>
        <time>2021-01-30T11:18:14Z</time>
      </trkpt>
      <trkpt lat="45.18565" lon="5.67931">
        <ele>326.8</ele>
        <time>2021-01-30T11:18:15Z</time>
      </trkpt>
      <trkpt lat="45.18565" lon="5.67928">
        <ele>326.6</ele>
        <time>2021-01-30T11:18:16Z</time>
      </trkpt>
      <trkpt lat="45.18565" lon="5.67925">
        <ele>327</ele>
        <time>2021-01-30T11:18:17Z</time>
      </trkpt>
      <trkpt lat="45.18565" lon="5.67919">
        <ele>327.2</ele>
        <time>2021-01-30T11:18:19Z</time>
      </trkpt>
      <trkpt lat="45.18565" lon="5.67913">
        <ele>327.8</ele>
        <time>2021-01-30T11:18:21Z</time>
      </trkpt>
      <trkpt lat="45.18567" lon="5.67904">
        <ele>328.2</ele>
        <time>2021-01-30T11:18:24Z</time>
      </trkpt>
      <trkpt lat="45.18567" lon="5.67901">
        <ele>328.4</ele>
        <time>2021-01-30T11:18:25Z</time>
      </trkpt>
      <trkpt lat="45.18568" lon="5.67898">
        <ele>328.6</ele>
        <time>2021-01-30T11:18:26Z</time>
      </trkpt>
      <trkpt lat="45.18569" lon="5.67895">
        <ele>328.8</ele>
        <time>2021-01-30T11:18:27Z</time>
      </trkpt>
      <trkpt lat="45.1857" lon="5.67888">
        <ele>329.6</ele>
        <time>2021-01-30T11:18:29Z</time>
      </trkpt>
      <trkpt lat="45.18571" lon="5.67885">
        <ele>329.6</ele>
        <time>2021-01-30T11:18:30Z</time>
      </trkpt>
      <trkpt lat="45.18572" lon="5.67882">
        <ele>329.8</ele>
        <time>2021-01-30T11:18:31Z</time>
      </trkpt>
      <trkpt lat="45.18574" lon="5.67879">
        <ele>330</ele>
        <time>2021-01-30T11:18:32Z</time>
      </trkpt>
      <trkpt lat="45.18576" lon="5.67877">
        <ele>330.4</ele>
        <time>2021-01-30T11:18:33Z</time>
      </trkpt>
      <trkpt lat="45.18577" lon="5.67874">
        <ele>330.6</ele>
        <time>2021-01-30T11:18:34Z</time>
      </trkpt>
      <trkpt lat="45.18579" lon="5.67872">
        <ele>330.8</ele>
        <time>2021-01-30T11:18:35Z</time>
      </trkpt>
      <trkpt lat="45.1858" lon="5.67869">
        <ele>331.2</ele>
        <time>2021-01-30T11:18:36Z</time>
      </trkpt>
      <trkpt lat="45.18581" lon="5.67867">
        <ele>331.2</ele>
        <time>2021-01-30T11:18:37Z</time>
      </trkpt>
      <trkpt lat="45.18583" lon="5.67865">
        <ele>331.8</ele>
        <time>2021-01-30T11:18:38Z</time>
      </trkpt>
      <trkpt lat="45.18584" lon="5.67862">
        <ele>332.2</ele>
        <time>2021-01-30T11:18:39Z</time>
      </trkpt>
      <trkpt lat="45.18586" lon="5.67859">
        <ele>332.4</ele>
        <time>2021-01-30T11:18:40Z</time>
      </trkpt>
      <trkpt lat="45.18587" lon="5.67857">
        <ele>332.8</ele>
        <time>2021-01-30T11:18:41Z</time>
      </trkpt>
      <trkpt lat="45.18589" lon="5.67854">
        <ele>333</ele>
        <time>2021-01-30T11:18:42Z</time>
      </trkpt>
      <trkpt lat="45.1859" lon="5.67851">
        <ele>333</ele>
        <time>2021-01-30T11:18:43Z</time>
      </trkpt>
      <trkpt lat="45.18592" lon="5.67849">
        <ele>333.2</ele>
        <time>2021-01-30T11:18:44Z</time>
      </trkpt>
      <trkpt lat="45.18593" lon="5.67846">
        <ele>333.2</ele>
        <time>2021-01-30T11:18:45Z</time>
      </trkpt>
      <trkpt lat="45.18595" lon="5.67843">
        <ele>333.4</ele>
        <time>2021-01-30T11:18:46Z</time>
      </trkpt>
      <trkpt lat="45.18596" lon="5.67841">
        <ele>333.6</ele>
        <time>2021-01-30T11:18:47Z</time>
      </trkpt>
      <trkpt lat="45.18597" lon="5.67838">
        <ele>333.8</ele>
        <time>2021-01-30T11:18:48Z</time>
      </trkpt>
      <trkpt lat="45.18599" lon="5.67835">
        <ele>334.2</ele>
        <time>2021-01-30T11:18:49Z</time>
      </trkpt>
      <trkpt lat="45.18601" lon="5.67833">
        <ele>334.6</ele>
        <time>2021-01-30T11:18:50Z</time>
      </trkpt>
      <trkpt lat="45.18602" lon="5.67829">
        <ele>334.6</ele>
        <time>2021-01-30T11:18:51Z</time>
      </trkpt>
      <trkpt lat="45.18603" lon="5.67826">
        <ele>334.6</ele>
        <time>2021-01-30T11:18:52Z</time>
      </trkpt>
      <trkpt lat="45.18605" lon="5.67823">
        <ele>334.8</ele>
        <time>2021-01-30T11:18:53Z</time>
      </trkpt>
      <trkpt lat="45.18606" lon="5.67821">
        <ele>335.4</ele>
        <time>2021-01-30T11:18:54Z</time>
      </trkpt>
      <trkpt lat="45.18607" lon="5.67818">
        <ele>335.4</ele>
        <time>2021-01-30T11:18:55Z</time>
      </trkpt>
      <trkpt lat="45.18609" lon="5.67816">
        <ele>335.8</ele>
        <time>2021-01-30T11:18:56Z</time>
      </trkpt>
      <trkpt lat="45.1861" lon="5.67813">
        <ele>336</ele>
        <time>2021-01-30T11:18:57Z</time>
      </trkpt>
      <trkpt lat="45.18612" lon="5.67811">
        <ele>336.2</ele>
        <time>2021-01-30T11:18:58Z</time>
      </trkpt>
      <trkpt lat="45.18614" lon="5.67808">
        <ele>336.2</ele>
        <time>2021-01-30T11:18:59Z</time>
      </trkpt>
      <trkpt lat="45.18615" lon="5.67805">
        <ele>336.4</ele>
        <time>2021-01-30T11:19:00Z</time>
      </trkpt>
      <trkpt lat="45.18617" lon="5.67803">
        <ele>336.6</ele>
        <time>2021-01-30T11:19:01Z</time>
      </trkpt>
      <trkpt lat="45.18618" lon="5.678">
        <ele>336.8</ele>
        <time>2021-01-30T11:19:02Z</time>
      </trkpt>
      <trkpt lat="45.1862" lon="5.67798">
        <ele>336.6</ele>
        <time>2021-01-30T11:19:03Z</time>
      </trkpt>
      <trkpt lat="45.18621" lon="5.67795">
        <ele>337</ele>
        <time>2021-01-30T11:19:04Z</time>
      </trkpt>
      <trkpt lat="45.18623" lon="5.67793">
        <ele>337.2</ele>
        <time>2021-01-30T11:19:05Z</time>
      </trkpt>
      <trkpt lat="45.18625" lon="5.67791">
        <ele>337.4</ele>
        <time>2021-01-30T11:19:06Z</time>
      </trkpt>
      <trkpt lat="45.18627" lon="5.67789">
        <ele>337.4</ele>
        <time>2021-01-30T11:19:07Z</time>
      </trkpt>
      <trkpt lat="45.18629" lon="5.67786">
        <ele>337.6</ele>
        <time>2021-01-30T11:19:08Z</time>
      </trkpt>
      <trkpt lat="45.18631" lon="5.67784">
        <ele>337.8</ele>
        <time>2021-01-30T11:19:09Z</time>
      </trkpt>
      <trkpt lat="45.18632" lon="5.67782">
        <ele>337.8</ele>
        <time>2021-01-30T11:19:10Z</time>
      </trkpt>
      <trkpt lat="45.18634" lon="5.6778">
        <ele>337.6</ele>
        <time>2021-01-30T11:19:11Z</time>
      </trkpt>
      <trkpt lat="45.18635" lon="5.67777">
        <ele>337.8</ele>
        <time>2021-01-30T11:19:12Z</time>
      </trkpt>
      <trkpt lat="45.18637" lon="5.67774">
        <ele>338.2</ele>
        <time>2021-01-30T11:19:13Z</time>
      </trkpt>
      <trkpt lat="45.18638" lon="5.67771">
        <ele>338.2</ele>
        <time>2021-01-30T11:19:14Z</time>
      </trkpt>
      <trkpt lat="45.1864" lon="5.67769">
        <ele>338.4</ele>
        <time>2021-01-30T11:19:15Z</time>
      </trkpt>
      <trkpt lat="45.18641" lon="5.67766">
        <ele>338.4</ele>
        <time>2021-01-30T11:19:16Z</time>
      </trkpt>
      <trkpt lat="45.18643" lon="5.67761">
        <ele>339</ele>
        <time>2021-01-30T11:19:18Z</time>
      </trkpt>
      <trkpt lat="45.18644" lon="5.67759">
        <ele>339</ele>
        <time>2021-01-30T11:19:19Z</time>
      </trkpt>
      <trkpt lat="45.18645" lon="5.67756">
        <ele>339</ele>
        <time>2021-01-30T11:19:20Z</time>
      </trkpt>
      <trkpt lat="45.18646" lon="5.67754">
        <ele>339.2</ele>
        <time>2021-01-30T11:19:21Z</time>
      </trkpt>
      <trkpt lat="45.18647" lon="5.67751">
        <ele>339.2</ele>
        <time>2021-01-30T11:19:22Z</time>
      </trkpt>
      <trkpt lat="45.18648" lon="5.67749">
        <ele>339.6</ele>
        <time>2021-01-30T11:19:23Z</time>
      </trkpt>
      <trkpt lat="45.1865" lon="5.67746">
        <ele>339.8</ele>
        <time>2021-01-30T11:19:24Z</time>
      </trkpt>
      <trkpt lat="45.18651" lon="5.67743">
        <ele>340</ele>
        <time>2021-01-30T11:19:25Z</time>
      </trkpt>
      <trkpt lat="45.18654" lon="5.6774">
        <ele>341.8</ele>
        <time>2021-01-30T11:19:31Z</time>
      </trkpt>
      <trkpt lat="45.18656" lon="5.67739">
        <ele>342.8</ele>
        <time>2021-01-30T11:19:32Z</time>
      </trkpt>
      <trkpt lat="45.18657" lon="5.67737">
        <ele>342.6</ele>
        <time>2021-01-30T11:19:33Z</time>
      </trkpt>
      <trkpt lat="45.18659" lon="5.67735">
        <ele>342.8</ele>
        <time>2021-01-30T11:19:34Z</time>
      </trkpt>
      <trkpt lat="45.18661" lon="5.67734">
        <ele>342.8</ele>
        <time>2021-01-30T11:19:35Z</time>
      </trkpt>
      <trkpt lat="45.18663" lon="5.67732">
        <ele>342.8</ele>
        <time>2021-01-30T11:19:36Z</time>
      </trkpt>
      <trkpt lat="45.18666" lon="5.6773">
        <ele>343</ele>
        <time>2021-01-30T11:19:37Z</time>
      </trkpt>
      <trkpt lat="45.18669" lon="5.67729">
        <ele>343.2</ele>
        <time>2021-01-30T11:19:38Z</time>
      </trkpt>
      <trkpt lat="45.18671" lon="5.67727">
        <ele>343</ele>
        <time>2021-01-30T11:19:39Z</time>
      </trkpt>
      <trkpt lat="45.18674" lon="5.67726">
        <ele>343.2</ele>
        <time>2021-01-30T11:19:40Z</time>
      </trkpt>
      <trkpt lat="45.18676" lon="5.67724">
        <ele>343.4</ele>
        <time>2021-01-30T11:19:41Z</time>
      </trkpt>
      <trkpt lat="45.18678" lon="5.67723">
        <ele>343.2</ele>
        <time>2021-01-30T11:19:42Z</time>
      </trkpt>
      <trkpt lat="45.1868" lon="5.67722">
        <ele>343.4</ele>
        <time>2021-01-30T11:19:43Z</time>
      </trkpt>
      <trkpt lat="45.18682" lon="5.6772">
        <ele>343.8</ele>
        <time>2021-01-30T11:19:44Z</time>
      </trkpt>
      <trkpt lat="45.18684" lon="5.67718">
        <ele>343.6</ele>
        <time>2021-01-30T11:19:45Z</time>
      </trkpt>
      <trkpt lat="45.18687" lon="5.67716">
        <ele>343.6</ele>
        <time>2021-01-30T11:19:46Z</time>
      </trkpt>
      <trkpt lat="45.18689" lon="5.67714">
        <ele>343.6</ele>
        <time>2021-01-30T11:19:47Z</time>
      </trkpt>
      <trkpt lat="45.18692" lon="5.67712">
        <ele>343.4</ele>
        <time>2021-01-30T11:19:48Z</time>
      </trkpt>
      <trkpt lat="45.18694" lon="5.6771">
        <ele>343.4</ele>
        <time>2021-01-30T11:19:49Z</time>
      </trkpt>
      <trkpt lat="45.18696" lon="5.67708">
        <ele>343.2</ele>
        <time>2021-01-30T11:19:50Z</time>
      </trkpt>
      <trkpt lat="45.18698" lon="5.67707">
        <ele>343.8</ele>
        <time>2021-01-30T11:19:51Z</time>
      </trkpt>
      <trkpt lat="45.18701" lon="5.67706">
        <ele>343.6</ele>
        <time>2021-01-30T11:19:52Z</time>
      </trkpt>
      <trkpt lat="45.18703" lon="5.67705">
        <ele>344</ele>
        <time>2021-01-30T11:19:53Z</time>
      </trkpt>
      <trkpt lat="45.18706" lon="5.67705">
        <ele>343.8</ele>
        <time>2021-01-30T11:19:54Z</time>
      </trkpt>
      <trkpt lat="45.18707" lon="5.67704">
        <ele>344.4</ele>
        <time>2021-01-30T11:19:55Z</time>
      </trkpt>
      <trkpt lat="45.18709" lon="5.67703">
        <ele>344.2</ele>
        <time>2021-01-30T11:19:56Z</time>
      </trkpt>
      <trkpt lat="45.18711" lon="5.67702">
        <ele>343.8</ele>
        <time>2021-01-30T11:19:57Z</time>
      </trkpt>
      <trkpt lat="45.18713" lon="5.67701">
        <ele>344</ele>
        <time>2021-01-30T11:19:58Z</time>
      </trkpt>
      <trkpt lat="45.18715" lon="5.677">
        <ele>343.8</ele>
        <time>2021-01-30T11:19:59Z</time>
      </trkpt>
      <trkpt lat="45.18718" lon="5.67699">
        <ele>334.1</ele>
        <time>2021-01-30T11:20:00Z</time>
      </trkpt>
      <trkpt lat="45.1872" lon="5.67697">
        <ele>343.8</ele>
        <time>2021-01-30T11:20:01Z</time>
      </trkpt>
      <trkpt lat="45.18723" lon="5.67693">
        <ele>343.6</ele>
        <time>2021-01-30T11:20:02Z</time>
      </trkpt>
      <trkpt lat="45.18726" lon="5.67689">
        <ele>343.4</ele>
        <time>2021-01-30T11:20:03Z</time>
      </trkpt>
      <trkpt lat="45.18729" lon="5.67684">
        <ele>343.4</ele>
        <time>2021-01-30T11:20:04Z</time>
      </trkpt>
      <trkpt lat="45.18732" lon="5.6768">
        <ele>343</ele>
        <time>2021-01-30T11:20:05Z</time>
      </trkpt>
      <trkpt lat="45.18734" lon="5.67676">
        <ele>343.4</ele>
        <time>2021-01-30T11:20:06Z</time>
      </trkpt>
      <trkpt lat="45.18737" lon="5.67672">
        <ele>343.6</ele>
        <time>2021-01-30T11:20:07Z</time>
      </trkpt>
      <trkpt lat="45.1874" lon="5.67667">
        <ele>343.8</ele>
        <time>2021-01-30T11:20:08Z</time>
      </trkpt>
      <trkpt lat="45.18743" lon="5.67658">
        <ele>344</ele>
        <time>2021-01-30T11:20:10Z</time>
      </trkpt>
      <trkpt lat="45.18743" lon="5.67654">
        <ele>344.2</ele>
        <time>2021-01-30T11:20:11Z</time>
      </trkpt>
      <trkpt lat="45.18743" lon="5.6765">
        <ele>344.2</ele>
        <time>2021-01-30T11:20:12Z</time>
      </trkpt>
      <trkpt lat="45.18744" lon="5.67647">
        <ele>335.4</ele>
        <time>2021-01-30T11:20:13Z</time>
      </trkpt>
      <trkpt lat="45.18745" lon="5.67639">
        <ele>344.6</ele>
        <time>2021-01-30T11:20:15Z</time>
      </trkpt>
      <trkpt lat="45.18746" lon="5.67635">
        <ele>344.6</ele>
        <time>2021-01-30T11:20:16Z</time>
      </trkpt>
      <trkpt lat="45.18746" lon="5.67632">
        <ele>344.8</ele>
        <time>2021-01-30T11:20:17Z</time>
      </trkpt>
      <trkpt lat="45.18747" lon="5.67628">
        <ele>345.2</ele>
        <time>2021-01-30T11:20:18Z</time>
      </trkpt>
      <trkpt lat="45.18748" lon="5.67624">
        <ele>346</ele>
        <time>2021-01-30T11:20:19Z</time>
      </trkpt>
      <trkpt lat="45.18749" lon="5.67621">
        <ele>345.8</ele>
        <time>2021-01-30T11:20:20Z</time>
      </trkpt>
      <trkpt lat="45.18749" lon="5.67618">
        <ele>346.6</ele>
        <time>2021-01-30T11:20:21Z</time>
      </trkpt>
      <trkpt lat="45.1875" lon="5.67615">
        <ele>346.6</ele>
        <time>2021-01-30T11:20:22Z</time>
      </trkpt>
      <trkpt lat="45.18751" lon="5.67612">
        <ele>346.8</ele>
        <time>2021-01-30T11:20:23Z</time>
      </trkpt>
      <trkpt lat="45.18752" lon="5.67609">
        <ele>346.4</ele>
        <time>2021-01-30T11:20:24Z</time>
      </trkpt>
      <trkpt lat="45.18753" lon="5.67606">
        <ele>346.6</ele>
        <time>2021-01-30T11:20:25Z</time>
      </trkpt>
      <trkpt lat="45.18754" lon="5.67604">
        <ele>346.6</ele>
        <time>2021-01-30T11:20:26Z</time>
      </trkpt>
      <trkpt lat="45.18755" lon="5.67601">
        <ele>347.2</ele>
        <time>2021-01-30T11:20:27Z</time>
      </trkpt>
      <trkpt lat="45.18756" lon="5.67599">
        <ele>347.2</ele>
        <time>2021-01-30T11:20:28Z</time>
      </trkpt>
      <trkpt lat="45.18757" lon="5.67596">
        <ele>347.8</ele>
        <time>2021-01-30T11:20:29Z</time>
      </trkpt>
      <trkpt lat="45.18758" lon="5.67594">
        <ele>348</ele>
        <time>2021-01-30T11:20:30Z</time>
      </trkpt>
      <trkpt lat="45.1876" lon="5.67591">
        <ele>348</ele>
        <time>2021-01-30T11:20:31Z</time>
      </trkpt>
      <trkpt lat="45.18761" lon="5.67589">
        <ele>348</ele>
        <time>2021-01-30T11:20:32Z</time>
      </trkpt>
      <trkpt lat="45.18763" lon="5.67586">
        <ele>348.2</ele>
        <time>2021-01-30T11:20:33Z</time>
      </trkpt>
      <trkpt lat="45.18765" lon="5.67583">
        <ele>348.4</ele>
        <time>2021-01-30T11:20:34Z</time>
      </trkpt>
      <trkpt lat="45.18766" lon="5.67581">
        <ele>348.8</ele>
        <time>2021-01-30T11:20:35Z</time>
      </trkpt>
      <trkpt lat="45.18768" lon="5.67579">
        <ele>349</ele>
        <time>2021-01-30T11:20:36Z</time>
      </trkpt>
      <trkpt lat="45.1877" lon="5.67577">
        <ele>349.2</ele>
        <time>2021-01-30T11:20:37Z</time>
      </trkpt>
      <trkpt lat="45.18771" lon="5.67574">
        <ele>349.2</ele>
        <time>2021-01-30T11:20:38Z</time>
      </trkpt>
      <trkpt lat="45.18773" lon="5.67571">
        <ele>349.2</ele>
        <time>2021-01-30T11:20:39Z</time>
      </trkpt>
      <trkpt lat="45.18774" lon="5.67567">
        <ele>349.2</ele>
        <time>2021-01-30T11:20:40Z</time>
      </trkpt>
      <trkpt lat="45.18775" lon="5.67563">
        <ele>349.2</ele>
        <time>2021-01-30T11:20:41Z</time>
      </trkpt>
      <trkpt lat="45.18775" lon="5.6756">
        <ele>349.2</ele>
        <time>2021-01-30T11:20:42Z</time>
      </trkpt>
      <trkpt lat="45.18775" lon="5.67556">
        <ele>349.4</ele>
        <time>2021-01-30T11:20:43Z</time>
      </trkpt>
      <trkpt lat="45.18775" lon="5.67553">
        <ele>349.6</ele>
        <time>2021-01-30T11:20:44Z</time>
      </trkpt>
      <trkpt lat="45.18776" lon="5.6755">
        <ele>349.4</ele>
        <time>2021-01-30T11:20:45Z</time>
      </trkpt>
      <trkpt lat="45.18776" lon="5.67546">
        <ele>349.6</ele>
        <time>2021-01-30T11:20:46Z</time>
      </trkpt>
      <trkpt lat="45.18776" lon="5.67543">
        <ele>349.4</ele>
        <time>2021-01-30T11:20:47Z</time>
      </trkpt>
      <trkpt lat="45.18775" lon="5.6754">
        <ele>349</ele>
        <time>2021-01-30T11:20:48Z</time>
      </trkpt>
      <trkpt lat="45.18774" lon="5.67536">
        <ele>349.2</ele>
        <time>2021-01-30T11:20:49Z</time>
      </trkpt>
      <trkpt lat="45.18773" lon="5.67534">
        <ele>349.2</ele>
        <time>2021-01-30T11:20:50Z</time>
      </trkpt>
      <trkpt lat="45.18772" lon="5.67531">
        <ele>349.4</ele>
        <time>2021-01-30T11:20:51Z</time>
      </trkpt>
      <trkpt lat="45.1877" lon="5.67528">
        <ele>349.4</ele>
        <time>2021-01-30T11:20:52Z</time>
      </trkpt>
      <trkpt lat="45.18769" lon="5.67525">
        <ele>350.2</ele>
        <time>2021-01-30T11:20:53Z</time>
      </trkpt>
      <trkpt lat="45.18768" lon="5.67523">
        <ele>350.2</ele>
        <time>2021-01-30T11:20:54Z</time>
      </trkpt>
      <trkpt lat="45.18767" lon="5.67519">
        <ele>350</ele>
        <time>2021-01-30T11:20:55Z</time>
      </trkpt>
      <trkpt lat="45.18765" lon="5.67516">
        <ele>349.8</ele>
        <time>2021-01-30T11:20:56Z</time>
      </trkpt>
      <trkpt lat="45.18764" lon="5.67513">
        <ele>349.8</ele>
        <time>2021-01-30T11:20:57Z</time>
      </trkpt>
      <trkpt lat="45.18762" lon="5.6751">
        <ele>350</ele>
        <time>2021-01-30T11:20:58Z</time>
      </trkpt>
      <trkpt lat="45.18761" lon="5.67507">
        <ele>350.2</ele>
        <time>2021-01-30T11:20:59Z</time>
      </trkpt>
      <trkpt lat="45.1876" lon="5.67504">
        <ele>350</ele>
        <time>2021-01-30T11:21:00Z</time>
      </trkpt>
      <trkpt lat="45.18759" lon="5.67501">
        <ele>350.4</ele>
        <time>2021-01-30T11:21:01Z</time>
      </trkpt>
      <trkpt lat="45.18758" lon="5.67498">
        <ele>350.6</ele>
        <time>2021-01-30T11:21:02Z</time>
      </trkpt>
      <trkpt lat="45.18757" lon="5.67495">
        <ele>350.6</ele>
        <time>2021-01-30T11:21:03Z</time>
      </trkpt>
      <trkpt lat="45.18756" lon="5.67492">
        <ele>351.4</ele>
        <time>2021-01-30T11:21:04Z</time>
      </trkpt>
      <trkpt lat="45.18755" lon="5.67489">
        <ele>351.4</ele>
        <time>2021-01-30T11:21:05Z</time>
      </trkpt>
      <trkpt lat="45.18754" lon="5.67486">
        <ele>351.6</ele>
        <time>2021-01-30T11:21:06Z</time>
      </trkpt>
      <trkpt lat="45.18754" lon="5.67481">
        <ele>351.4</ele>
        <time>2021-01-30T11:21:08Z</time>
      </trkpt>
      <trkpt lat="45.18753" lon="5.67476">
        <ele>352.4</ele>
        <time>2021-01-30T11:21:10Z</time>
      </trkpt>
      <trkpt lat="45.18754" lon="5.67473">
        <ele>352.8</ele>
        <time>2021-01-30T11:21:11Z</time>
      </trkpt>
      <trkpt lat="45.18755" lon="5.67469">
        <ele>353.6</ele>
        <time>2021-01-30T11:21:13Z</time>
      </trkpt>
      <trkpt lat="45.18757" lon="5.67466">
        <ele>354.2</ele>
        <time>2021-01-30T11:21:15Z</time>
      </trkpt>
      <trkpt lat="45.18759" lon="5.67465">
        <ele>354.4</ele>
        <time>2021-01-30T11:21:16Z</time>
      </trkpt>
      <trkpt lat="45.18761" lon="5.67463">
        <ele>355</ele>
        <time>2021-01-30T11:21:17Z</time>
      </trkpt>
      <trkpt lat="45.18763" lon="5.67462">
        <ele>355.4</ele>
        <time>2021-01-30T11:21:18Z</time>
      </trkpt>
      <trkpt lat="45.18764" lon="5.6746">
        <ele>355.6</ele>
        <time>2021-01-30T11:21:19Z</time>
      </trkpt>
      <trkpt lat="45.18766" lon="5.67457">
        <ele>355.8</ele>
        <time>2021-01-30T11:21:20Z</time>
      </trkpt>
      <trkpt lat="45.18768" lon="5.67455">
        <ele>356.4</ele>
        <time>2021-01-30T11:21:21Z</time>
      </trkpt>
      <trkpt lat="45.18769" lon="5.67453">
        <ele>356.4</ele>
        <time>2021-01-30T11:21:22Z</time>
      </trkpt>
      <trkpt lat="45.18771" lon="5.6745">
        <ele>356.8</ele>
        <time>2021-01-30T11:21:23Z</time>
      </trkpt>
      <trkpt lat="45.18773" lon="5.67449">
        <ele>356.8</ele>
        <time>2021-01-30T11:21:24Z</time>
      </trkpt>
      <trkpt lat="45.18775" lon="5.67447">
        <ele>356.6</ele>
        <time>2021-01-30T11:21:25Z</time>
      </trkpt>
      <trkpt lat="45.18776" lon="5.67445">
        <ele>356.6</ele>
        <time>2021-01-30T11:21:26Z</time>
      </trkpt>
      <trkpt lat="45.18778" lon="5.67443">
        <ele>356.8</ele>
        <time>2021-01-30T11:21:27Z</time>
      </trkpt>
      <trkpt lat="45.18779" lon="5.6744">
        <ele>356.8</ele>
        <time>2021-01-30T11:21:28Z</time>
      </trkpt>
      <trkpt lat="45.1878" lon="5.67437">
        <ele>357</ele>
        <time>2021-01-30T11:21:29Z</time>
      </trkpt>
      <trkpt lat="45.1878" lon="5.67434">
        <ele>357.2</ele>
        <time>2021-01-30T11:21:30Z</time>
      </trkpt>
      <trkpt lat="45.18781" lon="5.67429">
        <ele>358</ele>
        <time>2021-01-30T11:21:32Z</time>
      </trkpt>
      <trkpt lat="45.18782" lon="5.67426">
        <ele>358</ele>
        <time>2021-01-30T11:21:33Z</time>
      </trkpt>
      <trkpt lat="45.18783" lon="5.67423">
        <ele>358.6</ele>
        <time>2021-01-30T11:21:34Z</time>
      </trkpt>
      <trkpt lat="45.18784" lon="5.6742">
        <ele>358.8</ele>
        <time>2021-01-30T11:21:35Z</time>
      </trkpt>
      <trkpt lat="45.18785" lon="5.67417">
        <ele>358.6</ele>
        <time>2021-01-30T11:21:36Z</time>
      </trkpt>
      <trkpt lat="45.18786" lon="5.67414">
        <ele>358.4</ele>
        <time>2021-01-30T11:21:37Z</time>
      </trkpt>
      <trkpt lat="45.18787" lon="5.67411">
        <ele>358.6</ele>
        <time>2021-01-30T11:21:38Z</time>
      </trkpt>
      <trkpt lat="45.18787" lon="5.67408">
        <ele>358.8</ele>
        <time>2021-01-30T11:21:39Z</time>
      </trkpt>
      <trkpt lat="45.18788" lon="5.67405">
        <ele>358.8</ele>
        <time>2021-01-30T11:21:40Z</time>
      </trkpt>
      <trkpt lat="45.18789" lon="5.67402">
        <ele>358.8</ele>
        <time>2021-01-30T11:21:41Z</time>
      </trkpt>
      <trkpt lat="45.1879" lon="5.67399">
        <ele>358.8</ele>
        <time>2021-01-30T11:21:42Z</time>
      </trkpt>
      <trkpt lat="45.18792" lon="5.67395">
        <ele>359.4</ele>
        <time>2021-01-30T11:21:44Z</time>
      </trkpt>
      <trkpt lat="45.18794" lon="5.67393">
        <ele>359.8</ele>
        <time>2021-01-30T11:21:46Z</time>
      </trkpt>
      <trkpt lat="45.18797" lon="5.67391">
        <ele>360.2</ele>
        <time>2021-01-30T11:21:48Z</time>
      </trkpt>
      <trkpt lat="45.188" lon="5.67389">
        <ele>360.4</ele>
        <time>2021-01-30T11:21:50Z</time>
      </trkpt>
      <trkpt lat="45.18803" lon="5.67387">
        <ele>361.2</ele>
        <time>2021-01-30T11:21:52Z</time>
      </trkpt>
      <trkpt lat="45.18804" lon="5.67386">
        <ele>361.4</ele>
        <time>2021-01-30T11:21:53Z</time>
      </trkpt>
      <trkpt lat="45.18807" lon="5.67386">
        <ele>361.2</ele>
        <time>2021-01-30T11:21:54Z</time>
      </trkpt>
      <trkpt lat="45.1881" lon="5.67385">
        <ele>361.8</ele>
        <time>2021-01-30T11:21:55Z</time>
      </trkpt>
      <trkpt lat="45.18813" lon="5.67384">
        <ele>361.8</ele>
        <time>2021-01-30T11:21:56Z</time>
      </trkpt>
      <trkpt lat="45.18815" lon="5.67384">
        <ele>361.8</ele>
        <time>2021-01-30T11:21:57Z</time>
      </trkpt>
      <trkpt lat="45.18818" lon="5.67383">
        <ele>361.6</ele>
        <time>2021-01-30T11:21:58Z</time>
      </trkpt>
      <trkpt lat="45.1882" lon="5.67383">
        <ele>361.6</ele>
        <time>2021-01-30T11:21:59Z</time>
      </trkpt>
      <trkpt lat="45.18822" lon="5.67382">
        <ele>361.4</ele>
        <time>2021-01-30T11:22:00Z</time>
      </trkpt>
      <trkpt lat="45.18824" lon="5.67381">
        <ele>361.4</ele>
        <time>2021-01-30T11:22:01Z</time>
      </trkpt>
      <trkpt lat="45.18825" lon="5.67379">
        <ele>361.4</ele>
        <time>2021-01-30T11:22:02Z</time>
      </trkpt>
      <trkpt lat="45.18827" lon="5.67378">
        <ele>361.8</ele>
        <time>2021-01-30T11:22:03Z</time>
      </trkpt>
      <trkpt lat="45.1883" lon="5.67376">
        <ele>361.8</ele>
        <time>2021-01-30T11:22:04Z</time>
      </trkpt>
      <trkpt lat="45.18832" lon="5.67375">
        <ele>361.6</ele>
        <time>2021-01-30T11:22:05Z</time>
      </trkpt>
      <trkpt lat="45.18834" lon="5.67374">
        <ele>361.2</ele>
        <time>2021-01-30T11:22:06Z</time>
      </trkpt>
      <trkpt lat="45.18837" lon="5.67373">
        <ele>361.4</ele>
        <time>2021-01-30T11:22:07Z</time>
      </trkpt>
      <trkpt lat="45.18839" lon="5.67371">
        <ele>361.8</ele>
        <time>2021-01-30T11:22:08Z</time>
      </trkpt>
      <trkpt lat="45.18841" lon="5.67369">
        <ele>361.8</ele>
        <time>2021-01-30T11:22:09Z</time>
      </trkpt>
      <trkpt lat="45.18843" lon="5.67367">
        <ele>361.8</ele>
        <time>2021-01-30T11:22:10Z</time>
      </trkpt>
      <trkpt lat="45.18845" lon="5.67364">
        <ele>362</ele>
        <time>2021-01-30T11:22:11Z</time>
      </trkpt>
      <trkpt lat="45.18847" lon="5.67362">
        <ele>361.8</ele>
        <time>2021-01-30T11:22:12Z</time>
      </trkpt>
      <trkpt lat="45.1885" lon="5.67361">
        <ele>362</ele>
        <time>2021-01-30T11:22:13Z</time>
      </trkpt>
      <trkpt lat="45.18852" lon="5.6736">
        <ele>362.4</ele>
        <time>2021-01-30T11:22:14Z</time>
      </trkpt>
      <trkpt lat="45.18854" lon="5.67359">
        <ele>362.2</ele>
        <time>2021-01-30T11:22:15Z</time>
      </trkpt>
      <trkpt lat="45.18856" lon="5.67358">
        <ele>362.4</ele>
        <time>2021-01-30T11:22:16Z</time>
      </trkpt>
      <trkpt lat="45.18858" lon="5.67356">
        <ele>362.6</ele>
        <time>2021-01-30T11:22:17Z</time>
      </trkpt>
      <trkpt lat="45.18861" lon="5.67355">
        <ele>362.6</ele>
        <time>2021-01-30T11:22:18Z</time>
      </trkpt>
      <trkpt lat="45.18863" lon="5.67354">
        <ele>362.8</ele>
        <time>2021-01-30T11:22:19Z</time>
      </trkpt>
      <trkpt lat="45.18865" lon="5.67353">
        <ele>362.6</ele>
        <time>2021-01-30T11:22:20Z</time>
      </trkpt>
      <trkpt lat="45.18867" lon="5.67351">
        <ele>362.6</ele>
        <time>2021-01-30T11:22:21Z</time>
      </trkpt>
      <trkpt lat="45.18869" lon="5.67349">
        <ele>363</ele>
        <time>2021-01-30T11:22:22Z</time>
      </trkpt>
      <trkpt lat="45.18871" lon="5.67347">
        <ele>363</ele>
        <time>2021-01-30T11:22:23Z</time>
      </trkpt>
      <trkpt lat="45.18873" lon="5.67345">
        <ele>363</ele>
        <time>2021-01-30T11:22:24Z</time>
      </trkpt>
      <trkpt lat="45.18876" lon="5.67344">
        <ele>363.2</ele>
        <time>2021-01-30T11:22:25Z</time>
      </trkpt>
      <trkpt lat="45.18878" lon="5.67343">
        <ele>363</ele>
        <time>2021-01-30T11:22:26Z</time>
      </trkpt>
      <trkpt lat="45.18881" lon="5.67342">
        <ele>363.2</ele>
        <time>2021-01-30T11:22:27Z</time>
      </trkpt>
      <trkpt lat="45.18883" lon="5.6734">
        <ele>363.2</ele>
        <time>2021-01-30T11:22:28Z</time>
      </trkpt>
      <trkpt lat="45.18886" lon="5.67339">
        <ele>362.8</ele>
        <time>2021-01-30T11:22:29Z</time>
      </trkpt>
      <trkpt lat="45.18888" lon="5.67337">
        <ele>363.4</ele>
        <time>2021-01-30T11:22:30Z</time>
      </trkpt>
      <trkpt lat="45.1889" lon="5.67336">
        <ele>363.4</ele>
        <time>2021-01-30T11:22:31Z</time>
      </trkpt>
      <trkpt lat="45.18891" lon="5.67334">
        <ele>363.2</ele>
        <time>2021-01-30T11:22:32Z</time>
      </trkpt>
      <trkpt lat="45.18893" lon="5.67331">
        <ele>363.4</ele>
        <time>2021-01-30T11:22:33Z</time>
      </trkpt>
      <trkpt lat="45.18895" lon="5.67328">
        <ele>363.4</ele>
        <time>2021-01-30T11:22:34Z</time>
      </trkpt>
      <trkpt lat="45.18896" lon="5.67326">
        <ele>363.4</ele>
        <time>2021-01-30T11:22:35Z</time>
      </trkpt>
      <trkpt lat="45.18898" lon="5.67323">
        <ele>363.6</ele>
        <time>2021-01-30T11:22:36Z</time>
      </trkpt>
      <trkpt lat="45.189" lon="5.67321">
        <ele>363.8</ele>
        <time>2021-01-30T11:22:37Z</time>
      </trkpt>
      <trkpt lat="45.18901" lon="5.67319">
        <ele>364.2</ele>
        <time>2021-01-30T11:22:38Z</time>
      </trkpt>
      <trkpt lat="45.18903" lon="5.67317">
        <ele>364.4</ele>
        <time>2021-01-30T11:22:39Z</time>
      </trkpt>
      <trkpt lat="45.18905" lon="5.67315">
        <ele>365</ele>
        <time>2021-01-30T11:22:40Z</time>
      </trkpt>
      <trkpt lat="45.18906" lon="5.67313">
        <ele>365.2</ele>
        <time>2021-01-30T11:22:41Z</time>
      </trkpt>
      <trkpt lat="45.18908" lon="5.67311">
        <ele>365.8</ele>
        <time>2021-01-30T11:22:42Z</time>
      </trkpt>
      <trkpt lat="45.1891" lon="5.67309">
        <ele>366.2</ele>
        <time>2021-01-30T11:22:43Z</time>
      </trkpt>
      <trkpt lat="45.18912" lon="5.67307">
        <ele>366.6</ele>
        <time>2021-01-30T11:22:44Z</time>
      </trkpt>
      <trkpt lat="45.18913" lon="5.67304">
        <ele>366.8</ele>
        <time>2021-01-30T11:22:45Z</time>
      </trkpt>
      <trkpt lat="45.18914" lon="5.67301">
        <ele>367</ele>
        <time>2021-01-30T11:22:46Z</time>
      </trkpt>
      <trkpt lat="45.18915" lon="5.67298">
        <ele>367.4</ele>
        <time>2021-01-30T11:22:47Z</time>
      </trkpt>
      <trkpt lat="45.18917" lon="5.67295">
        <ele>367.8</ele>
        <time>2021-01-30T11:22:48Z</time>
      </trkpt>
      <trkpt lat="45.18919" lon="5.67292">
        <ele>368</ele>
        <time>2021-01-30T11:22:49Z</time>
      </trkpt>
      <trkpt lat="45.1892" lon="5.6729">
        <ele>369</ele>
        <time>2021-01-30T11:22:50Z</time>
      </trkpt>
      <trkpt lat="45.18921" lon="5.67287">
        <ele>369.2</ele>
        <time>2021-01-30T11:22:51Z</time>
      </trkpt>
      <trkpt lat="45.18923" lon="5.67284">
        <ele>369.2</ele>
        <time>2021-01-30T11:22:52Z</time>
      </trkpt>
      <trkpt lat="45.18924" lon="5.67281">
        <ele>369.4</ele>
        <time>2021-01-30T11:22:53Z</time>
      </trkpt>
      <trkpt lat="45.18926" lon="5.67279">
        <ele>369.4</ele>
        <time>2021-01-30T11:22:54Z</time>
      </trkpt>
      <trkpt lat="45.18927" lon="5.67276">
        <ele>369.6</ele>
        <time>2021-01-30T11:22:55Z</time>
      </trkpt>
      <trkpt lat="45.18929" lon="5.67274">
        <ele>370</ele>
        <time>2021-01-30T11:22:56Z</time>
      </trkpt>
      <trkpt lat="45.18931" lon="5.67271">
        <ele>370</ele>
        <time>2021-01-30T11:22:57Z</time>
      </trkpt>
      <trkpt lat="45.18932" lon="5.67268">
        <ele>370.4</ele>
        <time>2021-01-30T11:22:58Z</time>
      </trkpt>
      <trkpt lat="45.18934" lon="5.67265">
        <ele>370.4</ele>
        <time>2021-01-30T11:22:59Z</time>
      </trkpt>
      <trkpt lat="45.18937" lon="5.67262">
        <ele>371.2</ele>
        <time>2021-01-30T11:23:01Z</time>
      </trkpt>
      <trkpt lat="45.18938" lon="5.67261">
        <ele>371.4</ele>
        <time>2021-01-30T11:23:02Z</time>
      </trkpt>
      <trkpt lat="45.18942" lon="5.6726">
        <ele>371.8</ele>
        <time>2021-01-30T11:23:04Z</time>
      </trkpt>
      <trkpt lat="45.18944" lon="5.6726">
        <ele>371.8</ele>
        <time>2021-01-30T11:23:05Z</time>
      </trkpt>
      <trkpt lat="45.18946" lon="5.67259">
        <ele>372.2</ele>
        <time>2021-01-30T11:23:06Z</time>
      </trkpt>
      <trkpt lat="45.18949" lon="5.67259">
        <ele>372.2</ele>
        <time>2021-01-30T11:23:07Z</time>
      </trkpt>
      <trkpt lat="45.18951" lon="5.67258">
        <ele>373.2</ele>
        <time>2021-01-30T11:23:08Z</time>
      </trkpt>
      <trkpt lat="45.18953" lon="5.67257">
        <ele>373.4</ele>
        <time>2021-01-30T11:23:09Z</time>
      </trkpt>
      <trkpt lat="45.18957" lon="5.67255">
        <ele>373.8</ele>
        <time>2021-01-30T11:23:11Z</time>
      </trkpt>
      <trkpt lat="45.18958" lon="5.67254">
        <ele>374.6</ele>
        <time>2021-01-30T11:23:12Z</time>
      </trkpt>
      <trkpt lat="45.1896" lon="5.67252">
        <ele>374.6</ele>
        <time>2021-01-30T11:23:13Z</time>
      </trkpt>
      <trkpt lat="45.18961" lon="5.6725">
        <ele>374.6</ele>
        <time>2021-01-30T11:23:14Z</time>
      </trkpt>
      <trkpt lat="45.18962" lon="5.67247">
        <ele>374.4</ele>
        <time>2021-01-30T11:23:15Z</time>
      </trkpt>
      <trkpt lat="45.18963" lon="5.67244">
        <ele>374.4</ele>
        <time>2021-01-30T11:23:16Z</time>
      </trkpt>
      <trkpt lat="45.18964" lon="5.67241">
        <ele>374.6</ele>
        <time>2021-01-30T11:23:17Z</time>
      </trkpt>
      <trkpt lat="45.18965" lon="5.67238">
        <ele>375</ele>
        <time>2021-01-30T11:23:18Z</time>
      </trkpt>
      <trkpt lat="45.18965" lon="5.67236">
        <ele>375</ele>
        <time>2021-01-30T11:23:19Z</time>
      </trkpt>
      <trkpt lat="45.18963" lon="5.67231">
        <ele>376</ele>
        <time>2021-01-30T11:23:21Z</time>
      </trkpt>
      <trkpt lat="45.18962" lon="5.67228">
        <ele>376.2</ele>
        <time>2021-01-30T11:23:22Z</time>
      </trkpt>
      <trkpt lat="45.18961" lon="5.67223">
        <ele>376.8</ele>
        <time>2021-01-30T11:23:24Z</time>
      </trkpt>
      <trkpt lat="45.1896" lon="5.6722">
        <ele>377.2</ele>
        <time>2021-01-30T11:23:25Z</time>
      </trkpt>
      <trkpt lat="45.18958" lon="5.67216">
        <ele>378.4</ele>
        <time>2021-01-30T11:23:27Z</time>
      </trkpt>
      <trkpt lat="45.18958" lon="5.67212">
        <ele>379.4</ele>
        <time>2021-01-30T11:23:29Z</time>
      </trkpt>
      <trkpt lat="45.18957" lon="5.67209">
        <ele>379.6</ele>
        <time>2021-01-30T11:23:30Z</time>
      </trkpt>
      <trkpt lat="45.18956" lon="5.67206">
        <ele>380</ele>
        <time>2021-01-30T11:23:31Z</time>
      </trkpt>
      <trkpt lat="45.18955" lon="5.67203">
        <ele>380.4</ele>
        <time>2021-01-30T11:23:32Z</time>
      </trkpt>
      <trkpt lat="45.18955" lon="5.672">
        <ele>381</ele>
        <time>2021-01-30T11:23:33Z</time>
      </trkpt>
      <trkpt lat="45.18954" lon="5.67196">
        <ele>381.8</ele>
        <time>2021-01-30T11:23:35Z</time>
      </trkpt>
      <trkpt lat="45.18954" lon="5.6719">
        <ele>382.2</ele>
        <time>2021-01-30T11:23:37Z</time>
      </trkpt>
      <trkpt lat="45.18954" lon="5.67187">
        <ele>382.4</ele>
        <time>2021-01-30T11:23:38Z</time>
      </trkpt>
      <trkpt lat="45.18954" lon="5.67185">
        <ele>382.4</ele>
        <time>2021-01-30T11:23:39Z</time>
      </trkpt>
      <trkpt lat="45.18953" lon="5.6718">
        <ele>383.2</ele>
        <time>2021-01-30T11:23:41Z</time>
      </trkpt>
      <trkpt lat="45.18953" lon="5.67177">
        <ele>383.6</ele>
        <time>2021-01-30T11:23:42Z</time>
      </trkpt>
      <trkpt lat="45.18951" lon="5.67172">
        <ele>383.6</ele>
        <time>2021-01-30T11:23:44Z</time>
      </trkpt>
      <trkpt lat="45.1895" lon="5.67169">
        <ele>384.2</ele>
        <time>2021-01-30T11:23:45Z</time>
      </trkpt>
      <trkpt lat="45.18949" lon="5.67167">
        <ele>384.2</ele>
        <time>2021-01-30T11:23:46Z</time>
      </trkpt>
      <trkpt lat="45.18948" lon="5.67164">
        <ele>385</ele>
        <time>2021-01-30T11:23:48Z</time>
      </trkpt>
      <trkpt lat="45.18947" lon="5.6716">
        <ele>386.4</ele>
        <time>2021-01-30T11:23:50Z</time>
      </trkpt>
      <trkpt lat="45.18945" lon="5.67157">
        <ele>387</ele>
        <time>2021-01-30T11:23:52Z</time>
      </trkpt>
      <trkpt lat="45.18944" lon="5.67154">
        <ele>387.8</ele>
        <time>2021-01-30T11:23:54Z</time>
      </trkpt>
      <trkpt lat="45.18942" lon="5.6715">
        <ele>388.6</ele>
        <time>2021-01-30T11:23:56Z</time>
      </trkpt>
      <trkpt lat="45.18941" lon="5.67148">
        <ele>389.6</ele>
        <time>2021-01-30T11:23:58Z</time>
      </trkpt>
      <trkpt lat="45.18938" lon="5.67145">
        <ele>390.2</ele>
        <time>2021-01-30T11:24:00Z</time>
      </trkpt>
      <trkpt lat="45.18935" lon="5.67144">
        <ele>390.8</ele>
        <time>2021-01-30T11:24:02Z</time>
      </trkpt>
      <trkpt lat="45.18933" lon="5.67142">
        <ele>391.2</ele>
        <time>2021-01-30T11:24:04Z</time>
      </trkpt>
      <trkpt lat="45.1893" lon="5.67139">
        <ele>392.4</ele>
        <time>2021-01-30T11:24:06Z</time>
      </trkpt>
      <trkpt lat="45.18928" lon="5.67138">
        <ele>392.6</ele>
        <time>2021-01-30T11:24:07Z</time>
      </trkpt>
      <trkpt lat="45.18925" lon="5.67137">
        <ele>393</ele>
        <time>2021-01-30T11:24:09Z</time>
      </trkpt>
      <trkpt lat="45.18922" lon="5.67134">
        <ele>394.4</ele>
        <time>2021-01-30T11:24:12Z</time>
      </trkpt>
      <trkpt lat="45.1892" lon="5.67133">
        <ele>394.4</ele>
        <time>2021-01-30T11:24:14Z</time>
      </trkpt>
      <trkpt lat="45.18918" lon="5.67131">
        <ele>395.4</ele>
        <time>2021-01-30T11:24:16Z</time>
      </trkpt>
      <trkpt lat="45.18915" lon="5.6713">
        <ele>395.6</ele>
        <time>2021-01-30T11:24:18Z</time>
      </trkpt>
      <trkpt lat="45.18913" lon="5.67129">
        <ele>395.8</ele>
        <time>2021-01-30T11:24:19Z</time>
      </trkpt>
      <trkpt lat="45.18911" lon="5.67128">
        <ele>396.2</ele>
        <time>2021-01-30T11:24:21Z</time>
      </trkpt>
      <trkpt lat="45.18909" lon="5.67127">
        <ele>396.8</ele>
        <time>2021-01-30T11:24:23Z</time>
      </trkpt>
      <trkpt lat="45.18906" lon="5.67125">
        <ele>397.8</ele>
        <time>2021-01-30T11:24:25Z</time>
      </trkpt>
      <trkpt lat="45.18903" lon="5.67124">
        <ele>398.6</ele>
        <time>2021-01-30T11:24:27Z</time>
      </trkpt>
      <trkpt lat="45.189" lon="5.67122">
        <ele>399.2</ele>
        <time>2021-01-30T11:24:29Z</time>
      </trkpt>
      <trkpt lat="45.18896" lon="5.6712">
        <ele>399.4</ele>
        <time>2021-01-30T11:24:31Z</time>
      </trkpt>
      <trkpt lat="45.18894" lon="5.67119">
        <ele>400</ele>
        <time>2021-01-30T11:24:32Z</time>
      </trkpt>
      <trkpt lat="45.18892" lon="5.67118">
        <ele>400.4</ele>
        <time>2021-01-30T11:24:33Z</time>
      </trkpt>
      <trkpt lat="45.18889" lon="5.67117">
        <ele>400.6</ele>
        <time>2021-01-30T11:24:35Z</time>
      </trkpt>
      <trkpt lat="45.18886" lon="5.67116">
        <ele>401</ele>
        <time>2021-01-30T11:24:37Z</time>
      </trkpt>
      <trkpt lat="45.18883" lon="5.67114">
        <ele>401.6</ele>
        <time>2021-01-30T11:24:39Z</time>
      </trkpt>
      <trkpt lat="45.18881" lon="5.67114">
        <ele>401.6</ele>
        <time>2021-01-30T11:24:40Z</time>
      </trkpt>
      <trkpt lat="45.18879" lon="5.67113">
        <ele>402</ele>
        <time>2021-01-30T11:24:41Z</time>
      </trkpt>
      <trkpt lat="45.18875" lon="5.67112">
        <ele>402.8</ele>
        <time>2021-01-30T11:24:43Z</time>
      </trkpt>
      <trkpt lat="45.18873" lon="5.67111">
        <ele>403.2</ele>
        <time>2021-01-30T11:24:45Z</time>
      </trkpt>
      <trkpt lat="45.18869" lon="5.6711">
        <ele>403.6</ele>
        <time>2021-01-30T11:24:47Z</time>
      </trkpt>
      <trkpt lat="45.18866" lon="5.67109">
        <ele>404.4</ele>
        <time>2021-01-30T11:24:49Z</time>
      </trkpt>
      <trkpt lat="45.18864" lon="5.67108">
        <ele>404.6</ele>
        <time>2021-01-30T11:24:50Z</time>
      </trkpt>
      <trkpt lat="45.18862" lon="5.67107">
        <ele>405.4</ele>
        <time>2021-01-30T11:24:52Z</time>
      </trkpt>
      <trkpt lat="45.1886" lon="5.67106">
        <ele>406.2</ele>
        <time>2021-01-30T11:24:55Z</time>
      </trkpt>
      <trkpt lat="45.18857" lon="5.67104">
        <ele>406.2</ele>
        <time>2021-01-30T11:24:57Z</time>
      </trkpt>
      <trkpt lat="45.18854" lon="5.67102">
        <ele>406.6</ele>
        <time>2021-01-30T11:24:59Z</time>
      </trkpt>
      <trkpt lat="45.18851" lon="5.67101">
        <ele>406.8</ele>
        <time>2021-01-30T11:25:01Z</time>
      </trkpt>
      <trkpt lat="45.18848" lon="5.67099">
        <ele>406.6</ele>
        <time>2021-01-30T11:25:03Z</time>
      </trkpt>
      <trkpt lat="45.18846" lon="5.67098">
        <ele>406.8</ele>
        <time>2021-01-30T11:25:04Z</time>
      </trkpt>
      <trkpt lat="45.18844" lon="5.67096">
        <ele>406.4</ele>
        <time>2021-01-30T11:25:05Z</time>
      </trkpt>
      <trkpt lat="45.18841" lon="5.67095">
        <ele>407</ele>
        <time>2021-01-30T11:25:06Z</time>
      </trkpt>
      <trkpt lat="45.18839" lon="5.67094">
        <ele>406.8</ele>
        <time>2021-01-30T11:25:07Z</time>
      </trkpt>
      <trkpt lat="45.18837" lon="5.67093">
        <ele>407</ele>
        <time>2021-01-30T11:25:08Z</time>
      </trkpt>
      <trkpt lat="45.18834" lon="5.67092">
        <ele>406.6</ele>
        <time>2021-01-30T11:25:09Z</time>
      </trkpt>
      <trkpt lat="45.18832" lon="5.67091">
        <ele>406.8</ele>
        <time>2021-01-30T11:25:10Z</time>
      </trkpt>
      <trkpt lat="45.1883" lon="5.6709">
        <ele>406.6</ele>
        <time>2021-01-30T11:25:11Z</time>
      </trkpt>
      <trkpt lat="45.18822" lon="5.67087">
        <ele>406</ele>
        <time>2021-01-30T11:29:18Z</time>
      </trkpt>
      <trkpt lat="45.1882" lon="5.67087">
        <ele>406.2</ele>
        <time>2021-01-30T11:29:20Z</time>
      </trkpt>
      <trkpt lat="45.18818" lon="5.67087">
        <ele>406.4</ele>
        <time>2021-01-30T11:29:22Z</time>
      </trkpt>
      <trkpt lat="45.18814" lon="5.67087">
        <ele>406.8</ele>
        <time>2021-01-30T11:29:24Z</time>
      </trkpt>
      <trkpt lat="45.1881" lon="5.67087">
        <ele>408.2</ele>
        <time>2021-01-30T11:29:26Z</time>
      </trkpt>
      <trkpt lat="45.18807" lon="5.67087">
        <ele>408.6</ele>
        <time>2021-01-30T11:29:28Z</time>
      </trkpt>
      <trkpt lat="45.18804" lon="5.67086">
        <ele>409.8</ele>
        <time>2021-01-30T11:29:31Z</time>
      </trkpt>
      <trkpt lat="45.18802" lon="5.67083">
        <ele>409.8</ele>
        <time>2021-01-30T11:29:33Z</time>
      </trkpt>
      <trkpt lat="45.188" lon="5.67079">
        <ele>410.8</ele>
        <time>2021-01-30T11:29:35Z</time>
      </trkpt>
      <trkpt lat="45.18799" lon="5.67077">
        <ele>410.8</ele>
        <time>2021-01-30T11:29:36Z</time>
      </trkpt>
      <trkpt lat="45.18798" lon="5.67075">
        <ele>411.6</ele>
        <time>2021-01-30T11:29:37Z</time>
      </trkpt>
      <trkpt lat="45.18796" lon="5.67074">
        <ele>411.8</ele>
        <time>2021-01-30T11:29:38Z</time>
      </trkpt>
      <trkpt lat="45.1879" lon="5.67071">
        <ele>412.2</ele>
        <time>2021-01-30T11:29:40Z</time>
      </trkpt>
      <trkpt lat="45.18787" lon="5.6707">
        <ele>412.4</ele>
        <time>2021-01-30T11:29:41Z</time>
      </trkpt>
      <trkpt lat="45.18784" lon="5.67069">
        <ele>412.2</ele>
        <time>2021-01-30T11:29:42Z</time>
      </trkpt>
      <trkpt lat="45.18782" lon="5.67068">
        <ele>412.4</ele>
        <time>2021-01-30T11:29:43Z</time>
      </trkpt>
      <trkpt lat="45.18779" lon="5.67068">
        <ele>412.4</ele>
        <time>2021-01-30T11:29:44Z</time>
      </trkpt>
      <trkpt lat="45.18777" lon="5.67068">
        <ele>412.6</ele>
        <time>2021-01-30T11:29:45Z</time>
      </trkpt>
      <trkpt lat="45.18774" lon="5.67067">
        <ele>412.6</ele>
        <time>2021-01-30T11:29:46Z</time>
      </trkpt>
      <trkpt lat="45.18767" lon="5.67068">
        <ele>412.8</ele>
        <time>2021-01-30T11:29:48Z</time>
      </trkpt>
      <trkpt lat="45.1876" lon="5.67067">
        <ele>412.8</ele>
        <time>2021-01-30T11:29:50Z</time>
      </trkpt>
      <trkpt lat="45.18756" lon="5.67068">
        <ele>412.6</ele>
        <time>2021-01-30T11:29:51Z</time>
      </trkpt>
      <trkpt lat="45.18753" lon="5.67068">
        <ele>412.6</ele>
        <time>2021-01-30T11:29:52Z</time>
      </trkpt>
      <trkpt lat="45.18749" lon="5.67067">
        <ele>412.4</ele>
        <time>2021-01-30T11:29:53Z</time>
      </trkpt>
      <trkpt lat="45.18745" lon="5.67067">
        <ele>412</ele>
        <time>2021-01-30T11:29:54Z</time>
      </trkpt>
      <trkpt lat="45.18742" lon="5.67066">
        <ele>411.8</ele>
        <time>2021-01-30T11:29:55Z</time>
      </trkpt>
      <trkpt lat="45.18739" lon="5.67066">
        <ele>411.6</ele>
        <time>2021-01-30T11:29:56Z</time>
      </trkpt>
      <trkpt lat="45.18736" lon="5.67064">
        <ele>411.4</ele>
        <time>2021-01-30T11:29:57Z</time>
      </trkpt>
      <trkpt lat="45.18733" lon="5.67063">
        <ele>411.4</ele>
        <time>2021-01-30T11:29:58Z</time>
      </trkpt>
      <trkpt lat="45.1873" lon="5.67061">
        <ele>411.4</ele>
        <time>2021-01-30T11:29:59Z</time>
      </trkpt>
      <trkpt lat="45.18726" lon="5.6706">
        <ele>402.1</ele>
        <time>2021-01-30T11:30:00Z</time>
      </trkpt>
      <trkpt lat="45.18722" lon="5.6706">
        <ele>411.4</ele>
        <time>2021-01-30T11:30:01Z</time>
      </trkpt>
      <trkpt lat="45.18719" lon="5.6706">
        <ele>411.6</ele>
        <time>2021-01-30T11:30:02Z</time>
      </trkpt>
      <trkpt lat="45.18716" lon="5.6706">
        <ele>411.6</ele>
        <time>2021-01-30T11:30:03Z</time>
      </trkpt>
      <trkpt lat="45.18714" lon="5.6706">
        <ele>411.4</ele>
        <time>2021-01-30T11:30:04Z</time>
      </trkpt>
      <trkpt lat="45.18711" lon="5.6706">
        <ele>402.2</ele>
        <time>2021-01-30T11:30:05Z</time>
      </trkpt>
      <trkpt lat="45.1871" lon="5.67061">
        <ele>411.4</ele>
        <time>2021-01-30T11:30:06Z</time>
      </trkpt>
      <trkpt lat="45.18707" lon="5.67062">
        <ele>410.8</ele>
        <time>2021-01-30T11:30:08Z</time>
      </trkpt>
      <trkpt lat="45.18706" lon="5.6706">
        <ele>410.6</ele>
        <time>2021-01-30T11:30:09Z</time>
      </trkpt>
      <trkpt lat="45.18701" lon="5.6705">
        <ele>411</ele>
        <time>2021-01-30T11:30:13Z</time>
      </trkpt>
      <trkpt lat="45.187" lon="5.67047">
        <ele>411.2</ele>
        <time>2021-01-30T11:30:14Z</time>
      </trkpt>
      <trkpt lat="45.18699" lon="5.67045">
        <ele>411.4</ele>
        <time>2021-01-30T11:30:15Z</time>
      </trkpt>
      <trkpt lat="45.18698" lon="5.67042">
        <ele>411.4</ele>
        <time>2021-01-30T11:30:16Z</time>
      </trkpt>
      <trkpt lat="45.18697" lon="5.67039">
        <ele>411.6</ele>
        <time>2021-01-30T11:30:17Z</time>
      </trkpt>
      <trkpt lat="45.18697" lon="5.67033">
        <ele>412.2</ele>
        <time>2021-01-30T11:30:19Z</time>
      </trkpt>
      <trkpt lat="45.18696" lon="5.6703">
        <ele>412.2</ele>
        <time>2021-01-30T11:30:20Z</time>
      </trkpt>
      <trkpt lat="45.18695" lon="5.67027">
        <ele>412.6</ele>
        <time>2021-01-30T11:30:21Z</time>
      </trkpt>
      <trkpt lat="45.18694" lon="5.67024">
        <ele>412.8</ele>
        <time>2021-01-30T11:30:22Z</time>
      </trkpt>
      <trkpt lat="45.18694" lon="5.67019">
        <ele>412.8</ele>
        <time>2021-01-30T11:30:24Z</time>
      </trkpt>
      <trkpt lat="45.18694" lon="5.67016">
        <ele>412.8</ele>
        <time>2021-01-30T11:30:25Z</time>
      </trkpt>
      <trkpt lat="45.18694" lon="5.67012">
        <ele>413</ele>
        <time>2021-01-30T11:30:27Z</time>
      </trkpt>
      <trkpt lat="45.18698" lon="5.67009">
        <ele>413.8</ele>
        <time>2021-01-30T11:30:29Z</time>
      </trkpt>
      <trkpt lat="45.18699" lon="5.67005">
        <ele>413.4</ele>
        <time>2021-01-30T11:30:30Z</time>
      </trkpt>
      <trkpt lat="45.187" lon="5.67002">
        <ele>414</ele>
        <time>2021-01-30T11:30:31Z</time>
      </trkpt>
      <trkpt lat="45.187" lon="5.66998">
        <ele>414.2</ele>
        <time>2021-01-30T11:30:32Z</time>
      </trkpt>
      <trkpt lat="45.187" lon="5.66995">
        <ele>413.6</ele>
        <time>2021-01-30T11:30:33Z</time>
      </trkpt>
      <trkpt lat="45.18691" lon="5.66995">
        <ele>413.6</ele>
        <time>2021-01-30T11:30:37Z</time>
      </trkpt>
      <trkpt lat="45.18689" lon="5.66996">
        <ele>414</ele>
        <time>2021-01-30T11:30:39Z</time>
      </trkpt>
      <trkpt lat="45.18686" lon="5.66996">
        <ele>413.6</ele>
        <time>2021-01-30T11:30:40Z</time>
      </trkpt>
      <trkpt lat="45.18683" lon="5.66994">
        <ele>412.8</ele>
        <time>2021-01-30T11:30:42Z</time>
      </trkpt>
      <trkpt lat="45.18681" lon="5.66992">
        <ele>412.6</ele>
        <time>2021-01-30T11:30:43Z</time>
      </trkpt>
      <trkpt lat="45.1868" lon="5.66991">
        <ele>412</ele>
        <time>2021-01-30T11:30:44Z</time>
      </trkpt>
      <trkpt lat="45.18678" lon="5.66986">
        <ele>411.4</ele>
        <time>2021-01-30T11:30:46Z</time>
      </trkpt>
      <trkpt lat="45.18677" lon="5.66983">
        <ele>410.8</ele>
        <time>2021-01-30T11:30:47Z</time>
      </trkpt>
      <trkpt lat="45.18676" lon="5.6698">
        <ele>410.4</ele>
        <time>2021-01-30T11:30:48Z</time>
      </trkpt>
      <trkpt lat="45.18676" lon="5.66977">
        <ele>409.8</ele>
        <time>2021-01-30T11:30:49Z</time>
      </trkpt>
      <trkpt lat="45.18674" lon="5.66974">
        <ele>409.4</ele>
        <time>2021-01-30T11:30:50Z</time>
      </trkpt>
      <trkpt lat="45.18673" lon="5.6697">
        <ele>409.6</ele>
        <time>2021-01-30T11:30:51Z</time>
      </trkpt>
      <trkpt lat="45.18672" lon="5.66966">
        <ele>409.2</ele>
        <time>2021-01-30T11:30:52Z</time>
      </trkpt>
      <trkpt lat="45.18671" lon="5.66962">
        <ele>408.6</ele>
        <time>2021-01-30T11:30:53Z</time>
      </trkpt>
      <trkpt lat="45.18667" lon="5.66948">
        <ele>406.8</ele>
        <time>2021-01-30T11:30:57Z</time>
      </trkpt>
      <trkpt lat="45.18664" lon="5.66943">
        <ele>407</ele>
        <time>2021-01-30T11:30:59Z</time>
      </trkpt>
      <trkpt lat="45.1866" lon="5.66939">
        <ele>406.6</ele>
        <time>2021-01-30T11:31:01Z</time>
      </trkpt>
      <trkpt lat="45.18657" lon="5.66939">
        <ele>406.4</ele>
        <time>2021-01-30T11:31:02Z</time>
      </trkpt>
      <trkpt lat="45.18655" lon="5.66937">
        <ele>406.4</ele>
        <time>2021-01-30T11:31:03Z</time>
      </trkpt>
      <trkpt lat="45.18653" lon="5.66937">
        <ele>406.6</ele>
        <time>2021-01-30T11:31:04Z</time>
      </trkpt>
      <trkpt lat="45.1865" lon="5.66936">
        <ele>406.6</ele>
        <time>2021-01-30T11:31:05Z</time>
      </trkpt>
      <trkpt lat="45.18647" lon="5.66935">
        <ele>406.6</ele>
        <time>2021-01-30T11:31:07Z</time>
      </trkpt>
      <trkpt lat="45.18645" lon="5.66935">
        <ele>406.4</ele>
        <time>2021-01-30T11:31:08Z</time>
      </trkpt>
      <trkpt lat="45.18643" lon="5.66935">
        <ele>406.2</ele>
        <time>2021-01-30T11:31:09Z</time>
      </trkpt>
      <trkpt lat="45.1864" lon="5.66934">
        <ele>406.8</ele>
        <time>2021-01-30T11:31:11Z</time>
      </trkpt>
      <trkpt lat="45.18638" lon="5.66933">
        <ele>406.4</ele>
        <time>2021-01-30T11:31:12Z</time>
      </trkpt>
      <trkpt lat="45.18636" lon="5.66933">
        <ele>406.6</ele>
        <time>2021-01-30T11:31:13Z</time>
      </trkpt>
      <trkpt lat="45.18632" lon="5.66932">
        <ele>406.4</ele>
        <time>2021-01-30T11:31:15Z</time>
      </trkpt>
      <trkpt lat="45.18629" lon="5.6693">
        <ele>406</ele>
        <time>2021-01-30T11:31:16Z</time>
      </trkpt>
      <trkpt lat="45.18627" lon="5.66928">
        <ele>406.2</ele>
        <time>2021-01-30T11:31:17Z</time>
      </trkpt>
      <trkpt lat="45.18626" lon="5.66926">
        <ele>406.2</ele>
        <time>2021-01-30T11:31:18Z</time>
      </trkpt>
      <trkpt lat="45.18624" lon="5.66924">
        <ele>406.2</ele>
        <time>2021-01-30T11:31:19Z</time>
      </trkpt>
      <trkpt lat="45.18622" lon="5.66921">
        <ele>406.8</ele>
        <time>2021-01-30T11:31:20Z</time>
      </trkpt>
      <trkpt lat="45.18617" lon="5.6691">
        <ele>405.4</ele>
        <time>2021-01-30T11:31:24Z</time>
      </trkpt>
      <trkpt lat="45.18609" lon="5.66898">
        <ele>404.6</ele>
        <time>2021-01-30T11:31:27Z</time>
      </trkpt>
      <trkpt lat="45.18603" lon="5.66886">
        <ele>404</ele>
        <time>2021-01-30T11:31:30Z</time>
      </trkpt>
      <trkpt lat="45.18597" lon="5.66876">
        <ele>403.6</ele>
        <time>2021-01-30T11:31:33Z</time>
      </trkpt>
      <trkpt lat="45.1859" lon="5.66867">
        <ele>402.8</ele>
        <time>2021-01-30T11:31:37Z</time>
      </trkpt>
      <trkpt lat="45.18585" lon="5.66855">
        <ele>402.2</ele>
        <time>2021-01-30T11:31:41Z</time>
      </trkpt>
      <trkpt lat="45.1858" lon="5.66842">
        <ele>402.6</ele>
        <time>2021-01-30T11:31:44Z</time>
      </trkpt>
      <trkpt lat="45.18574" lon="5.66832">
        <ele>402.4</ele>
        <time>2021-01-30T11:31:47Z</time>
      </trkpt>
      <trkpt lat="45.18566" lon="5.66819">
        <ele>402.6</ele>
        <time>2021-01-30T11:31:51Z</time>
      </trkpt>
      <trkpt lat="45.18561" lon="5.66808">
        <ele>402.8</ele>
        <time>2021-01-30T11:31:56Z</time>
      </trkpt>
      <trkpt lat="45.18557" lon="5.66794">
        <ele>403.8</ele>
        <time>2021-01-30T11:32:01Z</time>
      </trkpt>
      <trkpt lat="45.18558" lon="5.6678">
        <ele>404.6</ele>
        <time>2021-01-30T11:32:06Z</time>
      </trkpt>
      <trkpt lat="45.1856" lon="5.66768">
        <ele>405.4</ele>
        <time>2021-01-30T11:32:10Z</time>
      </trkpt>
      <trkpt lat="45.18557" lon="5.66757">
        <ele>406.4</ele>
        <time>2021-01-30T11:32:14Z</time>
      </trkpt>
      <trkpt lat="45.18556" lon="5.66755">
        <ele>406.8</ele>
        <time>2021-01-30T11:32:15Z</time>
      </trkpt>
      <trkpt lat="45.18555" lon="5.66752">
        <ele>407.6</ele>
        <time>2021-01-30T11:32:16Z</time>
      </trkpt>
      <trkpt lat="45.18557" lon="5.66739">
        <ele>410.4</ele>
        <time>2021-01-30T11:32:23Z</time>
      </trkpt>
      <trkpt lat="45.18557" lon="5.66735">
        <ele>411</ele>
        <time>2021-01-30T11:32:25Z</time>
      </trkpt>
      <trkpt lat="45.18559" lon="5.66721">
        <ele>414.2</ele>
        <time>2021-01-30T11:32:31Z</time>
      </trkpt>
      <trkpt lat="45.1856" lon="5.66706">
        <ele>416.8</ele>
        <time>2021-01-30T11:32:37Z</time>
      </trkpt>
      <trkpt lat="45.1856" lon="5.66691">
        <ele>418.2</ele>
        <time>2021-01-30T11:32:42Z</time>
      </trkpt>
      <trkpt lat="45.1856" lon="5.66677">
        <ele>420.4</ele>
        <time>2021-01-30T11:32:47Z</time>
      </trkpt>
      <trkpt lat="45.18555" lon="5.66664">
        <ele>422.2</ele>
        <time>2021-01-30T11:32:53Z</time>
      </trkpt>
      <trkpt lat="45.18552" lon="5.66651">
        <ele>423</ele>
        <time>2021-01-30T11:32:59Z</time>
      </trkpt>
      <trkpt lat="45.18547" lon="5.66639">
        <ele>424.4</ele>
        <time>2021-01-30T11:33:05Z</time>
      </trkpt>
      <trkpt lat="45.18544" lon="5.66626">
        <ele>427.2</ele>
        <time>2021-01-30T11:33:12Z</time>
      </trkpt>
      <trkpt lat="45.18542" lon="5.66612">
        <ele>428.4</ele>
        <time>2021-01-30T11:33:17Z</time>
      </trkpt>
      <trkpt lat="45.18545" lon="5.66598">
        <ele>429.2</ele>
        <time>2021-01-30T11:33:22Z</time>
      </trkpt>
      <trkpt lat="45.18553" lon="5.66592">
        <ele>430.8</ele>
        <time>2021-01-30T11:33:28Z</time>
      </trkpt>
      <trkpt lat="45.18563" lon="5.66591">
        <ele>432.4</ele>
        <time>2021-01-30T11:33:33Z</time>
      </trkpt>
      <trkpt lat="45.18565" lon="5.6659">
        <ele>432.8</ele>
        <time>2021-01-30T11:33:34Z</time>
      </trkpt>
      <trkpt lat="45.18569" lon="5.66588">
        <ele>433.6</ele>
        <time>2021-01-30T11:33:36Z</time>
      </trkpt>
      <trkpt lat="45.18571" lon="5.66587">
        <ele>434</ele>
        <time>2021-01-30T11:33:37Z</time>
      </trkpt>
      <trkpt lat="45.18573" lon="5.66585">
        <ele>435</ele>
        <time>2021-01-30T11:33:39Z</time>
      </trkpt>
      <trkpt lat="45.18578" lon="5.66581">
        <ele>437</ele>
        <time>2021-01-30T11:33:44Z</time>
      </trkpt>
      <trkpt lat="45.18579" lon="5.66578">
        <ele>437.8</ele>
        <time>2021-01-30T11:33:46Z</time>
      </trkpt>
      <trkpt lat="45.18582" lon="5.66576">
        <ele>439</ele>
        <time>2021-01-30T11:33:48Z</time>
      </trkpt>
      <trkpt lat="45.18584" lon="5.66575">
        <ele>439.2</ele>
        <time>2021-01-30T11:33:50Z</time>
      </trkpt>
      <trkpt lat="45.18586" lon="5.66574">
        <ele>440</ele>
        <time>2021-01-30T11:33:52Z</time>
      </trkpt>
      <trkpt lat="45.18588" lon="5.66573">
        <ele>440.4</ele>
        <time>2021-01-30T11:33:53Z</time>
      </trkpt>
      <trkpt lat="45.1859" lon="5.66573">
        <ele>440.8</ele>
        <time>2021-01-30T11:33:54Z</time>
      </trkpt>
      <trkpt lat="45.18592" lon="5.66572">
        <ele>441.4</ele>
        <time>2021-01-30T11:33:55Z</time>
      </trkpt>
      <trkpt lat="45.18594" lon="5.66571">
        <ele>441.8</ele>
        <time>2021-01-30T11:33:56Z</time>
      </trkpt>
      <trkpt lat="45.18597" lon="5.66569">
        <ele>442</ele>
        <time>2021-01-30T11:33:58Z</time>
      </trkpt>
      <trkpt lat="45.186" lon="5.66568">
        <ele>442.6</ele>
        <time>2021-01-30T11:34:00Z</time>
      </trkpt>
      <trkpt lat="45.18602" lon="5.66569">
        <ele>443.6</ele>
        <time>2021-01-30T11:34:02Z</time>
      </trkpt>
      <trkpt lat="45.18605" lon="5.66569">
        <ele>444.8</ele>
        <time>2021-01-30T11:34:04Z</time>
      </trkpt>
      <trkpt lat="45.18606" lon="5.66567">
        <ele>445.2</ele>
        <time>2021-01-30T11:34:07Z</time>
      </trkpt>
      <trkpt lat="45.18608" lon="5.66565">
        <ele>446.2</ele>
        <time>2021-01-30T11:34:09Z</time>
      </trkpt>
      <trkpt lat="45.18611" lon="5.66563">
        <ele>446.6</ele>
        <time>2021-01-30T11:34:10Z</time>
      </trkpt>
      <trkpt lat="45.18613" lon="5.6656">
        <ele>447.2</ele>
        <time>2021-01-30T11:34:12Z</time>
      </trkpt>
      <trkpt lat="45.18616" lon="5.66559">
        <ele>447.8</ele>
        <time>2021-01-30T11:34:14Z</time>
      </trkpt>
      <trkpt lat="45.18619" lon="5.66559">
        <ele>448.4</ele>
        <time>2021-01-30T11:34:16Z</time>
      </trkpt>
      <trkpt lat="45.18622" lon="5.66558">
        <ele>449.2</ele>
        <time>2021-01-30T11:34:18Z</time>
      </trkpt>
      <trkpt lat="45.18624" lon="5.66558">
        <ele>449.6</ele>
        <time>2021-01-30T11:34:20Z</time>
      </trkpt>
      <trkpt lat="45.18626" lon="5.66556">
        <ele>450.4</ele>
        <time>2021-01-30T11:34:22Z</time>
      </trkpt>
      <trkpt lat="45.18626" lon="5.66553">
        <ele>451</ele>
        <time>2021-01-30T11:34:26Z</time>
      </trkpt>
      <trkpt lat="45.18628" lon="5.66551">
        <ele>451.2</ele>
        <time>2021-01-30T11:34:47Z</time>
      </trkpt>
      <trkpt lat="45.18631" lon="5.6655">
        <ele>451.4</ele>
        <time>2021-01-30T11:34:49Z</time>
      </trkpt>
      <trkpt lat="45.18634" lon="5.66547">
        <ele>452.2</ele>
        <time>2021-01-30T11:34:51Z</time>
      </trkpt>
      <trkpt lat="45.18636" lon="5.66545">
        <ele>452.4</ele>
        <time>2021-01-30T11:34:53Z</time>
      </trkpt>
      <trkpt lat="45.18639" lon="5.66542">
        <ele>453.4</ele>
        <time>2021-01-30T11:34:55Z</time>
      </trkpt>
      <trkpt lat="45.18641" lon="5.6654">
        <ele>454.2</ele>
        <time>2021-01-30T11:34:57Z</time>
      </trkpt>
      <trkpt lat="45.18643" lon="5.66538">
        <ele>455</ele>
        <time>2021-01-30T11:34:59Z</time>
      </trkpt>
      <trkpt lat="45.18646" lon="5.66523">
        <ele>457</ele>
        <time>2021-01-30T11:35:04Z</time>
      </trkpt>
      <trkpt lat="45.18651" lon="5.66513">
        <ele>458.4</ele>
        <time>2021-01-30T11:35:08Z</time>
      </trkpt>
      <trkpt lat="45.18652" lon="5.66511">
        <ele>458.8</ele>
        <time>2021-01-30T11:35:09Z</time>
      </trkpt>
      <trkpt lat="45.18654" lon="5.66507">
        <ele>459.2</ele>
        <time>2021-01-30T11:35:11Z</time>
      </trkpt>
      <trkpt lat="45.18656" lon="5.66501">
        <ele>460.2</ele>
        <time>2021-01-30T11:35:14Z</time>
      </trkpt>
      <trkpt lat="45.18662" lon="5.66491">
        <ele>462</ele>
        <time>2021-01-30T11:35:21Z</time>
      </trkpt>
      <trkpt lat="45.18663" lon="5.66488">
        <ele>462.6</ele>
        <time>2021-01-30T11:35:23Z</time>
      </trkpt>
      <trkpt lat="45.18664" lon="5.66475">
        <ele>466.2</ele>
        <time>2021-01-30T11:35:31Z</time>
      </trkpt>
      <trkpt lat="45.18661" lon="5.66463">
        <ele>468.8</ele>
        <time>2021-01-30T11:35:39Z</time>
      </trkpt>
      <trkpt lat="45.18654" lon="5.66453">
        <ele>471.2</ele>
        <time>2021-01-30T11:35:45Z</time>
      </trkpt>
      <trkpt lat="45.18645" lon="5.66444">
        <ele>474.6</ele>
        <time>2021-01-30T11:35:53Z</time>
      </trkpt>
      <trkpt lat="45.18637" lon="5.66437">
        <ele>475.6</ele>
        <time>2021-01-30T11:35:59Z</time>
      </trkpt>
      <trkpt lat="45.18628" lon="5.66431">
        <ele>476.6</ele>
        <time>2021-01-30T11:36:05Z</time>
      </trkpt>
      <trkpt lat="45.1862" lon="5.66422">
        <ele>478.8</ele>
        <time>2021-01-30T11:36:12Z</time>
      </trkpt>
      <trkpt lat="45.18613" lon="5.66412">
        <ele>479.6</ele>
        <time>2021-01-30T11:36:18Z</time>
      </trkpt>
      <trkpt lat="45.18609" lon="5.664">
        <ele>481.2</ele>
        <time>2021-01-30T11:36:25Z</time>
      </trkpt>
      <trkpt lat="45.18609" lon="5.66387">
        <ele>482.8</ele>
        <time>2021-01-30T11:36:32Z</time>
      </trkpt>
      <trkpt lat="45.18607" lon="5.66373">
        <ele>485.2</ele>
        <time>2021-01-30T11:36:39Z</time>
      </trkpt>
      <trkpt lat="45.18605" lon="5.66359">
        <ele>487.2</ele>
        <time>2021-01-30T11:36:46Z</time>
      </trkpt>
      <trkpt lat="45.18601" lon="5.66348">
        <ele>488</ele>
        <time>2021-01-30T11:36:51Z</time>
      </trkpt>
      <trkpt lat="45.18599" lon="5.66332">
        <ele>489.4</ele>
        <time>2021-01-30T11:36:57Z</time>
      </trkpt>
      <trkpt lat="45.18599" lon="5.66326">
        <ele>490</ele>
        <time>2021-01-30T11:36:59Z</time>
      </trkpt>
      <trkpt lat="45.18599" lon="5.66322">
        <ele>490.6</ele>
        <time>2021-01-30T11:37:01Z</time>
      </trkpt>
      <trkpt lat="45.18599" lon="5.66317">
        <ele>491</ele>
        <time>2021-01-30T11:37:03Z</time>
      </trkpt>
      <trkpt lat="45.18599" lon="5.66312">
        <ele>491.4</ele>
        <time>2021-01-30T11:37:05Z</time>
      </trkpt>
      <trkpt lat="45.18597" lon="5.66307">
        <ele>491.4</ele>
        <time>2021-01-30T11:37:07Z</time>
      </trkpt>
      <trkpt lat="45.18597" lon="5.66302">
        <ele>491.8</ele>
        <time>2021-01-30T11:37:09Z</time>
      </trkpt>
      <trkpt lat="45.18594" lon="5.66289">
        <ele>493.6</ele>
        <time>2021-01-30T11:37:16Z</time>
      </trkpt>
      <trkpt lat="45.18595" lon="5.66275">
        <ele>494.8</ele>
        <time>2021-01-30T11:37:21Z</time>
      </trkpt>
      <trkpt lat="45.18595" lon="5.66261">
        <ele>496</ele>
        <time>2021-01-30T11:37:26Z</time>
      </trkpt>
      <trkpt lat="45.18593" lon="5.66246">
        <ele>497</ele>
        <time>2021-01-30T11:37:32Z</time>
      </trkpt>
      <trkpt lat="45.18586" lon="5.66236">
        <ele>498.2</ele>
        <time>2021-01-30T11:37:37Z</time>
      </trkpt>
      <trkpt lat="45.1858" lon="5.66225">
        <ele>499.2</ele>
        <time>2021-01-30T11:37:42Z</time>
      </trkpt>
      <trkpt lat="45.18575" lon="5.66213">
        <ele>500.6</ele>
        <time>2021-01-30T11:37:48Z</time>
      </trkpt>
      <trkpt lat="45.18571" lon="5.66201">
        <ele>501.8</ele>
        <time>2021-01-30T11:37:53Z</time>
      </trkpt>
      <trkpt lat="45.18567" lon="5.66187">
        <ele>503.8</ele>
        <time>2021-01-30T11:37:59Z</time>
      </trkpt>
      <trkpt lat="45.18565" lon="5.66174">
        <ele>504.8</ele>
        <time>2021-01-30T11:38:04Z</time>
      </trkpt>
      <trkpt lat="45.18562" lon="5.66162">
        <ele>505.2</ele>
        <time>2021-01-30T11:38:09Z</time>
      </trkpt>
      <trkpt lat="45.18555" lon="5.66151">
        <ele>506.4</ele>
        <time>2021-01-30T11:38:14Z</time>
      </trkpt>
      <trkpt lat="45.1855" lon="5.6614">
        <ele>508</ele>
        <time>2021-01-30T11:38:20Z</time>
      </trkpt>
      <trkpt lat="45.18542" lon="5.66129">
        <ele>510</ele>
        <time>2021-01-30T11:38:26Z</time>
      </trkpt>
      <trkpt lat="45.18535" lon="5.6612">
        <ele>511.4</ele>
        <time>2021-01-30T11:38:32Z</time>
      </trkpt>
      <trkpt lat="45.18527" lon="5.66112">
        <ele>512.6</ele>
        <time>2021-01-30T11:38:37Z</time>
      </trkpt>
      <trkpt lat="45.18521" lon="5.66103">
        <ele>514.2</ele>
        <time>2021-01-30T11:38:41Z</time>
      </trkpt>
      <trkpt lat="45.18518" lon="5.66089">
        <ele>514.8</ele>
        <time>2021-01-30T11:38:47Z</time>
      </trkpt>
      <trkpt lat="45.18516" lon="5.66075">
        <ele>515.6</ele>
        <time>2021-01-30T11:38:52Z</time>
      </trkpt>
      <trkpt lat="45.18511" lon="5.66063">
        <ele>516.6</ele>
        <time>2021-01-30T11:38:57Z</time>
      </trkpt>
      <trkpt lat="45.18507" lon="5.66052">
        <ele>518</ele>
        <time>2021-01-30T11:39:02Z</time>
      </trkpt>
      <trkpt lat="45.18501" lon="5.66042">
        <ele>519.6</ele>
        <time>2021-01-30T11:39:07Z</time>
      </trkpt>
      <trkpt lat="45.18495" lon="5.66031">
        <ele>520.2</ele>
        <time>2021-01-30T11:39:13Z</time>
      </trkpt>
      <trkpt lat="45.18489" lon="5.66019">
        <ele>521.2</ele>
        <time>2021-01-30T11:39:18Z</time>
      </trkpt>
      <trkpt lat="45.18483" lon="5.66008">
        <ele>523.2</ele>
        <time>2021-01-30T11:39:24Z</time>
      </trkpt>
      <trkpt lat="45.18473" lon="5.66004">
        <ele>525</ele>
        <time>2021-01-30T11:39:31Z</time>
      </trkpt>
      <trkpt lat="45.18465" lon="5.66007">
        <ele>526.4</ele>
        <time>2021-01-30T11:39:35Z</time>
      </trkpt>
      <trkpt lat="45.18456" lon="5.66014">
        <ele>528</ele>
        <time>2021-01-30T11:39:40Z</time>
      </trkpt>
      <trkpt lat="45.18446" lon="5.66017">
        <ele>531</ele>
        <time>2021-01-30T11:39:50Z</time>
      </trkpt>
      <trkpt lat="45.18436" lon="5.66024">
        <ele>532.8</ele>
        <time>2021-01-30T11:39:55Z</time>
      </trkpt>
      <trkpt lat="45.18427" lon="5.66028">
        <ele>533.6</ele>
        <time>2021-01-30T11:39:59Z</time>
      </trkpt>
      <trkpt lat="45.1842" lon="5.66037">
        <ele>536</ele>
        <time>2021-01-30T11:40:04Z</time>
      </trkpt>
      <trkpt lat="45.18414" lon="5.66049">
        <ele>537.4</ele>
        <time>2021-01-30T11:40:09Z</time>
      </trkpt>
      <trkpt lat="45.18417" lon="5.66063">
        <ele>539.8</ele>
        <time>2021-01-30T11:40:15Z</time>
      </trkpt>
      <trkpt lat="45.18421" lon="5.66075">
        <ele>542.4</ele>
        <time>2021-01-30T11:40:21Z</time>
      </trkpt>
      <trkpt lat="45.18426" lon="5.66086">
        <ele>543.8</ele>
        <time>2021-01-30T11:40:25Z</time>
      </trkpt>
      <trkpt lat="45.18418" lon="5.66095">
        <ele>548.4</ele>
        <time>2021-01-30T11:40:40Z</time>
      </trkpt>
      <trkpt lat="45.18409" lon="5.66094">
        <ele>551.6</ele>
        <time>2021-01-30T11:40:50Z</time>
      </trkpt>
      <trkpt lat="45.18399" lon="5.66087">
        <ele>554.2</ele>
        <time>2021-01-30T11:41:00Z</time>
      </trkpt>
      <trkpt lat="45.1839" lon="5.66081">
        <ele>555</ele>
        <time>2021-01-30T11:41:07Z</time>
      </trkpt>
      <trkpt lat="45.18384" lon="5.6607">
        <ele>557.6</ele>
        <time>2021-01-30T11:41:17Z</time>
      </trkpt>
      <trkpt lat="45.1838" lon="5.66057">
        <ele>560.8</ele>
        <time>2021-01-30T11:41:26Z</time>
      </trkpt>
      <trkpt lat="45.18377" lon="5.66045">
        <ele>562</ele>
        <time>2021-01-30T11:41:32Z</time>
      </trkpt>
      <trkpt lat="45.18374" lon="5.66032">
        <ele>564</ele>
        <time>2021-01-30T11:41:39Z</time>
      </trkpt>
      <trkpt lat="45.18368" lon="5.66022">
        <ele>567.2</ele>
        <time>2021-01-30T11:41:47Z</time>
      </trkpt>
      <trkpt lat="45.18358" lon="5.66016">
        <ele>568.4</ele>
        <time>2021-01-30T11:41:53Z</time>
      </trkpt>
      <trkpt lat="45.18348" lon="5.66011">
        <ele>569</ele>
        <time>2021-01-30T11:41:57Z</time>
      </trkpt>
      <trkpt lat="45.18339" lon="5.66007">
        <ele>571.2</ele>
        <time>2021-01-30T11:42:03Z</time>
      </trkpt>
      <trkpt lat="45.1833" lon="5.66002">
        <ele>573.8</ele>
        <time>2021-01-30T11:42:12Z</time>
      </trkpt>
      <trkpt lat="45.1832" lon="5.65997">
        <ele>576</ele>
        <time>2021-01-30T11:42:19Z</time>
      </trkpt>
      <trkpt lat="45.18312" lon="5.6599">
        <ele>579.4</ele>
        <time>2021-01-30T11:42:31Z</time>
      </trkpt>
      <trkpt lat="45.18303" lon="5.65985">
        <ele>581.4</ele>
        <time>2021-01-30T11:42:38Z</time>
      </trkpt>
      <trkpt lat="45.18292" lon="5.65986">
        <ele>583.8</ele>
        <time>2021-01-30T11:42:47Z</time>
      </trkpt>
      <trkpt lat="45.18283" lon="5.65982">
        <ele>588</ele>
        <time>2021-01-30T11:43:00Z</time>
      </trkpt>
      <trkpt lat="45.18275" lon="5.65977">
        <ele>590.2</ele>
        <time>2021-01-30T11:43:06Z</time>
      </trkpt>
      <trkpt lat="45.18265" lon="5.65972">
        <ele>592</ele>
        <time>2021-01-30T11:43:12Z</time>
      </trkpt>
      <trkpt lat="45.18256" lon="5.65967">
        <ele>593.4</ele>
        <time>2021-01-30T11:43:18Z</time>
      </trkpt>
      <trkpt lat="45.1825" lon="5.65958">
        <ele>595.8</ele>
        <time>2021-01-30T11:43:27Z</time>
      </trkpt>
      <trkpt lat="45.1824" lon="5.65952">
        <ele>598</ele>
        <time>2021-01-30T11:43:34Z</time>
      </trkpt>
      <trkpt lat="45.18231" lon="5.65948">
        <ele>600.2</ele>
        <time>2021-01-30T11:43:43Z</time>
      </trkpt>
      <trkpt lat="45.18221" lon="5.65946">
        <ele>602.8</ele>
        <time>2021-01-30T11:43:51Z</time>
      </trkpt>
      <trkpt lat="45.18212" lon="5.65951">
        <ele>605.8</ele>
        <time>2021-01-30T11:43:59Z</time>
      </trkpt>
      <trkpt lat="45.18206" lon="5.65948">
        <ele>606.6</ele>
        <time>2021-01-30T11:44:04Z</time>
      </trkpt>
      <trkpt lat="45.18203" lon="5.65947">
        <ele>607</ele>
        <time>2021-01-30T11:44:06Z</time>
      </trkpt>
      <trkpt lat="45.18202" lon="5.65945">
        <ele>607.4</ele>
        <time>2021-01-30T11:44:08Z</time>
      </trkpt>
      <trkpt lat="45.18198" lon="5.65942">
        <ele>608</ele>
        <time>2021-01-30T11:44:11Z</time>
      </trkpt>
      <trkpt lat="45.18196" lon="5.6594">
        <ele>608.2</ele>
        <time>2021-01-30T11:44:13Z</time>
      </trkpt>
      <trkpt lat="45.18187" lon="5.65934">
        <ele>609.8</ele>
        <time>2021-01-30T11:44:20Z</time>
      </trkpt>
      <trkpt lat="45.18177" lon="5.65932">
        <ele>611.8</ele>
        <time>2021-01-30T11:44:28Z</time>
      </trkpt>
      <trkpt lat="45.18167" lon="5.65932">
        <ele>612.8</ele>
        <time>2021-01-30T11:44:32Z</time>
      </trkpt>
      <trkpt lat="45.18157" lon="5.65934">
        <ele>614</ele>
        <time>2021-01-30T11:44:37Z</time>
      </trkpt>
      <trkpt lat="45.18148" lon="5.65939">
        <ele>615.4</ele>
        <time>2021-01-30T11:44:42Z</time>
      </trkpt>
      <trkpt lat="45.18139" lon="5.65944">
        <ele>616.6</ele>
        <time>2021-01-30T11:44:46Z</time>
      </trkpt>
      <trkpt lat="45.18131" lon="5.6595">
        <ele>618.4</ele>
        <time>2021-01-30T11:44:51Z</time>
      </trkpt>
      <trkpt lat="45.18122" lon="5.65959">
        <ele>618.8</ele>
        <time>2021-01-30T11:44:56Z</time>
      </trkpt>
      <trkpt lat="45.18114" lon="5.65967">
        <ele>620</ele>
        <time>2021-01-30T11:45:00Z</time>
      </trkpt>
      <trkpt lat="45.18106" lon="5.65976">
        <ele>619.4</ele>
        <time>2021-01-30T11:45:04Z</time>
      </trkpt>
      <trkpt lat="45.18101" lon="5.65989">
        <ele>619.6</ele>
        <time>2021-01-30T11:45:09Z</time>
      </trkpt>
      <trkpt lat="45.18094" lon="5.65996">
        <ele>619.2</ele>
        <time>2021-01-30T11:45:14Z</time>
      </trkpt>
      <trkpt lat="45.18085" lon="5.66005">
        <ele>619.8</ele>
        <time>2021-01-30T11:45:19Z</time>
      </trkpt>
      <trkpt lat="45.18082" lon="5.6601">
        <ele>620.4</ele>
        <time>2021-01-30T11:45:22Z</time>
      </trkpt>
      <trkpt lat="45.1808" lon="5.66011">
        <ele>620</ele>
        <time>2021-01-30T11:45:23Z</time>
      </trkpt>
      <trkpt lat="45.18076" lon="5.66013">
        <ele>620.2</ele>
        <time>2021-01-30T11:45:25Z</time>
      </trkpt>
      <trkpt lat="45.18067" lon="5.66015">
        <ele>621.6</ele>
        <time>2021-01-30T11:45:29Z</time>
      </trkpt>
      <trkpt lat="45.18057" lon="5.66013">
        <ele>623</ele>
        <time>2021-01-30T11:45:35Z</time>
      </trkpt>
      <trkpt lat="45.18049" lon="5.66006">
        <ele>623.4</ele>
        <time>2021-01-30T11:45:41Z</time>
      </trkpt>
      <trkpt lat="45.18042" lon="5.66001">
        <ele>623</ele>
        <time>2021-01-30T11:45:45Z</time>
      </trkpt>
      <trkpt lat="45.1804" lon="5.65999">
        <ele>623</ele>
        <time>2021-01-30T11:45:46Z</time>
      </trkpt>
      <trkpt lat="45.18032" lon="5.65993">
        <ele>623.4</ele>
        <time>2021-01-30T11:45:51Z</time>
      </trkpt>
      <trkpt lat="45.18024" lon="5.65984">
        <ele>624</ele>
        <time>2021-01-30T11:45:56Z</time>
      </trkpt>
      <trkpt lat="45.18021" lon="5.65972">
        <ele>625.8</ele>
        <time>2021-01-30T11:46:06Z</time>
      </trkpt>
      <trkpt lat="45.18018" lon="5.65959">
        <ele>627.8</ele>
        <time>2021-01-30T11:46:12Z</time>
      </trkpt>
      <trkpt lat="45.18016" lon="5.65945">
        <ele>628.6</ele>
        <time>2021-01-30T11:46:17Z</time>
      </trkpt>
      <trkpt lat="45.18011" lon="5.65933">
        <ele>629.8</ele>
        <time>2021-01-30T11:46:22Z</time>
      </trkpt>
      <trkpt lat="45.18006" lon="5.6592">
        <ele>629.2</ele>
        <time>2021-01-30T11:46:26Z</time>
      </trkpt>
      <trkpt lat="45.18003" lon="5.65908">
        <ele>629</ele>
        <time>2021-01-30T11:46:30Z</time>
      </trkpt>
      <trkpt lat="45.17998" lon="5.65894">
        <ele>629.4</ele>
        <time>2021-01-30T11:46:35Z</time>
      </trkpt>
      <trkpt lat="45.17991" lon="5.65883">
        <ele>630.6</ele>
        <time>2021-01-30T11:46:40Z</time>
      </trkpt>
      <trkpt lat="45.17982" lon="5.65883">
        <ele>632</ele>
        <time>2021-01-30T11:46:44Z</time>
      </trkpt>
      <trkpt lat="45.17973" lon="5.6589">
        <ele>633.6</ele>
        <time>2021-01-30T11:46:50Z</time>
      </trkpt>
      <trkpt lat="45.17965" lon="5.65897">
        <ele>635.6</ele>
        <time>2021-01-30T11:46:56Z</time>
      </trkpt>
      <trkpt lat="45.17957" lon="5.65904">
        <ele>640.6</ele>
        <time>2021-01-30T11:47:10Z</time>
      </trkpt>
      <trkpt lat="45.17946" lon="5.65902">
        <ele>644.4</ele>
        <time>2021-01-30T11:47:19Z</time>
      </trkpt>
      <trkpt lat="45.17936" lon="5.659">
        <ele>647.4</ele>
        <time>2021-01-30T11:47:27Z</time>
      </trkpt>
      <trkpt lat="45.17928" lon="5.65895">
        <ele>650.6</ele>
        <time>2021-01-30T11:47:35Z</time>
      </trkpt>
      <trkpt lat="45.1792" lon="5.65888">
        <ele>651.4</ele>
        <time>2021-01-30T11:47:42Z</time>
      </trkpt>
      <trkpt lat="45.17911" lon="5.6588">
        <ele>652.6</ele>
        <time>2021-01-30T11:47:48Z</time>
      </trkpt>
      <trkpt lat="45.17904" lon="5.6587">
        <ele>656</ele>
        <time>2021-01-30T11:47:58Z</time>
      </trkpt>
      <trkpt lat="45.179" lon="5.65857">
        <ele>659</ele>
        <time>2021-01-30T11:48:08Z</time>
      </trkpt>
      <trkpt lat="45.17894" lon="5.65845">
        <ele>659.8</ele>
        <time>2021-01-30T11:48:14Z</time>
      </trkpt>
      <trkpt lat="45.17886" lon="5.65837">
        <ele>662.2</ele>
        <time>2021-01-30T11:48:20Z</time>
      </trkpt>
      <trkpt lat="45.17877" lon="5.65827">
        <ele>664.6</ele>
        <time>2021-01-30T11:48:27Z</time>
      </trkpt>
      <trkpt lat="45.1787" lon="5.65819">
        <ele>666.4</ele>
        <time>2021-01-30T11:48:35Z</time>
      </trkpt>
      <trkpt lat="45.17861" lon="5.65811">
        <ele>668.6</ele>
        <time>2021-01-30T11:48:42Z</time>
      </trkpt>
      <trkpt lat="45.17854" lon="5.65803">
        <ele>669.8</ele>
        <time>2021-01-30T11:48:50Z</time>
      </trkpt>
      <trkpt lat="45.17847" lon="5.65793">
        <ele>670.6</ele>
        <time>2021-01-30T11:48:56Z</time>
      </trkpt>
      <trkpt lat="45.17839" lon="5.65785">
        <ele>672</ele>
        <time>2021-01-30T11:49:02Z</time>
      </trkpt>
      <trkpt lat="45.17831" lon="5.65777">
        <ele>673.4</ele>
        <time>2021-01-30T11:49:10Z</time>
      </trkpt>
      <trkpt lat="45.17823" lon="5.65773">
        <ele>674.2</ele>
        <time>2021-01-30T11:49:17Z</time>
      </trkpt>
      <trkpt lat="45.17815" lon="5.65762">
        <ele>674.8</ele>
        <time>2021-01-30T11:49:29Z</time>
      </trkpt>
      <trkpt lat="45.17806" lon="5.6577">
        <ele>674.8</ele>
        <time>2021-01-30T11:49:45Z</time>
      </trkpt>
      <trkpt lat="45.17805" lon="5.65774">
        <ele>675</ele>
        <time>2021-01-30T11:49:47Z</time>
      </trkpt>
      <trkpt lat="45.17805" lon="5.65778">
        <ele>675.2</ele>
        <time>2021-01-30T11:49:49Z</time>
      </trkpt>
      <trkpt lat="45.17805" lon="5.65782">
        <ele>675.2</ele>
        <time>2021-01-30T11:49:52Z</time>
      </trkpt>
      <trkpt lat="45.17801" lon="5.65796">
        <ele>677.4</ele>
        <time>2021-01-30T11:50:01Z</time>
      </trkpt>
      <trkpt lat="45.17796" lon="5.65808">
        <ele>678.4</ele>
        <time>2021-01-30T11:50:06Z</time>
      </trkpt>
      <trkpt lat="45.17792" lon="5.65822">
        <ele>679.2</ele>
        <time>2021-01-30T11:50:11Z</time>
      </trkpt>
      <trkpt lat="45.17792" lon="5.65836">
        <ele>679.2</ele>
        <time>2021-01-30T11:50:16Z</time>
      </trkpt>
      <trkpt lat="45.17787" lon="5.65849">
        <ele>679.4</ele>
        <time>2021-01-30T11:50:21Z</time>
      </trkpt>
      <trkpt lat="45.17779" lon="5.65855">
        <ele>680</ele>
        <time>2021-01-30T11:50:27Z</time>
      </trkpt>
      <trkpt lat="45.17772" lon="5.65863">
        <ele>682</ele>
        <time>2021-01-30T11:50:33Z</time>
      </trkpt>
      <trkpt lat="45.17763" lon="5.65868">
        <ele>682</ele>
        <time>2021-01-30T11:50:39Z</time>
      </trkpt>
      <trkpt lat="45.17754" lon="5.65864">
        <ele>682.6</ele>
        <time>2021-01-30T11:50:45Z</time>
      </trkpt>
      <trkpt lat="45.17747" lon="5.65853">
        <ele>683.4</ele>
        <time>2021-01-30T11:50:52Z</time>
      </trkpt>
      <trkpt lat="45.17741" lon="5.65841">
        <ele>685.8</ele>
        <time>2021-01-30T11:50:58Z</time>
      </trkpt>
      <trkpt lat="45.17738" lon="5.65828">
        <ele>686.4</ele>
        <time>2021-01-30T11:51:03Z</time>
      </trkpt>
      <trkpt lat="45.17732" lon="5.65818">
        <ele>687.2</ele>
        <time>2021-01-30T11:51:08Z</time>
      </trkpt>
      <trkpt lat="45.17725" lon="5.65808">
        <ele>687.4</ele>
        <time>2021-01-30T11:51:13Z</time>
      </trkpt>
      <trkpt lat="45.17723" lon="5.65804">
        <ele>687.6</ele>
        <time>2021-01-30T11:51:15Z</time>
      </trkpt>
      <trkpt lat="45.17724" lon="5.65802">
        <ele>687.8</ele>
        <time>2021-01-30T11:51:17Z</time>
      </trkpt>
      <trkpt lat="45.17728" lon="5.65796">
        <ele>687.6</ele>
        <time>2021-01-30T11:51:20Z</time>
      </trkpt>
      <trkpt lat="45.1773" lon="5.65784">
        <ele>687</ele>
        <time>2021-01-30T11:51:24Z</time>
      </trkpt>
      <trkpt lat="45.17726" lon="5.65771">
        <ele>685.8</ele>
        <time>2021-01-30T11:51:29Z</time>
      </trkpt>
      <trkpt lat="45.17723" lon="5.65756">
        <ele>687.4</ele>
        <time>2021-01-30T11:51:35Z</time>
      </trkpt>
      <trkpt lat="45.17721" lon="5.65743">
        <ele>688</ele>
        <time>2021-01-30T11:51:40Z</time>
      </trkpt>
      <trkpt lat="45.17719" lon="5.65729">
        <ele>689</ele>
        <time>2021-01-30T11:51:45Z</time>
      </trkpt>
      <trkpt lat="45.17718" lon="5.65714">
        <ele>690</ele>
        <time>2021-01-30T11:51:49Z</time>
      </trkpt>
      <trkpt lat="45.17719" lon="5.657">
        <ele>690.8</ele>
        <time>2021-01-30T11:51:58Z</time>
      </trkpt>
      <trkpt lat="45.17724" lon="5.6569">
        <ele>693</ele>
        <time>2021-01-30T11:52:05Z</time>
      </trkpt>
      <trkpt lat="45.17726" lon="5.65687">
        <ele>693.4</ele>
        <time>2021-01-30T11:52:07Z</time>
      </trkpt>
      <trkpt lat="45.17728" lon="5.65683">
        <ele>693.8</ele>
        <time>2021-01-30T11:52:09Z</time>
      </trkpt>
      <trkpt lat="45.17729" lon="5.65681">
        <ele>695</ele>
        <time>2021-01-30T11:52:10Z</time>
      </trkpt>
      <trkpt lat="45.17731" lon="5.65679">
        <ele>695.4</ele>
        <time>2021-01-30T11:52:11Z</time>
      </trkpt>
      <trkpt lat="45.17732" lon="5.65676">
        <ele>695.6</ele>
        <time>2021-01-30T11:52:12Z</time>
      </trkpt>
      <trkpt lat="45.17733" lon="5.65672">
        <ele>695.6</ele>
        <time>2021-01-30T11:52:13Z</time>
      </trkpt>
      <trkpt lat="45.17735" lon="5.65665">
        <ele>696.2</ele>
        <time>2021-01-30T11:52:15Z</time>
      </trkpt>
      <trkpt lat="45.17735" lon="5.65662">
        <ele>696.8</ele>
        <time>2021-01-30T11:52:16Z</time>
      </trkpt>
      <trkpt lat="45.17735" lon="5.65659">
        <ele>697</ele>
        <time>2021-01-30T11:52:17Z</time>
      </trkpt>
      <trkpt lat="45.17734" lon="5.65654">
        <ele>697.4</ele>
        <time>2021-01-30T11:52:19Z</time>
      </trkpt>
      <trkpt lat="45.17732" lon="5.65652">
        <ele>698.4</ele>
        <time>2021-01-30T11:52:20Z</time>
      </trkpt>
      <trkpt lat="45.1773" lon="5.65649">
        <ele>698.6</ele>
        <time>2021-01-30T11:52:22Z</time>
      </trkpt>
      <trkpt lat="45.17728" lon="5.65646">
        <ele>698.8</ele>
        <time>2021-01-30T11:52:24Z</time>
      </trkpt>
      <trkpt lat="45.17727" lon="5.65642">
        <ele>699.8</ele>
        <time>2021-01-30T11:52:26Z</time>
      </trkpt>
      <trkpt lat="45.17726" lon="5.65638">
        <ele>700.4</ele>
        <time>2021-01-30T11:52:28Z</time>
      </trkpt>
      <trkpt lat="45.17724" lon="5.65634">
        <ele>700.6</ele>
        <time>2021-01-30T11:52:30Z</time>
      </trkpt>
      <trkpt lat="45.17722" lon="5.6563">
        <ele>701.2</ele>
        <time>2021-01-30T11:52:32Z</time>
      </trkpt>
      <trkpt lat="45.17721" lon="5.65628">
        <ele>701</ele>
        <time>2021-01-30T11:52:33Z</time>
      </trkpt>
      <trkpt lat="45.1772" lon="5.65623">
        <ele>702.2</ele>
        <time>2021-01-30T11:52:35Z</time>
      </trkpt>
      <trkpt lat="45.17718" lon="5.6562">
        <ele>702.8</ele>
        <time>2021-01-30T11:52:37Z</time>
      </trkpt>
      <trkpt lat="45.17717" lon="5.65616">
        <ele>703.2</ele>
        <time>2021-01-30T11:52:39Z</time>
      </trkpt>
      <trkpt lat="45.17715" lon="5.65612">
        <ele>704</ele>
        <time>2021-01-30T11:52:41Z</time>
      </trkpt>
      <trkpt lat="45.17713" lon="5.65609">
        <ele>704.8</ele>
        <time>2021-01-30T11:52:43Z</time>
      </trkpt>
      <trkpt lat="45.17712" lon="5.65605">
        <ele>705.2</ele>
        <time>2021-01-30T11:52:45Z</time>
      </trkpt>
      <trkpt lat="45.17711" lon="5.65602">
        <ele>706</ele>
        <time>2021-01-30T11:52:47Z</time>
      </trkpt>
      <trkpt lat="45.1771" lon="5.65599">
        <ele>706.8</ele>
        <time>2021-01-30T11:52:49Z</time>
      </trkpt>
      <trkpt lat="45.17708" lon="5.65596">
        <ele>707.2</ele>
        <time>2021-01-30T11:52:51Z</time>
      </trkpt>
      <trkpt lat="45.17706" lon="5.65592">
        <ele>708</ele>
        <time>2021-01-30T11:52:53Z</time>
      </trkpt>
      <trkpt lat="45.17704" lon="5.65589">
        <ele>708.6</ele>
        <time>2021-01-30T11:52:55Z</time>
      </trkpt>
      <trkpt lat="45.17702" lon="5.65587">
        <ele>709</ele>
        <time>2021-01-30T11:52:56Z</time>
      </trkpt>
      <trkpt lat="45.177" lon="5.65584">
        <ele>709.8</ele>
        <time>2021-01-30T11:52:58Z</time>
      </trkpt>
      <trkpt lat="45.17699" lon="5.65582">
        <ele>710</ele>
        <time>2021-01-30T11:52:59Z</time>
      </trkpt>
      <trkpt lat="45.17697" lon="5.65578">
        <ele>710</ele>
        <time>2021-01-30T11:53:01Z</time>
      </trkpt>
      <trkpt lat="45.17695" lon="5.65576">
        <ele>710.6</ele>
        <time>2021-01-30T11:53:02Z</time>
      </trkpt>
      <trkpt lat="45.17694" lon="5.65574">
        <ele>711</ele>
        <time>2021-01-30T11:53:03Z</time>
      </trkpt>
      <trkpt lat="45.17692" lon="5.6557">
        <ele>711</ele>
        <time>2021-01-30T11:53:05Z</time>
      </trkpt>
      <trkpt lat="45.1769" lon="5.65566">
        <ele>711.2</ele>
        <time>2021-01-30T11:53:07Z</time>
      </trkpt>
      <trkpt lat="45.17688" lon="5.65562">
        <ele>711.6</ele>
        <time>2021-01-30T11:53:09Z</time>
      </trkpt>
      <trkpt lat="45.17687" lon="5.65558">
        <ele>711.8</ele>
        <time>2021-01-30T11:53:11Z</time>
      </trkpt>
      <trkpt lat="45.17684" lon="5.65554">
        <ele>712.8</ele>
        <time>2021-01-30T11:53:13Z</time>
      </trkpt>
      <trkpt lat="45.17682" lon="5.65552">
        <ele>713</ele>
        <time>2021-01-30T11:53:15Z</time>
      </trkpt>
      <trkpt lat="45.1768" lon="5.65547">
        <ele>713.2</ele>
        <time>2021-01-30T11:53:17Z</time>
      </trkpt>
      <trkpt lat="45.17678" lon="5.65545">
        <ele>713.4</ele>
        <time>2021-01-30T11:53:19Z</time>
      </trkpt>
      <trkpt lat="45.17677" lon="5.65542">
        <ele>713.8</ele>
        <time>2021-01-30T11:53:21Z</time>
      </trkpt>
      <trkpt lat="45.17673" lon="5.65539">
        <ele>714.6</ele>
        <time>2021-01-30T11:53:23Z</time>
      </trkpt>
      <trkpt lat="45.17672" lon="5.65538">
        <ele>714.6</ele>
        <time>2021-01-30T11:53:24Z</time>
      </trkpt>
      <trkpt lat="45.17669" lon="5.65538">
        <ele>714.4</ele>
        <time>2021-01-30T11:53:25Z</time>
      </trkpt>
      <trkpt lat="45.17667" lon="5.65537">
        <ele>714.6</ele>
        <time>2021-01-30T11:53:26Z</time>
      </trkpt>
      <trkpt lat="45.17664" lon="5.65536">
        <ele>715.4</ele>
        <time>2021-01-30T11:53:28Z</time>
      </trkpt>
      <trkpt lat="45.17662" lon="5.65535">
        <ele>715.8</ele>
        <time>2021-01-30T11:53:30Z</time>
      </trkpt>
      <trkpt lat="45.17661" lon="5.6553">
        <ele>716.4</ele>
        <time>2021-01-30T11:53:32Z</time>
      </trkpt>
      <trkpt lat="45.17661" lon="5.65526">
        <ele>716.8</ele>
        <time>2021-01-30T11:53:34Z</time>
      </trkpt>
      <trkpt lat="45.17661" lon="5.65521">
        <ele>717</ele>
        <time>2021-01-30T11:53:36Z</time>
      </trkpt>
      <trkpt lat="45.17661" lon="5.65518">
        <ele>717</ele>
        <time>2021-01-30T11:53:37Z</time>
      </trkpt>
      <trkpt lat="45.17661" lon="5.65516">
        <ele>717.2</ele>
        <time>2021-01-30T11:53:38Z</time>
      </trkpt>
      <trkpt lat="45.17662" lon="5.65513">
        <ele>717.2</ele>
        <time>2021-01-30T11:53:39Z</time>
      </trkpt>
      <trkpt lat="45.17662" lon="5.6551">
        <ele>717.4</ele>
        <time>2021-01-30T11:53:40Z</time>
      </trkpt>
      <trkpt lat="45.17662" lon="5.65507">
        <ele>717.2</ele>
        <time>2021-01-30T11:53:41Z</time>
      </trkpt>
      <trkpt lat="45.17662" lon="5.65505">
        <ele>717.2</ele>
        <time>2021-01-30T11:53:42Z</time>
      </trkpt>
      <trkpt lat="45.17663" lon="5.655">
        <ele>718</ele>
        <time>2021-01-30T11:53:44Z</time>
      </trkpt>
      <trkpt lat="45.17664" lon="5.65498">
        <ele>717.8</ele>
        <time>2021-01-30T11:53:45Z</time>
      </trkpt>
      <trkpt lat="45.17665" lon="5.65496">
        <ele>717.8</ele>
        <time>2021-01-30T11:53:46Z</time>
      </trkpt>
      <trkpt lat="45.17667" lon="5.65493">
        <ele>717.8</ele>
        <time>2021-01-30T11:53:48Z</time>
      </trkpt>
      <trkpt lat="45.17669" lon="5.65493">
        <ele>717.8</ele>
        <time>2021-01-30T11:53:50Z</time>
      </trkpt>
      <trkpt lat="45.17673" lon="5.65493">
        <ele>718.2</ele>
        <time>2021-01-30T11:53:52Z</time>
      </trkpt>
      <trkpt lat="45.17675" lon="5.65493">
        <ele>717.8</ele>
        <time>2021-01-30T11:53:53Z</time>
      </trkpt>
      <trkpt lat="45.17676" lon="5.65492">
        <ele>717.6</ele>
        <time>2021-01-30T11:53:54Z</time>
      </trkpt>
      <trkpt lat="45.17677" lon="5.65489">
        <ele>717.6</ele>
        <time>2021-01-30T11:54:03Z</time>
      </trkpt>
      <trkpt lat="45.17678" lon="5.65492">
        <ele>717.4</ele>
        <time>2021-01-30T11:54:06Z</time>
      </trkpt>
      <trkpt lat="45.17681" lon="5.65492">
        <ele>717.6</ele>
        <time>2021-01-30T11:54:07Z</time>
      </trkpt>
      <trkpt lat="45.17683" lon="5.65492">
        <ele>717.6</ele>
        <time>2021-01-30T11:54:08Z</time>
      </trkpt>
      <trkpt lat="45.17685" lon="5.65493">
        <ele>717.8</ele>
        <time>2021-01-30T11:54:09Z</time>
      </trkpt>
      <trkpt lat="45.17686" lon="5.65493">
        <ele>717.8</ele>
        <time>2021-01-30T11:54:10Z</time>
      </trkpt>
      <trkpt lat="45.17689" lon="5.65492">
        <ele>718</ele>
        <time>2021-01-30T11:54:11Z</time>
      </trkpt>
      <trkpt lat="45.17691" lon="5.65492">
        <ele>718.4</ele>
        <time>2021-01-30T11:54:12Z</time>
      </trkpt>
      <trkpt lat="45.17693" lon="5.65492">
        <ele>718.8</ele>
        <time>2021-01-30T11:54:13Z</time>
      </trkpt>
      <trkpt lat="45.17695" lon="5.65491">
        <ele>719</ele>
        <time>2021-01-30T11:54:14Z</time>
      </trkpt>
      <trkpt lat="45.17697" lon="5.6549">
        <ele>719.8</ele>
        <time>2021-01-30T11:54:16Z</time>
      </trkpt>
      <trkpt lat="45.177" lon="5.6549">
        <ele>719.6</ele>
        <time>2021-01-30T11:54:18Z</time>
      </trkpt>
      <trkpt lat="45.17702" lon="5.65488">
        <ele>720</ele>
        <time>2021-01-30T11:54:20Z</time>
      </trkpt>
      <trkpt lat="45.17705" lon="5.65486">
        <ele>720.6</ele>
        <time>2021-01-30T11:54:22Z</time>
      </trkpt>
      <trkpt lat="45.17707" lon="5.65484">
        <ele>721</ele>
        <time>2021-01-30T11:54:24Z</time>
      </trkpt>
      <trkpt lat="45.17709" lon="5.65482">
        <ele>721.6</ele>
        <time>2021-01-30T11:54:26Z</time>
      </trkpt>
      <trkpt lat="45.17712" lon="5.6548">
        <ele>722</ele>
        <time>2021-01-30T11:54:28Z</time>
      </trkpt>
      <trkpt lat="45.17715" lon="5.65478">
        <ele>723</ele>
        <time>2021-01-30T11:54:30Z</time>
      </trkpt>
      <trkpt lat="45.17718" lon="5.65477">
        <ele>723.6</ele>
        <time>2021-01-30T11:54:32Z</time>
      </trkpt>
      <trkpt lat="45.1772" lon="5.65475">
        <ele>724.2</ele>
        <time>2021-01-30T11:54:34Z</time>
      </trkpt>
      <trkpt lat="45.17723" lon="5.65474">
        <ele>725.6</ele>
        <time>2021-01-30T11:54:36Z</time>
      </trkpt>
      <trkpt lat="45.17725" lon="5.65473">
        <ele>725.8</ele>
        <time>2021-01-30T11:54:37Z</time>
      </trkpt>
      <trkpt lat="45.17728" lon="5.65472">
        <ele>726</ele>
        <time>2021-01-30T11:54:39Z</time>
      </trkpt>
      <trkpt lat="45.1773" lon="5.65471">
        <ele>726.2</ele>
        <time>2021-01-30T11:54:40Z</time>
      </trkpt>
      <trkpt lat="45.17733" lon="5.65468">
        <ele>727</ele>
        <time>2021-01-30T11:54:42Z</time>
      </trkpt>
      <trkpt lat="45.17735" lon="5.65468">
        <ele>727.2</ele>
        <time>2021-01-30T11:54:43Z</time>
      </trkpt>
      <trkpt lat="45.17738" lon="5.65466">
        <ele>727.6</ele>
        <time>2021-01-30T11:54:45Z</time>
      </trkpt>
      <trkpt lat="45.1774" lon="5.65465">
        <ele>728</ele>
        <time>2021-01-30T11:54:46Z</time>
      </trkpt>
      <trkpt lat="45.17742" lon="5.65462">
        <ele>729</ele>
        <time>2021-01-30T11:54:48Z</time>
      </trkpt>
      <trkpt lat="45.17744" lon="5.65461">
        <ele>729.6</ele>
        <time>2021-01-30T11:54:49Z</time>
      </trkpt>
      <trkpt lat="45.17746" lon="5.65458">
        <ele>730</ele>
        <time>2021-01-30T11:54:51Z</time>
      </trkpt>
      <trkpt lat="45.1775" lon="5.65455">
        <ele>730.6</ele>
        <time>2021-01-30T11:54:53Z</time>
      </trkpt>
      <trkpt lat="45.17752" lon="5.65453">
        <ele>731.2</ele>
        <time>2021-01-30T11:54:55Z</time>
      </trkpt>
      <trkpt lat="45.17754" lon="5.65451">
        <ele>731.2</ele>
        <time>2021-01-30T11:54:56Z</time>
      </trkpt>
      <trkpt lat="45.17756" lon="5.6545">
        <ele>731.8</ele>
        <time>2021-01-30T11:54:57Z</time>
      </trkpt>
      <trkpt lat="45.17758" lon="5.6545">
        <ele>732</ele>
        <time>2021-01-30T11:54:58Z</time>
      </trkpt>
      <trkpt lat="45.1776" lon="5.65449">
        <ele>732</ele>
        <time>2021-01-30T11:54:59Z</time>
      </trkpt>
      <trkpt lat="45.17763" lon="5.65448">
        <ele>732.4</ele>
        <time>2021-01-30T11:55:01Z</time>
      </trkpt>
      <trkpt lat="45.17766" lon="5.65447">
        <ele>733.2</ele>
        <time>2021-01-30T11:55:03Z</time>
      </trkpt>
      <trkpt lat="45.17768" lon="5.65446">
        <ele>734</ele>
        <time>2021-01-30T11:55:05Z</time>
      </trkpt>
      <trkpt lat="45.17771" lon="5.65445">
        <ele>734</ele>
        <time>2021-01-30T11:55:07Z</time>
      </trkpt>
      <trkpt lat="45.17773" lon="5.65443">
        <ele>734.2</ele>
        <time>2021-01-30T11:55:09Z</time>
      </trkpt>
      <trkpt lat="45.17775" lon="5.65441">
        <ele>734.2</ele>
        <time>2021-01-30T11:55:10Z</time>
      </trkpt>
      <trkpt lat="45.17778" lon="5.65439">
        <ele>734.4</ele>
        <time>2021-01-30T11:55:12Z</time>
      </trkpt>
      <trkpt lat="45.17781" lon="5.65437">
        <ele>735.4</ele>
        <time>2021-01-30T11:55:14Z</time>
      </trkpt>
      <trkpt lat="45.17783" lon="5.65435">
        <ele>735.4</ele>
        <time>2021-01-30T11:55:16Z</time>
      </trkpt>
      <trkpt lat="45.17786" lon="5.65434">
        <ele>736.2</ele>
        <time>2021-01-30T11:55:18Z</time>
      </trkpt>
      <trkpt lat="45.1779" lon="5.65434">
        <ele>736.6</ele>
        <time>2021-01-30T11:55:20Z</time>
      </trkpt>
      <trkpt lat="45.17793" lon="5.65435">
        <ele>737.6</ele>
        <time>2021-01-30T11:55:22Z</time>
      </trkpt>
      <trkpt lat="45.17795" lon="5.65435">
        <ele>737.6</ele>
        <time>2021-01-30T11:55:23Z</time>
      </trkpt>
      <trkpt lat="45.17798" lon="5.65436">
        <ele>737.4</ele>
        <time>2021-01-30T11:55:25Z</time>
      </trkpt>
      <trkpt lat="45.178" lon="5.65435">
        <ele>738</ele>
        <time>2021-01-30T11:55:26Z</time>
      </trkpt>
      <trkpt lat="45.17803" lon="5.65436">
        <ele>738.2</ele>
        <time>2021-01-30T11:55:27Z</time>
      </trkpt>
      <trkpt lat="45.17805" lon="5.65436">
        <ele>738.4</ele>
        <time>2021-01-30T11:55:28Z</time>
      </trkpt>
      <trkpt lat="45.17807" lon="5.65436">
        <ele>738.6</ele>
        <time>2021-01-30T11:55:29Z</time>
      </trkpt>
      <trkpt lat="45.17809" lon="5.65436">
        <ele>739</ele>
        <time>2021-01-30T11:55:30Z</time>
      </trkpt>
      <trkpt lat="45.17812" lon="5.65437">
        <ele>739.6</ele>
        <time>2021-01-30T11:55:32Z</time>
      </trkpt>
      <trkpt lat="45.17814" lon="5.65439">
        <ele>739.8</ele>
        <time>2021-01-30T11:55:33Z</time>
      </trkpt>
      <trkpt lat="45.17816" lon="5.6544">
        <ele>740.2</ele>
        <time>2021-01-30T11:55:34Z</time>
      </trkpt>
      <trkpt lat="45.17818" lon="5.6544">
        <ele>740.4</ele>
        <time>2021-01-30T11:55:35Z</time>
      </trkpt>
      <trkpt lat="45.17821" lon="5.65439">
        <ele>741</ele>
        <time>2021-01-30T11:55:37Z</time>
      </trkpt>
      <trkpt lat="45.17824" lon="5.65439">
        <ele>741.4</ele>
        <time>2021-01-30T11:55:39Z</time>
      </trkpt>
      <trkpt lat="45.17827" lon="5.65438">
        <ele>741.8</ele>
        <time>2021-01-30T11:55:40Z</time>
      </trkpt>
      <trkpt lat="45.17829" lon="5.65438">
        <ele>742.8</ele>
        <time>2021-01-30T11:55:42Z</time>
      </trkpt>
      <trkpt lat="45.17831" lon="5.65437">
        <ele>743</ele>
        <time>2021-01-30T11:55:44Z</time>
      </trkpt>
      <trkpt lat="45.17834" lon="5.65437">
        <ele>743.6</ele>
        <time>2021-01-30T11:55:46Z</time>
      </trkpt>
      <trkpt lat="45.17836" lon="5.65436">
        <ele>744</ele>
        <time>2021-01-30T11:55:48Z</time>
      </trkpt>
      <trkpt lat="45.17839" lon="5.65434">
        <ele>744.4</ele>
        <time>2021-01-30T11:55:50Z</time>
      </trkpt>
      <trkpt lat="45.17842" lon="5.65433">
        <ele>744.4</ele>
        <time>2021-01-30T11:55:52Z</time>
      </trkpt>
      <trkpt lat="45.17845" lon="5.65432">
        <ele>744.4</ele>
        <time>2021-01-30T11:55:54Z</time>
      </trkpt>
      <trkpt lat="45.17848" lon="5.6543">
        <ele>745</ele>
        <time>2021-01-30T11:55:56Z</time>
      </trkpt>
      <trkpt lat="45.1785" lon="5.65428">
        <ele>745.4</ele>
        <time>2021-01-30T11:55:58Z</time>
      </trkpt>
      <trkpt lat="45.17852" lon="5.65426">
        <ele>745.8</ele>
        <time>2021-01-30T11:55:59Z</time>
      </trkpt>
      <trkpt lat="45.17855" lon="5.65424">
        <ele>746.8</ele>
        <time>2021-01-30T11:56:01Z</time>
      </trkpt>
      <trkpt lat="45.17857" lon="5.65423">
        <ele>747</ele>
        <time>2021-01-30T11:56:03Z</time>
      </trkpt>
      <trkpt lat="45.17859" lon="5.65422">
        <ele>747.6</ele>
        <time>2021-01-30T11:56:05Z</time>
      </trkpt>
      <trkpt lat="45.17861" lon="5.6542">
        <ele>748.2</ele>
        <time>2021-01-30T11:56:07Z</time>
      </trkpt>
      <trkpt lat="45.17864" lon="5.65415">
        <ele>748.8</ele>
        <time>2021-01-30T11:56:10Z</time>
      </trkpt>
      <trkpt lat="45.17866" lon="5.65412">
        <ele>749.2</ele>
        <time>2021-01-30T11:56:12Z</time>
      </trkpt>
      <trkpt lat="45.17868" lon="5.65411">
        <ele>749.2</ele>
        <time>2021-01-30T11:56:13Z</time>
      </trkpt>
      <trkpt lat="45.1787" lon="5.65409">
        <ele>749.8</ele>
        <time>2021-01-30T11:56:15Z</time>
      </trkpt>
      <trkpt lat="45.17872" lon="5.65408">
        <ele>750</ele>
        <time>2021-01-30T11:56:16Z</time>
      </trkpt>
      <trkpt lat="45.17875" lon="5.65407">
        <ele>750.2</ele>
        <time>2021-01-30T11:56:17Z</time>
      </trkpt>
      <trkpt lat="45.17877" lon="5.65405">
        <ele>750</ele>
        <time>2021-01-30T11:56:18Z</time>
      </trkpt>
      <trkpt lat="45.17879" lon="5.65404">
        <ele>750.2</ele>
        <time>2021-01-30T11:56:19Z</time>
      </trkpt>
      <trkpt lat="45.17881" lon="5.65403">
        <ele>750.2</ele>
        <time>2021-01-30T11:56:20Z</time>
      </trkpt>
      <trkpt lat="45.17882" lon="5.65402">
        <ele>750.4</ele>
        <time>2021-01-30T11:56:21Z</time>
      </trkpt>
      <trkpt lat="45.17885" lon="5.654">
        <ele>750.8</ele>
        <time>2021-01-30T11:56:23Z</time>
      </trkpt>
      <trkpt lat="45.17889" lon="5.65398">
        <ele>752</ele>
        <time>2021-01-30T11:56:25Z</time>
      </trkpt>
      <trkpt lat="45.17891" lon="5.65398">
        <ele>752</ele>
        <time>2021-01-30T11:56:26Z</time>
      </trkpt>
      <trkpt lat="45.17892" lon="5.65397">
        <ele>752</ele>
        <time>2021-01-30T11:56:27Z</time>
      </trkpt>
      <trkpt lat="45.17895" lon="5.65397">
        <ele>752</ele>
        <time>2021-01-30T11:56:28Z</time>
      </trkpt>
      <trkpt lat="45.17897" lon="5.65395">
        <ele>752.2</ele>
        <time>2021-01-30T11:56:29Z</time>
      </trkpt>
      <trkpt lat="45.17898" lon="5.65392">
        <ele>752.2</ele>
        <time>2021-01-30T11:56:30Z</time>
      </trkpt>
      <trkpt lat="45.179" lon="5.65389">
        <ele>752.4</ele>
        <time>2021-01-30T11:56:32Z</time>
      </trkpt>
      <trkpt lat="45.17902" lon="5.65386">
        <ele>752.6</ele>
        <time>2021-01-30T11:56:34Z</time>
      </trkpt>
      <trkpt lat="45.17904" lon="5.65383">
        <ele>753.2</ele>
        <time>2021-01-30T11:56:36Z</time>
      </trkpt>
      <trkpt lat="45.17905" lon="5.6538">
        <ele>753.6</ele>
        <time>2021-01-30T11:56:38Z</time>
      </trkpt>
      <trkpt lat="45.17908" lon="5.65378">
        <ele>754</ele>
        <time>2021-01-30T11:56:40Z</time>
      </trkpt>
      <trkpt lat="45.17909" lon="5.65376">
        <ele>754.2</ele>
        <time>2021-01-30T11:56:41Z</time>
      </trkpt>
      <trkpt lat="45.17912" lon="5.65374">
        <ele>754.6</ele>
        <time>2021-01-30T11:56:43Z</time>
      </trkpt>
      <trkpt lat="45.17914" lon="5.65373">
        <ele>754.8</ele>
        <time>2021-01-30T11:56:45Z</time>
      </trkpt>
      <trkpt lat="45.17916" lon="5.65372">
        <ele>755</ele>
        <time>2021-01-30T11:56:47Z</time>
      </trkpt>
      <trkpt lat="45.17918" lon="5.6537">
        <ele>755.8</ele>
        <time>2021-01-30T11:56:52Z</time>
      </trkpt>
      <trkpt lat="45.1792" lon="5.65368">
        <ele>756</ele>
        <time>2021-01-30T11:56:54Z</time>
      </trkpt>
      <trkpt lat="45.17922" lon="5.65366">
        <ele>757.2</ele>
        <time>2021-01-30T11:56:57Z</time>
      </trkpt>
      <trkpt lat="45.17923" lon="5.65365">
        <ele>757</ele>
        <time>2021-01-30T11:57:00Z</time>
      </trkpt>
      <trkpt lat="45.17926" lon="5.65364">
        <ele>757</ele>
        <time>2021-01-30T11:57:02Z</time>
      </trkpt>
      <trkpt lat="45.17927" lon="5.65366">
        <ele>757.2</ele>
        <time>2021-01-30T11:57:06Z</time>
      </trkpt>
      <trkpt lat="45.1793" lon="5.65365">
        <ele>757.4</ele>
        <time>2021-01-30T11:57:09Z</time>
      </trkpt>
      <trkpt lat="45.17932" lon="5.65365">
        <ele>757.8</ele>
        <time>2021-01-30T11:57:11Z</time>
      </trkpt>
      <trkpt lat="45.17934" lon="5.65364">
        <ele>758.2</ele>
        <time>2021-01-30T11:57:12Z</time>
      </trkpt>
      <trkpt lat="45.17937" lon="5.65363">
        <ele>758.6</ele>
        <time>2021-01-30T11:57:14Z</time>
      </trkpt>
      <trkpt lat="45.1794" lon="5.65362">
        <ele>759.2</ele>
        <time>2021-01-30T11:57:16Z</time>
      </trkpt>
      <trkpt lat="45.17942" lon="5.6536">
        <ele>760</ele>
        <time>2021-01-30T11:57:18Z</time>
      </trkpt>
      <trkpt lat="45.17944" lon="5.65357">
        <ele>760.2</ele>
        <time>2021-01-30T11:57:20Z</time>
      </trkpt>
      <trkpt lat="45.17946" lon="5.65356">
        <ele>760.8</ele>
        <time>2021-01-30T11:57:22Z</time>
      </trkpt>
      <trkpt lat="45.17949" lon="5.65355">
        <ele>761.4</ele>
        <time>2021-01-30T11:57:24Z</time>
      </trkpt>
      <trkpt lat="45.1795" lon="5.65353">
        <ele>761.6</ele>
        <time>2021-01-30T11:57:26Z</time>
      </trkpt>
      <trkpt lat="45.17952" lon="5.65351">
        <ele>762.8</ele>
        <time>2021-01-30T11:57:28Z</time>
      </trkpt>
      <trkpt lat="45.17955" lon="5.65348">
        <ele>763.8</ele>
        <time>2021-01-30T11:57:30Z</time>
      </trkpt>
      <trkpt lat="45.17956" lon="5.65346">
        <ele>764</ele>
        <time>2021-01-30T11:57:31Z</time>
      </trkpt>
      <trkpt lat="45.17958" lon="5.65344">
        <ele>764.8</ele>
        <time>2021-01-30T11:57:33Z</time>
      </trkpt>
      <trkpt lat="45.17959" lon="5.65341">
        <ele>765.8</ele>
        <time>2021-01-30T11:57:35Z</time>
      </trkpt>
      <trkpt lat="45.1796" lon="5.65339">
        <ele>766.8</ele>
        <time>2021-01-30T11:57:37Z</time>
      </trkpt>
      <trkpt lat="45.17961" lon="5.65336">
        <ele>767.6</ele>
        <time>2021-01-30T11:57:39Z</time>
      </trkpt>
      <trkpt lat="45.17961" lon="5.65331">
        <ele>768.4</ele>
        <time>2021-01-30T11:57:41Z</time>
      </trkpt>
      <trkpt lat="45.17961" lon="5.65328">
        <ele>769</ele>
        <time>2021-01-30T11:57:43Z</time>
      </trkpt>
      <trkpt lat="45.17963" lon="5.65324">
        <ele>769.2</ele>
        <time>2021-01-30T11:57:45Z</time>
      </trkpt>
      <trkpt lat="45.17965" lon="5.65322">
        <ele>769.4</ele>
        <time>2021-01-30T11:57:47Z</time>
      </trkpt>
      <trkpt lat="45.17967" lon="5.65319">
        <ele>769.6</ele>
        <time>2021-01-30T11:57:49Z</time>
      </trkpt>
      <trkpt lat="45.17971" lon="5.65317">
        <ele>770</ele>
        <time>2021-01-30T11:57:51Z</time>
      </trkpt>
      <trkpt lat="45.17973" lon="5.65316">
        <ele>770.6</ele>
        <time>2021-01-30T11:57:53Z</time>
      </trkpt>
      <trkpt lat="45.17976" lon="5.65315">
        <ele>771.4</ele>
        <time>2021-01-30T11:57:55Z</time>
      </trkpt>
      <trkpt lat="45.17978" lon="5.65314">
        <ele>772</ele>
        <time>2021-01-30T11:57:57Z</time>
      </trkpt>
      <trkpt lat="45.1798" lon="5.65314">
        <ele>771.8</ele>
        <time>2021-01-30T11:57:58Z</time>
      </trkpt>
      <trkpt lat="45.17982" lon="5.65314">
        <ele>772</ele>
        <time>2021-01-30T11:57:59Z</time>
      </trkpt>
      <trkpt lat="45.17984" lon="5.65313">
        <ele>772.2</ele>
        <time>2021-01-30T11:58:00Z</time>
      </trkpt>
      <trkpt lat="45.17987" lon="5.65313">
        <ele>772.2</ele>
        <time>2021-01-30T11:58:01Z</time>
      </trkpt>
      <trkpt lat="45.17989" lon="5.65312">
        <ele>773</ele>
        <time>2021-01-30T11:58:02Z</time>
      </trkpt>
      <trkpt lat="45.17991" lon="5.65311">
        <ele>773.4</ele>
        <time>2021-01-30T11:58:03Z</time>
      </trkpt>
      <trkpt lat="45.17993" lon="5.65311">
        <ele>773.6</ele>
        <time>2021-01-30T11:58:04Z</time>
      </trkpt>
      <trkpt lat="45.17995" lon="5.65311">
        <ele>773.6</ele>
        <time>2021-01-30T11:58:05Z</time>
      </trkpt>
      <trkpt lat="45.17998" lon="5.6531">
        <ele>774.4</ele>
        <time>2021-01-30T11:58:07Z</time>
      </trkpt>
      <trkpt lat="45.18" lon="5.6531">
        <ele>774.4</ele>
        <time>2021-01-30T11:58:08Z</time>
      </trkpt>
      <trkpt lat="45.18003" lon="5.6531">
        <ele>774.8</ele>
        <time>2021-01-30T11:58:10Z</time>
      </trkpt>
      <trkpt lat="45.18007" lon="5.65309">
        <ele>775.6</ele>
        <time>2021-01-30T11:58:12Z</time>
      </trkpt>
      <trkpt lat="45.1801" lon="5.65309">
        <ele>776</ele>
        <time>2021-01-30T11:58:14Z</time>
      </trkpt>
      <trkpt lat="45.18012" lon="5.6531">
        <ele>776.2</ele>
        <time>2021-01-30T11:58:15Z</time>
      </trkpt>
      <trkpt lat="45.18015" lon="5.65311">
        <ele>776.8</ele>
        <time>2021-01-30T11:58:17Z</time>
      </trkpt>
      <trkpt lat="45.18018" lon="5.65312">
        <ele>777.4</ele>
        <time>2021-01-30T11:58:19Z</time>
      </trkpt>
      <trkpt lat="45.18021" lon="5.65312">
        <ele>778.4</ele>
        <time>2021-01-30T11:58:21Z</time>
      </trkpt>
      <trkpt lat="45.18025" lon="5.65312">
        <ele>778.8</ele>
        <time>2021-01-30T11:58:23Z</time>
      </trkpt>
      <trkpt lat="45.18027" lon="5.65312">
        <ele>778.8</ele>
        <time>2021-01-30T11:58:24Z</time>
      </trkpt>
      <trkpt lat="45.18028" lon="5.6531">
        <ele>779.2</ele>
        <time>2021-01-30T11:58:25Z</time>
      </trkpt>
      <trkpt lat="45.18032" lon="5.65309">
        <ele>779.4</ele>
        <time>2021-01-30T11:58:27Z</time>
      </trkpt>
      <trkpt lat="45.18033" lon="5.65308">
        <ele>779.6</ele>
        <time>2021-01-30T11:58:28Z</time>
      </trkpt>
      <trkpt lat="45.18036" lon="5.65307">
        <ele>780.2</ele>
        <time>2021-01-30T11:58:30Z</time>
      </trkpt>
      <trkpt lat="45.18039" lon="5.65306">
        <ele>781</ele>
        <time>2021-01-30T11:58:32Z</time>
      </trkpt>
      <trkpt lat="45.18042" lon="5.65304">
        <ele>781.2</ele>
        <time>2021-01-30T11:58:34Z</time>
      </trkpt>
      <trkpt lat="45.18044" lon="5.65303">
        <ele>781.6</ele>
        <time>2021-01-30T11:58:36Z</time>
      </trkpt>
      <trkpt lat="45.18047" lon="5.65302">
        <ele>782</ele>
        <time>2021-01-30T11:58:38Z</time>
      </trkpt>
      <trkpt lat="45.18051" lon="5.65301">
        <ele>783</ele>
        <time>2021-01-30T11:58:40Z</time>
      </trkpt>
      <trkpt lat="45.18054" lon="5.65301">
        <ele>783.2</ele>
        <time>2021-01-30T11:58:42Z</time>
      </trkpt>
      <trkpt lat="45.18057" lon="5.65302">
        <ele>783.8</ele>
        <time>2021-01-30T11:58:44Z</time>
      </trkpt>
      <trkpt lat="45.18059" lon="5.65303">
        <ele>783.8</ele>
        <time>2021-01-30T11:58:45Z</time>
      </trkpt>
      <trkpt lat="45.18062" lon="5.65304">
        <ele>784</ele>
        <time>2021-01-30T11:58:47Z</time>
      </trkpt>
      <trkpt lat="45.18064" lon="5.65305">
        <ele>784.4</ele>
        <time>2021-01-30T11:58:48Z</time>
      </trkpt>
      <trkpt lat="45.18066" lon="5.65306">
        <ele>784.8</ele>
        <time>2021-01-30T11:58:49Z</time>
      </trkpt>
      <trkpt lat="45.18068" lon="5.65306">
        <ele>784.8</ele>
        <time>2021-01-30T11:58:50Z</time>
      </trkpt>
      <trkpt lat="45.18071" lon="5.65307">
        <ele>785.2</ele>
        <time>2021-01-30T11:58:52Z</time>
      </trkpt>
      <trkpt lat="45.18074" lon="5.65307">
        <ele>785.4</ele>
        <time>2021-01-30T11:58:54Z</time>
      </trkpt>
      <trkpt lat="45.18078" lon="5.65307">
        <ele>786</ele>
        <time>2021-01-30T11:58:56Z</time>
      </trkpt>
      <trkpt lat="45.1808" lon="5.65308">
        <ele>786.4</ele>
        <time>2021-01-30T11:58:57Z</time>
      </trkpt>
      <trkpt lat="45.18082" lon="5.65308">
        <ele>786.4</ele>
        <time>2021-01-30T11:58:58Z</time>
      </trkpt>
      <trkpt lat="45.18084" lon="5.65309">
        <ele>786.6</ele>
        <time>2021-01-30T11:58:59Z</time>
      </trkpt>
      <trkpt lat="45.18085" lon="5.65309">
        <ele>787.2</ele>
        <time>2021-01-30T11:59:00Z</time>
      </trkpt>
      <trkpt lat="45.18087" lon="5.6531">
        <ele>787</ele>
        <time>2021-01-30T11:59:01Z</time>
      </trkpt>
      <trkpt lat="45.1809" lon="5.65311">
        <ele>786.8</ele>
        <time>2021-01-30T11:59:03Z</time>
      </trkpt>
      <trkpt lat="45.18092" lon="5.65311">
        <ele>787</ele>
        <time>2021-01-30T11:59:04Z</time>
      </trkpt>
      <trkpt lat="45.18095" lon="5.65312">
        <ele>787.6</ele>
        <time>2021-01-30T11:59:06Z</time>
      </trkpt>
      <trkpt lat="45.18098" lon="5.65312">
        <ele>787.6</ele>
        <time>2021-01-30T11:59:07Z</time>
      </trkpt>
      <trkpt lat="45.181" lon="5.65312">
        <ele>788.4</ele>
        <time>2021-01-30T11:59:08Z</time>
      </trkpt>
      <trkpt lat="45.18104" lon="5.65313">
        <ele>788.6</ele>
        <time>2021-01-30T11:59:10Z</time>
      </trkpt>
      <trkpt lat="45.18107" lon="5.65314">
        <ele>788.8</ele>
        <time>2021-01-30T11:59:12Z</time>
      </trkpt>
      <trkpt lat="45.1811" lon="5.65315">
        <ele>789.2</ele>
        <time>2021-01-30T11:59:14Z</time>
      </trkpt>
      <trkpt lat="45.18113" lon="5.65316">
        <ele>789.8</ele>
        <time>2021-01-30T11:59:16Z</time>
      </trkpt>
      <trkpt lat="45.18116" lon="5.65316">
        <ele>790</ele>
        <time>2021-01-30T11:59:18Z</time>
      </trkpt>
      <trkpt lat="45.18119" lon="5.65317">
        <ele>790.4</ele>
        <time>2021-01-30T11:59:20Z</time>
      </trkpt>
      <trkpt lat="45.18121" lon="5.65316">
        <ele>791</ele>
        <time>2021-01-30T11:59:22Z</time>
      </trkpt>
      <trkpt lat="45.18124" lon="5.65316">
        <ele>791</ele>
        <time>2021-01-30T11:59:24Z</time>
      </trkpt>
      <trkpt lat="45.18125" lon="5.65317">
        <ele>791.4</ele>
        <time>2021-01-30T11:59:25Z</time>
      </trkpt>
      <trkpt lat="45.18127" lon="5.65317">
        <ele>791.6</ele>
        <time>2021-01-30T11:59:26Z</time>
      </trkpt>
      <trkpt lat="45.1813" lon="5.65317">
        <ele>791.8</ele>
        <time>2021-01-30T11:59:27Z</time>
      </trkpt>
      <trkpt lat="45.18133" lon="5.65317">
        <ele>792.6</ele>
        <time>2021-01-30T11:59:29Z</time>
      </trkpt>
      <trkpt lat="45.18137" lon="5.65317">
        <ele>792.8</ele>
        <time>2021-01-30T11:59:31Z</time>
      </trkpt>
      <trkpt lat="45.18141" lon="5.65317">
        <ele>793</ele>
        <time>2021-01-30T11:59:33Z</time>
      </trkpt>
      <trkpt lat="45.18143" lon="5.65317">
        <ele>793.8</ele>
        <time>2021-01-30T11:59:34Z</time>
      </trkpt>
      <trkpt lat="45.18147" lon="5.65317">
        <ele>793.8</ele>
        <time>2021-01-30T11:59:36Z</time>
      </trkpt>
      <trkpt lat="45.1815" lon="5.65316">
        <ele>794.4</ele>
        <time>2021-01-30T11:59:38Z</time>
      </trkpt>
      <trkpt lat="45.18152" lon="5.65317">
        <ele>794.6</ele>
        <time>2021-01-30T11:59:39Z</time>
      </trkpt>
      <trkpt lat="45.18156" lon="5.65316">
        <ele>794.8</ele>
        <time>2021-01-30T11:59:41Z</time>
      </trkpt>
      <trkpt lat="45.18158" lon="5.65315">
        <ele>795.2</ele>
        <time>2021-01-30T11:59:42Z</time>
      </trkpt>
      <trkpt lat="45.1816" lon="5.65316">
        <ele>795.4</ele>
        <time>2021-01-30T11:59:44Z</time>
      </trkpt>
      <trkpt lat="45.18164" lon="5.65316">
        <ele>796.2</ele>
        <time>2021-01-30T11:59:46Z</time>
      </trkpt>
      <trkpt lat="45.18166" lon="5.65317">
        <ele>796.4</ele>
        <time>2021-01-30T11:59:47Z</time>
      </trkpt>
      <trkpt lat="45.18167" lon="5.65317">
        <ele>797</ele>
        <time>2021-01-30T11:59:48Z</time>
      </trkpt>
      <trkpt lat="45.18169" lon="5.65317">
        <ele>797.2</ele>
        <time>2021-01-30T11:59:49Z</time>
      </trkpt>
      <trkpt lat="45.18171" lon="5.65317">
        <ele>797.4</ele>
        <time>2021-01-30T11:59:50Z</time>
      </trkpt>
      <trkpt lat="45.18173" lon="5.65317">
        <ele>797.4</ele>
        <time>2021-01-30T11:59:51Z</time>
      </trkpt>
      <trkpt lat="45.18176" lon="5.65317">
        <ele>797.2</ele>
        <time>2021-01-30T11:59:52Z</time>
      </trkpt>
      <trkpt lat="45.18178" lon="5.65317">
        <ele>797.6</ele>
        <time>2021-01-30T11:59:53Z</time>
      </trkpt>
      <trkpt lat="45.18181" lon="5.65318">
        <ele>797.8</ele>
        <time>2021-01-30T11:59:55Z</time>
      </trkpt>
      <trkpt lat="45.18183" lon="5.65318">
        <ele>798.6</ele>
        <time>2021-01-30T11:59:56Z</time>
      </trkpt>
      <trkpt lat="45.18185" lon="5.65318">
        <ele>798.4</ele>
        <time>2021-01-30T11:59:58Z</time>
      </trkpt>
      <trkpt lat="45.18188" lon="5.6532">
        <ele>796.3</ele>
        <time>2021-01-30T12:00:00Z</time>
      </trkpt>
      <trkpt lat="45.1819" lon="5.65322">
        <ele>799.6</ele>
        <time>2021-01-30T12:00:02Z</time>
      </trkpt>
      <trkpt lat="45.18191" lon="5.65325">
        <ele>800.6</ele>
        <time>2021-01-30T12:00:04Z</time>
      </trkpt>
      <trkpt lat="45.18192" lon="5.65327">
        <ele>800.8</ele>
        <time>2021-01-30T12:00:06Z</time>
      </trkpt>
      <trkpt lat="45.18195" lon="5.6533">
        <ele>800.8</ele>
        <time>2021-01-30T12:00:08Z</time>
      </trkpt>
      <trkpt lat="45.18197" lon="5.65331">
        <ele>801</ele>
        <time>2021-01-30T12:00:09Z</time>
      </trkpt>
      <trkpt lat="45.18199" lon="5.65332">
        <ele>801.4</ele>
        <time>2021-01-30T12:00:10Z</time>
      </trkpt>
      <trkpt lat="45.18202" lon="5.65333">
        <ele>801.6</ele>
        <time>2021-01-30T12:00:11Z</time>
      </trkpt>
      <trkpt lat="45.18204" lon="5.65334">
        <ele>802</ele>
        <time>2021-01-30T12:00:12Z</time>
      </trkpt>
      <trkpt lat="45.18206" lon="5.65336">
        <ele>802</ele>
        <time>2021-01-30T12:00:13Z</time>
      </trkpt>
      <trkpt lat="45.18208" lon="5.65337">
        <ele>802.4</ele>
        <time>2021-01-30T12:00:14Z</time>
      </trkpt>
      <trkpt lat="45.18212" lon="5.65339">
        <ele>802.4</ele>
        <time>2021-01-30T12:00:16Z</time>
      </trkpt>
      <trkpt lat="45.18213" lon="5.6534">
        <ele>802.8</ele>
        <time>2021-01-30T12:00:17Z</time>
      </trkpt>
      <trkpt lat="45.18215" lon="5.65341">
        <ele>803</ele>
        <time>2021-01-30T12:00:18Z</time>
      </trkpt>
      <trkpt lat="45.18217" lon="5.65342">
        <ele>803</ele>
        <time>2021-01-30T12:00:19Z</time>
      </trkpt>
      <trkpt lat="45.1822" lon="5.65344">
        <ele>803.4</ele>
        <time>2021-01-30T12:00:21Z</time>
      </trkpt>
      <trkpt lat="45.18222" lon="5.65345">
        <ele>803.8</ele>
        <time>2021-01-30T12:00:22Z</time>
      </trkpt>
      <trkpt lat="45.18226" lon="5.65347">
        <ele>804</ele>
        <time>2021-01-30T12:00:24Z</time>
      </trkpt>
      <trkpt lat="45.18227" lon="5.65349">
        <ele>804.8</ele>
        <time>2021-01-30T12:00:25Z</time>
      </trkpt>
      <trkpt lat="45.1823" lon="5.65351">
        <ele>805</ele>
        <time>2021-01-30T12:00:27Z</time>
      </trkpt>
      <trkpt lat="45.18232" lon="5.65353">
        <ele>805.4</ele>
        <time>2021-01-30T12:00:29Z</time>
      </trkpt>
      <trkpt lat="45.18234" lon="5.65355">
        <ele>806.6</ele>
        <time>2021-01-30T12:00:31Z</time>
      </trkpt>
      <trkpt lat="45.18237" lon="5.65355">
        <ele>806.8</ele>
        <time>2021-01-30T12:00:33Z</time>
      </trkpt>
      <trkpt lat="45.1824" lon="5.65354">
        <ele>807.2</ele>
        <time>2021-01-30T12:00:35Z</time>
      </trkpt>
      <trkpt lat="45.18243" lon="5.65352">
        <ele>807.6</ele>
        <time>2021-01-30T12:00:37Z</time>
      </trkpt>
      <trkpt lat="45.18246" lon="5.6535">
        <ele>808.4</ele>
        <time>2021-01-30T12:00:39Z</time>
      </trkpt>
      <trkpt lat="45.18248" lon="5.65346">
        <ele>809</ele>
        <time>2021-01-30T12:00:41Z</time>
      </trkpt>
      <trkpt lat="45.1825" lon="5.65344">
        <ele>809.2</ele>
        <time>2021-01-30T12:00:43Z</time>
      </trkpt>
      <trkpt lat="45.18253" lon="5.65342">
        <ele>810</ele>
        <time>2021-01-30T12:00:45Z</time>
      </trkpt>
      <trkpt lat="45.18255" lon="5.6534">
        <ele>810.8</ele>
        <time>2021-01-30T12:00:47Z</time>
      </trkpt>
      <trkpt lat="45.18258" lon="5.65337">
        <ele>811</ele>
        <time>2021-01-30T12:00:49Z</time>
      </trkpt>
      <trkpt lat="45.1826" lon="5.65335">
        <ele>811.8</ele>
        <time>2021-01-30T12:00:51Z</time>
      </trkpt>
      <trkpt lat="45.18262" lon="5.65331">
        <ele>812.2</ele>
        <time>2021-01-30T12:00:53Z</time>
      </trkpt>
      <trkpt lat="45.18263" lon="5.65328">
        <ele>812.6</ele>
        <time>2021-01-30T12:00:55Z</time>
      </trkpt>
      <trkpt lat="45.18266" lon="5.65326">
        <ele>813</ele>
        <time>2021-01-30T12:00:57Z</time>
      </trkpt>
      <trkpt lat="45.18268" lon="5.65324">
        <ele>813.2</ele>
        <time>2021-01-30T12:00:59Z</time>
      </trkpt>
      <trkpt lat="45.1827" lon="5.65323">
        <ele>814.2</ele>
        <time>2021-01-30T12:01:01Z</time>
      </trkpt>
      <trkpt lat="45.18273" lon="5.65323">
        <ele>814</ele>
        <time>2021-01-30T12:01:03Z</time>
      </trkpt>
      <trkpt lat="45.18276" lon="5.65324">
        <ele>814</ele>
        <time>2021-01-30T12:01:05Z</time>
      </trkpt>
      <trkpt lat="45.18278" lon="5.65323">
        <ele>814.4</ele>
        <time>2021-01-30T12:01:07Z</time>
      </trkpt>
      <trkpt lat="45.1828" lon="5.65321">
        <ele>814.6</ele>
        <time>2021-01-30T12:01:08Z</time>
      </trkpt>
      <trkpt lat="45.18282" lon="5.6532">
        <ele>815</ele>
        <time>2021-01-30T12:01:10Z</time>
      </trkpt>
      <trkpt lat="45.18286" lon="5.65319">
        <ele>815.2</ele>
        <time>2021-01-30T12:01:12Z</time>
      </trkpt>
      <trkpt lat="45.18288" lon="5.65318">
        <ele>815.2</ele>
        <time>2021-01-30T12:01:13Z</time>
      </trkpt>
      <trkpt lat="45.1829" lon="5.65318">
        <ele>815.4</ele>
        <time>2021-01-30T12:01:14Z</time>
      </trkpt>
      <trkpt lat="45.18293" lon="5.65317">
        <ele>816</ele>
        <time>2021-01-30T12:01:16Z</time>
      </trkpt>
      <trkpt lat="45.18297" lon="5.65316">
        <ele>816.8</ele>
        <time>2021-01-30T12:01:18Z</time>
      </trkpt>
      <trkpt lat="45.18299" lon="5.65316">
        <ele>817</ele>
        <time>2021-01-30T12:01:20Z</time>
      </trkpt>
      <trkpt lat="45.18303" lon="5.65314">
        <ele>817.4</ele>
        <time>2021-01-30T12:01:22Z</time>
      </trkpt>
      <trkpt lat="45.18305" lon="5.65314">
        <ele>817.6</ele>
        <time>2021-01-30T12:01:23Z</time>
      </trkpt>
      <trkpt lat="45.18308" lon="5.65311">
        <ele>817.6</ele>
        <time>2021-01-30T12:01:25Z</time>
      </trkpt>
      <trkpt lat="45.1831" lon="5.6531">
        <ele>818</ele>
        <time>2021-01-30T12:01:27Z</time>
      </trkpt>
      <trkpt lat="45.18313" lon="5.65309">
        <ele>818.4</ele>
        <time>2021-01-30T12:01:29Z</time>
      </trkpt>
      <trkpt lat="45.18315" lon="5.65309">
        <ele>819.2</ele>
        <time>2021-01-30T12:01:31Z</time>
      </trkpt>
      <trkpt lat="45.18318" lon="5.65308">
        <ele>819.6</ele>
        <time>2021-01-30T12:01:33Z</time>
      </trkpt>
      <trkpt lat="45.1832" lon="5.65307">
        <ele>820.2</ele>
        <time>2021-01-30T12:01:35Z</time>
      </trkpt>
      <trkpt lat="45.18323" lon="5.65308">
        <ele>820.4</ele>
        <time>2021-01-30T12:01:37Z</time>
      </trkpt>
      <trkpt lat="45.18327" lon="5.65308">
        <ele>820.8</ele>
        <time>2021-01-30T12:01:39Z</time>
      </trkpt>
      <trkpt lat="45.1833" lon="5.65308">
        <ele>821.4</ele>
        <time>2021-01-30T12:01:41Z</time>
      </trkpt>
      <trkpt lat="45.18332" lon="5.65308">
        <ele>821.6</ele>
        <time>2021-01-30T12:01:42Z</time>
      </trkpt>
      <trkpt lat="45.18334" lon="5.65307">
        <ele>822</ele>
        <time>2021-01-30T12:01:43Z</time>
      </trkpt>
      <trkpt lat="45.18336" lon="5.65306">
        <ele>822.2</ele>
        <time>2021-01-30T12:01:44Z</time>
      </trkpt>
      <trkpt lat="45.18339" lon="5.65304">
        <ele>822.8</ele>
        <time>2021-01-30T12:01:46Z</time>
      </trkpt>
      <trkpt lat="45.18343" lon="5.65303">
        <ele>823.2</ele>
        <time>2021-01-30T12:01:48Z</time>
      </trkpt>
      <trkpt lat="45.18345" lon="5.65302">
        <ele>824.2</ele>
        <time>2021-01-30T12:01:50Z</time>
      </trkpt>
      <trkpt lat="45.18348" lon="5.653">
        <ele>824.8</ele>
        <time>2021-01-30T12:01:52Z</time>
      </trkpt>
      <trkpt lat="45.18351" lon="5.65298">
        <ele>825.6</ele>
        <time>2021-01-30T12:01:54Z</time>
      </trkpt>
      <trkpt lat="45.18353" lon="5.65297">
        <ele>825.8</ele>
        <time>2021-01-30T12:01:55Z</time>
      </trkpt>
      <trkpt lat="45.18355" lon="5.65297">
        <ele>825.8</ele>
        <time>2021-01-30T12:01:56Z</time>
      </trkpt>
      <trkpt lat="45.18358" lon="5.65295">
        <ele>825.8</ele>
        <time>2021-01-30T12:01:58Z</time>
      </trkpt>
      <trkpt lat="45.18361" lon="5.65294">
        <ele>826.8</ele>
        <time>2021-01-30T12:02:00Z</time>
      </trkpt>
      <trkpt lat="45.18364" lon="5.65292">
        <ele>827</ele>
        <time>2021-01-30T12:02:02Z</time>
      </trkpt>
      <trkpt lat="45.18366" lon="5.65289">
        <ele>827.6</ele>
        <time>2021-01-30T12:02:04Z</time>
      </trkpt>
      <trkpt lat="45.18368" lon="5.65288">
        <ele>828</ele>
        <time>2021-01-30T12:02:06Z</time>
      </trkpt>
      <trkpt lat="45.18372" lon="5.65286">
        <ele>828.2</ele>
        <time>2021-01-30T12:02:08Z</time>
      </trkpt>
      <trkpt lat="45.18374" lon="5.65284">
        <ele>828.8</ele>
        <time>2021-01-30T12:02:10Z</time>
      </trkpt>
      <trkpt lat="45.18377" lon="5.65283">
        <ele>829.2</ele>
        <time>2021-01-30T12:02:12Z</time>
      </trkpt>
      <trkpt lat="45.18379" lon="5.65283">
        <ele>829.6</ele>
        <time>2021-01-30T12:02:14Z</time>
      </trkpt>
      <trkpt lat="45.18382" lon="5.65283">
        <ele>829.8</ele>
        <time>2021-01-30T12:02:16Z</time>
      </trkpt>
      <trkpt lat="45.18383" lon="5.65283">
        <ele>830.4</ele>
        <time>2021-01-30T12:02:18Z</time>
      </trkpt>
      <trkpt lat="45.18386" lon="5.65282">
        <ele>830.8</ele>
        <time>2021-01-30T12:02:19Z</time>
      </trkpt>
      <trkpt lat="45.18388" lon="5.65281">
        <ele>831.2</ele>
        <time>2021-01-30T12:02:20Z</time>
      </trkpt>
      <trkpt lat="45.1839" lon="5.6528">
        <ele>831</ele>
        <time>2021-01-30T12:02:21Z</time>
      </trkpt>
      <trkpt lat="45.18393" lon="5.65278">
        <ele>831.2</ele>
        <time>2021-01-30T12:02:23Z</time>
      </trkpt>
      <trkpt lat="45.18395" lon="5.65278">
        <ele>831.8</ele>
        <time>2021-01-30T12:02:24Z</time>
      </trkpt>
      <trkpt lat="45.18397" lon="5.65276">
        <ele>832.8</ele>
        <time>2021-01-30T12:02:27Z</time>
      </trkpt>
      <trkpt lat="45.18401" lon="5.65275">
        <ele>833.4</ele>
        <time>2021-01-30T12:02:29Z</time>
      </trkpt>
      <trkpt lat="45.18403" lon="5.65275">
        <ele>833.8</ele>
        <time>2021-01-30T12:02:31Z</time>
      </trkpt>
      <trkpt lat="45.18407" lon="5.65275">
        <ele>834.6</ele>
        <time>2021-01-30T12:02:33Z</time>
      </trkpt>
      <trkpt lat="45.1841" lon="5.65274">
        <ele>834.6</ele>
        <time>2021-01-30T12:02:34Z</time>
      </trkpt>
      <trkpt lat="45.18413" lon="5.65274">
        <ele>834.8</ele>
        <time>2021-01-30T12:02:36Z</time>
      </trkpt>
      <trkpt lat="45.18416" lon="5.65273">
        <ele>835.6</ele>
        <time>2021-01-30T12:02:38Z</time>
      </trkpt>
      <trkpt lat="45.18419" lon="5.65273">
        <ele>836</ele>
        <time>2021-01-30T12:02:40Z</time>
      </trkpt>
      <trkpt lat="45.18422" lon="5.65272">
        <ele>836.4</ele>
        <time>2021-01-30T12:02:42Z</time>
      </trkpt>
      <trkpt lat="45.18425" lon="5.65271">
        <ele>836.6</ele>
        <time>2021-01-30T12:02:44Z</time>
      </trkpt>
      <trkpt lat="45.18428" lon="5.6527">
        <ele>837.4</ele>
        <time>2021-01-30T12:02:46Z</time>
      </trkpt>
      <trkpt lat="45.18433" lon="5.6527">
        <ele>837.6</ele>
        <time>2021-01-30T12:02:48Z</time>
      </trkpt>
      <trkpt lat="45.18435" lon="5.6527">
        <ele>838</ele>
        <time>2021-01-30T12:02:50Z</time>
      </trkpt>
      <trkpt lat="45.18437" lon="5.65269">
        <ele>838.2</ele>
        <time>2021-01-30T12:02:52Z</time>
      </trkpt>
      <trkpt lat="45.1844" lon="5.65269">
        <ele>838.6</ele>
        <time>2021-01-30T12:02:54Z</time>
      </trkpt>
      <trkpt lat="45.18443" lon="5.65268">
        <ele>839.2</ele>
        <time>2021-01-30T12:02:56Z</time>
      </trkpt>
      <trkpt lat="45.18445" lon="5.65268">
        <ele>839.2</ele>
        <time>2021-01-30T12:02:57Z</time>
      </trkpt>
      <trkpt lat="45.18448" lon="5.65266">
        <ele>840.4</ele>
        <time>2021-01-30T12:02:59Z</time>
      </trkpt>
      <trkpt lat="45.1845" lon="5.65265">
        <ele>840.8</ele>
        <time>2021-01-30T12:03:01Z</time>
      </trkpt>
      <trkpt lat="45.18455" lon="5.65261">
        <ele>841.6</ele>
        <time>2021-01-30T12:03:04Z</time>
      </trkpt>
      <trkpt lat="45.18457" lon="5.6526">
        <ele>841.8</ele>
        <time>2021-01-30T12:03:06Z</time>
      </trkpt>
      <trkpt lat="45.1846" lon="5.6526">
        <ele>842.2</ele>
        <time>2021-01-30T12:03:08Z</time>
      </trkpt>
      <trkpt lat="45.18464" lon="5.65259">
        <ele>842.2</ele>
        <time>2021-01-30T12:03:10Z</time>
      </trkpt>
      <trkpt lat="45.18467" lon="5.65257">
        <ele>842.4</ele>
        <time>2021-01-30T12:03:12Z</time>
      </trkpt>
      <trkpt lat="45.18469" lon="5.65255">
        <ele>843.2</ele>
        <time>2021-01-30T12:03:14Z</time>
      </trkpt>
      <trkpt lat="45.18472" lon="5.65254">
        <ele>843.4</ele>
        <time>2021-01-30T12:03:16Z</time>
      </trkpt>
      <trkpt lat="45.18475" lon="5.65251">
        <ele>844.2</ele>
        <time>2021-01-30T12:03:18Z</time>
      </trkpt>
      <trkpt lat="45.18478" lon="5.65248">
        <ele>844.6</ele>
        <time>2021-01-30T12:03:20Z</time>
      </trkpt>
      <trkpt lat="45.1848" lon="5.65246">
        <ele>845.6</ele>
        <time>2021-01-30T12:03:22Z</time>
      </trkpt>
      <trkpt lat="45.18483" lon="5.65243">
        <ele>845.6</ele>
        <time>2021-01-30T12:03:24Z</time>
      </trkpt>
      <trkpt lat="45.18485" lon="5.65242">
        <ele>845.6</ele>
        <time>2021-01-30T12:03:26Z</time>
      </trkpt>
      <trkpt lat="45.18488" lon="5.6524">
        <ele>846.6</ele>
        <time>2021-01-30T12:03:28Z</time>
      </trkpt>
      <trkpt lat="45.1849" lon="5.6524">
        <ele>846.8</ele>
        <time>2021-01-30T12:03:30Z</time>
      </trkpt>
      <trkpt lat="45.18492" lon="5.65239">
        <ele>847.6</ele>
        <time>2021-01-30T12:03:32Z</time>
      </trkpt>
      <trkpt lat="45.18495" lon="5.65238">
        <ele>848.4</ele>
        <time>2021-01-30T12:03:35Z</time>
      </trkpt>
      <trkpt lat="45.18505" lon="5.65237">
        <ele>850.2</ele>
        <time>2021-01-30T12:03:43Z</time>
      </trkpt>
      <trkpt lat="45.18507" lon="5.65238">
        <ele>850.8</ele>
        <time>2021-01-30T12:03:46Z</time>
      </trkpt>
      <trkpt lat="45.18511" lon="5.6524">
        <ele>851.8</ele>
        <time>2021-01-30T12:03:49Z</time>
      </trkpt>
      <trkpt lat="45.18513" lon="5.65241">
        <ele>851.8</ele>
        <time>2021-01-30T12:03:50Z</time>
      </trkpt>
      <trkpt lat="45.18516" lon="5.65242">
        <ele>852.4</ele>
        <time>2021-01-30T12:03:52Z</time>
      </trkpt>
      <trkpt lat="45.18518" lon="5.65241">
        <ele>853</ele>
        <time>2021-01-30T12:03:54Z</time>
      </trkpt>
      <trkpt lat="45.18521" lon="5.65239">
        <ele>853.4</ele>
        <time>2021-01-30T12:03:56Z</time>
      </trkpt>
      <trkpt lat="45.1853" lon="5.65237">
        <ele>855.8</ele>
        <time>2021-01-30T12:04:03Z</time>
      </trkpt>
      <trkpt lat="45.1854" lon="5.65238">
        <ele>857</ele>
        <time>2021-01-30T12:04:11Z</time>
      </trkpt>
      <trkpt lat="45.1855" lon="5.65235">
        <ele>859.4</ele>
        <time>2021-01-30T12:04:19Z</time>
      </trkpt>
      <trkpt lat="45.18554" lon="5.65234">
        <ele>860.4</ele>
        <time>2021-01-30T12:04:22Z</time>
      </trkpt>
      <trkpt lat="45.18557" lon="5.65234">
        <ele>860.4</ele>
        <time>2021-01-30T12:04:24Z</time>
      </trkpt>
      <trkpt lat="45.18562" lon="5.65232">
        <ele>861.4</ele>
        <time>2021-01-30T12:04:27Z</time>
      </trkpt>
      <trkpt lat="45.18572" lon="5.65227">
        <ele>864</ele>
        <time>2021-01-30T12:04:35Z</time>
      </trkpt>
      <trkpt lat="45.18581" lon="5.65225">
        <ele>866</ele>
        <time>2021-01-30T12:04:43Z</time>
      </trkpt>
      <trkpt lat="45.18592" lon="5.65225">
        <ele>868.4</ele>
        <time>2021-01-30T12:04:51Z</time>
      </trkpt>
      <trkpt lat="45.18594" lon="5.65224">
        <ele>868.8</ele>
        <time>2021-01-30T12:04:52Z</time>
      </trkpt>
      <trkpt lat="45.18604" lon="5.65221">
        <ele>872</ele>
        <time>2021-01-30T12:05:02Z</time>
      </trkpt>
      <trkpt lat="45.18613" lon="5.65217">
        <ele>873.8</ele>
        <time>2021-01-30T12:05:10Z</time>
      </trkpt>
      <trkpt lat="45.18618" lon="5.65214">
        <ele>874.8</ele>
        <time>2021-01-30T12:05:14Z</time>
      </trkpt>
      <trkpt lat="45.1862" lon="5.65214">
        <ele>875.4</ele>
        <time>2021-01-30T12:05:16Z</time>
      </trkpt>
      <trkpt lat="45.18629" lon="5.65213">
        <ele>877.8</ele>
        <time>2021-01-30T12:05:24Z</time>
      </trkpt>
      <trkpt lat="45.18638" lon="5.6521">
        <ele>881.4</ele>
        <time>2021-01-30T12:05:35Z</time>
      </trkpt>
      <trkpt lat="45.18648" lon="5.6521">
        <ele>884</ele>
        <time>2021-01-30T12:05:43Z</time>
      </trkpt>
      <trkpt lat="45.1865" lon="5.6521">
        <ele>885</ele>
        <time>2021-01-30T12:05:45Z</time>
      </trkpt>
      <trkpt lat="45.18652" lon="5.65212">
        <ele>885.6</ele>
        <time>2021-01-30T12:05:47Z</time>
      </trkpt>
      <trkpt lat="45.18656" lon="5.65217">
        <ele>888</ele>
        <time>2021-01-30T12:05:57Z</time>
      </trkpt>
      <trkpt lat="45.18663" lon="5.65219">
        <ele>889.2</ele>
        <time>2021-01-30T12:06:03Z</time>
      </trkpt>
      <trkpt lat="45.1867" lon="5.65221">
        <ele>891.4</ele>
        <time>2021-01-30T12:06:09Z</time>
      </trkpt>
      <trkpt lat="45.18673" lon="5.65222">
        <ele>892</ele>
        <time>2021-01-30T12:06:11Z</time>
      </trkpt>
      <trkpt lat="45.18676" lon="5.65222">
        <ele>892.6</ele>
        <time>2021-01-30T12:06:13Z</time>
      </trkpt>
      <trkpt lat="45.18678" lon="5.65222">
        <ele>893</ele>
        <time>2021-01-30T12:06:15Z</time>
      </trkpt>
      <trkpt lat="45.18681" lon="5.65222">
        <ele>893.6</ele>
        <time>2021-01-30T12:06:17Z</time>
      </trkpt>
      <trkpt lat="45.18683" lon="5.65224">
        <ele>894.2</ele>
        <time>2021-01-30T12:06:19Z</time>
      </trkpt>
      <trkpt lat="45.18686" lon="5.65225">
        <ele>894.6</ele>
        <time>2021-01-30T12:06:21Z</time>
      </trkpt>
      <trkpt lat="45.18689" lon="5.65224">
        <ele>895.4</ele>
        <time>2021-01-30T12:06:24Z</time>
      </trkpt>
      <trkpt lat="45.18692" lon="5.65224">
        <ele>895.8</ele>
        <time>2021-01-30T12:06:26Z</time>
      </trkpt>
      <trkpt lat="45.18694" lon="5.65223">
        <ele>897.2</ele>
        <time>2021-01-30T12:06:28Z</time>
      </trkpt>
      <trkpt lat="45.18696" lon="5.65222">
        <ele>897.6</ele>
        <time>2021-01-30T12:06:31Z</time>
      </trkpt>
      <trkpt lat="45.18698" lon="5.65222">
        <ele>898.2</ele>
        <time>2021-01-30T12:06:33Z</time>
      </trkpt>
      <trkpt lat="45.18701" lon="5.65222">
        <ele>899</ele>
        <time>2021-01-30T12:06:35Z</time>
      </trkpt>
      <trkpt lat="45.18703" lon="5.65222">
        <ele>899.2</ele>
        <time>2021-01-30T12:06:36Z</time>
      </trkpt>
      <trkpt lat="45.18705" lon="5.65222">
        <ele>899.4</ele>
        <time>2021-01-30T12:06:38Z</time>
      </trkpt>
      <trkpt lat="45.18708" lon="5.65223">
        <ele>900.6</ele>
        <time>2021-01-30T12:06:41Z</time>
      </trkpt>
      <trkpt lat="45.1871" lon="5.65223">
        <ele>901</ele>
        <time>2021-01-30T12:06:43Z</time>
      </trkpt>
      <trkpt lat="45.18712" lon="5.65222">
        <ele>901.8</ele>
        <time>2021-01-30T12:06:45Z</time>
      </trkpt>
      <trkpt lat="45.18714" lon="5.6522">
        <ele>902.4</ele>
        <time>2021-01-30T12:06:47Z</time>
      </trkpt>
      <trkpt lat="45.18717" lon="5.6522">
        <ele>902.8</ele>
        <time>2021-01-30T12:06:49Z</time>
      </trkpt>
      <trkpt lat="45.18721" lon="5.65217">
        <ele>903.8</ele>
        <time>2021-01-30T12:06:53Z</time>
      </trkpt>
      <trkpt lat="45.18724" lon="5.65214">
        <ele>905.2</ele>
        <time>2021-01-30T12:06:57Z</time>
      </trkpt>
      <trkpt lat="45.18725" lon="5.65212">
        <ele>906</ele>
        <time>2021-01-30T12:06:59Z</time>
      </trkpt>
      <trkpt lat="45.18727" lon="5.6521">
        <ele>906.8</ele>
        <time>2021-01-30T12:07:03Z</time>
      </trkpt>
      <trkpt lat="45.18729" lon="5.65208">
        <ele>908</ele>
        <time>2021-01-30T12:07:05Z</time>
      </trkpt>
      <trkpt lat="45.1873" lon="5.65206">
        <ele>908.6</ele>
        <time>2021-01-30T12:07:07Z</time>
      </trkpt>
      <trkpt lat="45.18732" lon="5.65205">
        <ele>909</ele>
        <time>2021-01-30T12:07:09Z</time>
      </trkpt>
      <trkpt lat="45.18735" lon="5.65204">
        <ele>910</ele>
        <time>2021-01-30T12:07:12Z</time>
      </trkpt>
      <trkpt lat="45.18736" lon="5.65203">
        <ele>910.4</ele>
        <time>2021-01-30T12:07:14Z</time>
      </trkpt>
      <trkpt lat="45.18738" lon="5.65201">
        <ele>911</ele>
        <time>2021-01-30T12:07:16Z</time>
      </trkpt>
      <trkpt lat="45.1874" lon="5.652">
        <ele>911.6</ele>
        <time>2021-01-30T12:07:18Z</time>
      </trkpt>
      <trkpt lat="45.18742" lon="5.65199">
        <ele>912.6</ele>
        <time>2021-01-30T12:07:21Z</time>
      </trkpt>
      <trkpt lat="45.18744" lon="5.65198">
        <ele>913.6</ele>
        <time>2021-01-30T12:07:23Z</time>
      </trkpt>
      <trkpt lat="45.18747" lon="5.65198">
        <ele>914.4</ele>
        <time>2021-01-30T12:07:26Z</time>
      </trkpt>
      <trkpt lat="45.18749" lon="5.65197">
        <ele>915.2</ele>
        <time>2021-01-30T12:07:28Z</time>
      </trkpt>
      <trkpt lat="45.18752" lon="5.65195">
        <ele>916</ele>
        <time>2021-01-30T12:07:31Z</time>
      </trkpt>
      <trkpt lat="45.18754" lon="5.65193">
        <ele>916.8</ele>
        <time>2021-01-30T12:07:33Z</time>
      </trkpt>
      <trkpt lat="45.18756" lon="5.65191">
        <ele>918</ele>
        <time>2021-01-30T12:07:36Z</time>
      </trkpt>
      <trkpt lat="45.18758" lon="5.65189">
        <ele>919</ele>
        <time>2021-01-30T12:07:38Z</time>
      </trkpt>
      <trkpt lat="45.18759" lon="5.65188">
        <ele>919.6</ele>
        <time>2021-01-30T12:07:40Z</time>
      </trkpt>
      <trkpt lat="45.18762" lon="5.65187">
        <ele>921.2</ele>
        <time>2021-01-30T12:07:45Z</time>
      </trkpt>
      <trkpt lat="45.18765" lon="5.65185">
        <ele>921.2</ele>
        <time>2021-01-30T12:07:48Z</time>
      </trkpt>
      <trkpt lat="45.18766" lon="5.65186">
        <ele>922</ele>
        <time>2021-01-30T12:08:05Z</time>
      </trkpt>
      <trkpt lat="45.18768" lon="5.65185">
        <ele>922.4</ele>
        <time>2021-01-30T12:08:08Z</time>
      </trkpt>
      <trkpt lat="45.18771" lon="5.65185">
        <ele>922.8</ele>
        <time>2021-01-30T12:08:10Z</time>
      </trkpt>
      <trkpt lat="45.18773" lon="5.65185">
        <ele>922.8</ele>
        <time>2021-01-30T12:08:12Z</time>
      </trkpt>
      <trkpt lat="45.18775" lon="5.65186">
        <ele>923.4</ele>
        <time>2021-01-30T12:08:14Z</time>
      </trkpt>
      <trkpt lat="45.18777" lon="5.65185">
        <ele>923.6</ele>
        <time>2021-01-30T12:08:17Z</time>
      </trkpt>
      <trkpt lat="45.18778" lon="5.65182">
        <ele>924.2</ele>
        <time>2021-01-30T12:08:21Z</time>
      </trkpt>
      <trkpt lat="45.1878" lon="5.65181">
        <ele>924.6</ele>
        <time>2021-01-30T12:08:24Z</time>
      </trkpt>
      <trkpt lat="45.18783" lon="5.65181">
        <ele>924.8</ele>
        <time>2021-01-30T12:08:27Z</time>
      </trkpt>
      <trkpt lat="45.18785" lon="5.65181">
        <ele>925.6</ele>
        <time>2021-01-30T12:08:30Z</time>
      </trkpt>
      <trkpt lat="45.18788" lon="5.65182">
        <ele>926.2</ele>
        <time>2021-01-30T12:08:33Z</time>
      </trkpt>
      <trkpt lat="45.18789" lon="5.65183">
        <ele>926.6</ele>
        <time>2021-01-30T12:08:38Z</time>
      </trkpt>
      <trkpt lat="45.18792" lon="5.65185">
        <ele>926.6</ele>
        <time>2021-01-30T12:08:43Z</time>
      </trkpt>
      <trkpt lat="45.18795" lon="5.65186">
        <ele>926.8</ele>
        <time>2021-01-30T12:08:45Z</time>
      </trkpt>
      <trkpt lat="45.18798" lon="5.65186">
        <ele>927.6</ele>
        <time>2021-01-30T12:08:47Z</time>
      </trkpt>
      <trkpt lat="45.188" lon="5.65186">
        <ele>928</ele>
        <time>2021-01-30T12:08:49Z</time>
      </trkpt>
      <trkpt lat="45.18803" lon="5.65186">
        <ele>928.6</ele>
        <time>2021-01-30T12:08:51Z</time>
      </trkpt>
      <trkpt lat="45.18806" lon="5.65186">
        <ele>929.2</ele>
        <time>2021-01-30T12:08:53Z</time>
      </trkpt>
      <trkpt lat="45.18808" lon="5.65186">
        <ele>930</ele>
        <time>2021-01-30T12:08:55Z</time>
      </trkpt>
      <trkpt lat="45.18811" lon="5.65186">
        <ele>930.4</ele>
        <time>2021-01-30T12:08:57Z</time>
      </trkpt>
      <trkpt lat="45.18813" lon="5.65185">
        <ele>931</ele>
        <time>2021-01-30T12:08:59Z</time>
      </trkpt>
      <trkpt lat="45.18815" lon="5.65182">
        <ele>931.6</ele>
        <time>2021-01-30T12:09:01Z</time>
      </trkpt>
      <trkpt lat="45.18816" lon="5.6518">
        <ele>932.2</ele>
        <time>2021-01-30T12:09:03Z</time>
      </trkpt>
      <trkpt lat="45.18819" lon="5.65178">
        <ele>932.8</ele>
        <time>2021-01-30T12:09:05Z</time>
      </trkpt>
      <trkpt lat="45.18823" lon="5.65175">
        <ele>934.2</ele>
        <time>2021-01-30T12:09:10Z</time>
      </trkpt>
      <trkpt lat="45.18825" lon="5.65174">
        <ele>934.8</ele>
        <time>2021-01-30T12:09:12Z</time>
      </trkpt>
      <trkpt lat="45.18827" lon="5.65173">
        <ele>935.4</ele>
        <time>2021-01-30T12:09:14Z</time>
      </trkpt>
      <trkpt lat="45.18829" lon="5.65172">
        <ele>935.6</ele>
        <time>2021-01-30T12:09:16Z</time>
      </trkpt>
      <trkpt lat="45.18831" lon="5.65171">
        <ele>936.2</ele>
        <time>2021-01-30T12:09:18Z</time>
      </trkpt>
      <trkpt lat="45.18834" lon="5.6517">
        <ele>936.6</ele>
        <time>2021-01-30T12:09:20Z</time>
      </trkpt>
      <trkpt lat="45.18836" lon="5.65169">
        <ele>936.8</ele>
        <time>2021-01-30T12:09:22Z</time>
      </trkpt>
      <trkpt lat="45.18839" lon="5.65168">
        <ele>937.4</ele>
        <time>2021-01-30T12:09:25Z</time>
      </trkpt>
      <trkpt lat="45.18841" lon="5.65169">
        <ele>937.8</ele>
        <time>2021-01-30T12:09:26Z</time>
      </trkpt>
      <trkpt lat="45.18844" lon="5.6517">
        <ele>938.2</ele>
        <time>2021-01-30T12:09:28Z</time>
      </trkpt>
      <trkpt lat="45.18847" lon="5.6517">
        <ele>938.2</ele>
        <time>2021-01-30T12:09:30Z</time>
      </trkpt>
      <trkpt lat="45.1885" lon="5.6517">
        <ele>938</ele>
        <time>2021-01-30T12:09:31Z</time>
      </trkpt>
      <trkpt lat="45.18852" lon="5.6517">
        <ele>938</ele>
        <time>2021-01-30T12:09:32Z</time>
      </trkpt>
      <trkpt lat="45.18854" lon="5.65171">
        <ele>938.2</ele>
        <time>2021-01-30T12:09:33Z</time>
      </trkpt>
      <trkpt lat="45.18856" lon="5.6517">
        <ele>938.4</ele>
        <time>2021-01-30T12:09:34Z</time>
      </trkpt>
      <trkpt lat="45.18858" lon="5.6517">
        <ele>939</ele>
        <time>2021-01-30T12:09:35Z</time>
      </trkpt>
      <trkpt lat="45.18862" lon="5.6517">
        <ele>939</ele>
        <time>2021-01-30T12:09:37Z</time>
      </trkpt>
      <trkpt lat="45.18864" lon="5.6517">
        <ele>939.2</ele>
        <time>2021-01-30T12:09:38Z</time>
      </trkpt>
      <trkpt lat="45.18867" lon="5.6517">
        <ele>940.2</ele>
        <time>2021-01-30T12:09:40Z</time>
      </trkpt>
      <trkpt lat="45.1887" lon="5.65171">
        <ele>940.2</ele>
        <time>2021-01-30T12:09:42Z</time>
      </trkpt>
      <trkpt lat="45.18872" lon="5.65172">
        <ele>941.2</ele>
        <time>2021-01-30T12:09:45Z</time>
      </trkpt>
      <trkpt lat="45.18876" lon="5.65173">
        <ele>941.6</ele>
        <time>2021-01-30T12:09:48Z</time>
      </trkpt>
      <trkpt lat="45.18884" lon="5.65175">
        <ele>942.8</ele>
        <time>2021-01-30T12:09:54Z</time>
      </trkpt>
      <trkpt lat="45.1889" lon="5.65178">
        <ele>943.4</ele>
        <time>2021-01-30T12:09:57Z</time>
      </trkpt>
      <trkpt lat="45.18893" lon="5.65178">
        <ele>943.4</ele>
        <time>2021-01-30T12:09:58Z</time>
      </trkpt>
      <trkpt lat="45.18895" lon="5.65179">
        <ele>943.6</ele>
        <time>2021-01-30T12:09:59Z</time>
      </trkpt>
      <trkpt lat="45.18904" lon="5.65181">
        <ele>945.4</ele>
        <time>2021-01-30T12:10:04Z</time>
      </trkpt>
      <trkpt lat="45.18914" lon="5.65179">
        <ele>946.4</ele>
        <time>2021-01-30T12:10:10Z</time>
      </trkpt>
      <trkpt lat="45.18923" lon="5.65174">
        <ele>948.4</ele>
        <time>2021-01-30T12:10:17Z</time>
      </trkpt>
      <trkpt lat="45.18932" lon="5.65167">
        <ele>950.4</ele>
        <time>2021-01-30T12:10:23Z</time>
      </trkpt>
      <trkpt lat="45.1894" lon="5.65161">
        <ele>952.8</ele>
        <time>2021-01-30T12:10:30Z</time>
      </trkpt>
      <trkpt lat="45.18949" lon="5.65158">
        <ele>955.4</ele>
        <time>2021-01-30T12:10:39Z</time>
      </trkpt>
      <trkpt lat="45.18955" lon="5.65158">
        <ele>956</ele>
        <time>2021-01-30T12:10:43Z</time>
      </trkpt>
      <trkpt lat="45.18959" lon="5.65156">
        <ele>956.4</ele>
        <time>2021-01-30T12:10:46Z</time>
      </trkpt>
      <trkpt lat="45.18961" lon="5.65155">
        <ele>956.8</ele>
        <time>2021-01-30T12:10:48Z</time>
      </trkpt>
      <trkpt lat="45.18963" lon="5.65153">
        <ele>958</ele>
        <time>2021-01-30T12:10:50Z</time>
      </trkpt>
      <trkpt lat="45.18965" lon="5.65152">
        <ele>958.8</ele>
        <time>2021-01-30T12:10:52Z</time>
      </trkpt>
      <trkpt lat="45.18967" lon="5.6515">
        <ele>958.8</ele>
        <time>2021-01-30T12:10:54Z</time>
      </trkpt>
      <trkpt lat="45.18968" lon="5.65147">
        <ele>959.4</ele>
        <time>2021-01-30T12:10:56Z</time>
      </trkpt>
      <trkpt lat="45.18971" lon="5.65145">
        <ele>959.8</ele>
        <time>2021-01-30T12:10:59Z</time>
      </trkpt>
      <trkpt lat="45.18974" lon="5.65144">
        <ele>960.4</ele>
        <time>2021-01-30T12:11:02Z</time>
      </trkpt>
      <trkpt lat="45.18976" lon="5.65144">
        <ele>961.2</ele>
        <time>2021-01-30T12:11:04Z</time>
      </trkpt>
      <trkpt lat="45.18979" lon="5.65143">
        <ele>961.6</ele>
        <time>2021-01-30T12:11:06Z</time>
      </trkpt>
      <trkpt lat="45.1898" lon="5.65142">
        <ele>962.4</ele>
        <time>2021-01-30T12:11:08Z</time>
      </trkpt>
      <trkpt lat="45.18983" lon="5.6514">
        <ele>962.8</ele>
        <time>2021-01-30T12:11:10Z</time>
      </trkpt>
      <trkpt lat="45.18984" lon="5.6514">
        <ele>963.8</ele>
        <time>2021-01-30T12:11:12Z</time>
      </trkpt>
      <trkpt lat="45.18987" lon="5.65138">
        <ele>964.6</ele>
        <time>2021-01-30T12:11:15Z</time>
      </trkpt>
      <trkpt lat="45.1899" lon="5.65137">
        <ele>965.8</ele>
        <time>2021-01-30T12:11:18Z</time>
      </trkpt>
      <trkpt lat="45.18991" lon="5.65136">
        <ele>966.4</ele>
        <time>2021-01-30T12:11:20Z</time>
      </trkpt>
      <trkpt lat="45.18993" lon="5.65134">
        <ele>967.2</ele>
        <time>2021-01-30T12:11:23Z</time>
      </trkpt>
      <trkpt lat="45.18995" lon="5.65133">
        <ele>968</ele>
        <time>2021-01-30T12:11:25Z</time>
      </trkpt>
      <trkpt lat="45.18997" lon="5.65133">
        <ele>968.6</ele>
        <time>2021-01-30T12:11:27Z</time>
      </trkpt>
      <trkpt lat="45.18999" lon="5.65133">
        <ele>969</ele>
        <time>2021-01-30T12:11:29Z</time>
      </trkpt>
      <trkpt lat="45.19001" lon="5.65133">
        <ele>969.6</ele>
        <time>2021-01-30T12:11:31Z</time>
      </trkpt>
      <trkpt lat="45.19003" lon="5.65132">
        <ele>970.4</ele>
        <time>2021-01-30T12:11:34Z</time>
      </trkpt>
      <trkpt lat="45.19005" lon="5.65132">
        <ele>971.6</ele>
        <time>2021-01-30T12:11:37Z</time>
      </trkpt>
      <trkpt lat="45.19007" lon="5.65131">
        <ele>972.4</ele>
        <time>2021-01-30T12:11:39Z</time>
      </trkpt>
      <trkpt lat="45.1901" lon="5.6513">
        <ele>973.4</ele>
        <time>2021-01-30T12:11:42Z</time>
      </trkpt>
      <trkpt lat="45.19011" lon="5.65128">
        <ele>973.8</ele>
        <time>2021-01-30T12:11:44Z</time>
      </trkpt>
      <trkpt lat="45.19013" lon="5.65127">
        <ele>974.6</ele>
        <time>2021-01-30T12:11:46Z</time>
      </trkpt>
      <trkpt lat="45.19016" lon="5.65127">
        <ele>975.4</ele>
        <time>2021-01-30T12:11:48Z</time>
      </trkpt>
      <trkpt lat="45.19019" lon="5.65126">
        <ele>976.4</ele>
        <time>2021-01-30T12:11:51Z</time>
      </trkpt>
      <trkpt lat="45.19021" lon="5.65125">
        <ele>976.6</ele>
        <time>2021-01-30T12:11:53Z</time>
      </trkpt>
      <trkpt lat="45.19029" lon="5.65122">
        <ele>978.6</ele>
        <time>2021-01-30T12:11:59Z</time>
      </trkpt>
      <trkpt lat="45.19033" lon="5.65121">
        <ele>979.2</ele>
        <time>2021-01-30T12:12:02Z</time>
      </trkpt>
      <trkpt lat="45.19035" lon="5.65122">
        <ele>979.4</ele>
        <time>2021-01-30T12:12:04Z</time>
      </trkpt>
      <trkpt lat="45.19038" lon="5.65125">
        <ele>979.8</ele>
        <time>2021-01-30T12:12:06Z</time>
      </trkpt>
      <trkpt lat="45.19041" lon="5.65125">
        <ele>979.8</ele>
        <time>2021-01-30T12:12:08Z</time>
      </trkpt>
      <trkpt lat="45.19044" lon="5.65126">
        <ele>980</ele>
        <time>2021-01-30T12:12:10Z</time>
      </trkpt>
      <trkpt lat="45.19046" lon="5.65126">
        <ele>980.4</ele>
        <time>2021-01-30T12:12:12Z</time>
      </trkpt>
      <trkpt lat="45.19049" lon="5.65125">
        <ele>980.6</ele>
        <time>2021-01-30T12:12:14Z</time>
      </trkpt>
      <trkpt lat="45.19051" lon="5.65125">
        <ele>981.4</ele>
        <time>2021-01-30T12:12:16Z</time>
      </trkpt>
      <trkpt lat="45.19053" lon="5.65124">
        <ele>982</ele>
        <time>2021-01-30T12:12:18Z</time>
      </trkpt>
      <trkpt lat="45.19056" lon="5.65124">
        <ele>982.6</ele>
        <time>2021-01-30T12:12:20Z</time>
      </trkpt>
      <trkpt lat="45.19059" lon="5.65124">
        <ele>983.4</ele>
        <time>2021-01-30T12:12:22Z</time>
      </trkpt>
      <trkpt lat="45.19061" lon="5.65124">
        <ele>983.6</ele>
        <time>2021-01-30T12:12:23Z</time>
      </trkpt>
      <trkpt lat="45.19063" lon="5.65123">
        <ele>984.2</ele>
        <time>2021-01-30T12:12:24Z</time>
      </trkpt>
      <trkpt lat="45.19067" lon="5.65123">
        <ele>984.4</ele>
        <time>2021-01-30T12:12:26Z</time>
      </trkpt>
      <trkpt lat="45.19069" lon="5.65123">
        <ele>984.4</ele>
        <time>2021-01-30T12:12:27Z</time>
      </trkpt>
      <trkpt lat="45.19072" lon="5.65123">
        <ele>984.8</ele>
        <time>2021-01-30T12:12:29Z</time>
      </trkpt>
      <trkpt lat="45.19076" lon="5.65124">
        <ele>985</ele>
        <time>2021-01-30T12:12:31Z</time>
      </trkpt>
      <trkpt lat="45.19079" lon="5.65124">
        <ele>985.6</ele>
        <time>2021-01-30T12:12:33Z</time>
      </trkpt>
      <trkpt lat="45.19081" lon="5.65124">
        <ele>986.4</ele>
        <time>2021-01-30T12:12:35Z</time>
      </trkpt>
      <trkpt lat="45.19083" lon="5.65123">
        <ele>987.2</ele>
        <time>2021-01-30T12:12:37Z</time>
      </trkpt>
      <trkpt lat="45.19086" lon="5.65122">
        <ele>987.8</ele>
        <time>2021-01-30T12:12:39Z</time>
      </trkpt>
      <trkpt lat="45.19088" lon="5.65121">
        <ele>988</ele>
        <time>2021-01-30T12:12:41Z</time>
      </trkpt>
      <trkpt lat="45.19092" lon="5.6512">
        <ele>988.4</ele>
        <time>2021-01-30T12:12:43Z</time>
      </trkpt>
      <trkpt lat="45.19094" lon="5.6512">
        <ele>989</ele>
        <time>2021-01-30T12:12:45Z</time>
      </trkpt>
      <trkpt lat="45.19096" lon="5.65118">
        <ele>989.6</ele>
        <time>2021-01-30T12:12:47Z</time>
      </trkpt>
      <trkpt lat="45.19098" lon="5.65118">
        <ele>989.8</ele>
        <time>2021-01-30T12:12:51Z</time>
      </trkpt>
      <trkpt lat="45.191" lon="5.65119">
        <ele>990</ele>
        <time>2021-01-30T12:12:53Z</time>
      </trkpt>
      <trkpt lat="45.19103" lon="5.6512">
        <ele>990.2</ele>
        <time>2021-01-30T12:12:55Z</time>
      </trkpt>
      <trkpt lat="45.19105" lon="5.65121">
        <ele>990.2</ele>
        <time>2021-01-30T12:12:57Z</time>
      </trkpt>
      <trkpt lat="45.19108" lon="5.65122">
        <ele>990.2</ele>
        <time>2021-01-30T12:12:59Z</time>
      </trkpt>
      <trkpt lat="45.19112" lon="5.65122">
        <ele>990.6</ele>
        <time>2021-01-30T12:13:01Z</time>
      </trkpt>
      <trkpt lat="45.19114" lon="5.65123">
        <ele>990.6</ele>
        <time>2021-01-30T12:13:02Z</time>
      </trkpt>
      <trkpt lat="45.19115" lon="5.65123">
        <ele>990.6</ele>
        <time>2021-01-30T12:13:03Z</time>
      </trkpt>
      <trkpt lat="45.19119" lon="5.65124">
        <ele>991.4</ele>
        <time>2021-01-30T12:13:05Z</time>
      </trkpt>
      <trkpt lat="45.19122" lon="5.65125">
        <ele>991.8</ele>
        <time>2021-01-30T12:13:07Z</time>
      </trkpt>
      <trkpt lat="45.19124" lon="5.65125">
        <ele>992.4</ele>
        <time>2021-01-30T12:13:08Z</time>
      </trkpt>
      <trkpt lat="45.19127" lon="5.65125">
        <ele>992.4</ele>
        <time>2021-01-30T12:13:10Z</time>
      </trkpt>
      <trkpt lat="45.19129" lon="5.65125">
        <ele>992.6</ele>
        <time>2021-01-30T12:13:11Z</time>
      </trkpt>
      <trkpt lat="45.19132" lon="5.65125">
        <ele>992.6</ele>
        <time>2021-01-30T12:13:12Z</time>
      </trkpt>
      <trkpt lat="45.19134" lon="5.65124">
        <ele>993</ele>
        <time>2021-01-30T12:13:13Z</time>
      </trkpt>
      <trkpt lat="45.19136" lon="5.65124">
        <ele>993.4</ele>
        <time>2021-01-30T12:13:14Z</time>
      </trkpt>
      <trkpt lat="45.19138" lon="5.65124">
        <ele>993.6</ele>
        <time>2021-01-30T12:13:15Z</time>
      </trkpt>
      <trkpt lat="45.1914" lon="5.65124">
        <ele>994.2</ele>
        <time>2021-01-30T12:13:16Z</time>
      </trkpt>
      <trkpt lat="45.19142" lon="5.65123">
        <ele>994.2</ele>
        <time>2021-01-30T12:13:17Z</time>
      </trkpt>
      <trkpt lat="45.19145" lon="5.65121">
        <ele>994.8</ele>
        <time>2021-01-30T12:13:19Z</time>
      </trkpt>
      <trkpt lat="45.19147" lon="5.6512">
        <ele>995.6</ele>
        <time>2021-01-30T12:13:21Z</time>
      </trkpt>
      <trkpt lat="45.1915" lon="5.65119">
        <ele>995.8</ele>
        <time>2021-01-30T12:13:23Z</time>
      </trkpt>
      <trkpt lat="45.19153" lon="5.65117">
        <ele>996</ele>
        <time>2021-01-30T12:13:25Z</time>
      </trkpt>
      <trkpt lat="45.19156" lon="5.65116">
        <ele>996.8</ele>
        <time>2021-01-30T12:13:27Z</time>
      </trkpt>
      <trkpt lat="45.19158" lon="5.65117">
        <ele>997.6</ele>
        <time>2021-01-30T12:13:29Z</time>
      </trkpt>
      <trkpt lat="45.19161" lon="5.65117">
        <ele>998</ele>
        <time>2021-01-30T12:13:31Z</time>
      </trkpt>
      <trkpt lat="45.19164" lon="5.65117">
        <ele>998.8</ele>
        <time>2021-01-30T12:13:33Z</time>
      </trkpt>
      <trkpt lat="45.19166" lon="5.65117">
        <ele>999</ele>
        <time>2021-01-30T12:13:35Z</time>
      </trkpt>
      <trkpt lat="45.19169" lon="5.65118">
        <ele>999.2</ele>
        <time>2021-01-30T12:13:37Z</time>
      </trkpt>
      <trkpt lat="45.19172" lon="5.65118">
        <ele>1000.4</ele>
        <time>2021-01-30T12:13:39Z</time>
      </trkpt>
      <trkpt lat="45.19176" lon="5.65118">
        <ele>1000.4</ele>
        <time>2021-01-30T12:13:41Z</time>
      </trkpt>
      <trkpt lat="45.19179" lon="5.65117">
        <ele>1000.8</ele>
        <time>2021-01-30T12:13:43Z</time>
      </trkpt>
      <trkpt lat="45.19182" lon="5.65116">
        <ele>1001.2</ele>
        <time>2021-01-30T12:13:45Z</time>
      </trkpt>
      <trkpt lat="45.19192" lon="5.6511">
        <ele>1002</ele>
        <time>2021-01-30T12:13:50Z</time>
      </trkpt>
      <trkpt lat="45.19202" lon="5.65109">
        <ele>1002.8</ele>
        <time>2021-01-30T12:13:55Z</time>
      </trkpt>
      <trkpt lat="45.19209" lon="5.65111">
        <ele>1002.8</ele>
        <time>2021-01-30T12:13:59Z</time>
      </trkpt>
      <trkpt lat="45.19215" lon="5.65111">
        <ele>1003.4</ele>
        <time>2021-01-30T12:14:02Z</time>
      </trkpt>
      <trkpt lat="45.19218" lon="5.65111">
        <ele>1004.2</ele>
        <time>2021-01-30T12:14:04Z</time>
      </trkpt>
      <trkpt lat="45.1922" lon="5.6511">
        <ele>1004.6</ele>
        <time>2021-01-30T12:14:05Z</time>
      </trkpt>
      <trkpt lat="45.19223" lon="5.65109">
        <ele>1005.2</ele>
        <time>2021-01-30T12:14:07Z</time>
      </trkpt>
      <trkpt lat="45.19225" lon="5.65108">
        <ele>1004.8</ele>
        <time>2021-01-30T12:14:09Z</time>
      </trkpt>
      <trkpt lat="45.19228" lon="5.65108">
        <ele>1005.2</ele>
        <time>2021-01-30T12:14:11Z</time>
      </trkpt>
      <trkpt lat="45.19231" lon="5.65107">
        <ele>1005.2</ele>
        <time>2021-01-30T12:14:13Z</time>
      </trkpt>
      <trkpt lat="45.19236" lon="5.65107">
        <ele>1005.4</ele>
        <time>2021-01-30T12:14:15Z</time>
      </trkpt>
      <trkpt lat="45.19239" lon="5.65106">
        <ele>1005.4</ele>
        <time>2021-01-30T12:14:16Z</time>
      </trkpt>
      <trkpt lat="45.19241" lon="5.65105">
        <ele>1005.2</ele>
        <time>2021-01-30T12:14:17Z</time>
      </trkpt>
      <trkpt lat="45.19243" lon="5.65104">
        <ele>1005.2</ele>
        <time>2021-01-30T12:14:18Z</time>
      </trkpt>
      <trkpt lat="45.19245" lon="5.65102">
        <ele>1005.2</ele>
        <time>2021-01-30T12:14:19Z</time>
      </trkpt>
      <trkpt lat="45.19247" lon="5.651">
        <ele>1005.4</ele>
        <time>2021-01-30T12:14:20Z</time>
      </trkpt>
      <trkpt lat="45.19249" lon="5.65099">
        <ele>1005.4</ele>
        <time>2021-01-30T12:14:21Z</time>
      </trkpt>
      <trkpt lat="45.19252" lon="5.65097">
        <ele>1005.6</ele>
        <time>2021-01-30T12:14:22Z</time>
      </trkpt>
      <trkpt lat="45.19254" lon="5.65096">
        <ele>1006</ele>
        <time>2021-01-30T12:14:23Z</time>
      </trkpt>
      <trkpt lat="45.19255" lon="5.65095">
        <ele>1006.4</ele>
        <time>2021-01-30T12:14:24Z</time>
      </trkpt>
      <trkpt lat="45.19258" lon="5.65092">
        <ele>1007</ele>
        <time>2021-01-30T12:14:26Z</time>
      </trkpt>
      <trkpt lat="45.19261" lon="5.65091">
        <ele>1008</ele>
        <time>2021-01-30T12:14:28Z</time>
      </trkpt>
      <trkpt lat="45.19264" lon="5.65089">
        <ele>1008.4</ele>
        <time>2021-01-30T12:14:30Z</time>
      </trkpt>
      <trkpt lat="45.19266" lon="5.65087">
        <ele>1008.8</ele>
        <time>2021-01-30T12:14:31Z</time>
      </trkpt>
      <trkpt lat="45.19267" lon="5.65085">
        <ele>1009</ele>
        <time>2021-01-30T12:14:32Z</time>
      </trkpt>
      <trkpt lat="45.19267" lon="5.65082">
        <ele>1009</ele>
        <time>2021-01-30T12:14:33Z</time>
      </trkpt>
      <trkpt lat="45.19268" lon="5.65079">
        <ele>1009.4</ele>
        <time>2021-01-30T12:14:34Z</time>
      </trkpt>
      <trkpt lat="45.19269" lon="5.65077">
        <ele>1009.4</ele>
        <time>2021-01-30T12:14:35Z</time>
      </trkpt>
      <trkpt lat="45.19269" lon="5.65073">
        <ele>1009.6</ele>
        <time>2021-01-30T12:14:37Z</time>
      </trkpt>
      <trkpt lat="45.19269" lon="5.6507">
        <ele>1010.2</ele>
        <time>2021-01-30T12:14:39Z</time>
      </trkpt>
      <trkpt lat="45.19268" lon="5.65067">
        <ele>1011</ele>
        <time>2021-01-30T12:14:42Z</time>
      </trkpt>
      <trkpt lat="45.19267" lon="5.65064">
        <ele>1011.8</ele>
        <time>2021-01-30T12:14:45Z</time>
      </trkpt>
      <trkpt lat="45.19269" lon="5.65062">
        <ele>1013.2</ele>
        <time>2021-01-30T12:14:58Z</time>
      </trkpt>
      <trkpt lat="45.19271" lon="5.65059">
        <ele>1013</ele>
        <time>2021-01-30T12:15:00Z</time>
      </trkpt>
      <trkpt lat="45.19273" lon="5.65058">
        <ele>1012.6</ele>
        <time>2021-01-30T12:15:01Z</time>
      </trkpt>
      <trkpt lat="45.19275" lon="5.65058">
        <ele>1012.6</ele>
        <time>2021-01-30T12:15:02Z</time>
      </trkpt>
      <trkpt lat="45.19277" lon="5.65058">
        <ele>1012.4</ele>
        <time>2021-01-30T12:15:03Z</time>
      </trkpt>
      <trkpt lat="45.1928" lon="5.65058">
        <ele>1013</ele>
        <time>2021-01-30T12:15:04Z</time>
      </trkpt>
      <trkpt lat="45.19282" lon="5.65057">
        <ele>1012.6</ele>
        <time>2021-01-30T12:15:05Z</time>
      </trkpt>
      <trkpt lat="45.19284" lon="5.65057">
        <ele>1012.6</ele>
        <time>2021-01-30T12:15:06Z</time>
      </trkpt>
      <trkpt lat="45.19287" lon="5.65058">
        <ele>1012</ele>
        <time>2021-01-30T12:15:07Z</time>
      </trkpt>
      <trkpt lat="45.19289" lon="5.65058">
        <ele>1012.2</ele>
        <time>2021-01-30T12:15:08Z</time>
      </trkpt>
      <trkpt lat="45.19291" lon="5.65059">
        <ele>1012.2</ele>
        <time>2021-01-30T12:15:09Z</time>
      </trkpt>
      <trkpt lat="45.19293" lon="5.65059">
        <ele>1012.2</ele>
        <time>2021-01-30T12:15:10Z</time>
      </trkpt>
      <trkpt lat="45.19295" lon="5.6506">
        <ele>1012.8</ele>
        <time>2021-01-30T12:15:11Z</time>
      </trkpt>
      <trkpt lat="45.19297" lon="5.65059">
        <ele>1013</ele>
        <time>2021-01-30T12:15:12Z</time>
      </trkpt>
      <trkpt lat="45.19299" lon="5.65059">
        <ele>1012.6</ele>
        <time>2021-01-30T12:15:13Z</time>
      </trkpt>
      <trkpt lat="45.19302" lon="5.65058">
        <ele>1013</ele>
        <time>2021-01-30T12:15:15Z</time>
      </trkpt>
      <trkpt lat="45.19305" lon="5.65056">
        <ele>1013.6</ele>
        <time>2021-01-30T12:15:17Z</time>
      </trkpt>
      <trkpt lat="45.19308" lon="5.65055">
        <ele>1013.8</ele>
        <time>2021-01-30T12:15:19Z</time>
      </trkpt>
      <trkpt lat="45.1931" lon="5.65055">
        <ele>1014.6</ele>
        <time>2021-01-30T12:15:20Z</time>
      </trkpt>
      <trkpt lat="45.19314" lon="5.65054">
        <ele>1014.6</ele>
        <time>2021-01-30T12:15:22Z</time>
      </trkpt>
      <trkpt lat="45.19317" lon="5.65053">
        <ele>1014.8</ele>
        <time>2021-01-30T12:15:24Z</time>
      </trkpt>
      <trkpt lat="45.19319" lon="5.65051">
        <ele>1015.8</ele>
        <time>2021-01-30T12:15:25Z</time>
      </trkpt>
      <trkpt lat="45.1932" lon="5.6505">
        <ele>1015.8</ele>
        <time>2021-01-30T12:15:26Z</time>
      </trkpt>
      <trkpt lat="45.19322" lon="5.65048">
        <ele>1015.6</ele>
        <time>2021-01-30T12:15:27Z</time>
      </trkpt>
      <trkpt lat="45.19325" lon="5.65045">
        <ele>1016.2</ele>
        <time>2021-01-30T12:15:29Z</time>
      </trkpt>
      <trkpt lat="45.19328" lon="5.65043">
        <ele>1016.8</ele>
        <time>2021-01-30T12:15:31Z</time>
      </trkpt>
      <trkpt lat="45.1933" lon="5.65042">
        <ele>1016.6</ele>
        <time>2021-01-30T12:15:32Z</time>
      </trkpt>
      <trkpt lat="45.19332" lon="5.65041">
        <ele>1016.6</ele>
        <time>2021-01-30T12:15:33Z</time>
      </trkpt>
      <trkpt lat="45.19334" lon="5.6504">
        <ele>1016.8</ele>
        <time>2021-01-30T12:15:34Z</time>
      </trkpt>
      <trkpt lat="45.19337" lon="5.65038">
        <ele>1016.8</ele>
        <time>2021-01-30T12:15:36Z</time>
      </trkpt>
      <trkpt lat="45.19338" lon="5.65036">
        <ele>1017.6</ele>
        <time>2021-01-30T12:15:37Z</time>
      </trkpt>
      <trkpt lat="45.19341" lon="5.65034">
        <ele>1017.8</ele>
        <time>2021-01-30T12:15:39Z</time>
      </trkpt>
      <trkpt lat="45.19343" lon="5.65031">
        <ele>1018.2</ele>
        <time>2021-01-30T12:15:41Z</time>
      </trkpt>
      <trkpt lat="45.19346" lon="5.65029">
        <ele>1018.8</ele>
        <time>2021-01-30T12:15:43Z</time>
      </trkpt>
      <trkpt lat="45.19348" lon="5.65027">
        <ele>1018.8</ele>
        <time>2021-01-30T12:15:45Z</time>
      </trkpt>
      <trkpt lat="45.1935" lon="5.65026">
        <ele>1019.2</ele>
        <time>2021-01-30T12:15:46Z</time>
      </trkpt>
      <trkpt lat="45.19353" lon="5.65025">
        <ele>1019.4</ele>
        <time>2021-01-30T12:15:48Z</time>
      </trkpt>
      <trkpt lat="45.19357" lon="5.65022">
        <ele>1020</ele>
        <time>2021-01-30T12:15:50Z</time>
      </trkpt>
      <trkpt lat="45.19358" lon="5.65021">
        <ele>1020</ele>
        <time>2021-01-30T12:15:51Z</time>
      </trkpt>
      <trkpt lat="45.1936" lon="5.65018">
        <ele>1019.4</ele>
        <time>2021-01-30T12:15:52Z</time>
      </trkpt>
      <trkpt lat="45.19362" lon="5.65016">
        <ele>1019</ele>
        <time>2021-01-30T12:15:53Z</time>
      </trkpt>
      <trkpt lat="45.19365" lon="5.65014">
        <ele>1018.8</ele>
        <time>2021-01-30T12:15:54Z</time>
      </trkpt>
      <trkpt lat="45.19367" lon="5.65013">
        <ele>1018.6</ele>
        <time>2021-01-30T12:15:55Z</time>
      </trkpt>
      <trkpt lat="45.19369" lon="5.65013">
        <ele>1018</ele>
        <time>2021-01-30T12:15:57Z</time>
      </trkpt>
      <trkpt lat="45.19372" lon="5.65015">
        <ele>1018</ele>
        <time>2021-01-30T12:15:59Z</time>
      </trkpt>
      <trkpt lat="45.19374" lon="5.65017">
        <ele>1017.8</ele>
        <time>2021-01-30T12:16:01Z</time>
      </trkpt>
      <trkpt lat="45.19377" lon="5.65019">
        <ele>1017.6</ele>
        <time>2021-01-30T12:16:03Z</time>
      </trkpt>
      <trkpt lat="45.19379" lon="5.6502">
        <ele>1017.4</ele>
        <time>2021-01-30T12:16:04Z</time>
      </trkpt>
      <trkpt lat="45.19381" lon="5.65021">
        <ele>1017</ele>
        <time>2021-01-30T12:16:07Z</time>
      </trkpt>
      <trkpt lat="45.19383" lon="5.6502">
        <ele>1016.6</ele>
        <time>2021-01-30T12:16:12Z</time>
      </trkpt>
      <trkpt lat="45.19386" lon="5.65018">
        <ele>1017</ele>
        <time>2021-01-30T12:16:14Z</time>
      </trkpt>
      <trkpt lat="45.19388" lon="5.65017">
        <ele>1017.2</ele>
        <time>2021-01-30T12:16:15Z</time>
      </trkpt>
      <trkpt lat="45.19391" lon="5.65014">
        <ele>1017</ele>
        <time>2021-01-30T12:16:17Z</time>
      </trkpt>
      <trkpt lat="45.19395" lon="5.65013">
        <ele>1016.6</ele>
        <time>2021-01-30T12:16:19Z</time>
      </trkpt>
      <trkpt lat="45.19397" lon="5.6501">
        <ele>1017.6</ele>
        <time>2021-01-30T12:16:20Z</time>
      </trkpt>
      <trkpt lat="45.19398" lon="5.65007">
        <ele>1017.6</ele>
        <time>2021-01-30T12:16:21Z</time>
      </trkpt>
      <trkpt lat="45.19399" lon="5.65004">
        <ele>1017.6</ele>
        <time>2021-01-30T12:16:22Z</time>
      </trkpt>
      <trkpt lat="45.194" lon="5.65002">
        <ele>1017.6</ele>
        <time>2021-01-30T12:16:23Z</time>
      </trkpt>
      <trkpt lat="45.19402" lon="5.65">
        <ele>1017.8</ele>
        <time>2021-01-30T12:16:24Z</time>
      </trkpt>
      <trkpt lat="45.19404" lon="5.64998">
        <ele>1018.4</ele>
        <time>2021-01-30T12:16:25Z</time>
      </trkpt>
      <trkpt lat="45.19405" lon="5.64997">
        <ele>1018.6</ele>
        <time>2021-01-30T12:16:26Z</time>
      </trkpt>
      <trkpt lat="45.19407" lon="5.64996">
        <ele>1018.4</ele>
        <time>2021-01-30T12:16:27Z</time>
      </trkpt>
      <trkpt lat="45.1941" lon="5.64995">
        <ele>1018.4</ele>
        <time>2021-01-30T12:16:28Z</time>
      </trkpt>
      <trkpt lat="45.19412" lon="5.64994">
        <ele>1018.6</ele>
        <time>2021-01-30T12:16:29Z</time>
      </trkpt>
      <trkpt lat="45.19413" lon="5.64993">
        <ele>1018.8</ele>
        <time>2021-01-30T12:16:30Z</time>
      </trkpt>
      <trkpt lat="45.19416" lon="5.64992">
        <ele>1018.8</ele>
        <time>2021-01-30T12:16:31Z</time>
      </trkpt>
      <trkpt lat="45.19417" lon="5.64992">
        <ele>1019.2</ele>
        <time>2021-01-30T12:16:32Z</time>
      </trkpt>
      <trkpt lat="45.1942" lon="5.64991">
        <ele>1019.4</ele>
        <time>2021-01-30T12:16:33Z</time>
      </trkpt>
      <trkpt lat="45.19422" lon="5.6499">
        <ele>1019.6</ele>
        <time>2021-01-30T12:16:34Z</time>
      </trkpt>
      <trkpt lat="45.19423" lon="5.64988">
        <ele>1019.8</ele>
        <time>2021-01-30T12:16:35Z</time>
      </trkpt>
      <trkpt lat="45.19425" lon="5.64986">
        <ele>1020</ele>
        <time>2021-01-30T12:16:36Z</time>
      </trkpt>
      <trkpt lat="45.19427" lon="5.64984">
        <ele>1020.8</ele>
        <time>2021-01-30T12:16:37Z</time>
      </trkpt>
      <trkpt lat="45.19429" lon="5.64982">
        <ele>1021</ele>
        <time>2021-01-30T12:16:38Z</time>
      </trkpt>
      <trkpt lat="45.19431" lon="5.64981">
        <ele>1021</ele>
        <time>2021-01-30T12:16:39Z</time>
      </trkpt>
      <trkpt lat="45.19432" lon="5.6498">
        <ele>1020.8</ele>
        <time>2021-01-30T12:16:40Z</time>
      </trkpt>
      <trkpt lat="45.19434" lon="5.64979">
        <ele>1021</ele>
        <time>2021-01-30T12:16:41Z</time>
      </trkpt>
      <trkpt lat="45.19436" lon="5.64978">
        <ele>1021.4</ele>
        <time>2021-01-30T12:16:42Z</time>
      </trkpt>
      <trkpt lat="45.19438" lon="5.64977">
        <ele>1021.6</ele>
        <time>2021-01-30T12:16:43Z</time>
      </trkpt>
      <trkpt lat="45.1944" lon="5.64976">
        <ele>1021.6</ele>
        <time>2021-01-30T12:16:44Z</time>
      </trkpt>
      <trkpt lat="45.19442" lon="5.64975">
        <ele>1022</ele>
        <time>2021-01-30T12:16:45Z</time>
      </trkpt>
      <trkpt lat="45.19444" lon="5.64975">
        <ele>1022</ele>
        <time>2021-01-30T12:16:46Z</time>
      </trkpt>
      <trkpt lat="45.19446" lon="5.64973">
        <ele>1022</ele>
        <time>2021-01-30T12:16:48Z</time>
      </trkpt>
      <trkpt lat="45.19449" lon="5.64971">
        <ele>1022</ele>
        <time>2021-01-30T12:16:50Z</time>
      </trkpt>
      <trkpt lat="45.19452" lon="5.64969">
        <ele>1022.4</ele>
        <time>2021-01-30T12:16:52Z</time>
      </trkpt>
      <trkpt lat="45.19454" lon="5.64969">
        <ele>1022.8</ele>
        <time>2021-01-30T12:16:53Z</time>
      </trkpt>
      <trkpt lat="45.19456" lon="5.64968">
        <ele>1022.8</ele>
        <time>2021-01-30T12:16:54Z</time>
      </trkpt>
      <trkpt lat="45.19459" lon="5.64968">
        <ele>1023.2</ele>
        <time>2021-01-30T12:16:56Z</time>
      </trkpt>
      <trkpt lat="45.19462" lon="5.64967">
        <ele>1023.2</ele>
        <time>2021-01-30T12:16:57Z</time>
      </trkpt>
      <trkpt lat="45.19464" lon="5.64966">
        <ele>1024</ele>
        <time>2021-01-30T12:16:58Z</time>
      </trkpt>
      <trkpt lat="45.19466" lon="5.64965">
        <ele>1024</ele>
        <time>2021-01-30T12:16:59Z</time>
      </trkpt>
      <trkpt lat="45.19468" lon="5.64964">
        <ele>1024</ele>
        <time>2021-01-30T12:17:00Z</time>
      </trkpt>
      <trkpt lat="45.19471" lon="5.64964">
        <ele>1023.8</ele>
        <time>2021-01-30T12:17:02Z</time>
      </trkpt>
      <trkpt lat="45.19473" lon="5.64964">
        <ele>1024</ele>
        <time>2021-01-30T12:17:03Z</time>
      </trkpt>
      <trkpt lat="45.19475" lon="5.64963">
        <ele>1024</ele>
        <time>2021-01-30T12:17:04Z</time>
      </trkpt>
      <trkpt lat="45.19479" lon="5.64964">
        <ele>1025</ele>
        <time>2021-01-30T12:17:06Z</time>
      </trkpt>
      <trkpt lat="45.19481" lon="5.64964">
        <ele>1024.8</ele>
        <time>2021-01-30T12:17:07Z</time>
      </trkpt>
      <trkpt lat="45.19482" lon="5.64964">
        <ele>1024.8</ele>
        <time>2021-01-30T12:17:08Z</time>
      </trkpt>
      <trkpt lat="45.19487" lon="5.64965">
        <ele>1025.4</ele>
        <time>2021-01-30T12:17:10Z</time>
      </trkpt>
      <trkpt lat="45.19489" lon="5.64966">
        <ele>1025.4</ele>
        <time>2021-01-30T12:17:11Z</time>
      </trkpt>
      <trkpt lat="45.1949" lon="5.64966">
        <ele>1025.2</ele>
        <time>2021-01-30T12:17:12Z</time>
      </trkpt>
      <trkpt lat="45.19492" lon="5.64967">
        <ele>1025.2</ele>
        <time>2021-01-30T12:17:13Z</time>
      </trkpt>
      <trkpt lat="45.19494" lon="5.64967">
        <ele>1025.8</ele>
        <time>2021-01-30T12:17:14Z</time>
      </trkpt>
      <trkpt lat="45.19498" lon="5.64968">
        <ele>1025.8</ele>
        <time>2021-01-30T12:17:16Z</time>
      </trkpt>
      <trkpt lat="45.195" lon="5.64967">
        <ele>1026.2</ele>
        <time>2021-01-30T12:17:17Z</time>
      </trkpt>
      <trkpt lat="45.19502" lon="5.64967">
        <ele>1026</ele>
        <time>2021-01-30T12:17:18Z</time>
      </trkpt>
      <trkpt lat="45.19504" lon="5.64968">
        <ele>1026.4</ele>
        <time>2021-01-30T12:17:19Z</time>
      </trkpt>
      <trkpt lat="45.19505" lon="5.64968">
        <ele>1026.6</ele>
        <time>2021-01-30T12:17:20Z</time>
      </trkpt>
      <trkpt lat="45.19508" lon="5.64969">
        <ele>1026.6</ele>
        <time>2021-01-30T12:17:21Z</time>
      </trkpt>
      <trkpt lat="45.1951" lon="5.64969">
        <ele>1027.2</ele>
        <time>2021-01-30T12:17:22Z</time>
      </trkpt>
      <trkpt lat="45.19511" lon="5.6497">
        <ele>1027.2</ele>
        <time>2021-01-30T12:17:23Z</time>
      </trkpt>
      <trkpt lat="45.19514" lon="5.6497">
        <ele>1027</ele>
        <time>2021-01-30T12:17:24Z</time>
      </trkpt>
      <trkpt lat="45.19516" lon="5.64971">
        <ele>1026.8</ele>
        <time>2021-01-30T12:17:25Z</time>
      </trkpt>
      <trkpt lat="45.19518" lon="5.64971">
        <ele>1027</ele>
        <time>2021-01-30T12:17:26Z</time>
      </trkpt>
      <trkpt lat="45.1952" lon="5.64972">
        <ele>1027.2</ele>
        <time>2021-01-30T12:17:27Z</time>
      </trkpt>
      <trkpt lat="45.19522" lon="5.64972">
        <ele>1027.6</ele>
        <time>2021-01-30T12:17:28Z</time>
      </trkpt>
      <trkpt lat="45.19524" lon="5.64972">
        <ele>1027.4</ele>
        <time>2021-01-30T12:17:29Z</time>
      </trkpt>
      <trkpt lat="45.19526" lon="5.64972">
        <ele>1027.8</ele>
        <time>2021-01-30T12:17:30Z</time>
      </trkpt>
      <trkpt lat="45.19528" lon="5.64972">
        <ele>1028</ele>
        <time>2021-01-30T12:17:31Z</time>
      </trkpt>
      <trkpt lat="45.1953" lon="5.64972">
        <ele>1028.2</ele>
        <time>2021-01-30T12:17:32Z</time>
      </trkpt>
      <trkpt lat="45.19532" lon="5.64971">
        <ele>1028.4</ele>
        <time>2021-01-30T12:17:33Z</time>
      </trkpt>
      <trkpt lat="45.19534" lon="5.64971">
        <ele>1028.6</ele>
        <time>2021-01-30T12:17:34Z</time>
      </trkpt>
      <trkpt lat="45.19536" lon="5.6497">
        <ele>1029</ele>
        <time>2021-01-30T12:17:35Z</time>
      </trkpt>
      <trkpt lat="45.19538" lon="5.64969">
        <ele>1029.4</ele>
        <time>2021-01-30T12:17:36Z</time>
      </trkpt>
      <trkpt lat="45.1954" lon="5.64969">
        <ele>1029.2</ele>
        <time>2021-01-30T12:17:37Z</time>
      </trkpt>
      <trkpt lat="45.19542" lon="5.64968">
        <ele>1029.8</ele>
        <time>2021-01-30T12:17:38Z</time>
      </trkpt>
      <trkpt lat="45.19544" lon="5.64968">
        <ele>1030</ele>
        <time>2021-01-30T12:17:39Z</time>
      </trkpt>
      <trkpt lat="45.19547" lon="5.64967">
        <ele>1030.4</ele>
        <time>2021-01-30T12:17:41Z</time>
      </trkpt>
      <trkpt lat="45.19549" lon="5.64967">
        <ele>1030.6</ele>
        <time>2021-01-30T12:17:42Z</time>
      </trkpt>
      <trkpt lat="45.19551" lon="5.64966">
        <ele>1030.6</ele>
        <time>2021-01-30T12:17:43Z</time>
      </trkpt>
      <trkpt lat="45.19555" lon="5.64966">
        <ele>1030.6</ele>
        <time>2021-01-30T12:17:45Z</time>
      </trkpt>
      <trkpt lat="45.19557" lon="5.64966">
        <ele>1031</ele>
        <time>2021-01-30T12:17:46Z</time>
      </trkpt>
      <trkpt lat="45.19559" lon="5.64966">
        <ele>1031.2</ele>
        <time>2021-01-30T12:17:47Z</time>
      </trkpt>
      <trkpt lat="45.1956" lon="5.64965">
        <ele>1031.4</ele>
        <time>2021-01-30T12:17:48Z</time>
      </trkpt>
      <trkpt lat="45.19564" lon="5.64965">
        <ele>1031.8</ele>
        <time>2021-01-30T12:17:50Z</time>
      </trkpt>
      <trkpt lat="45.19566" lon="5.64965">
        <ele>1032.4</ele>
        <time>2021-01-30T12:17:51Z</time>
      </trkpt>
      <trkpt lat="45.19569" lon="5.64964">
        <ele>1032.4</ele>
        <time>2021-01-30T12:17:53Z</time>
      </trkpt>
      <trkpt lat="45.19573" lon="5.64964">
        <ele>1032.2</ele>
        <time>2021-01-30T12:17:55Z</time>
      </trkpt>
      <trkpt lat="45.19576" lon="5.64964">
        <ele>1032.8</ele>
        <time>2021-01-30T12:17:57Z</time>
      </trkpt>
      <trkpt lat="45.19577" lon="5.64963">
        <ele>1033</ele>
        <time>2021-01-30T12:17:58Z</time>
      </trkpt>
      <trkpt lat="45.19579" lon="5.64962">
        <ele>1033.6</ele>
        <time>2021-01-30T12:17:59Z</time>
      </trkpt>
      <trkpt lat="45.19582" lon="5.64959">
        <ele>1033.8</ele>
        <time>2021-01-30T12:18:01Z</time>
      </trkpt>
      <trkpt lat="45.19583" lon="5.64954">
        <ele>1034.6</ele>
        <time>2021-01-30T12:18:03Z</time>
      </trkpt>
      <trkpt lat="45.19583" lon="5.64951">
        <ele>1034.6</ele>
        <time>2021-01-30T12:18:04Z</time>
      </trkpt>
      <trkpt lat="45.19583" lon="5.64948">
        <ele>1034.2</ele>
        <time>2021-01-30T12:18:05Z</time>
      </trkpt>
      <trkpt lat="45.1958" lon="5.64944">
        <ele>1034.6</ele>
        <time>2021-01-30T12:18:07Z</time>
      </trkpt>
      <trkpt lat="45.19571" lon="5.64937">
        <ele>1036.4</ele>
        <time>2021-01-30T12:18:12Z</time>
      </trkpt>
      <trkpt lat="45.19564" lon="5.6493">
        <ele>1037.4</ele>
        <time>2021-01-30T12:18:18Z</time>
      </trkpt>
      <trkpt lat="45.19556" lon="5.64919">
        <ele>1039.8</ele>
        <time>2021-01-30T12:18:26Z</time>
      </trkpt>
      <trkpt lat="45.19548" lon="5.64911">
        <ele>1040.8</ele>
        <time>2021-01-30T12:18:32Z</time>
      </trkpt>
      <trkpt lat="45.1954" lon="5.64906">
        <ele>1041.6</ele>
        <time>2021-01-30T12:18:37Z</time>
      </trkpt>
      <trkpt lat="45.19531" lon="5.64904">
        <ele>1042.6</ele>
        <time>2021-01-30T12:18:44Z</time>
      </trkpt>
      <trkpt lat="45.19522" lon="5.64903">
        <ele>1044.2</ele>
        <time>2021-01-30T12:18:48Z</time>
      </trkpt>
      <trkpt lat="45.19517" lon="5.64901">
        <ele>1044.4</ele>
        <time>2021-01-30T12:18:51Z</time>
      </trkpt>
      <trkpt lat="45.19514" lon="5.649">
        <ele>1044.8</ele>
        <time>2021-01-30T12:18:53Z</time>
      </trkpt>
      <trkpt lat="45.19512" lon="5.64898">
        <ele>1045</ele>
        <time>2021-01-30T12:18:55Z</time>
      </trkpt>
      <trkpt lat="45.19509" lon="5.64896">
        <ele>1045.2</ele>
        <time>2021-01-30T12:18:57Z</time>
      </trkpt>
      <trkpt lat="45.19507" lon="5.64894">
        <ele>1045.2</ele>
        <time>2021-01-30T12:18:58Z</time>
      </trkpt>
      <trkpt lat="45.19503" lon="5.64889">
        <ele>1045.8</ele>
        <time>2021-01-30T12:19:02Z</time>
      </trkpt>
      <trkpt lat="45.19499" lon="5.64886">
        <ele>1046.8</ele>
        <time>2021-01-30T12:19:05Z</time>
      </trkpt>
      <trkpt lat="45.19496" lon="5.64884">
        <ele>1047.2</ele>
        <time>2021-01-30T12:19:07Z</time>
      </trkpt>
      <trkpt lat="45.19493" lon="5.64881">
        <ele>1047.2</ele>
        <time>2021-01-30T12:19:09Z</time>
      </trkpt>
      <trkpt lat="45.1949" lon="5.6488">
        <ele>1047.2</ele>
        <time>2021-01-30T12:19:10Z</time>
      </trkpt>
      <trkpt lat="45.19487" lon="5.64877">
        <ele>1047.2</ele>
        <time>2021-01-30T12:19:12Z</time>
      </trkpt>
      <trkpt lat="45.19486" lon="5.64876">
        <ele>1047.4</ele>
        <time>2021-01-30T12:19:13Z</time>
      </trkpt>
      <trkpt lat="45.19484" lon="5.64874">
        <ele>1047.8</ele>
        <time>2021-01-30T12:19:14Z</time>
      </trkpt>
      <trkpt lat="45.19482" lon="5.64874">
        <ele>1048.6</ele>
        <time>2021-01-30T12:19:15Z</time>
      </trkpt>
      <trkpt lat="45.19479" lon="5.64873">
        <ele>1048.6</ele>
        <time>2021-01-30T12:19:16Z</time>
      </trkpt>
      <trkpt lat="45.19477" lon="5.64873">
        <ele>1048.4</ele>
        <time>2021-01-30T12:19:17Z</time>
      </trkpt>
      <trkpt lat="45.19475" lon="5.64873">
        <ele>1048.4</ele>
        <time>2021-01-30T12:19:18Z</time>
      </trkpt>
      <trkpt lat="45.19472" lon="5.64873">
        <ele>1048.4</ele>
        <time>2021-01-30T12:19:19Z</time>
      </trkpt>
      <trkpt lat="45.1947" lon="5.64872">
        <ele>1048.8</ele>
        <time>2021-01-30T12:19:20Z</time>
      </trkpt>
      <trkpt lat="45.19467" lon="5.64871">
        <ele>1049</ele>
        <time>2021-01-30T12:19:22Z</time>
      </trkpt>
      <trkpt lat="45.19464" lon="5.64872">
        <ele>1049.6</ele>
        <time>2021-01-30T12:19:24Z</time>
      </trkpt>
      <trkpt lat="45.19462" lon="5.64872">
        <ele>1049.6</ele>
        <time>2021-01-30T12:19:25Z</time>
      </trkpt>
      <trkpt lat="45.19457" lon="5.64872">
        <ele>1050</ele>
        <time>2021-01-30T12:19:27Z</time>
      </trkpt>
      <trkpt lat="45.19454" lon="5.64872">
        <ele>1050.6</ele>
        <time>2021-01-30T12:19:29Z</time>
      </trkpt>
      <trkpt lat="45.19452" lon="5.64872">
        <ele>1050.6</ele>
        <time>2021-01-30T12:19:30Z</time>
      </trkpt>
      <trkpt lat="45.1945" lon="5.64873">
        <ele>1051.4</ele>
        <time>2021-01-30T12:19:31Z</time>
      </trkpt>
      <trkpt lat="45.1944" lon="5.64874">
        <ele>1051.4</ele>
        <time>2021-01-30T12:19:36Z</time>
      </trkpt>
      <trkpt lat="45.19429" lon="5.64873">
        <ele>1052.6</ele>
        <time>2021-01-30T12:19:41Z</time>
      </trkpt>
      <trkpt lat="45.1942" lon="5.64871">
        <ele>1053.2</ele>
        <time>2021-01-30T12:19:46Z</time>
      </trkpt>
      <trkpt lat="45.19418" lon="5.6487">
        <ele>1054.2</ele>
        <time>2021-01-30T12:19:47Z</time>
      </trkpt>
      <trkpt lat="45.19416" lon="5.64869">
        <ele>1054.2</ele>
        <time>2021-01-30T12:19:48Z</time>
      </trkpt>
      <trkpt lat="45.19415" lon="5.64868">
        <ele>1054.2</ele>
        <time>2021-01-30T12:19:49Z</time>
      </trkpt>
      <trkpt lat="45.19413" lon="5.64868">
        <ele>1054.4</ele>
        <time>2021-01-30T12:19:50Z</time>
      </trkpt>
      <trkpt lat="45.1941" lon="5.64866">
        <ele>1055.2</ele>
        <time>2021-01-30T12:19:52Z</time>
      </trkpt>
      <trkpt lat="45.19407" lon="5.64863">
        <ele>1055.2</ele>
        <time>2021-01-30T12:19:54Z</time>
      </trkpt>
      <trkpt lat="45.19404" lon="5.64861">
        <ele>1055.8</ele>
        <time>2021-01-30T12:19:56Z</time>
      </trkpt>
      <trkpt lat="45.19401" lon="5.6486">
        <ele>1055.8</ele>
        <time>2021-01-30T12:19:58Z</time>
      </trkpt>
      <trkpt lat="45.19396" lon="5.64856">
        <ele>1056.6</ele>
        <time>2021-01-30T12:20:01Z</time>
      </trkpt>
      <trkpt lat="45.19395" lon="5.64854">
        <ele>1056.8</ele>
        <time>2021-01-30T12:20:02Z</time>
      </trkpt>
      <trkpt lat="45.19393" lon="5.64853">
        <ele>1057</ele>
        <time>2021-01-30T12:20:03Z</time>
      </trkpt>
      <trkpt lat="45.19391" lon="5.64851">
        <ele>1057.2</ele>
        <time>2021-01-30T12:20:04Z</time>
      </trkpt>
      <trkpt lat="45.19383" lon="5.64842">
        <ele>1058.4</ele>
        <time>2021-01-30T12:20:10Z</time>
      </trkpt>
      <trkpt lat="45.19375" lon="5.64835">
        <ele>1058.6</ele>
        <time>2021-01-30T12:20:15Z</time>
      </trkpt>
      <trkpt lat="45.19367" lon="5.64828">
        <ele>1060</ele>
        <time>2021-01-30T12:20:21Z</time>
      </trkpt>
      <trkpt lat="45.19358" lon="5.64823">
        <ele>1060.8</ele>
        <time>2021-01-30T12:20:25Z</time>
      </trkpt>
      <trkpt lat="45.19354" lon="5.6482">
        <ele>1061</ele>
        <time>2021-01-30T12:20:27Z</time>
      </trkpt>
      <trkpt lat="45.19351" lon="5.64816">
        <ele>1061.8</ele>
        <time>2021-01-30T12:20:29Z</time>
      </trkpt>
      <trkpt lat="45.19349" lon="5.64813">
        <ele>1062.6</ele>
        <time>2021-01-30T12:20:32Z</time>
      </trkpt>
      <trkpt lat="45.19352" lon="5.64814">
        <ele>1063.4</ele>
        <time>2021-01-30T12:20:38Z</time>
      </trkpt>
      <trkpt lat="45.19354" lon="5.64816">
        <ele>1064</ele>
        <time>2021-01-30T12:20:40Z</time>
      </trkpt>
      <trkpt lat="45.19357" lon="5.64818">
        <ele>1063.4</ele>
        <time>2021-01-30T12:20:42Z</time>
      </trkpt>
      <trkpt lat="45.1936" lon="5.64819">
        <ele>1063.4</ele>
        <time>2021-01-30T12:20:44Z</time>
      </trkpt>
      <trkpt lat="45.19363" lon="5.6482">
        <ele>1063.8</ele>
        <time>2021-01-30T12:20:45Z</time>
      </trkpt>
      <trkpt lat="45.19367" lon="5.64821">
        <ele>1064.2</ele>
        <time>2021-01-30T12:20:47Z</time>
      </trkpt>
      <trkpt lat="45.19369" lon="5.64821">
        <ele>1065</ele>
        <time>2021-01-30T12:20:48Z</time>
      </trkpt>
      <trkpt lat="45.19371" lon="5.64821">
        <ele>1065</ele>
        <time>2021-01-30T12:20:49Z</time>
      </trkpt>
      <trkpt lat="45.19373" lon="5.64822">
        <ele>1062.8</ele>
        <time>2021-01-30T12:20:50Z</time>
      </trkpt>
      <trkpt lat="45.19376" lon="5.64821">
        <ele>1064.6</ele>
        <time>2021-01-30T12:20:51Z</time>
      </trkpt>
      <trkpt lat="45.19377" lon="5.6482">
        <ele>1064.6</ele>
        <time>2021-01-30T12:20:52Z</time>
      </trkpt>
      <trkpt lat="45.19379" lon="5.64818">
        <ele>1064.8</ele>
        <time>2021-01-30T12:20:53Z</time>
      </trkpt>
      <trkpt lat="45.19381" lon="5.64816">
        <ele>1065.4</ele>
        <time>2021-01-30T12:20:54Z</time>
      </trkpt>
      <trkpt lat="45.19383" lon="5.64814">
        <ele>1065.4</ele>
        <time>2021-01-30T12:20:55Z</time>
      </trkpt>
      <trkpt lat="45.19385" lon="5.64811">
        <ele>1066.2</ele>
        <time>2021-01-30T12:20:56Z</time>
      </trkpt>
      <trkpt lat="45.19387" lon="5.64807">
        <ele>1066.2</ele>
        <time>2021-01-30T12:20:57Z</time>
      </trkpt>
      <trkpt lat="45.19389" lon="5.64803">
        <ele>1065.8</ele>
        <time>2021-01-30T12:20:58Z</time>
      </trkpt>
      <trkpt lat="45.1939" lon="5.648">
        <ele>1066.4</ele>
        <time>2021-01-30T12:20:59Z</time>
      </trkpt>
      <trkpt lat="45.19392" lon="5.64797">
        <ele>1066</ele>
        <time>2021-01-30T12:21:00Z</time>
      </trkpt>
      <trkpt lat="45.19393" lon="5.64794">
        <ele>1066.2</ele>
        <time>2021-01-30T12:21:01Z</time>
      </trkpt>
      <trkpt lat="45.19394" lon="5.6479">
        <ele>1067</ele>
        <time>2021-01-30T12:21:02Z</time>
      </trkpt>
      <trkpt lat="45.19394" lon="5.64788">
        <ele>1066.8</ele>
        <time>2021-01-30T12:21:03Z</time>
      </trkpt>
      <trkpt lat="45.19395" lon="5.64785">
        <ele>1066.4</ele>
        <time>2021-01-30T12:21:04Z</time>
      </trkpt>
      <trkpt lat="45.19398" lon="5.64778">
        <ele>1066.6</ele>
        <time>2021-01-30T12:21:07Z</time>
      </trkpt>
      <trkpt lat="45.19399" lon="5.64775">
        <ele>1067.6</ele>
        <time>2021-01-30T12:21:08Z</time>
      </trkpt>
      <trkpt lat="45.194" lon="5.64772">
        <ele>1067.4</ele>
        <time>2021-01-30T12:21:09Z</time>
      </trkpt>
      <trkpt lat="45.19401" lon="5.6477">
        <ele>1067</ele>
        <time>2021-01-30T12:21:10Z</time>
      </trkpt>
      <trkpt lat="45.19402" lon="5.64767">
        <ele>1067.2</ele>
        <time>2021-01-30T12:21:12Z</time>
      </trkpt>
      <trkpt lat="45.19404" lon="5.64766">
        <ele>1067.2</ele>
        <time>2021-01-30T12:21:14Z</time>
      </trkpt>
      <trkpt lat="45.19407" lon="5.64767">
        <ele>1067.4</ele>
        <time>2021-01-30T12:21:17Z</time>
      </trkpt>
      <trkpt lat="45.19413" lon="5.64771">
        <ele>1067.4</ele>
        <time>2021-01-30T12:21:20Z</time>
      </trkpt>
      <trkpt lat="45.19415" lon="5.64773">
        <ele>1067.4</ele>
        <time>2021-01-30T12:21:21Z</time>
      </trkpt>
      <trkpt lat="45.19419" lon="5.64774">
        <ele>1067.8</ele>
        <time>2021-01-30T12:21:23Z</time>
      </trkpt>
      <trkpt lat="45.19421" lon="5.64776">
        <ele>1068.2</ele>
        <time>2021-01-30T12:21:24Z</time>
      </trkpt>
      <trkpt lat="45.19423" lon="5.64778">
        <ele>1067.8</ele>
        <time>2021-01-30T12:21:25Z</time>
      </trkpt>
      <trkpt lat="45.19426" lon="5.64779">
        <ele>1067.4</ele>
        <time>2021-01-30T12:21:26Z</time>
      </trkpt>
      <trkpt lat="45.19428" lon="5.64781">
        <ele>1067.4</ele>
        <time>2021-01-30T12:21:27Z</time>
      </trkpt>
      <trkpt lat="45.19431" lon="5.64782">
        <ele>1067</ele>
        <time>2021-01-30T12:21:28Z</time>
      </trkpt>
      <trkpt lat="45.19433" lon="5.64783">
        <ele>1067</ele>
        <time>2021-01-30T12:21:29Z</time>
      </trkpt>
      <trkpt lat="45.19436" lon="5.64784">
        <ele>1067.4</ele>
        <time>2021-01-30T12:21:30Z</time>
      </trkpt>
      <trkpt lat="45.19438" lon="5.64785">
        <ele>1067</ele>
        <time>2021-01-30T12:21:31Z</time>
      </trkpt>
      <trkpt lat="45.19441" lon="5.64786">
        <ele>1067.6</ele>
        <time>2021-01-30T12:21:32Z</time>
      </trkpt>
      <trkpt lat="45.19443" lon="5.64787">
        <ele>1067.4</ele>
        <time>2021-01-30T12:21:33Z</time>
      </trkpt>
      <trkpt lat="45.19445" lon="5.64789">
        <ele>1067</ele>
        <time>2021-01-30T12:21:34Z</time>
      </trkpt>
      <trkpt lat="45.19447" lon="5.64789">
        <ele>1066.6</ele>
        <time>2021-01-30T12:21:35Z</time>
      </trkpt>
      <trkpt lat="45.1945" lon="5.6479">
        <ele>1066.4</ele>
        <time>2021-01-30T12:21:36Z</time>
      </trkpt>
      <trkpt lat="45.19452" lon="5.6479">
        <ele>1066.4</ele>
        <time>2021-01-30T12:21:37Z</time>
      </trkpt>
      <trkpt lat="45.19455" lon="5.6479">
        <ele>1066.2</ele>
        <time>2021-01-30T12:21:38Z</time>
      </trkpt>
      <trkpt lat="45.19458" lon="5.6479">
        <ele>1066</ele>
        <time>2021-01-30T12:21:39Z</time>
      </trkpt>
      <trkpt lat="45.1946" lon="5.6479">
        <ele>1065.8</ele>
        <time>2021-01-30T12:21:40Z</time>
      </trkpt>
      <trkpt lat="45.19463" lon="5.6479">
        <ele>1065.6</ele>
        <time>2021-01-30T12:21:41Z</time>
      </trkpt>
      <trkpt lat="45.19466" lon="5.6479">
        <ele>1065.4</ele>
        <time>2021-01-30T12:21:42Z</time>
      </trkpt>
      <trkpt lat="45.19469" lon="5.6479">
        <ele>1065.2</ele>
        <time>2021-01-30T12:21:43Z</time>
      </trkpt>
      <trkpt lat="45.19471" lon="5.6479">
        <ele>1065.4</ele>
        <time>2021-01-30T12:21:44Z</time>
      </trkpt>
      <trkpt lat="45.19474" lon="5.6479">
        <ele>1065.2</ele>
        <time>2021-01-30T12:21:45Z</time>
      </trkpt>
      <trkpt lat="45.19476" lon="5.6479">
        <ele>1065.2</ele>
        <time>2021-01-30T12:21:46Z</time>
      </trkpt>
      <trkpt lat="45.19479" lon="5.6479">
        <ele>1065.2</ele>
        <time>2021-01-30T12:21:47Z</time>
      </trkpt>
      <trkpt lat="45.19482" lon="5.6479">
        <ele>1065</ele>
        <time>2021-01-30T12:21:48Z</time>
      </trkpt>
      <trkpt lat="45.19484" lon="5.6479">
        <ele>1064.6</ele>
        <time>2021-01-30T12:21:49Z</time>
      </trkpt>
      <trkpt lat="45.19487" lon="5.6479">
        <ele>1064.2</ele>
        <time>2021-01-30T12:21:50Z</time>
      </trkpt>
      <trkpt lat="45.1949" lon="5.64791">
        <ele>1064.4</ele>
        <time>2021-01-30T12:21:51Z</time>
      </trkpt>
      <trkpt lat="45.19493" lon="5.64791">
        <ele>1063.8</ele>
        <time>2021-01-30T12:21:52Z</time>
      </trkpt>
      <trkpt lat="45.19496" lon="5.64791">
        <ele>1063.4</ele>
        <time>2021-01-30T12:21:53Z</time>
      </trkpt>
      <trkpt lat="45.19499" lon="5.64791">
        <ele>1063.2</ele>
        <time>2021-01-30T12:21:54Z</time>
      </trkpt>
      <trkpt lat="45.19501" lon="5.64793">
        <ele>1062.8</ele>
        <time>2021-01-30T12:21:55Z</time>
      </trkpt>
      <trkpt lat="45.19503" lon="5.64794">
        <ele>1062.4</ele>
        <time>2021-01-30T12:21:56Z</time>
      </trkpt>
      <trkpt lat="45.19506" lon="5.64796">
        <ele>1062</ele>
        <time>2021-01-30T12:21:57Z</time>
      </trkpt>
      <trkpt lat="45.19508" lon="5.64798">
        <ele>1061.6</ele>
        <time>2021-01-30T12:21:58Z</time>
      </trkpt>
      <trkpt lat="45.1951" lon="5.648">
        <ele>1062</ele>
        <time>2021-01-30T12:21:59Z</time>
      </trkpt>
      <trkpt lat="45.19513" lon="5.64801">
        <ele>1061.6</ele>
        <time>2021-01-30T12:22:00Z</time>
      </trkpt>
      <trkpt lat="45.19515" lon="5.64802">
        <ele>1060.8</ele>
        <time>2021-01-30T12:22:01Z</time>
      </trkpt>
      <trkpt lat="45.19517" lon="5.64803">
        <ele>1060.6</ele>
        <time>2021-01-30T12:22:02Z</time>
      </trkpt>
      <trkpt lat="45.1952" lon="5.64805">
        <ele>1060.6</ele>
        <time>2021-01-30T12:22:03Z</time>
      </trkpt>
      <trkpt lat="45.19522" lon="5.64806">
        <ele>1059.8</ele>
        <time>2021-01-30T12:22:04Z</time>
      </trkpt>
      <trkpt lat="45.19525" lon="5.64806">
        <ele>1059.4</ele>
        <time>2021-01-30T12:22:05Z</time>
      </trkpt>
      <trkpt lat="45.19527" lon="5.64807">
        <ele>1059.2</ele>
        <time>2021-01-30T12:22:06Z</time>
      </trkpt>
      <trkpt lat="45.19529" lon="5.64808">
        <ele>1059</ele>
        <time>2021-01-30T12:22:07Z</time>
      </trkpt>
      <trkpt lat="45.19532" lon="5.64807">
        <ele>1058.6</ele>
        <time>2021-01-30T12:22:08Z</time>
      </trkpt>
      <trkpt lat="45.19534" lon="5.64807">
        <ele>1058.2</ele>
        <time>2021-01-30T12:22:09Z</time>
      </trkpt>
      <trkpt lat="45.19536" lon="5.64806">
        <ele>1057.8</ele>
        <time>2021-01-30T12:22:10Z</time>
      </trkpt>
      <trkpt lat="45.19538" lon="5.64806">
        <ele>1058.2</ele>
        <time>2021-01-30T12:22:11Z</time>
      </trkpt>
      <trkpt lat="45.1954" lon="5.64805">
        <ele>1057.4</ele>
        <time>2021-01-30T12:22:12Z</time>
      </trkpt>
      <trkpt lat="45.19542" lon="5.64805">
        <ele>1057.8</ele>
        <time>2021-01-30T12:22:13Z</time>
      </trkpt>
      <trkpt lat="45.19544" lon="5.64805">
        <ele>1057.2</ele>
        <time>2021-01-30T12:22:14Z</time>
      </trkpt>
      <trkpt lat="45.19547" lon="5.64805">
        <ele>1056.8</ele>
        <time>2021-01-30T12:22:15Z</time>
      </trkpt>
      <trkpt lat="45.1955" lon="5.64805">
        <ele>1056.6</ele>
        <time>2021-01-30T12:22:17Z</time>
      </trkpt>
      <trkpt lat="45.19553" lon="5.64805">
        <ele>1055.6</ele>
        <time>2021-01-30T12:22:19Z</time>
      </trkpt>
      <trkpt lat="45.19556" lon="5.64805">
        <ele>1055.2</ele>
        <time>2021-01-30T12:22:21Z</time>
      </trkpt>
      <trkpt lat="45.1956" lon="5.64806">
        <ele>1054</ele>
        <time>2021-01-30T12:22:23Z</time>
      </trkpt>
      <trkpt lat="45.19563" lon="5.64805">
        <ele>1052.8</ele>
        <time>2021-01-30T12:22:25Z</time>
      </trkpt>
      <trkpt lat="45.1957" lon="5.64803">
        <ele>1052</ele>
        <time>2021-01-30T12:22:28Z</time>
      </trkpt>
      <trkpt lat="45.19572" lon="5.64802">
        <ele>1051.8</ele>
        <time>2021-01-30T12:22:29Z</time>
      </trkpt>
      <trkpt lat="45.19576" lon="5.64801">
        <ele>1051.4</ele>
        <time>2021-01-30T12:22:30Z</time>
      </trkpt>
      <trkpt lat="45.19578" lon="5.648">
        <ele>1051</ele>
        <time>2021-01-30T12:22:31Z</time>
      </trkpt>
      <trkpt lat="45.19584" lon="5.64796">
        <ele>1050.6</ele>
        <time>2021-01-30T12:22:33Z</time>
      </trkpt>
      <trkpt lat="45.19586" lon="5.64793">
        <ele>1051</ele>
        <time>2021-01-30T12:22:34Z</time>
      </trkpt>
      <trkpt lat="45.19588" lon="5.64791">
        <ele>1050.6</ele>
        <time>2021-01-30T12:22:35Z</time>
      </trkpt>
      <trkpt lat="45.1959" lon="5.64789">
        <ele>1050</ele>
        <time>2021-01-30T12:22:36Z</time>
      </trkpt>
      <trkpt lat="45.19593" lon="5.64787">
        <ele>1049.8</ele>
        <time>2021-01-30T12:22:37Z</time>
      </trkpt>
      <trkpt lat="45.19595" lon="5.64785">
        <ele>1049.2</ele>
        <time>2021-01-30T12:22:38Z</time>
      </trkpt>
      <trkpt lat="45.19596" lon="5.64783">
        <ele>1048.8</ele>
        <time>2021-01-30T12:22:39Z</time>
      </trkpt>
      <trkpt lat="45.19598" lon="5.64781">
        <ele>1048.6</ele>
        <time>2021-01-30T12:22:40Z</time>
      </trkpt>
      <trkpt lat="45.19599" lon="5.64779">
        <ele>1048.2</ele>
        <time>2021-01-30T12:22:41Z</time>
      </trkpt>
      <trkpt lat="45.19601" lon="5.64777">
        <ele>1048</ele>
        <time>2021-01-30T12:22:42Z</time>
      </trkpt>
      <trkpt lat="45.19604" lon="5.64774">
        <ele>1047.4</ele>
        <time>2021-01-30T12:22:44Z</time>
      </trkpt>
      <trkpt lat="45.19605" lon="5.64772">
        <ele>1047</ele>
        <time>2021-01-30T12:22:45Z</time>
      </trkpt>
      <trkpt lat="45.19607" lon="5.64771">
        <ele>1047</ele>
        <time>2021-01-30T12:22:46Z</time>
      </trkpt>
      <trkpt lat="45.19609" lon="5.6477">
        <ele>1046.4</ele>
        <time>2021-01-30T12:22:47Z</time>
      </trkpt>
      <trkpt lat="45.19611" lon="5.64768">
        <ele>1045.8</ele>
        <time>2021-01-30T12:22:48Z</time>
      </trkpt>
      <trkpt lat="45.19613" lon="5.64767">
        <ele>1045.6</ele>
        <time>2021-01-30T12:22:49Z</time>
      </trkpt>
      <trkpt lat="45.19614" lon="5.64765">
        <ele>1045</ele>
        <time>2021-01-30T12:22:50Z</time>
      </trkpt>
      <trkpt lat="45.19616" lon="5.64764">
        <ele>1044.4</ele>
        <time>2021-01-30T12:22:51Z</time>
      </trkpt>
      <trkpt lat="45.19617" lon="5.64762">
        <ele>1044.2</ele>
        <time>2021-01-30T12:22:52Z</time>
      </trkpt>
      <trkpt lat="45.19619" lon="5.64761">
        <ele>1043.8</ele>
        <time>2021-01-30T12:22:53Z</time>
      </trkpt>
      <trkpt lat="45.19622" lon="5.64758">
        <ele>1042.8</ele>
        <time>2021-01-30T12:22:55Z</time>
      </trkpt>
      <trkpt lat="45.19624" lon="5.64757">
        <ele>1042.2</ele>
        <time>2021-01-30T12:22:56Z</time>
      </trkpt>
      <trkpt lat="45.19626" lon="5.64756">
        <ele>1042</ele>
        <time>2021-01-30T12:22:57Z</time>
      </trkpt>
      <trkpt lat="45.19628" lon="5.64755">
        <ele>1041.6</ele>
        <time>2021-01-30T12:22:58Z</time>
      </trkpt>
      <trkpt lat="45.1963" lon="5.64754">
        <ele>1041.4</ele>
        <time>2021-01-30T12:22:59Z</time>
      </trkpt>
      <trkpt lat="45.19632" lon="5.64753">
        <ele>1040.8</ele>
        <time>2021-01-30T12:23:00Z</time>
      </trkpt>
      <trkpt lat="45.19634" lon="5.64752">
        <ele>1040.4</ele>
        <time>2021-01-30T12:23:01Z</time>
      </trkpt>
      <trkpt lat="45.19637" lon="5.64749">
        <ele>1039.6</ele>
        <time>2021-01-30T12:23:03Z</time>
      </trkpt>
      <trkpt lat="45.1964" lon="5.64747">
        <ele>1038.6</ele>
        <time>2021-01-30T12:23:05Z</time>
      </trkpt>
      <trkpt lat="45.19643" lon="5.64746">
        <ele>1038.4</ele>
        <time>2021-01-30T12:23:06Z</time>
      </trkpt>
      <trkpt lat="45.19646" lon="5.64746">
        <ele>1037.8</ele>
        <time>2021-01-30T12:23:07Z</time>
      </trkpt>
      <trkpt lat="45.19648" lon="5.64746">
        <ele>1037.6</ele>
        <time>2021-01-30T12:23:08Z</time>
      </trkpt>
      <trkpt lat="45.19651" lon="5.64746">
        <ele>1037.2</ele>
        <time>2021-01-30T12:23:09Z</time>
      </trkpt>
      <trkpt lat="45.19654" lon="5.64745">
        <ele>1036.8</ele>
        <time>2021-01-30T12:23:10Z</time>
      </trkpt>
      <trkpt lat="45.19657" lon="5.64745">
        <ele>1036.4</ele>
        <time>2021-01-30T12:23:11Z</time>
      </trkpt>
      <trkpt lat="45.1966" lon="5.64745">
        <ele>1036</ele>
        <time>2021-01-30T12:23:12Z</time>
      </trkpt>
      <trkpt lat="45.19662" lon="5.64745">
        <ele>1035.8</ele>
        <time>2021-01-30T12:23:13Z</time>
      </trkpt>
      <trkpt lat="45.19664" lon="5.64744">
        <ele>1035.4</ele>
        <time>2021-01-30T12:23:14Z</time>
      </trkpt>
      <trkpt lat="45.19667" lon="5.64743">
        <ele>1034.6</ele>
        <time>2021-01-30T12:23:15Z</time>
      </trkpt>
      <trkpt lat="45.19668" lon="5.64742">
        <ele>1034.2</ele>
        <time>2021-01-30T12:23:16Z</time>
      </trkpt>
      <trkpt lat="45.19673" lon="5.64741">
        <ele>1033.8</ele>
        <time>2021-01-30T12:23:18Z</time>
      </trkpt>
      <trkpt lat="45.19675" lon="5.64741">
        <ele>1033.4</ele>
        <time>2021-01-30T12:23:19Z</time>
      </trkpt>
      <trkpt lat="45.19678" lon="5.64741">
        <ele>1033.2</ele>
        <time>2021-01-30T12:23:20Z</time>
      </trkpt>
      <trkpt lat="45.19681" lon="5.6474">
        <ele>1032.8</ele>
        <time>2021-01-30T12:23:21Z</time>
      </trkpt>
      <trkpt lat="45.19683" lon="5.6474">
        <ele>1032.2</ele>
        <time>2021-01-30T12:23:22Z</time>
      </trkpt>
      <trkpt lat="45.19685" lon="5.64739">
        <ele>1032.2</ele>
        <time>2021-01-30T12:23:23Z</time>
      </trkpt>
      <trkpt lat="45.19687" lon="5.64738">
        <ele>1032.2</ele>
        <time>2021-01-30T12:23:24Z</time>
      </trkpt>
      <trkpt lat="45.19689" lon="5.64737">
        <ele>1031.6</ele>
        <time>2021-01-30T12:23:25Z</time>
      </trkpt>
      <trkpt lat="45.19691" lon="5.64736">
        <ele>1031.2</ele>
        <time>2021-01-30T12:23:26Z</time>
      </trkpt>
      <trkpt lat="45.19693" lon="5.64734">
        <ele>1031</ele>
        <time>2021-01-30T12:23:27Z</time>
      </trkpt>
      <trkpt lat="45.19695" lon="5.64734">
        <ele>1030.2</ele>
        <time>2021-01-30T12:23:28Z</time>
      </trkpt>
      <trkpt lat="45.19696" lon="5.64733">
        <ele>1029.8</ele>
        <time>2021-01-30T12:23:29Z</time>
      </trkpt>
      <trkpt lat="45.19698" lon="5.64733">
        <ele>1030</ele>
        <time>2021-01-30T12:23:30Z</time>
      </trkpt>
      <trkpt lat="45.19701" lon="5.64732">
        <ele>1029.4</ele>
        <time>2021-01-30T12:23:31Z</time>
      </trkpt>
      <trkpt lat="45.19711" lon="5.64729">
        <ele>1027.2</ele>
        <time>2021-01-30T12:23:36Z</time>
      </trkpt>
      <trkpt lat="45.19721" lon="5.64727">
        <ele>1025.8</ele>
        <time>2021-01-30T12:23:40Z</time>
      </trkpt>
      <trkpt lat="45.19725" lon="5.64726">
        <ele>1025.6</ele>
        <time>2021-01-30T12:23:42Z</time>
      </trkpt>
      <trkpt lat="45.19728" lon="5.64725">
        <ele>1025</ele>
        <time>2021-01-30T12:23:43Z</time>
      </trkpt>
      <trkpt lat="45.19731" lon="5.64725">
        <ele>1025</ele>
        <time>2021-01-30T12:23:44Z</time>
      </trkpt>
      <trkpt lat="45.19734" lon="5.64724">
        <ele>1024.6</ele>
        <time>2021-01-30T12:23:45Z</time>
      </trkpt>
      <trkpt lat="45.19737" lon="5.64723">
        <ele>1024.4</ele>
        <time>2021-01-30T12:23:46Z</time>
      </trkpt>
      <trkpt lat="45.1974" lon="5.64722">
        <ele>1024</ele>
        <time>2021-01-30T12:23:47Z</time>
      </trkpt>
      <trkpt lat="45.19743" lon="5.64722">
        <ele>1023.6</ele>
        <time>2021-01-30T12:23:48Z</time>
      </trkpt>
      <trkpt lat="45.19752" lon="5.64721">
        <ele>1022.8</ele>
        <time>2021-01-30T12:23:51Z</time>
      </trkpt>
      <trkpt lat="45.19754" lon="5.6472">
        <ele>1022.6</ele>
        <time>2021-01-30T12:23:52Z</time>
      </trkpt>
      <trkpt lat="45.19757" lon="5.64719">
        <ele>1022.2</ele>
        <time>2021-01-30T12:23:53Z</time>
      </trkpt>
      <trkpt lat="45.1976" lon="5.64718">
        <ele>1022.4</ele>
        <time>2021-01-30T12:23:54Z</time>
      </trkpt>
      <trkpt lat="45.19762" lon="5.64717">
        <ele>1022.2</ele>
        <time>2021-01-30T12:23:55Z</time>
      </trkpt>
      <trkpt lat="45.19764" lon="5.64716">
        <ele>1021.8</ele>
        <time>2021-01-30T12:23:56Z</time>
      </trkpt>
      <trkpt lat="45.19766" lon="5.64716">
        <ele>1022.4</ele>
        <time>2021-01-30T12:23:57Z</time>
      </trkpt>
      <trkpt lat="45.19769" lon="5.64715">
        <ele>1022.2</ele>
        <time>2021-01-30T12:23:58Z</time>
      </trkpt>
      <trkpt lat="45.19771" lon="5.64714">
        <ele>1021.8</ele>
        <time>2021-01-30T12:23:59Z</time>
      </trkpt>
      <trkpt lat="45.19773" lon="5.64713">
        <ele>1022.4</ele>
        <time>2021-01-30T12:24:00Z</time>
      </trkpt>
      <trkpt lat="45.19776" lon="5.64712">
        <ele>1022</ele>
        <time>2021-01-30T12:24:01Z</time>
      </trkpt>
      <trkpt lat="45.19778" lon="5.64711">
        <ele>1021.4</ele>
        <time>2021-01-30T12:24:02Z</time>
      </trkpt>
      <trkpt lat="45.1978" lon="5.6471">
        <ele>1020.6</ele>
        <time>2021-01-30T12:24:03Z</time>
      </trkpt>
      <trkpt lat="45.19785" lon="5.64709">
        <ele>1020.2</ele>
        <time>2021-01-30T12:24:05Z</time>
      </trkpt>
      <trkpt lat="45.19787" lon="5.64708">
        <ele>1020</ele>
        <time>2021-01-30T12:24:06Z</time>
      </trkpt>
      <trkpt lat="45.19794" lon="5.64707">
        <ele>1019.2</ele>
        <time>2021-01-30T12:24:09Z</time>
      </trkpt>
      <trkpt lat="45.19798" lon="5.64707">
        <ele>1018.8</ele>
        <time>2021-01-30T12:24:11Z</time>
      </trkpt>
      <trkpt lat="45.198" lon="5.64708">
        <ele>1018.2</ele>
        <time>2021-01-30T12:24:13Z</time>
      </trkpt>
      <trkpt lat="45.19806" lon="5.6471">
        <ele>1017</ele>
        <time>2021-01-30T12:24:16Z</time>
      </trkpt>
      <trkpt lat="45.19815" lon="5.64705">
        <ele>1015.8</ele>
        <time>2021-01-30T12:24:19Z</time>
      </trkpt>
      <trkpt lat="45.19816" lon="5.6469">
        <ele>1014.6</ele>
        <time>2021-01-30T12:24:23Z</time>
      </trkpt>
      <trkpt lat="45.19814" lon="5.64677">
        <ele>1013.8</ele>
        <time>2021-01-30T12:24:27Z</time>
      </trkpt>
      <trkpt lat="45.19809" lon="5.64665">
        <ele>1012.4</ele>
        <time>2021-01-30T12:24:31Z</time>
      </trkpt>
      <trkpt lat="45.19802" lon="5.64656">
        <ele>1011.2</ele>
        <time>2021-01-30T12:24:35Z</time>
      </trkpt>
      <trkpt lat="45.19794" lon="5.64648">
        <ele>1010.4</ele>
        <time>2021-01-30T12:24:39Z</time>
      </trkpt>
      <trkpt lat="45.19787" lon="5.64639">
        <ele>1009.2</ele>
        <time>2021-01-30T12:24:43Z</time>
      </trkpt>
      <trkpt lat="45.19783" lon="5.64627">
        <ele>1006.8</ele>
        <time>2021-01-30T12:24:48Z</time>
      </trkpt>
      <trkpt lat="45.19782" lon="5.64625">
        <ele>1006.2</ele>
        <time>2021-01-30T12:24:50Z</time>
      </trkpt>
      <trkpt lat="45.1978" lon="5.64624">
        <ele>1006</ele>
        <time>2021-01-30T12:24:51Z</time>
      </trkpt>
      <trkpt lat="45.19777" lon="5.6462">
        <ele>1005.2</ele>
        <time>2021-01-30T12:25:07Z</time>
      </trkpt>
      <trkpt lat="45.19779" lon="5.64617">
        <ele>1005</ele>
        <time>2021-01-30T12:25:09Z</time>
      </trkpt>
      <trkpt lat="45.19781" lon="5.64617">
        <ele>1004.4</ele>
        <time>2021-01-30T12:25:12Z</time>
      </trkpt>
      <trkpt lat="45.19784" lon="5.64618">
        <ele>1003.4</ele>
        <time>2021-01-30T12:25:14Z</time>
      </trkpt>
      <trkpt lat="45.19787" lon="5.6462">
        <ele>1002.8</ele>
        <time>2021-01-30T12:25:16Z</time>
      </trkpt>
      <trkpt lat="45.19789" lon="5.6462">
        <ele>1002.2</ele>
        <time>2021-01-30T12:25:17Z</time>
      </trkpt>
      <trkpt lat="45.19792" lon="5.6462">
        <ele>1001.8</ele>
        <time>2021-01-30T12:25:18Z</time>
      </trkpt>
      <trkpt lat="45.19795" lon="5.64621">
        <ele>1001</ele>
        <time>2021-01-30T12:25:20Z</time>
      </trkpt>
      <trkpt lat="45.19798" lon="5.64623">
        <ele>1000.8</ele>
        <time>2021-01-30T12:25:22Z</time>
      </trkpt>
      <trkpt lat="45.19799" lon="5.64624">
        <ele>1000.2</ele>
        <time>2021-01-30T12:25:23Z</time>
      </trkpt>
      <trkpt lat="45.19803" lon="5.64627">
        <ele>999.6</ele>
        <time>2021-01-30T12:25:25Z</time>
      </trkpt>
      <trkpt lat="45.19805" lon="5.64629">
        <ele>999</ele>
        <time>2021-01-30T12:25:26Z</time>
      </trkpt>
      <trkpt lat="45.19807" lon="5.64631">
        <ele>998.6</ele>
        <time>2021-01-30T12:25:27Z</time>
      </trkpt>
      <trkpt lat="45.19808" lon="5.64633">
        <ele>998.4</ele>
        <time>2021-01-30T12:25:28Z</time>
      </trkpt>
      <trkpt lat="45.19815" lon="5.64639">
        <ele>997.6</ele>
        <time>2021-01-30T12:25:31Z</time>
      </trkpt>
      <trkpt lat="45.19818" lon="5.6464">
        <ele>997.2</ele>
        <time>2021-01-30T12:25:32Z</time>
      </trkpt>
      <trkpt lat="45.19824" lon="5.64643">
        <ele>995.4</ele>
        <time>2021-01-30T12:25:35Z</time>
      </trkpt>
      <trkpt lat="45.19834" lon="5.64647">
        <ele>994.2</ele>
        <time>2021-01-30T12:25:38Z</time>
      </trkpt>
      <trkpt lat="45.19836" lon="5.64648">
        <ele>993.8</ele>
        <time>2021-01-30T12:25:39Z</time>
      </trkpt>
      <trkpt lat="45.19844" lon="5.64654">
        <ele>992.6</ele>
        <time>2021-01-30T12:25:42Z</time>
      </trkpt>
      <trkpt lat="45.19847" lon="5.64656">
        <ele>992.4</ele>
        <time>2021-01-30T12:25:43Z</time>
      </trkpt>
      <trkpt lat="45.19852" lon="5.6466">
        <ele>991.4</ele>
        <time>2021-01-30T12:25:45Z</time>
      </trkpt>
      <trkpt lat="45.19854" lon="5.64662">
        <ele>991.2</ele>
        <time>2021-01-30T12:25:46Z</time>
      </trkpt>
      <trkpt lat="45.19856" lon="5.64665">
        <ele>991</ele>
        <time>2021-01-30T12:25:47Z</time>
      </trkpt>
      <trkpt lat="45.19865" lon="5.64671">
        <ele>989.6</ele>
        <time>2021-01-30T12:25:51Z</time>
      </trkpt>
      <trkpt lat="45.19869" lon="5.64675">
        <ele>989</ele>
        <time>2021-01-30T12:25:53Z</time>
      </trkpt>
      <trkpt lat="45.19872" lon="5.64677">
        <ele>988.6</ele>
        <time>2021-01-30T12:25:54Z</time>
      </trkpt>
      <trkpt lat="45.1988" lon="5.64686">
        <ele>987</ele>
        <time>2021-01-30T12:25:58Z</time>
      </trkpt>
      <trkpt lat="45.19888" lon="5.64694">
        <ele>987</ele>
        <time>2021-01-30T12:26:02Z</time>
      </trkpt>
      <trkpt lat="45.19897" lon="5.64703">
        <ele>984.4</ele>
        <time>2021-01-30T12:26:07Z</time>
      </trkpt>
      <trkpt lat="45.19899" lon="5.64705">
        <ele>984.4</ele>
        <time>2021-01-30T12:26:08Z</time>
      </trkpt>
      <trkpt lat="45.19901" lon="5.64707">
        <ele>984</ele>
        <time>2021-01-30T12:26:09Z</time>
      </trkpt>
      <trkpt lat="45.19903" lon="5.6471">
        <ele>983.4</ele>
        <time>2021-01-30T12:26:10Z</time>
      </trkpt>
      <trkpt lat="45.19905" lon="5.64713">
        <ele>982.8</ele>
        <time>2021-01-30T12:26:11Z</time>
      </trkpt>
      <trkpt lat="45.19908" lon="5.64716">
        <ele>982.4</ele>
        <time>2021-01-30T12:26:12Z</time>
      </trkpt>
      <trkpt lat="45.19911" lon="5.64718">
        <ele>981.6</ele>
        <time>2021-01-30T12:26:13Z</time>
      </trkpt>
      <trkpt lat="45.1992" lon="5.64729">
        <ele>980.4</ele>
        <time>2021-01-30T12:26:17Z</time>
      </trkpt>
      <trkpt lat="45.1993" lon="5.6473">
        <ele>979.2</ele>
        <time>2021-01-30T12:26:21Z</time>
      </trkpt>
      <trkpt lat="45.19941" lon="5.64726">
        <ele>977.4</ele>
        <time>2021-01-30T12:26:25Z</time>
      </trkpt>
      <trkpt lat="45.19951" lon="5.64729">
        <ele>976.6</ele>
        <time>2021-01-30T12:26:29Z</time>
      </trkpt>
      <trkpt lat="45.19959" lon="5.64731">
        <ele>969.4</ele>
        <time>2021-01-30T12:26:33Z</time>
      </trkpt>
      <trkpt lat="45.19962" lon="5.64733">
        <ele>970</ele>
        <time>2021-01-30T12:26:34Z</time>
      </trkpt>
      <trkpt lat="45.19971" lon="5.6474">
        <ele>973.4</ele>
        <time>2021-01-30T12:26:38Z</time>
      </trkpt>
      <trkpt lat="45.19973" lon="5.64741">
        <ele>973.8</ele>
        <time>2021-01-30T12:26:39Z</time>
      </trkpt>
      <trkpt lat="45.19982" lon="5.64747">
        <ele>975.2</ele>
        <time>2021-01-30T12:26:42Z</time>
      </trkpt>
      <trkpt lat="45.19983" lon="5.64749">
        <ele>975.6</ele>
        <time>2021-01-30T12:26:45Z</time>
      </trkpt>
      <trkpt lat="45.19983" lon="5.64752">
        <ele>975.2</ele>
        <time>2021-01-30T12:26:48Z</time>
      </trkpt>
      <trkpt lat="45.19983" lon="5.64754">
        <ele>974.8</ele>
        <time>2021-01-30T12:26:56Z</time>
      </trkpt>
      <trkpt lat="45.19986" lon="5.64756">
        <ele>974.4</ele>
        <time>2021-01-30T12:27:00Z</time>
      </trkpt>
      <trkpt lat="45.19989" lon="5.64759">
        <ele>975.8</ele>
        <time>2021-01-30T12:27:02Z</time>
      </trkpt>
      <trkpt lat="45.19991" lon="5.64762">
        <ele>975</ele>
        <time>2021-01-30T12:27:04Z</time>
      </trkpt>
      <trkpt lat="45.19993" lon="5.64764">
        <ele>975.8</ele>
        <time>2021-01-30T12:27:05Z</time>
      </trkpt>
      <trkpt lat="45.20001" lon="5.64772">
        <ele>974.4</ele>
        <time>2021-01-30T12:27:08Z</time>
      </trkpt>
      <trkpt lat="45.20009" lon="5.64781">
        <ele>972.2</ele>
        <time>2021-01-30T12:27:11Z</time>
      </trkpt>
      <trkpt lat="45.20014" lon="5.64791">
        <ele>970.2</ele>
        <time>2021-01-30T12:27:14Z</time>
      </trkpt>
      <trkpt lat="45.2002" lon="5.64802">
        <ele>967.4</ele>
        <time>2021-01-30T12:27:17Z</time>
      </trkpt>
      <trkpt lat="45.20027" lon="5.64815">
        <ele>964.6</ele>
        <time>2021-01-30T12:27:21Z</time>
      </trkpt>
      <trkpt lat="45.20032" lon="5.64826">
        <ele>964</ele>
        <time>2021-01-30T12:27:25Z</time>
      </trkpt>
      <trkpt lat="45.20036" lon="5.6484">
        <ele>962</ele>
        <time>2021-01-30T12:27:30Z</time>
      </trkpt>
      <trkpt lat="45.20042" lon="5.64853">
        <ele>963.8</ele>
        <time>2021-01-30T12:27:34Z</time>
      </trkpt>
      <trkpt lat="45.20046" lon="5.64865">
        <ele>963.4</ele>
        <time>2021-01-30T12:27:38Z</time>
      </trkpt>
      <trkpt lat="45.2005" lon="5.64878">
        <ele>960.8</ele>
        <time>2021-01-30T12:27:42Z</time>
      </trkpt>
      <trkpt lat="45.20055" lon="5.64893">
        <ele>950.6</ele>
        <time>2021-01-30T12:27:46Z</time>
      </trkpt>
      <trkpt lat="45.20059" lon="5.64905">
        <ele>949.6</ele>
        <time>2021-01-30T12:27:50Z</time>
      </trkpt>
      <trkpt lat="45.20064" lon="5.64919">
        <ele>947.6</ele>
        <time>2021-01-30T12:27:55Z</time>
      </trkpt>
      <trkpt lat="45.2007" lon="5.64932">
        <ele>946.2</ele>
        <time>2021-01-30T12:27:59Z</time>
      </trkpt>
      <trkpt lat="45.20071" lon="5.64935">
        <ele>946</ele>
        <time>2021-01-30T12:28:00Z</time>
      </trkpt>
      <trkpt lat="45.20072" lon="5.64939">
        <ele>944.8</ele>
        <time>2021-01-30T12:28:01Z</time>
      </trkpt>
      <trkpt lat="45.20073" lon="5.64943">
        <ele>944.6</ele>
        <time>2021-01-30T12:28:02Z</time>
      </trkpt>
      <trkpt lat="45.20077" lon="5.64955">
        <ele>943.4</ele>
        <time>2021-01-30T12:28:05Z</time>
      </trkpt>
      <trkpt lat="45.20082" lon="5.64966">
        <ele>943.8</ele>
        <time>2021-01-30T12:28:08Z</time>
      </trkpt>
      <trkpt lat="45.20088" lon="5.6498">
        <ele>942.2</ele>
        <time>2021-01-30T12:28:12Z</time>
      </trkpt>
      <trkpt lat="45.20093" lon="5.64993">
        <ele>942</ele>
        <time>2021-01-30T12:28:15Z</time>
      </trkpt>
      <trkpt lat="45.20096" lon="5.65008">
        <ele>940.8</ele>
        <time>2021-01-30T12:28:19Z</time>
      </trkpt>
      <trkpt lat="45.20101" lon="5.65019">
        <ele>934.6</ele>
        <time>2021-01-30T12:28:22Z</time>
      </trkpt>
      <trkpt lat="45.20105" lon="5.65028">
        <ele>930.4</ele>
        <time>2021-01-30T12:28:25Z</time>
      </trkpt>
      <trkpt lat="45.20106" lon="5.65031">
        <ele>928.8</ele>
        <time>2021-01-30T12:28:26Z</time>
      </trkpt>
      <trkpt lat="45.20108" lon="5.65034">
        <ele>928</ele>
        <time>2021-01-30T12:28:27Z</time>
      </trkpt>
      <trkpt lat="45.20109" lon="5.65038">
        <ele>925.6</ele>
        <time>2021-01-30T12:28:28Z</time>
      </trkpt>
      <trkpt lat="45.20111" lon="5.65041">
        <ele>922.2</ele>
        <time>2021-01-30T12:28:29Z</time>
      </trkpt>
      <trkpt lat="45.20113" lon="5.65044">
        <ele>921.4</ele>
        <time>2021-01-30T12:28:30Z</time>
      </trkpt>
      <trkpt lat="45.20115" lon="5.65047">
        <ele>919.8</ele>
        <time>2021-01-30T12:28:31Z</time>
      </trkpt>
      <trkpt lat="45.20117" lon="5.65051">
        <ele>919.4</ele>
        <time>2021-01-30T12:28:32Z</time>
      </trkpt>
      <trkpt lat="45.20119" lon="5.65054">
        <ele>918.8</ele>
        <time>2021-01-30T12:28:33Z</time>
      </trkpt>
      <trkpt lat="45.20125" lon="5.65064">
        <ele>918.6</ele>
        <time>2021-01-30T12:28:37Z</time>
      </trkpt>
      <trkpt lat="45.20126" lon="5.6507">
        <ele>917.8</ele>
        <time>2021-01-30T12:28:39Z</time>
      </trkpt>
      <trkpt lat="45.20128" lon="5.65085">
        <ele>915</ele>
        <time>2021-01-30T12:28:43Z</time>
      </trkpt>
      <trkpt lat="45.20127" lon="5.65093">
        <ele>913.4</ele>
        <time>2021-01-30T12:28:45Z</time>
      </trkpt>
      <trkpt lat="45.20127" lon="5.65097">
        <ele>913.4</ele>
        <time>2021-01-30T12:28:46Z</time>
      </trkpt>
      <trkpt lat="45.20127" lon="5.65101">
        <ele>913</ele>
        <time>2021-01-30T12:28:47Z</time>
      </trkpt>
      <trkpt lat="45.20127" lon="5.65105">
        <ele>912.8</ele>
        <time>2021-01-30T12:28:48Z</time>
      </trkpt>
      <trkpt lat="45.20126" lon="5.65109">
        <ele>912.2</ele>
        <time>2021-01-30T12:28:49Z</time>
      </trkpt>
      <trkpt lat="45.20126" lon="5.65112">
        <ele>912</ele>
        <time>2021-01-30T12:28:50Z</time>
      </trkpt>
      <trkpt lat="45.20126" lon="5.65114">
        <ele>911.8</ele>
        <time>2021-01-30T12:28:51Z</time>
      </trkpt>
      <trkpt lat="45.20127" lon="5.65117">
        <ele>910.8</ele>
        <time>2021-01-30T12:28:52Z</time>
      </trkpt>
      <trkpt lat="45.20129" lon="5.65119">
        <ele>909.4</ele>
        <time>2021-01-30T12:28:54Z</time>
      </trkpt>
      <trkpt lat="45.20132" lon="5.65121">
        <ele>908.8</ele>
        <time>2021-01-30T12:28:55Z</time>
      </trkpt>
      <trkpt lat="45.20134" lon="5.65123">
        <ele>908.6</ele>
        <time>2021-01-30T12:28:56Z</time>
      </trkpt>
      <trkpt lat="45.20136" lon="5.65124">
        <ele>908</ele>
        <time>2021-01-30T12:28:57Z</time>
      </trkpt>
      <trkpt lat="45.20138" lon="5.65124">
        <ele>907.4</ele>
        <time>2021-01-30T12:28:58Z</time>
      </trkpt>
      <trkpt lat="45.20141" lon="5.65125">
        <ele>906.4</ele>
        <time>2021-01-30T12:28:59Z</time>
      </trkpt>
      <trkpt lat="45.20144" lon="5.65125">
        <ele>906.2</ele>
        <time>2021-01-30T12:29:00Z</time>
      </trkpt>
      <trkpt lat="45.20146" lon="5.65125">
        <ele>905.6</ele>
        <time>2021-01-30T12:29:01Z</time>
      </trkpt>
      <trkpt lat="45.20148" lon="5.65125">
        <ele>905.2</ele>
        <time>2021-01-30T12:29:02Z</time>
      </trkpt>
      <trkpt lat="45.2015" lon="5.65125">
        <ele>904.8</ele>
        <time>2021-01-30T12:29:03Z</time>
      </trkpt>
      <trkpt lat="45.20152" lon="5.65125">
        <ele>904</ele>
        <time>2021-01-30T12:29:04Z</time>
      </trkpt>
      <trkpt lat="45.20154" lon="5.65126">
        <ele>903.8</ele>
        <time>2021-01-30T12:29:05Z</time>
      </trkpt>
      <trkpt lat="45.20156" lon="5.65126">
        <ele>904</ele>
        <time>2021-01-30T12:29:06Z</time>
      </trkpt>
      <trkpt lat="45.20158" lon="5.65126">
        <ele>903.8</ele>
        <time>2021-01-30T12:29:07Z</time>
      </trkpt>
      <trkpt lat="45.20161" lon="5.65126">
        <ele>902.8</ele>
        <time>2021-01-30T12:29:08Z</time>
      </trkpt>
      <trkpt lat="45.20162" lon="5.65127">
        <ele>902.4</ele>
        <time>2021-01-30T12:29:09Z</time>
      </trkpt>
      <trkpt lat="45.20165" lon="5.6513">
        <ele>900.8</ele>
        <time>2021-01-30T12:29:11Z</time>
      </trkpt>
      <trkpt lat="45.20167" lon="5.65131">
        <ele>902</ele>
        <time>2021-01-30T12:29:12Z</time>
      </trkpt>
      <trkpt lat="45.20168" lon="5.65133">
        <ele>898.6</ele>
        <time>2021-01-30T12:29:15Z</time>
      </trkpt>
      <trkpt lat="45.20168" lon="5.65137">
        <ele>897.8</ele>
        <time>2021-01-30T12:29:17Z</time>
      </trkpt>
      <trkpt lat="45.20166" lon="5.65139">
        <ele>896</ele>
        <time>2021-01-30T12:29:19Z</time>
      </trkpt>
      <trkpt lat="45.20165" lon="5.65142">
        <ele>894.2</ele>
        <time>2021-01-30T12:29:21Z</time>
      </trkpt>
      <trkpt lat="45.20162" lon="5.65146">
        <ele>893.6</ele>
        <time>2021-01-30T12:29:23Z</time>
      </trkpt>
      <trkpt lat="45.2016" lon="5.65149">
        <ele>893</ele>
        <time>2021-01-30T12:29:25Z</time>
      </trkpt>
      <trkpt lat="45.20157" lon="5.65151">
        <ele>892</ele>
        <time>2021-01-30T12:29:27Z</time>
      </trkpt>
      <trkpt lat="45.20155" lon="5.65155">
        <ele>891</ele>
        <time>2021-01-30T12:29:29Z</time>
      </trkpt>
      <trkpt lat="45.20155" lon="5.65158">
        <ele>891.2</ele>
        <time>2021-01-30T12:29:30Z</time>
      </trkpt>
      <trkpt lat="45.20159" lon="5.65171">
        <ele>890</ele>
        <time>2021-01-30T12:29:34Z</time>
      </trkpt>
      <trkpt lat="45.20163" lon="5.65183">
        <ele>886.4</ele>
        <time>2021-01-30T12:29:39Z</time>
      </trkpt>
      <trkpt lat="45.20164" lon="5.65185">
        <ele>886.8</ele>
        <time>2021-01-30T12:29:40Z</time>
      </trkpt>
      <trkpt lat="45.20165" lon="5.65188">
        <ele>886.2</ele>
        <time>2021-01-30T12:29:41Z</time>
      </trkpt>
      <trkpt lat="45.20167" lon="5.65192">
        <ele>885.6</ele>
        <time>2021-01-30T12:29:43Z</time>
      </trkpt>
      <trkpt lat="45.20169" lon="5.65196">
        <ele>883.6</ele>
        <time>2021-01-30T12:29:45Z</time>
      </trkpt>
      <trkpt lat="45.2017" lon="5.65199">
        <ele>882.8</ele>
        <time>2021-01-30T12:29:46Z</time>
      </trkpt>
      <trkpt lat="45.20172" lon="5.65201">
        <ele>882</ele>
        <time>2021-01-30T12:29:47Z</time>
      </trkpt>
      <trkpt lat="45.20174" lon="5.65204">
        <ele>881</ele>
        <time>2021-01-30T12:29:48Z</time>
      </trkpt>
      <trkpt lat="45.20177" lon="5.65206">
        <ele>880.6</ele>
        <time>2021-01-30T12:29:49Z</time>
      </trkpt>
      <trkpt lat="45.20179" lon="5.65208">
        <ele>880.6</ele>
        <time>2021-01-30T12:29:50Z</time>
      </trkpt>
      <trkpt lat="45.20182" lon="5.65209">
        <ele>880.4</ele>
        <time>2021-01-30T12:29:51Z</time>
      </trkpt>
      <trkpt lat="45.20184" lon="5.6521">
        <ele>880.4</ele>
        <time>2021-01-30T12:29:52Z</time>
      </trkpt>
      <trkpt lat="45.20188" lon="5.65211">
        <ele>881.8</ele>
        <time>2021-01-30T12:29:53Z</time>
      </trkpt>
      <trkpt lat="45.2019" lon="5.65212">
        <ele>880.6</ele>
        <time>2021-01-30T12:29:54Z</time>
      </trkpt>
      <trkpt lat="45.20193" lon="5.65213">
        <ele>879.4</ele>
        <time>2021-01-30T12:29:55Z</time>
      </trkpt>
      <trkpt lat="45.20195" lon="5.65213">
        <ele>879.4</ele>
        <time>2021-01-30T12:29:56Z</time>
      </trkpt>
      <trkpt lat="45.20197" lon="5.65214">
        <ele>878.2</ele>
        <time>2021-01-30T12:29:57Z</time>
      </trkpt>
      <trkpt lat="45.20199" lon="5.65214">
        <ele>877.2</ele>
        <time>2021-01-30T12:29:58Z</time>
      </trkpt>
      <trkpt lat="45.20201" lon="5.65215">
        <ele>876.8</ele>
        <time>2021-01-30T12:29:59Z</time>
      </trkpt>
      <trkpt lat="45.20203" lon="5.65216">
        <ele>863.8</ele>
        <time>2021-01-30T12:30:00Z</time>
      </trkpt>
      <trkpt lat="45.20205" lon="5.65216">
        <ele>877.2</ele>
        <time>2021-01-30T12:30:01Z</time>
      </trkpt>
      <trkpt lat="45.20207" lon="5.65218">
        <ele>876.4</ele>
        <time>2021-01-30T12:30:02Z</time>
      </trkpt>
      <trkpt lat="45.20209" lon="5.6522">
        <ele>874.2</ele>
        <time>2021-01-30T12:30:04Z</time>
      </trkpt>
      <trkpt lat="45.2021" lon="5.65223">
        <ele>873.6</ele>
        <time>2021-01-30T12:30:06Z</time>
      </trkpt>
      <trkpt lat="45.20209" lon="5.65226">
        <ele>872.6</ele>
        <time>2021-01-30T12:30:08Z</time>
      </trkpt>
      <trkpt lat="45.20209" lon="5.65229">
        <ele>872.2</ele>
        <time>2021-01-30T12:30:09Z</time>
      </trkpt>
      <trkpt lat="45.20208" lon="5.65231">
        <ele>872.2</ele>
        <time>2021-01-30T12:30:10Z</time>
      </trkpt>
      <trkpt lat="45.20207" lon="5.65235">
        <ele>870.2</ele>
        <time>2021-01-30T12:30:12Z</time>
      </trkpt>
      <trkpt lat="45.20206" lon="5.65239">
        <ele>868.6</ele>
        <time>2021-01-30T12:30:14Z</time>
      </trkpt>
      <trkpt lat="45.20203" lon="5.65242">
        <ele>868</ele>
        <time>2021-01-30T12:30:16Z</time>
      </trkpt>
      <trkpt lat="45.20202" lon="5.65244">
        <ele>867.4</ele>
        <time>2021-01-30T12:30:17Z</time>
      </trkpt>
      <trkpt lat="45.202" lon="5.65246">
        <ele>866.4</ele>
        <time>2021-01-30T12:30:19Z</time>
      </trkpt>
      <trkpt lat="45.20203" lon="5.65246">
        <ele>865</ele>
        <time>2021-01-30T12:30:23Z</time>
      </trkpt>
      <trkpt lat="45.20205" lon="5.65246">
        <ele>865.4</ele>
        <time>2021-01-30T12:30:33Z</time>
      </trkpt>
      <trkpt lat="45.20204" lon="5.65249">
        <ele>865</ele>
        <time>2021-01-30T12:30:45Z</time>
      </trkpt>
      <trkpt lat="45.20202" lon="5.65251">
        <ele>864.8</ele>
        <time>2021-01-30T12:30:46Z</time>
      </trkpt>
      <trkpt lat="45.202" lon="5.65253">
        <ele>864.4</ele>
        <time>2021-01-30T12:30:47Z</time>
      </trkpt>
      <trkpt lat="45.20197" lon="5.65255">
        <ele>864.6</ele>
        <time>2021-01-30T12:30:48Z</time>
      </trkpt>
      <trkpt lat="45.20195" lon="5.65257">
        <ele>864</ele>
        <time>2021-01-30T12:30:49Z</time>
      </trkpt>
      <trkpt lat="45.20193" lon="5.65259">
        <ele>863.2</ele>
        <time>2021-01-30T12:30:50Z</time>
      </trkpt>
      <trkpt lat="45.20191" lon="5.65261">
        <ele>863.2</ele>
        <time>2021-01-30T12:30:51Z</time>
      </trkpt>
      <trkpt lat="45.20188" lon="5.65263">
        <ele>864</ele>
        <time>2021-01-30T12:30:52Z</time>
      </trkpt>
      <trkpt lat="45.20186" lon="5.65265">
        <ele>862.8</ele>
        <time>2021-01-30T12:30:53Z</time>
      </trkpt>
      <trkpt lat="45.20184" lon="5.65266">
        <ele>862.6</ele>
        <time>2021-01-30T12:30:54Z</time>
      </trkpt>
      <trkpt lat="45.20181" lon="5.65267">
        <ele>861.4</ele>
        <time>2021-01-30T12:30:55Z</time>
      </trkpt>
      <trkpt lat="45.20179" lon="5.65267">
        <ele>861.2</ele>
        <time>2021-01-30T12:30:56Z</time>
      </trkpt>
      <trkpt lat="45.20177" lon="5.65267">
        <ele>860.4</ele>
        <time>2021-01-30T12:30:57Z</time>
      </trkpt>
      <trkpt lat="45.20174" lon="5.65268">
        <ele>858.2</ele>
        <time>2021-01-30T12:30:58Z</time>
      </trkpt>
      <trkpt lat="45.20172" lon="5.65269">
        <ele>855.6</ele>
        <time>2021-01-30T12:30:59Z</time>
      </trkpt>
      <trkpt lat="45.2017" lon="5.65269">
        <ele>855.8</ele>
        <time>2021-01-30T12:31:00Z</time>
      </trkpt>
      <trkpt lat="45.2016" lon="5.65271">
        <ele>852</ele>
        <time>2021-01-30T12:31:04Z</time>
      </trkpt>
      <trkpt lat="45.2015" lon="5.65272">
        <ele>849.4</ele>
        <time>2021-01-30T12:31:09Z</time>
      </trkpt>
      <trkpt lat="45.20141" lon="5.65272">
        <ele>846.8</ele>
        <time>2021-01-30T12:31:14Z</time>
      </trkpt>
      <trkpt lat="45.20132" lon="5.65273">
        <ele>848.8</ele>
        <time>2021-01-30T12:31:19Z</time>
      </trkpt>
      <trkpt lat="45.2012" lon="5.65276">
        <ele>847.4</ele>
        <time>2021-01-30T12:31:23Z</time>
      </trkpt>
      <trkpt lat="45.20111" lon="5.6528">
        <ele>847.2</ele>
        <time>2021-01-30T12:31:25Z</time>
      </trkpt>
      <trkpt lat="45.20099" lon="5.65285">
        <ele>847</ele>
        <time>2021-01-30T12:31:28Z</time>
      </trkpt>
      <trkpt lat="45.20088" lon="5.65286">
        <ele>846.4</ele>
        <time>2021-01-30T12:31:32Z</time>
      </trkpt>
      <trkpt lat="45.20079" lon="5.65289">
        <ele>844.8</ele>
        <time>2021-01-30T12:31:35Z</time>
      </trkpt>
      <trkpt lat="45.20067" lon="5.65296">
        <ele>842.8</ele>
        <time>2021-01-30T12:31:38Z</time>
      </trkpt>
      <trkpt lat="45.20057" lon="5.653">
        <ele>845.6</ele>
        <time>2021-01-30T12:31:41Z</time>
      </trkpt>
      <trkpt lat="45.20048" lon="5.65302">
        <ele>848</ele>
        <time>2021-01-30T12:31:45Z</time>
      </trkpt>
      <trkpt lat="45.20038" lon="5.65303">
        <ele>848.8</ele>
        <time>2021-01-30T12:31:49Z</time>
      </trkpt>
      <trkpt lat="45.20027" lon="5.65305">
        <ele>848.2</ele>
        <time>2021-01-30T12:31:53Z</time>
      </trkpt>
      <trkpt lat="45.20015" lon="5.65308">
        <ele>847.4</ele>
        <time>2021-01-30T12:31:57Z</time>
      </trkpt>
      <trkpt lat="45.20006" lon="5.65314">
        <ele>842</ele>
        <time>2021-01-30T12:32:00Z</time>
      </trkpt>
      <trkpt lat="45.19996" lon="5.6532">
        <ele>838.4</ele>
        <time>2021-01-30T12:32:04Z</time>
      </trkpt>
      <trkpt lat="45.19987" lon="5.65328">
        <ele>837.2</ele>
        <time>2021-01-30T12:32:07Z</time>
      </trkpt>
      <trkpt lat="45.19982" lon="5.6534">
        <ele>835.8</ele>
        <time>2021-01-30T12:32:10Z</time>
      </trkpt>
      <trkpt lat="45.19973" lon="5.65348">
        <ele>838.2</ele>
        <time>2021-01-30T12:32:14Z</time>
      </trkpt>
      <trkpt lat="45.19964" lon="5.6535">
        <ele>836.8</ele>
        <time>2021-01-30T12:32:20Z</time>
      </trkpt>
      <trkpt lat="45.19953" lon="5.65348">
        <ele>836.8</ele>
        <time>2021-01-30T12:32:26Z</time>
      </trkpt>
      <trkpt lat="45.19941" lon="5.65344">
        <ele>834.8</ele>
        <time>2021-01-30T12:32:31Z</time>
      </trkpt>
      <trkpt lat="45.19932" lon="5.65342">
        <ele>833.8</ele>
        <time>2021-01-30T12:32:34Z</time>
      </trkpt>
      <trkpt lat="45.1992" lon="5.65346">
        <ele>834</ele>
        <time>2021-01-30T12:32:38Z</time>
      </trkpt>
      <trkpt lat="45.19909" lon="5.65349">
        <ele>829.4</ele>
        <time>2021-01-30T12:32:43Z</time>
      </trkpt>
      <trkpt lat="45.19898" lon="5.65356">
        <ele>829.2</ele>
        <time>2021-01-30T12:32:47Z</time>
      </trkpt>
      <trkpt lat="45.1989" lon="5.65363">
        <ele>827.2</ele>
        <time>2021-01-30T12:32:50Z</time>
      </trkpt>
      <trkpt lat="45.19882" lon="5.65372">
        <ele>825.8</ele>
        <time>2021-01-30T12:32:54Z</time>
      </trkpt>
      <trkpt lat="45.19874" lon="5.65381">
        <ele>822.6</ele>
        <time>2021-01-30T12:33:01Z</time>
      </trkpt>
      <trkpt lat="45.19864" lon="5.65387">
        <ele>817.6</ele>
        <time>2021-01-30T12:33:07Z</time>
      </trkpt>
      <trkpt lat="45.19854" lon="5.65389">
        <ele>809</ele>
        <time>2021-01-30T12:33:13Z</time>
      </trkpt>
      <trkpt lat="45.19845" lon="5.65393">
        <ele>807</ele>
        <time>2021-01-30T12:33:18Z</time>
      </trkpt>
      <trkpt lat="45.19837" lon="5.65397">
        <ele>802.2</ele>
        <time>2021-01-30T12:33:22Z</time>
      </trkpt>
      <trkpt lat="45.19828" lon="5.65403">
        <ele>801.2</ele>
        <time>2021-01-30T12:33:25Z</time>
      </trkpt>
      <trkpt lat="45.19819" lon="5.65411">
        <ele>798.8</ele>
        <time>2021-01-30T12:33:29Z</time>
      </trkpt>
      <trkpt lat="45.1981" lon="5.65421">
        <ele>795.2</ele>
        <time>2021-01-30T12:33:33Z</time>
      </trkpt>
      <trkpt lat="45.19802" lon="5.65429">
        <ele>794.4</ele>
        <time>2021-01-30T12:33:37Z</time>
      </trkpt>
      <trkpt lat="45.19792" lon="5.65435">
        <ele>794</ele>
        <time>2021-01-30T12:33:42Z</time>
      </trkpt>
      <trkpt lat="45.19785" lon="5.65443">
        <ele>792.4</ele>
        <time>2021-01-30T12:33:46Z</time>
      </trkpt>
      <trkpt lat="45.19776" lon="5.65449">
        <ele>789.8</ele>
        <time>2021-01-30T12:33:51Z</time>
      </trkpt>
      <trkpt lat="45.19768" lon="5.65455">
        <ele>788.4</ele>
        <time>2021-01-30T12:33:55Z</time>
      </trkpt>
      <trkpt lat="45.19761" lon="5.65462">
        <ele>785</ele>
        <time>2021-01-30T12:33:59Z</time>
      </trkpt>
      <trkpt lat="45.19752" lon="5.65466">
        <ele>780</ele>
        <time>2021-01-30T12:34:05Z</time>
      </trkpt>
      <trkpt lat="45.19742" lon="5.65468">
        <ele>782.8</ele>
        <time>2021-01-30T12:34:09Z</time>
      </trkpt>
      <trkpt lat="45.19731" lon="5.65464">
        <ele>785</ele>
        <time>2021-01-30T12:34:13Z</time>
      </trkpt>
      <trkpt lat="45.1972" lon="5.6546">
        <ele>784.8</ele>
        <time>2021-01-30T12:34:17Z</time>
      </trkpt>
      <trkpt lat="45.19709" lon="5.6546">
        <ele>783.6</ele>
        <time>2021-01-30T12:34:21Z</time>
      </trkpt>
      <trkpt lat="45.19699" lon="5.65466">
        <ele>783.2</ele>
        <time>2021-01-30T12:34:24Z</time>
      </trkpt>
      <trkpt lat="45.1969" lon="5.65469">
        <ele>782</ele>
        <time>2021-01-30T12:34:28Z</time>
      </trkpt>
      <trkpt lat="45.1968" lon="5.65469">
        <ele>779.6</ele>
        <time>2021-01-30T12:34:33Z</time>
      </trkpt>
      <trkpt lat="45.19671" lon="5.6547">
        <ele>777</ele>
        <time>2021-01-30T12:34:38Z</time>
      </trkpt>
      <trkpt lat="45.19662" lon="5.65474">
        <ele>773.2</ele>
        <time>2021-01-30T12:34:43Z</time>
      </trkpt>
      <trkpt lat="45.19652" lon="5.65477">
        <ele>771.6</ele>
        <time>2021-01-30T12:34:48Z</time>
      </trkpt>
      <trkpt lat="45.19642" lon="5.65481">
        <ele>768.4</ele>
        <time>2021-01-30T12:34:53Z</time>
      </trkpt>
      <trkpt lat="45.19631" lon="5.65482">
        <ele>765</ele>
        <time>2021-01-30T12:34:58Z</time>
      </trkpt>
      <trkpt lat="45.19621" lon="5.65483">
        <ele>763.4</ele>
        <time>2021-01-30T12:35:03Z</time>
      </trkpt>
      <trkpt lat="45.19609" lon="5.65485">
        <ele>759.8</ele>
        <time>2021-01-30T12:35:08Z</time>
      </trkpt>
      <trkpt lat="45.19601" lon="5.65481">
        <ele>758.4</ele>
        <time>2021-01-30T12:35:13Z</time>
      </trkpt>
      <trkpt lat="45.1959" lon="5.65482">
        <ele>761.2</ele>
        <time>2021-01-30T12:35:19Z</time>
      </trkpt>
      <trkpt lat="45.19579" lon="5.65481">
        <ele>758.4</ele>
        <time>2021-01-30T12:35:23Z</time>
      </trkpt>
      <trkpt lat="45.19569" lon="5.65483">
        <ele>757.2</ele>
        <time>2021-01-30T12:35:27Z</time>
      </trkpt>
      <trkpt lat="45.1956" lon="5.6549">
        <ele>752.8</ele>
        <time>2021-01-30T12:35:34Z</time>
      </trkpt>
      <trkpt lat="45.1955" lon="5.65489">
        <ele>746.6</ele>
        <time>2021-01-30T12:35:40Z</time>
      </trkpt>
      <trkpt lat="45.19541" lon="5.65494">
        <ele>743.4</ele>
        <time>2021-01-30T12:35:45Z</time>
      </trkpt>
      <trkpt lat="45.19532" lon="5.65497">
        <ele>740</ele>
        <time>2021-01-30T12:35:53Z</time>
      </trkpt>
      <trkpt lat="45.19524" lon="5.65506">
        <ele>733.4</ele>
        <time>2021-01-30T12:36:00Z</time>
      </trkpt>
      <trkpt lat="45.19514" lon="5.65507">
        <ele>729.8</ele>
        <time>2021-01-30T12:36:07Z</time>
      </trkpt>
      <trkpt lat="45.19504" lon="5.65507">
        <ele>723.6</ele>
        <time>2021-01-30T12:36:15Z</time>
      </trkpt>
      <trkpt lat="45.19494" lon="5.6551">
        <ele>719.8</ele>
        <time>2021-01-30T12:36:20Z</time>
      </trkpt>
      <trkpt lat="45.19483" lon="5.65513">
        <ele>716.6</ele>
        <time>2021-01-30T12:36:25Z</time>
      </trkpt>
      <trkpt lat="45.19473" lon="5.65516">
        <ele>714.8</ele>
        <time>2021-01-30T12:36:29Z</time>
      </trkpt>
      <trkpt lat="45.19463" lon="5.65515">
        <ele>712.2</ele>
        <time>2021-01-30T12:36:33Z</time>
      </trkpt>
      <trkpt lat="45.19452" lon="5.65516">
        <ele>707.6</ele>
        <time>2021-01-30T12:36:39Z</time>
      </trkpt>
      <trkpt lat="45.19443" lon="5.65512">
        <ele>708.2</ele>
        <time>2021-01-30T12:36:43Z</time>
      </trkpt>
      <trkpt lat="45.19433" lon="5.65509">
        <ele>707.6</ele>
        <time>2021-01-30T12:36:48Z</time>
      </trkpt>
      <trkpt lat="45.19422" lon="5.65507">
        <ele>706.8</ele>
        <time>2021-01-30T12:36:54Z</time>
      </trkpt>
      <trkpt lat="45.19412" lon="5.655">
        <ele>706.4</ele>
        <time>2021-01-30T12:36:57Z</time>
      </trkpt>
      <trkpt lat="45.19402" lon="5.65495">
        <ele>705.8</ele>
        <time>2021-01-30T12:37:01Z</time>
      </trkpt>
      <trkpt lat="45.19391" lon="5.65499">
        <ele>705.4</ele>
        <time>2021-01-30T12:37:06Z</time>
      </trkpt>
      <trkpt lat="45.19386" lon="5.65512">
        <ele>705</ele>
        <time>2021-01-30T12:37:09Z</time>
      </trkpt>
      <trkpt lat="45.1939" lon="5.65525">
        <ele>704.4</ele>
        <time>2021-01-30T12:37:14Z</time>
      </trkpt>
      <trkpt lat="45.1938" lon="5.65529">
        <ele>702.6</ele>
        <time>2021-01-30T12:37:26Z</time>
      </trkpt>
      <trkpt lat="45.1938" lon="5.65544">
        <ele>702</ele>
        <time>2021-01-30T12:37:30Z</time>
      </trkpt>
      <trkpt lat="45.19384" lon="5.65558">
        <ele>701.4</ele>
        <time>2021-01-30T12:37:35Z</time>
      </trkpt>
      <trkpt lat="45.19385" lon="5.6557">
        <ele>701.2</ele>
        <time>2021-01-30T12:37:40Z</time>
      </trkpt>
      <trkpt lat="45.19387" lon="5.65584">
        <ele>701</ele>
        <time>2021-01-30T12:37:46Z</time>
      </trkpt>
      <trkpt lat="45.19389" lon="5.65597">
        <ele>700.6</ele>
        <time>2021-01-30T12:37:51Z</time>
      </trkpt>
      <trkpt lat="45.19393" lon="5.6561">
        <ele>700.4</ele>
        <time>2021-01-30T12:37:55Z</time>
      </trkpt>
      <trkpt lat="45.194" lon="5.6562">
        <ele>700</ele>
        <time>2021-01-30T12:38:02Z</time>
      </trkpt>
      <trkpt lat="45.19406" lon="5.65632">
        <ele>699.6</ele>
        <time>2021-01-30T12:38:08Z</time>
      </trkpt>
      <trkpt lat="45.19409" lon="5.65645">
        <ele>699.4</ele>
        <time>2021-01-30T12:38:13Z</time>
      </trkpt>
      <trkpt lat="45.19409" lon="5.65658">
        <ele>699</ele>
        <time>2021-01-30T12:38:18Z</time>
      </trkpt>
      <trkpt lat="45.19419" lon="5.65668">
        <ele>698.8</ele>
        <time>2021-01-30T12:38:23Z</time>
      </trkpt>
      <trkpt lat="45.19412" lon="5.65679">
        <ele>698.4</ele>
        <time>2021-01-30T12:38:30Z</time>
      </trkpt>
      <trkpt lat="45.19406" lon="5.6569">
        <ele>698.2</ele>
        <time>2021-01-30T12:38:34Z</time>
      </trkpt>
      <trkpt lat="45.19405" lon="5.65704">
        <ele>698</ele>
        <time>2021-01-30T12:38:38Z</time>
      </trkpt>
      <trkpt lat="45.1941" lon="5.65715">
        <ele>697.8</ele>
        <time>2021-01-30T12:38:43Z</time>
      </trkpt>
      <trkpt lat="45.19413" lon="5.65728">
        <ele>697.6</ele>
        <time>2021-01-30T12:38:47Z</time>
      </trkpt>
      <trkpt lat="45.19418" lon="5.65738">
        <ele>697.4</ele>
        <time>2021-01-30T12:38:51Z</time>
      </trkpt>
      <trkpt lat="45.19416" lon="5.65751">
        <ele>697.2</ele>
        <time>2021-01-30T12:38:57Z</time>
      </trkpt>
      <trkpt lat="45.19405" lon="5.65754">
        <ele>696.6</ele>
        <time>2021-01-30T12:39:07Z</time>
      </trkpt>
      <trkpt lat="45.19397" lon="5.65761">
        <ele>696.4</ele>
        <time>2021-01-30T12:39:11Z</time>
      </trkpt>
      <trkpt lat="45.19386" lon="5.65766">
        <ele>696</ele>
        <time>2021-01-30T12:39:19Z</time>
      </trkpt>
      <trkpt lat="45.19377" lon="5.65767">
        <ele>695.2</ele>
        <time>2021-01-30T12:39:29Z</time>
      </trkpt>
      <trkpt lat="45.19367" lon="5.65773">
        <ele>694.8</ele>
        <time>2021-01-30T12:39:36Z</time>
      </trkpt>
      <trkpt lat="45.19357" lon="5.65778">
        <ele>694.2</ele>
        <time>2021-01-30T12:39:44Z</time>
      </trkpt>
      <trkpt lat="45.19348" lon="5.65782">
        <ele>693.8</ele>
        <time>2021-01-30T12:39:51Z</time>
      </trkpt>
      <trkpt lat="45.19339" lon="5.65791">
        <ele>693.2</ele>
        <time>2021-01-30T12:39:56Z</time>
      </trkpt>
      <trkpt lat="45.1933" lon="5.65795">
        <ele>692.6</ele>
        <time>2021-01-30T12:40:04Z</time>
      </trkpt>
      <trkpt lat="45.1932" lon="5.658">
        <ele>692.2</ele>
        <time>2021-01-30T12:40:10Z</time>
      </trkpt>
      <trkpt lat="45.19311" lon="5.65797">
        <ele>691.6</ele>
        <time>2021-01-30T12:40:18Z</time>
      </trkpt>
      <trkpt lat="45.193" lon="5.65797">
        <ele>690.8</ele>
        <time>2021-01-30T12:40:26Z</time>
      </trkpt>
      <trkpt lat="45.19292" lon="5.65804">
        <ele>690.6</ele>
        <time>2021-01-30T12:40:30Z</time>
      </trkpt>
      <trkpt lat="45.19284" lon="5.65813">
        <ele>690</ele>
        <time>2021-01-30T12:40:35Z</time>
      </trkpt>
      <trkpt lat="45.19276" lon="5.6582">
        <ele>689.2</ele>
        <time>2021-01-30T12:40:44Z</time>
      </trkpt>
      <trkpt lat="45.19269" lon="5.6583">
        <ele>688.8</ele>
        <time>2021-01-30T12:40:48Z</time>
      </trkpt>
      <trkpt lat="45.19262" lon="5.6584">
        <ele>688.2</ele>
        <time>2021-01-30T12:40:53Z</time>
      </trkpt>
      <trkpt lat="45.19255" lon="5.65848">
        <ele>687.8</ele>
        <time>2021-01-30T12:40:57Z</time>
      </trkpt>
      <trkpt lat="45.19247" lon="5.65858">
        <ele>687.4</ele>
        <time>2021-01-30T12:41:01Z</time>
      </trkpt>
      <trkpt lat="45.19239" lon="5.65864">
        <ele>686.8</ele>
        <time>2021-01-30T12:41:06Z</time>
      </trkpt>
      <trkpt lat="45.19229" lon="5.65872">
        <ele>686.4</ele>
        <time>2021-01-30T12:41:10Z</time>
      </trkpt>
      <trkpt lat="45.1922" lon="5.65875">
        <ele>686</ele>
        <time>2021-01-30T12:41:15Z</time>
      </trkpt>
      <trkpt lat="45.1921" lon="5.6588">
        <ele>685.4</ele>
        <time>2021-01-30T12:41:21Z</time>
      </trkpt>
      <trkpt lat="45.19201" lon="5.65889">
        <ele>685</ele>
        <time>2021-01-30T12:41:25Z</time>
      </trkpt>
      <trkpt lat="45.19196" lon="5.65902">
        <ele>684.4</ele>
        <time>2021-01-30T12:41:29Z</time>
      </trkpt>
      <trkpt lat="45.19189" lon="5.65913">
        <ele>684</ele>
        <time>2021-01-30T12:41:33Z</time>
      </trkpt>
      <trkpt lat="45.19179" lon="5.65917">
        <ele>683.6</ele>
        <time>2021-01-30T12:41:38Z</time>
      </trkpt>
      <trkpt lat="45.19169" lon="5.65927">
        <ele>683.2</ele>
        <time>2021-01-30T12:41:42Z</time>
      </trkpt>
      <trkpt lat="45.1916" lon="5.65932">
        <ele>682.4</ele>
        <time>2021-01-30T12:41:49Z</time>
      </trkpt>
      <trkpt lat="45.19152" lon="5.6594">
        <ele>682</ele>
        <time>2021-01-30T12:41:54Z</time>
      </trkpt>
      <trkpt lat="45.19144" lon="5.65948">
        <ele>681.6</ele>
        <time>2021-01-30T12:41:58Z</time>
      </trkpt>
      <trkpt lat="45.19136" lon="5.65956">
        <ele>681.2</ele>
        <time>2021-01-30T12:42:02Z</time>
      </trkpt>
      <trkpt lat="45.19129" lon="5.65966">
        <ele>680.6</ele>
        <time>2021-01-30T12:42:06Z</time>
      </trkpt>
      <trkpt lat="45.19118" lon="5.65969">
        <ele>680</ele>
        <time>2021-01-30T12:42:11Z</time>
      </trkpt>
      <trkpt lat="45.19109" lon="5.65969">
        <ele>679.6</ele>
        <time>2021-01-30T12:42:16Z</time>
      </trkpt>
      <trkpt lat="45.19098" lon="5.65968">
        <ele>679</ele>
        <time>2021-01-30T12:42:21Z</time>
      </trkpt>
      <trkpt lat="45.19089" lon="5.65964">
        <ele>678.6</ele>
        <time>2021-01-30T12:42:25Z</time>
      </trkpt>
      <trkpt lat="45.1908" lon="5.65963">
        <ele>678</ele>
        <time>2021-01-30T12:42:30Z</time>
      </trkpt>
      <trkpt lat="45.1907" lon="5.6596">
        <ele>677.4</ele>
        <time>2021-01-30T12:42:35Z</time>
      </trkpt>
      <trkpt lat="45.19061" lon="5.65957">
        <ele>676.8</ele>
        <time>2021-01-30T12:42:39Z</time>
      </trkpt>
      <trkpt lat="45.19052" lon="5.65958">
        <ele>676.4</ele>
        <time>2021-01-30T12:42:44Z</time>
      </trkpt>
      <trkpt lat="45.19041" lon="5.65959">
        <ele>675.8</ele>
        <time>2021-01-30T12:42:48Z</time>
      </trkpt>
      <trkpt lat="45.19031" lon="5.65958">
        <ele>675.2</ele>
        <time>2021-01-30T12:42:53Z</time>
      </trkpt>
      <trkpt lat="45.1902" lon="5.65955">
        <ele>674.6</ele>
        <time>2021-01-30T12:42:58Z</time>
      </trkpt>
      <trkpt lat="45.19009" lon="5.65961">
        <ele>674.2</ele>
        <time>2021-01-30T12:43:01Z</time>
      </trkpt>
      <trkpt lat="45.18998" lon="5.65967">
        <ele>673.8</ele>
        <time>2021-01-30T12:43:05Z</time>
      </trkpt>
      <trkpt lat="45.18989" lon="5.65978">
        <ele>673.2</ele>
        <time>2021-01-30T12:43:09Z</time>
      </trkpt>
      <trkpt lat="45.18982" lon="5.65991">
        <ele>672.8</ele>
        <time>2021-01-30T12:43:13Z</time>
      </trkpt>
      <trkpt lat="45.18975" lon="5.66004">
        <ele>672.2</ele>
        <time>2021-01-30T12:43:17Z</time>
      </trkpt>
      <trkpt lat="45.18981" lon="5.66014">
        <ele>672</ele>
        <time>2021-01-30T12:43:20Z</time>
      </trkpt>
      <trkpt lat="45.1899" lon="5.66027">
        <ele>671.4</ele>
        <time>2021-01-30T12:43:23Z</time>
      </trkpt>
      <trkpt lat="45.18993" lon="5.66039">
        <ele>671</ele>
        <time>2021-01-30T12:43:28Z</time>
      </trkpt>
      <trkpt lat="45.18985" lon="5.66044">
        <ele>669.6</ele>
        <time>2021-01-30T12:43:38Z</time>
      </trkpt>
      <trkpt lat="45.18979" lon="5.66034">
        <ele>668.8</ele>
        <time>2021-01-30T12:43:44Z</time>
      </trkpt>
      <trkpt lat="45.18969" lon="5.66032">
        <ele>668.4</ele>
        <time>2021-01-30T12:43:48Z</time>
      </trkpt>
      <trkpt lat="45.18959" lon="5.6603">
        <ele>667.8</ele>
        <time>2021-01-30T12:43:52Z</time>
      </trkpt>
      <trkpt lat="45.1895" lon="5.66027">
        <ele>667.2</ele>
        <time>2021-01-30T12:43:56Z</time>
      </trkpt>
      <trkpt lat="45.18941" lon="5.66022">
        <ele>666.8</ele>
        <time>2021-01-30T12:44:00Z</time>
      </trkpt>
      <trkpt lat="45.18931" lon="5.66018">
        <ele>666.2</ele>
        <time>2021-01-30T12:44:04Z</time>
      </trkpt>
      <trkpt lat="45.1892" lon="5.66024">
        <ele>665.8</ele>
        <time>2021-01-30T12:44:07Z</time>
      </trkpt>
      <trkpt lat="45.1891" lon="5.66031">
        <ele>665.6</ele>
        <time>2021-01-30T12:44:09Z</time>
      </trkpt>
      <trkpt lat="45.18902" lon="5.66039">
        <ele>665.2</ele>
        <time>2021-01-30T12:44:11Z</time>
      </trkpt>
      <trkpt lat="45.18894" lon="5.66053">
        <ele>665</ele>
        <time>2021-01-30T12:44:14Z</time>
      </trkpt>
      <trkpt lat="45.18887" lon="5.66063">
        <ele>664.4</ele>
        <time>2021-01-30T12:44:18Z</time>
      </trkpt>
      <trkpt lat="45.18877" lon="5.66069">
        <ele>663.6</ele>
        <time>2021-01-30T12:44:24Z</time>
      </trkpt>
      <trkpt lat="45.18868" lon="5.66071">
        <ele>663</ele>
        <time>2021-01-30T12:44:28Z</time>
      </trkpt>
      <trkpt lat="45.18858" lon="5.6608">
        <ele>662.6</ele>
        <time>2021-01-30T12:44:31Z</time>
      </trkpt>
      <trkpt lat="45.1885" lon="5.66088">
        <ele>662.4</ele>
        <time>2021-01-30T12:44:33Z</time>
      </trkpt>
      <trkpt lat="45.18841" lon="5.66098">
        <ele>662</ele>
        <time>2021-01-30T12:44:36Z</time>
      </trkpt>
      <trkpt lat="45.18835" lon="5.66107">
        <ele>661.6</ele>
        <time>2021-01-30T12:44:39Z</time>
      </trkpt>
      <trkpt lat="45.18828" lon="5.66117">
        <ele>661.2</ele>
        <time>2021-01-30T12:44:42Z</time>
      </trkpt>
      <trkpt lat="45.18822" lon="5.66129">
        <ele>660</ele>
        <time>2021-01-30T12:44:45Z</time>
      </trkpt>
      <trkpt lat="45.18816" lon="5.66139">
        <ele>658.8</ele>
        <time>2021-01-30T12:44:48Z</time>
      </trkpt>
      <trkpt lat="45.18812" lon="5.66156">
        <ele>657.6</ele>
        <time>2021-01-30T12:44:51Z</time>
      </trkpt>
      <trkpt lat="45.18809" lon="5.66171">
        <ele>656.4</ele>
        <time>2021-01-30T12:44:54Z</time>
      </trkpt>
      <trkpt lat="45.18809" lon="5.66184">
        <ele>655.2</ele>
        <time>2021-01-30T12:44:57Z</time>
      </trkpt>
      <trkpt lat="45.18809" lon="5.66188">
        <ele>654.8</ele>
        <time>2021-01-30T12:44:58Z</time>
      </trkpt>
      <trkpt lat="45.18808" lon="5.66193">
        <ele>654.4</ele>
        <time>2021-01-30T12:44:59Z</time>
      </trkpt>
      <trkpt lat="45.18809" lon="5.66198">
        <ele>654</ele>
        <time>2021-01-30T12:45:00Z</time>
      </trkpt>
      <trkpt lat="45.18809" lon="5.66201">
        <ele>653.6</ele>
        <time>2021-01-30T12:45:01Z</time>
      </trkpt>
      <trkpt lat="45.18809" lon="5.66208">
        <ele>652.8</ele>
        <time>2021-01-30T12:45:03Z</time>
      </trkpt>
      <trkpt lat="45.1881" lon="5.66224">
        <ele>651.2</ele>
        <time>2021-01-30T12:45:07Z</time>
      </trkpt>
      <trkpt lat="45.18812" lon="5.66237">
        <ele>649.6</ele>
        <time>2021-01-30T12:45:11Z</time>
      </trkpt>
      <trkpt lat="45.18806" lon="5.66246">
        <ele>645.6</ele>
        <time>2021-01-30T12:45:21Z</time>
      </trkpt>
      <trkpt lat="45.18803" lon="5.66231">
        <ele>642.4</ele>
        <time>2021-01-30T12:45:30Z</time>
      </trkpt>
      <trkpt lat="45.188" lon="5.66217">
        <ele>641.2</ele>
        <time>2021-01-30T12:45:36Z</time>
      </trkpt>
      <trkpt lat="45.18797" lon="5.66202">
        <ele>639.8</ele>
        <time>2021-01-30T12:45:41Z</time>
      </trkpt>
      <trkpt lat="45.1879" lon="5.66193">
        <ele>639</ele>
        <time>2021-01-30T12:45:46Z</time>
      </trkpt>
      <trkpt lat="45.1878" lon="5.6619">
        <ele>638.4</ele>
        <time>2021-01-30T12:45:51Z</time>
      </trkpt>
      <trkpt lat="45.1877" lon="5.66191">
        <ele>638</ele>
        <time>2021-01-30T12:45:55Z</time>
      </trkpt>
      <trkpt lat="45.18762" lon="5.66185">
        <ele>637.2</ele>
        <time>2021-01-30T12:46:01Z</time>
      </trkpt>
      <trkpt lat="45.18752" lon="5.6619">
        <ele>636.6</ele>
        <time>2021-01-30T12:46:04Z</time>
      </trkpt>
      <trkpt lat="45.18744" lon="5.66197">
        <ele>635.6</ele>
        <time>2021-01-30T12:46:07Z</time>
      </trkpt>
      <trkpt lat="45.18736" lon="5.66203">
        <ele>634.6</ele>
        <time>2021-01-30T12:46:10Z</time>
      </trkpt>
      <trkpt lat="45.18727" lon="5.66211">
        <ele>632.8</ele>
        <time>2021-01-30T12:46:15Z</time>
      </trkpt>
      <trkpt lat="45.18717" lon="5.66215">
        <ele>630.6</ele>
        <time>2021-01-30T12:46:22Z</time>
      </trkpt>
      <trkpt lat="45.18707" lon="5.66218">
        <ele>629.4</ele>
        <time>2021-01-30T12:46:29Z</time>
      </trkpt>
      <trkpt lat="45.18697" lon="5.66224">
        <ele>629</ele>
        <time>2021-01-30T12:46:33Z</time>
      </trkpt>
      <trkpt lat="45.1869" lon="5.66233">
        <ele>628.6</ele>
        <time>2021-01-30T12:46:37Z</time>
      </trkpt>
      <trkpt lat="45.18682" lon="5.6624">
        <ele>628</ele>
        <time>2021-01-30T12:46:41Z</time>
      </trkpt>
      <trkpt lat="45.18674" lon="5.6625">
        <ele>627.6</ele>
        <time>2021-01-30T12:46:46Z</time>
      </trkpt>
      <trkpt lat="45.18666" lon="5.66259">
        <ele>627.2</ele>
        <time>2021-01-30T12:46:50Z</time>
      </trkpt>
      <trkpt lat="45.18662" lon="5.66273">
        <ele>626.4</ele>
        <time>2021-01-30T12:46:56Z</time>
      </trkpt>
      <trkpt lat="45.18657" lon="5.66285">
        <ele>625.8</ele>
        <time>2021-01-30T12:47:01Z</time>
      </trkpt>
      <trkpt lat="45.18652" lon="5.6629">
        <ele>625.4</ele>
        <time>2021-01-30T12:47:05Z</time>
      </trkpt>
      <trkpt lat="45.18642" lon="5.66295">
        <ele>624.6</ele>
        <time>2021-01-30T12:47:12Z</time>
      </trkpt>
      <trkpt lat="45.18633" lon="5.663">
        <ele>624.2</ele>
        <time>2021-01-30T12:47:16Z</time>
      </trkpt>
      <trkpt lat="45.18622" lon="5.66306">
        <ele>623.8</ele>
        <time>2021-01-30T12:47:20Z</time>
      </trkpt>
      <trkpt lat="45.18611" lon="5.66308">
        <ele>623.4</ele>
        <time>2021-01-30T12:47:24Z</time>
      </trkpt>
      <trkpt lat="45.18609" lon="5.6631">
        <ele>623.2</ele>
        <time>2021-01-30T12:47:25Z</time>
      </trkpt>
      <trkpt lat="45.18605" lon="5.66312">
        <ele>623.2</ele>
        <time>2021-01-30T12:47:26Z</time>
      </trkpt>
      <trkpt lat="45.18597" lon="5.66318">
        <ele>622.8</ele>
        <time>2021-01-30T12:47:29Z</time>
      </trkpt>
      <trkpt lat="45.18589" lon="5.66326">
        <ele>622.4</ele>
        <time>2021-01-30T12:47:32Z</time>
      </trkpt>
      <trkpt lat="45.18586" lon="5.66329">
        <ele>622.4</ele>
        <time>2021-01-30T12:47:33Z</time>
      </trkpt>
      <trkpt lat="45.18584" lon="5.66331">
        <ele>622.2</ele>
        <time>2021-01-30T12:47:34Z</time>
      </trkpt>
      <trkpt lat="45.18582" lon="5.66334">
        <ele>622.2</ele>
        <time>2021-01-30T12:47:35Z</time>
      </trkpt>
      <trkpt lat="45.1858" lon="5.66337">
        <ele>622</ele>
        <time>2021-01-30T12:47:36Z</time>
      </trkpt>
      <trkpt lat="45.18578" lon="5.66339">
        <ele>622</ele>
        <time>2021-01-30T12:47:37Z</time>
      </trkpt>
      <trkpt lat="45.18576" lon="5.66342">
        <ele>621.8</ele>
        <time>2021-01-30T12:47:38Z</time>
      </trkpt>
      <trkpt lat="45.18575" lon="5.66345">
        <ele>621.8</ele>
        <time>2021-01-30T12:47:39Z</time>
      </trkpt>
      <trkpt lat="45.18574" lon="5.66347">
        <ele>621.6</ele>
        <time>2021-01-30T12:47:40Z</time>
      </trkpt>
      <trkpt lat="45.18574" lon="5.66351">
        <ele>621.4</ele>
        <time>2021-01-30T12:47:42Z</time>
      </trkpt>
      <trkpt lat="45.18574" lon="5.66354">
        <ele>621</ele>
        <time>2021-01-30T12:47:44Z</time>
      </trkpt>
      <trkpt lat="45.18573" lon="5.66357">
        <ele>620.4</ele>
        <time>2021-01-30T12:47:46Z</time>
      </trkpt>
      <trkpt lat="45.18573" lon="5.66362">
        <ele>620</ele>
        <time>2021-01-30T12:47:48Z</time>
      </trkpt>
      <trkpt lat="45.18572" lon="5.66366">
        <ele>619.4</ele>
        <time>2021-01-30T12:47:50Z</time>
      </trkpt>
      <trkpt lat="45.1857" lon="5.66369">
        <ele>619</ele>
        <time>2021-01-30T12:47:52Z</time>
      </trkpt>
      <trkpt lat="45.18568" lon="5.66372">
        <ele>618.4</ele>
        <time>2021-01-30T12:47:54Z</time>
      </trkpt>
      <trkpt lat="45.18566" lon="5.66375">
        <ele>617.8</ele>
        <time>2021-01-30T12:47:56Z</time>
      </trkpt>
      <trkpt lat="45.18565" lon="5.66377">
        <ele>617.6</ele>
        <time>2021-01-30T12:47:57Z</time>
      </trkpt>
      <trkpt lat="45.18563" lon="5.66378">
        <ele>616.2</ele>
        <time>2021-01-30T12:48:02Z</time>
      </trkpt>
      <trkpt lat="45.18554" lon="5.66382">
        <ele>614.6</ele>
        <time>2021-01-30T12:48:09Z</time>
      </trkpt>
      <trkpt lat="45.18547" lon="5.66391">
        <ele>613.8</ele>
        <time>2021-01-30T12:48:14Z</time>
      </trkpt>
      <trkpt lat="45.18543" lon="5.66406">
        <ele>613.4</ele>
        <time>2021-01-30T12:48:18Z</time>
      </trkpt>
      <trkpt lat="45.1854" lon="5.66418">
        <ele>613</ele>
        <time>2021-01-30T12:48:21Z</time>
      </trkpt>
      <trkpt lat="45.18539" lon="5.66421">
        <ele>613</ele>
        <time>2021-01-30T12:48:22Z</time>
      </trkpt>
      <trkpt lat="45.1854" lon="5.66424">
        <ele>612.8</ele>
        <time>2021-01-30T12:48:23Z</time>
      </trkpt>
      <trkpt lat="45.18542" lon="5.66439">
        <ele>612.4</ele>
        <time>2021-01-30T12:48:27Z</time>
      </trkpt>
      <trkpt lat="45.18541" lon="5.66452">
        <ele>611.4</ele>
        <time>2021-01-30T12:48:34Z</time>
      </trkpt>
      <trkpt lat="45.18533" lon="5.66459">
        <ele>610.6</ele>
        <time>2021-01-30T12:48:40Z</time>
      </trkpt>
      <trkpt lat="45.1853" lon="5.66472">
        <ele>610.2</ele>
        <time>2021-01-30T12:48:45Z</time>
      </trkpt>
      <trkpt lat="45.18532" lon="5.66487">
        <ele>609.4</ele>
        <time>2021-01-30T12:48:50Z</time>
      </trkpt>
      <trkpt lat="45.18534" lon="5.66502">
        <ele>608.8</ele>
        <time>2021-01-30T12:48:55Z</time>
      </trkpt>
      <trkpt lat="45.18532" lon="5.66515">
        <ele>608</ele>
        <time>2021-01-30T12:49:01Z</time>
      </trkpt>
      <trkpt lat="45.18527" lon="5.66527">
        <ele>607.2</ele>
        <time>2021-01-30T12:49:07Z</time>
      </trkpt>
      <trkpt lat="45.18525" lon="5.66531">
        <ele>607</ele>
        <time>2021-01-30T12:49:09Z</time>
      </trkpt>
      <trkpt lat="45.18524" lon="5.66534">
        <ele>606.8</ele>
        <time>2021-01-30T12:49:10Z</time>
      </trkpt>
      <trkpt lat="45.18523" lon="5.66536">
        <ele>606.6</ele>
        <time>2021-01-30T12:49:12Z</time>
      </trkpt>
      <trkpt lat="45.18522" lon="5.6654">
        <ele>606.2</ele>
        <time>2021-01-30T12:49:14Z</time>
      </trkpt>
      <trkpt lat="45.18518" lon="5.66553">
        <ele>605.4</ele>
        <time>2021-01-30T12:49:20Z</time>
      </trkpt>
      <trkpt lat="45.18518" lon="5.66558">
        <ele>605.2</ele>
        <time>2021-01-30T12:49:22Z</time>
      </trkpt>
      <trkpt lat="45.18518" lon="5.66561">
        <ele>605.2</ele>
        <time>2021-01-30T12:49:23Z</time>
      </trkpt>
      <trkpt lat="45.18517" lon="5.66564">
        <ele>604.8</ele>
        <time>2021-01-30T12:49:24Z</time>
      </trkpt>
      <trkpt lat="45.18517" lon="5.66568">
        <ele>604.6</ele>
        <time>2021-01-30T12:49:26Z</time>
      </trkpt>
      <trkpt lat="45.18516" lon="5.66582">
        <ele>603.8</ele>
        <time>2021-01-30T12:49:33Z</time>
      </trkpt>
      <trkpt lat="45.18522" lon="5.66595">
        <ele>603.2</ele>
        <time>2021-01-30T12:49:37Z</time>
      </trkpt>
      <trkpt lat="45.18527" lon="5.66606">
        <ele>601.8</ele>
        <time>2021-01-30T12:49:46Z</time>
      </trkpt>
      <trkpt lat="45.18523" lon="5.66618">
        <ele>601</ele>
        <time>2021-01-30T12:49:52Z</time>
      </trkpt>
      <trkpt lat="45.18519" lon="5.6663">
        <ele>600.4</ele>
        <time>2021-01-30T12:49:57Z</time>
      </trkpt>
      <trkpt lat="45.18518" lon="5.66636">
        <ele>599.6</ele>
        <time>2021-01-30T12:50:02Z</time>
      </trkpt>
      <trkpt lat="45.18517" lon="5.66639">
        <ele>599.4</ele>
        <time>2021-01-30T12:50:03Z</time>
      </trkpt>
      <trkpt lat="45.18518" lon="5.66641">
        <ele>599.2</ele>
        <time>2021-01-30T12:50:04Z</time>
      </trkpt>
      <trkpt lat="45.1852" lon="5.66644">
        <ele>599</ele>
        <time>2021-01-30T12:50:06Z</time>
      </trkpt>
      <trkpt lat="45.18522" lon="5.66644">
        <ele>598.6</ele>
        <time>2021-01-30T12:50:09Z</time>
      </trkpt>
      <trkpt lat="45.18532" lon="5.66651">
        <ele>597.6</ele>
        <time>2021-01-30T12:50:17Z</time>
      </trkpt>
      <trkpt lat="45.18541" lon="5.66654">
        <ele>597</ele>
        <time>2021-01-30T12:50:21Z</time>
      </trkpt>
      <trkpt lat="45.18552" lon="5.66661">
        <ele>596.4</ele>
        <time>2021-01-30T12:50:25Z</time>
      </trkpt>
      <trkpt lat="45.18558" lon="5.66672">
        <ele>595.6</ele>
        <time>2021-01-30T12:50:30Z</time>
      </trkpt>
      <trkpt lat="45.18558" lon="5.66687">
        <ele>595</ele>
        <time>2021-01-30T12:50:35Z</time>
      </trkpt>
      <trkpt lat="45.18555" lon="5.667">
        <ele>594.4</ele>
        <time>2021-01-30T12:50:39Z</time>
      </trkpt>
      <trkpt lat="45.1855" lon="5.66712">
        <ele>593.8</ele>
        <time>2021-01-30T12:50:43Z</time>
      </trkpt>
      <trkpt lat="45.18546" lon="5.66726">
        <ele>593.2</ele>
        <time>2021-01-30T12:50:47Z</time>
      </trkpt>
      <trkpt lat="45.18541" lon="5.66741">
        <ele>592.6</ele>
        <time>2021-01-30T12:50:51Z</time>
      </trkpt>
      <trkpt lat="45.1854" lon="5.66755">
        <ele>592.2</ele>
        <time>2021-01-30T12:50:54Z</time>
      </trkpt>
      <trkpt lat="45.1854" lon="5.66771">
        <ele>591.8</ele>
        <time>2021-01-30T12:50:57Z</time>
      </trkpt>
      <trkpt lat="45.18538" lon="5.66784">
        <ele>591.4</ele>
        <time>2021-01-30T12:51:00Z</time>
      </trkpt>
      <trkpt lat="45.18531" lon="5.66799">
        <ele>590.6</ele>
        <time>2021-01-30T12:51:04Z</time>
      </trkpt>
      <trkpt lat="45.18531" lon="5.66814">
        <ele>590</ele>
        <time>2021-01-30T12:51:07Z</time>
      </trkpt>
      <trkpt lat="45.18537" lon="5.66825">
        <ele>589.8</ele>
        <time>2021-01-30T12:51:10Z</time>
      </trkpt>
      <trkpt lat="45.18545" lon="5.66833">
        <ele>589.2</ele>
        <time>2021-01-30T12:51:13Z</time>
      </trkpt>
      <trkpt lat="45.18553" lon="5.6684">
        <ele>588.8</ele>
        <time>2021-01-30T12:51:16Z</time>
      </trkpt>
      <trkpt lat="45.18561" lon="5.66847">
        <ele>588.2</ele>
        <time>2021-01-30T12:51:19Z</time>
      </trkpt>
      <trkpt lat="45.18567" lon="5.6686">
        <ele>587.4</ele>
        <time>2021-01-30T12:51:24Z</time>
      </trkpt>
      <trkpt lat="45.1857" lon="5.66873">
        <ele>586.8</ele>
        <time>2021-01-30T12:51:28Z</time>
      </trkpt>
      <trkpt lat="45.18575" lon="5.66885">
        <ele>586.2</ele>
        <time>2021-01-30T12:51:32Z</time>
      </trkpt>
      <trkpt lat="45.18583" lon="5.66897">
        <ele>585.4</ele>
        <time>2021-01-30T12:51:37Z</time>
      </trkpt>
      <trkpt lat="45.1859" lon="5.66907">
        <ele>584.8</ele>
        <time>2021-01-30T12:51:41Z</time>
      </trkpt>
      <trkpt lat="45.18596" lon="5.66919">
        <ele>584.2</ele>
        <time>2021-01-30T12:51:45Z</time>
      </trkpt>
      <trkpt lat="45.18603" lon="5.6693">
        <ele>583.4</ele>
        <time>2021-01-30T12:51:50Z</time>
      </trkpt>
      <trkpt lat="45.18609" lon="5.66938">
        <ele>582.8</ele>
        <time>2021-01-30T12:51:54Z</time>
      </trkpt>
      <trkpt lat="45.18611" lon="5.6694">
        <ele>582.6</ele>
        <time>2021-01-30T12:51:55Z</time>
      </trkpt>
      <trkpt lat="45.18613" lon="5.66942">
        <ele>582.4</ele>
        <time>2021-01-30T12:51:56Z</time>
      </trkpt>
      <trkpt lat="45.18615" lon="5.66943">
        <ele>582.4</ele>
        <time>2021-01-30T12:51:57Z</time>
      </trkpt>
      <trkpt lat="45.18617" lon="5.66945">
        <ele>582.2</ele>
        <time>2021-01-30T12:51:58Z</time>
      </trkpt>
      <trkpt lat="45.1862" lon="5.66945">
        <ele>582</ele>
        <time>2021-01-30T12:51:59Z</time>
      </trkpt>
      <trkpt lat="45.18622" lon="5.66946">
        <ele>581.8</ele>
        <time>2021-01-30T12:52:00Z</time>
      </trkpt>
      <trkpt lat="45.18625" lon="5.66948">
        <ele>581.8</ele>
        <time>2021-01-30T12:52:01Z</time>
      </trkpt>
      <trkpt lat="45.18627" lon="5.66948">
        <ele>581.6</ele>
        <time>2021-01-30T12:52:02Z</time>
      </trkpt>
      <trkpt lat="45.18637" lon="5.6695">
        <ele>581</ele>
        <time>2021-01-30T12:52:07Z</time>
      </trkpt>
      <trkpt lat="45.18647" lon="5.66951">
        <ele>580.4</ele>
        <time>2021-01-30T12:52:11Z</time>
      </trkpt>
      <trkpt lat="45.18649" lon="5.66951">
        <ele>580.2</ele>
        <time>2021-01-30T12:52:12Z</time>
      </trkpt>
      <trkpt lat="45.18651" lon="5.66951">
        <ele>580</ele>
        <time>2021-01-30T12:52:13Z</time>
      </trkpt>
      <trkpt lat="45.18653" lon="5.66952">
        <ele>579.8</ele>
        <time>2021-01-30T12:52:14Z</time>
      </trkpt>
      <trkpt lat="45.18655" lon="5.66953">
        <ele>579.8</ele>
        <time>2021-01-30T12:52:15Z</time>
      </trkpt>
      <trkpt lat="45.18657" lon="5.66957">
        <ele>579.4</ele>
        <time>2021-01-30T12:52:17Z</time>
      </trkpt>
      <trkpt lat="45.18658" lon="5.6696">
        <ele>579.2</ele>
        <time>2021-01-30T12:52:19Z</time>
      </trkpt>
      <trkpt lat="45.18659" lon="5.66964">
        <ele>578.8</ele>
        <time>2021-01-30T12:52:21Z</time>
      </trkpt>
      <trkpt lat="45.18665" lon="5.66974">
        <ele>577.8</ele>
        <time>2021-01-30T12:52:26Z</time>
      </trkpt>
      <trkpt lat="45.18669" lon="5.66987">
        <ele>575.2</ele>
        <time>2021-01-30T12:52:32Z</time>
      </trkpt>
      <trkpt lat="45.18673" lon="5.66994">
        <ele>573.4</ele>
        <time>2021-01-30T12:52:36Z</time>
      </trkpt>
      <trkpt lat="45.18676" lon="5.66998">
        <ele>572.6</ele>
        <time>2021-01-30T12:52:38Z</time>
      </trkpt>
      <trkpt lat="45.18677" lon="5.67">
        <ele>572.2</ele>
        <time>2021-01-30T12:52:39Z</time>
      </trkpt>
      <trkpt lat="45.18679" lon="5.67002">
        <ele>571.6</ele>
        <time>2021-01-30T12:52:40Z</time>
      </trkpt>
      <trkpt lat="45.18682" lon="5.67004">
        <ele>571.2</ele>
        <time>2021-01-30T12:52:41Z</time>
      </trkpt>
      <trkpt lat="45.18683" lon="5.67006">
        <ele>570.6</ele>
        <time>2021-01-30T12:52:42Z</time>
      </trkpt>
      <trkpt lat="45.18687" lon="5.67008">
        <ele>569.8</ele>
        <time>2021-01-30T12:52:44Z</time>
      </trkpt>
      <trkpt lat="45.18688" lon="5.6701">
        <ele>568.8</ele>
        <time>2021-01-30T12:52:46Z</time>
      </trkpt>
      <trkpt lat="45.18688" lon="5.67015">
        <ele>567.6</ele>
        <time>2021-01-30T12:52:49Z</time>
      </trkpt>
      <trkpt lat="45.18689" lon="5.6702">
        <ele>566.6</ele>
        <time>2021-01-30T12:52:51Z</time>
      </trkpt>
      <trkpt lat="45.1869" lon="5.67026">
        <ele>565.8</ele>
        <time>2021-01-30T12:52:53Z</time>
      </trkpt>
      <trkpt lat="45.18691" lon="5.67029">
        <ele>565.2</ele>
        <time>2021-01-30T12:52:54Z</time>
      </trkpt>
      <trkpt lat="45.18692" lon="5.67031">
        <ele>565.2</ele>
        <time>2021-01-30T12:52:55Z</time>
      </trkpt>
      <trkpt lat="45.18693" lon="5.67035">
        <ele>564.6</ele>
        <time>2021-01-30T12:52:56Z</time>
      </trkpt>
      <trkpt lat="45.18694" lon="5.67038">
        <ele>564.6</ele>
        <time>2021-01-30T12:52:57Z</time>
      </trkpt>
      <trkpt lat="45.18695" lon="5.67041">
        <ele>564.4</ele>
        <time>2021-01-30T12:52:58Z</time>
      </trkpt>
      <trkpt lat="45.18696" lon="5.67045">
        <ele>564.2</ele>
        <time>2021-01-30T12:52:59Z</time>
      </trkpt>
      <trkpt lat="45.18697" lon="5.67048">
        <ele>563.8</ele>
        <time>2021-01-30T12:53:00Z</time>
      </trkpt>
      <trkpt lat="45.18698" lon="5.67051">
        <ele>563.4</ele>
        <time>2021-01-30T12:53:01Z</time>
      </trkpt>
      <trkpt lat="45.18698" lon="5.67055">
        <ele>562.8</ele>
        <time>2021-01-30T12:53:02Z</time>
      </trkpt>
      <trkpt lat="45.18698" lon="5.67058">
        <ele>562.4</ele>
        <time>2021-01-30T12:53:03Z</time>
      </trkpt>
      <trkpt lat="45.18697" lon="5.67062">
        <ele>562</ele>
        <time>2021-01-30T12:53:04Z</time>
      </trkpt>
      <trkpt lat="45.18696" lon="5.67066">
        <ele>561.6</ele>
        <time>2021-01-30T12:53:05Z</time>
      </trkpt>
      <trkpt lat="45.18696" lon="5.67069">
        <ele>561</ele>
        <time>2021-01-30T12:53:06Z</time>
      </trkpt>
      <trkpt lat="45.18695" lon="5.67073">
        <ele>560.6</ele>
        <time>2021-01-30T12:53:07Z</time>
      </trkpt>
      <trkpt lat="45.18693" lon="5.67088">
        <ele>558.8</ele>
        <time>2021-01-30T12:53:11Z</time>
      </trkpt>
      <trkpt lat="45.18693" lon="5.67103">
        <ele>557</ele>
        <time>2021-01-30T12:53:15Z</time>
      </trkpt>
      <trkpt lat="45.18691" lon="5.67118">
        <ele>555.4</ele>
        <time>2021-01-30T12:53:19Z</time>
      </trkpt>
      <trkpt lat="45.18689" lon="5.67133">
        <ele>553.6</ele>
        <time>2021-01-30T12:53:23Z</time>
      </trkpt>
      <trkpt lat="45.18688" lon="5.67148">
        <ele>552</ele>
        <time>2021-01-30T12:53:27Z</time>
      </trkpt>
      <trkpt lat="45.18689" lon="5.67162">
        <ele>550.8</ele>
        <time>2021-01-30T12:53:30Z</time>
      </trkpt>
      <trkpt lat="45.18692" lon="5.67177">
        <ele>549.8</ele>
        <time>2021-01-30T12:53:33Z</time>
      </trkpt>
      <trkpt lat="45.187" lon="5.67188">
        <ele>548.6</ele>
        <time>2021-01-30T12:53:36Z</time>
      </trkpt>
      <trkpt lat="45.18711" lon="5.6719">
        <ele>547</ele>
        <time>2021-01-30T12:53:40Z</time>
      </trkpt>
      <trkpt lat="45.18721" lon="5.67191">
        <ele>546.2</ele>
        <time>2021-01-30T12:53:44Z</time>
      </trkpt>
      <trkpt lat="45.18732" lon="5.67193">
        <ele>545.8</ele>
        <time>2021-01-30T12:53:48Z</time>
      </trkpt>
      <trkpt lat="45.18738" lon="5.67195">
        <ele>545.4</ele>
        <time>2021-01-30T12:53:50Z</time>
      </trkpt>
      <trkpt lat="45.18749" lon="5.67198">
        <ele>544.8</ele>
        <time>2021-01-30T12:53:54Z</time>
      </trkpt>
      <trkpt lat="45.18754" lon="5.67201">
        <ele>544.6</ele>
        <time>2021-01-30T12:53:56Z</time>
      </trkpt>
      <trkpt lat="45.18757" lon="5.67202">
        <ele>544.6</ele>
        <time>2021-01-30T12:53:57Z</time>
      </trkpt>
      <trkpt lat="45.1876" lon="5.67203">
        <ele>544.4</ele>
        <time>2021-01-30T12:53:58Z</time>
      </trkpt>
      <trkpt lat="45.18769" lon="5.67211">
        <ele>543.8</ele>
        <time>2021-01-30T12:54:02Z</time>
      </trkpt>
      <trkpt lat="45.18774" lon="5.67215">
        <ele>543.4</ele>
        <time>2021-01-30T12:54:04Z</time>
      </trkpt>
      <trkpt lat="45.18781" lon="5.67222">
        <ele>542.8</ele>
        <time>2021-01-30T12:54:08Z</time>
      </trkpt>
      <trkpt lat="45.18784" lon="5.67224">
        <ele>542.6</ele>
        <time>2021-01-30T12:54:09Z</time>
      </trkpt>
      <trkpt lat="45.18793" lon="5.67231">
        <ele>541.4</ele>
        <time>2021-01-30T12:54:13Z</time>
      </trkpt>
      <trkpt lat="45.18801" lon="5.67238">
        <ele>540.6</ele>
        <time>2021-01-30T12:54:17Z</time>
      </trkpt>
      <trkpt lat="45.18804" lon="5.67239">
        <ele>540.2</ele>
        <time>2021-01-30T12:54:18Z</time>
      </trkpt>
      <trkpt lat="45.18806" lon="5.67241">
        <ele>539.8</ele>
        <time>2021-01-30T12:54:19Z</time>
      </trkpt>
      <trkpt lat="45.18808" lon="5.67242">
        <ele>539.4</ele>
        <time>2021-01-30T12:54:20Z</time>
      </trkpt>
      <trkpt lat="45.18811" lon="5.67243">
        <ele>539</ele>
        <time>2021-01-30T12:54:21Z</time>
      </trkpt>
      <trkpt lat="45.18814" lon="5.67243">
        <ele>538.6</ele>
        <time>2021-01-30T12:54:22Z</time>
      </trkpt>
      <trkpt lat="45.18817" lon="5.67245">
        <ele>538.2</ele>
        <time>2021-01-30T12:54:23Z</time>
      </trkpt>
      <trkpt lat="45.18819" lon="5.67246">
        <ele>538</ele>
        <time>2021-01-30T12:54:24Z</time>
      </trkpt>
      <trkpt lat="45.18822" lon="5.67249">
        <ele>537.8</ele>
        <time>2021-01-30T12:54:26Z</time>
      </trkpt>
      <trkpt lat="45.18822" lon="5.67253">
        <ele>537.6</ele>
        <time>2021-01-30T12:54:28Z</time>
      </trkpt>
      <trkpt lat="45.1882" lon="5.67255">
        <ele>537.2</ele>
        <time>2021-01-30T12:54:30Z</time>
      </trkpt>
      <trkpt lat="45.18811" lon="5.67261">
        <ele>536.4</ele>
        <time>2021-01-30T12:54:36Z</time>
      </trkpt>
      <trkpt lat="45.18802" lon="5.67268">
        <ele>535.8</ele>
        <time>2021-01-30T12:54:40Z</time>
      </trkpt>
      <trkpt lat="45.18795" lon="5.67278">
        <ele>535.2</ele>
        <time>2021-01-30T12:54:43Z</time>
      </trkpt>
      <trkpt lat="45.1879" lon="5.6729">
        <ele>534.6</ele>
        <time>2021-01-30T12:54:47Z</time>
      </trkpt>
      <trkpt lat="45.18783" lon="5.67298">
        <ele>534</ele>
        <time>2021-01-30T12:54:51Z</time>
      </trkpt>
      <trkpt lat="45.18774" lon="5.6731">
        <ele>533.4</ele>
        <time>2021-01-30T12:54:55Z</time>
      </trkpt>
      <trkpt lat="45.18768" lon="5.67323">
        <ele>532.6</ele>
        <time>2021-01-30T12:54:59Z</time>
      </trkpt>
      <trkpt lat="45.18765" lon="5.67337">
        <ele>532.2</ele>
        <time>2021-01-30T12:55:02Z</time>
      </trkpt>
      <trkpt lat="45.18763" lon="5.6735">
        <ele>531.8</ele>
        <time>2021-01-30T12:55:05Z</time>
      </trkpt>
      <trkpt lat="45.18759" lon="5.67365">
        <ele>531</ele>
        <time>2021-01-30T12:55:09Z</time>
      </trkpt>
      <trkpt lat="45.18756" lon="5.67377">
        <ele>530.4</ele>
        <time>2021-01-30T12:55:13Z</time>
      </trkpt>
      <trkpt lat="45.18751" lon="5.67389">
        <ele>529.8</ele>
        <time>2021-01-30T12:55:17Z</time>
      </trkpt>
      <trkpt lat="45.18745" lon="5.67401">
        <ele>529.2</ele>
        <time>2021-01-30T12:55:21Z</time>
      </trkpt>
      <trkpt lat="45.1874" lon="5.67412">
        <ele>528.6</ele>
        <time>2021-01-30T12:55:24Z</time>
      </trkpt>
      <trkpt lat="45.18733" lon="5.67423">
        <ele>528</ele>
        <time>2021-01-30T12:55:28Z</time>
      </trkpt>
      <trkpt lat="45.1873" lon="5.67429">
        <ele>527.8</ele>
        <time>2021-01-30T12:55:30Z</time>
      </trkpt>
      <trkpt lat="45.18729" lon="5.67432">
        <ele>527.4</ele>
        <time>2021-01-30T12:55:31Z</time>
      </trkpt>
      <trkpt lat="45.18727" lon="5.67435">
        <ele>527.4</ele>
        <time>2021-01-30T12:55:32Z</time>
      </trkpt>
      <trkpt lat="45.18726" lon="5.67439">
        <ele>527.2</ele>
        <time>2021-01-30T12:55:33Z</time>
      </trkpt>
      <trkpt lat="45.18724" lon="5.67442">
        <ele>527</ele>
        <time>2021-01-30T12:55:34Z</time>
      </trkpt>
      <trkpt lat="45.18724" lon="5.67451">
        <ele>526.8</ele>
        <time>2021-01-30T12:55:36Z</time>
      </trkpt>
      <trkpt lat="45.18724" lon="5.67455">
        <ele>526.4</ele>
        <time>2021-01-30T12:55:37Z</time>
      </trkpt>
      <trkpt lat="45.18726" lon="5.6746">
        <ele>526.4</ele>
        <time>2021-01-30T12:55:38Z</time>
      </trkpt>
      <trkpt lat="45.18728" lon="5.67464">
        <ele>526.2</ele>
        <time>2021-01-30T12:55:39Z</time>
      </trkpt>
      <trkpt lat="45.1873" lon="5.67468">
        <ele>526</ele>
        <time>2021-01-30T12:55:40Z</time>
      </trkpt>
      <trkpt lat="45.18737" lon="5.67479">
        <ele>525.4</ele>
        <time>2021-01-30T12:55:43Z</time>
      </trkpt>
      <trkpt lat="45.18744" lon="5.67488">
        <ele>525</ele>
        <time>2021-01-30T12:55:46Z</time>
      </trkpt>
      <trkpt lat="45.18746" lon="5.67491">
        <ele>524.8</ele>
        <time>2021-01-30T12:55:47Z</time>
      </trkpt>
      <trkpt lat="45.18748" lon="5.67494">
        <ele>524.8</ele>
        <time>2021-01-30T12:55:48Z</time>
      </trkpt>
      <trkpt lat="45.1875" lon="5.67497">
        <ele>524.4</ele>
        <time>2021-01-30T12:55:49Z</time>
      </trkpt>
      <trkpt lat="45.18752" lon="5.67499">
        <ele>524.4</ele>
        <time>2021-01-30T12:55:50Z</time>
      </trkpt>
      <trkpt lat="45.18753" lon="5.67502">
        <ele>524.2</ele>
        <time>2021-01-30T12:55:51Z</time>
      </trkpt>
      <trkpt lat="45.18754" lon="5.67506">
        <ele>524</ele>
        <time>2021-01-30T12:55:52Z</time>
      </trkpt>
      <trkpt lat="45.18755" lon="5.67508">
        <ele>523.8</ele>
        <time>2021-01-30T12:55:53Z</time>
      </trkpt>
      <trkpt lat="45.18756" lon="5.6751">
        <ele>523.6</ele>
        <time>2021-01-30T12:55:54Z</time>
      </trkpt>
      <trkpt lat="45.18758" lon="5.67512">
        <ele>523.4</ele>
        <time>2021-01-30T12:55:55Z</time>
      </trkpt>
      <trkpt lat="45.18759" lon="5.67515">
        <ele>523.4</ele>
        <time>2021-01-30T12:55:56Z</time>
      </trkpt>
      <trkpt lat="45.18761" lon="5.67517">
        <ele>523.2</ele>
        <time>2021-01-30T12:55:57Z</time>
      </trkpt>
      <trkpt lat="45.18764" lon="5.67523">
        <ele>522.8</ele>
        <time>2021-01-30T12:55:59Z</time>
      </trkpt>
      <trkpt lat="45.18766" lon="5.67527">
        <ele>522.6</ele>
        <time>2021-01-30T12:56:00Z</time>
      </trkpt>
      <trkpt lat="45.18766" lon="5.6753">
        <ele>522.4</ele>
        <time>2021-01-30T12:56:01Z</time>
      </trkpt>
      <trkpt lat="45.18767" lon="5.67533">
        <ele>522.4</ele>
        <time>2021-01-30T12:56:02Z</time>
      </trkpt>
      <trkpt lat="45.18769" lon="5.67537">
        <ele>522</ele>
        <time>2021-01-30T12:56:03Z</time>
      </trkpt>
      <trkpt lat="45.18769" lon="5.67541">
        <ele>522</ele>
        <time>2021-01-30T12:56:04Z</time>
      </trkpt>
      <trkpt lat="45.18771" lon="5.67544">
        <ele>521.8</ele>
        <time>2021-01-30T12:56:05Z</time>
      </trkpt>
      <trkpt lat="45.18772" lon="5.67547">
        <ele>521.6</ele>
        <time>2021-01-30T12:56:06Z</time>
      </trkpt>
      <trkpt lat="45.18773" lon="5.67551">
        <ele>521.4</ele>
        <time>2021-01-30T12:56:07Z</time>
      </trkpt>
      <trkpt lat="45.18774" lon="5.67554">
        <ele>521.4</ele>
        <time>2021-01-30T12:56:08Z</time>
      </trkpt>
      <trkpt lat="45.18774" lon="5.67557">
        <ele>521</ele>
        <time>2021-01-30T12:56:09Z</time>
      </trkpt>
      <trkpt lat="45.18774" lon="5.67561">
        <ele>520.8</ele>
        <time>2021-01-30T12:56:11Z</time>
      </trkpt>
      <trkpt lat="45.18772" lon="5.67563">
        <ele>520.6</ele>
        <time>2021-01-30T12:56:12Z</time>
      </trkpt>
      <trkpt lat="45.18769" lon="5.6757">
        <ele>520</ele>
        <time>2021-01-30T12:56:15Z</time>
      </trkpt>
      <trkpt lat="45.18762" lon="5.67579">
        <ele>519.4</ele>
        <time>2021-01-30T12:56:19Z</time>
      </trkpt>
      <trkpt lat="45.1876" lon="5.67581">
        <ele>519.2</ele>
        <time>2021-01-30T12:56:20Z</time>
      </trkpt>
      <trkpt lat="45.18758" lon="5.67583">
        <ele>519</ele>
        <time>2021-01-30T12:56:21Z</time>
      </trkpt>
      <trkpt lat="45.1875" lon="5.67594">
        <ele>518.4</ele>
        <time>2021-01-30T12:56:25Z</time>
      </trkpt>
      <trkpt lat="45.18743" lon="5.67607">
        <ele>517.6</ele>
        <time>2021-01-30T12:56:29Z</time>
      </trkpt>
      <trkpt lat="45.18742" lon="5.67609">
        <ele>517.6</ele>
        <time>2021-01-30T12:56:30Z</time>
      </trkpt>
      <trkpt lat="45.18739" lon="5.67615">
        <ele>517.2</ele>
        <time>2021-01-30T12:56:32Z</time>
      </trkpt>
      <trkpt lat="45.18737" lon="5.67622">
        <ele>517</ele>
        <time>2021-01-30T12:56:34Z</time>
      </trkpt>
      <trkpt lat="45.18735" lon="5.67632">
        <ele>516.4</ele>
        <time>2021-01-30T12:56:37Z</time>
      </trkpt>
      <trkpt lat="45.18734" lon="5.67635">
        <ele>516.2</ele>
        <time>2021-01-30T12:56:38Z</time>
      </trkpt>
      <trkpt lat="45.18733" lon="5.67639">
        <ele>516</ele>
        <time>2021-01-30T12:56:39Z</time>
      </trkpt>
      <trkpt lat="45.18733" lon="5.67643">
        <ele>515.8</ele>
        <time>2021-01-30T12:56:40Z</time>
      </trkpt>
      <trkpt lat="45.18732" lon="5.67646">
        <ele>515.6</ele>
        <time>2021-01-30T12:56:41Z</time>
      </trkpt>
      <trkpt lat="45.18731" lon="5.67649">
        <ele>515.6</ele>
        <time>2021-01-30T12:56:42Z</time>
      </trkpt>
      <trkpt lat="45.18731" lon="5.67652">
        <ele>515.2</ele>
        <time>2021-01-30T12:56:43Z</time>
      </trkpt>
      <trkpt lat="45.1873" lon="5.67656">
        <ele>515.2</ele>
        <time>2021-01-30T12:56:44Z</time>
      </trkpt>
      <trkpt lat="45.18729" lon="5.67659">
        <ele>515</ele>
        <time>2021-01-30T12:56:45Z</time>
      </trkpt>
      <trkpt lat="45.18727" lon="5.67664">
        <ele>514.6</ele>
        <time>2021-01-30T12:56:47Z</time>
      </trkpt>
      <trkpt lat="45.18726" lon="5.67667">
        <ele>514.6</ele>
        <time>2021-01-30T12:56:48Z</time>
      </trkpt>
      <trkpt lat="45.18723" lon="5.67671">
        <ele>514.2</ele>
        <time>2021-01-30T12:56:50Z</time>
      </trkpt>
      <trkpt lat="45.1872" lon="5.67673">
        <ele>513.8</ele>
        <time>2021-01-30T12:56:52Z</time>
      </trkpt>
      <trkpt lat="45.18711" lon="5.67679">
        <ele>512.8</ele>
        <time>2021-01-30T12:56:57Z</time>
      </trkpt>
      <trkpt lat="45.18703" lon="5.67686">
        <ele>512.2</ele>
        <time>2021-01-30T12:57:01Z</time>
      </trkpt>
      <trkpt lat="45.18699" lon="5.67689">
        <ele>511.8</ele>
        <time>2021-01-30T12:57:03Z</time>
      </trkpt>
      <trkpt lat="45.18691" lon="5.67695">
        <ele>511.2</ele>
        <time>2021-01-30T12:57:07Z</time>
      </trkpt>
      <trkpt lat="45.18687" lon="5.67699">
        <ele>510.6</ele>
        <time>2021-01-30T12:57:09Z</time>
      </trkpt>
      <trkpt lat="45.18684" lon="5.67702">
        <ele>510.2</ele>
        <time>2021-01-30T12:57:11Z</time>
      </trkpt>
      <trkpt lat="45.18682" lon="5.67703">
        <ele>510</ele>
        <time>2021-01-30T12:57:12Z</time>
      </trkpt>
      <trkpt lat="45.1868" lon="5.67705">
        <ele>509.8</ele>
        <time>2021-01-30T12:57:13Z</time>
      </trkpt>
      <trkpt lat="45.18678" lon="5.67707">
        <ele>509.8</ele>
        <time>2021-01-30T12:57:14Z</time>
      </trkpt>
      <trkpt lat="45.18676" lon="5.67708">
        <ele>509.4</ele>
        <time>2021-01-30T12:57:15Z</time>
      </trkpt>
      <trkpt lat="45.18674" lon="5.6771">
        <ele>509</ele>
        <time>2021-01-30T12:57:16Z</time>
      </trkpt>
      <trkpt lat="45.18673" lon="5.67711">
        <ele>508.4</ele>
        <time>2021-01-30T12:57:17Z</time>
      </trkpt>
      <trkpt lat="45.1867" lon="5.67712">
        <ele>508</ele>
        <time>2021-01-30T12:57:18Z</time>
      </trkpt>
      <trkpt lat="45.18662" lon="5.6772">
        <ele>505.8</ele>
        <time>2021-01-30T12:57:22Z</time>
      </trkpt>
      <trkpt lat="45.1866" lon="5.67722">
        <ele>505.2</ele>
        <time>2021-01-30T12:57:23Z</time>
      </trkpt>
      <trkpt lat="45.18658" lon="5.67724">
        <ele>504.8</ele>
        <time>2021-01-30T12:57:24Z</time>
      </trkpt>
      <trkpt lat="45.18653" lon="5.6773">
        <ele>503.8</ele>
        <time>2021-01-30T12:57:26Z</time>
      </trkpt>
      <trkpt lat="45.18651" lon="5.67733">
        <ele>503.2</ele>
        <time>2021-01-30T12:57:27Z</time>
      </trkpt>
      <trkpt lat="45.18649" lon="5.67736">
        <ele>502.8</ele>
        <time>2021-01-30T12:57:28Z</time>
      </trkpt>
      <trkpt lat="45.18647" lon="5.67738">
        <ele>502.2</ele>
        <time>2021-01-30T12:57:29Z</time>
      </trkpt>
      <trkpt lat="45.18645" lon="5.67741">
        <ele>501.6</ele>
        <time>2021-01-30T12:57:30Z</time>
      </trkpt>
      <trkpt lat="45.18643" lon="5.67743">
        <ele>501</ele>
        <time>2021-01-30T12:57:31Z</time>
      </trkpt>
      <trkpt lat="45.18641" lon="5.67746">
        <ele>500.6</ele>
        <time>2021-01-30T12:57:32Z</time>
      </trkpt>
      <trkpt lat="45.18639" lon="5.67749">
        <ele>500</ele>
        <time>2021-01-30T12:57:33Z</time>
      </trkpt>
      <trkpt lat="45.18637" lon="5.67752">
        <ele>499.6</ele>
        <time>2021-01-30T12:57:34Z</time>
      </trkpt>
      <trkpt lat="45.18635" lon="5.67755">
        <ele>499</ele>
        <time>2021-01-30T12:57:35Z</time>
      </trkpt>
      <trkpt lat="45.18634" lon="5.67758">
        <ele>498.6</ele>
        <time>2021-01-30T12:57:36Z</time>
      </trkpt>
      <trkpt lat="45.18632" lon="5.67762">
        <ele>498</ele>
        <time>2021-01-30T12:57:37Z</time>
      </trkpt>
      <trkpt lat="45.18631" lon="5.67765">
        <ele>497.6</ele>
        <time>2021-01-30T12:57:38Z</time>
      </trkpt>
      <trkpt lat="45.18627" lon="5.67771">
        <ele>496.6</ele>
        <time>2021-01-30T12:57:40Z</time>
      </trkpt>
      <trkpt lat="45.18625" lon="5.67774">
        <ele>496</ele>
        <time>2021-01-30T12:57:41Z</time>
      </trkpt>
      <trkpt lat="45.18623" lon="5.67777">
        <ele>495.6</ele>
        <time>2021-01-30T12:57:42Z</time>
      </trkpt>
      <trkpt lat="45.1862" lon="5.67781">
        <ele>495</ele>
        <time>2021-01-30T12:57:43Z</time>
      </trkpt>
      <trkpt lat="45.18619" lon="5.67784">
        <ele>494.6</ele>
        <time>2021-01-30T12:57:44Z</time>
      </trkpt>
      <trkpt lat="45.18616" lon="5.67787">
        <ele>494</ele>
        <time>2021-01-30T12:57:45Z</time>
      </trkpt>
      <trkpt lat="45.18614" lon="5.6779">
        <ele>493.6</ele>
        <time>2021-01-30T12:57:46Z</time>
      </trkpt>
      <trkpt lat="45.18612" lon="5.67793">
        <ele>493</ele>
        <time>2021-01-30T12:57:47Z</time>
      </trkpt>
      <trkpt lat="45.1861" lon="5.67796">
        <ele>492.6</ele>
        <time>2021-01-30T12:57:48Z</time>
      </trkpt>
      <trkpt lat="45.18609" lon="5.67799">
        <ele>492</ele>
        <time>2021-01-30T12:57:49Z</time>
      </trkpt>
      <trkpt lat="45.18607" lon="5.67802">
        <ele>491.6</ele>
        <time>2021-01-30T12:57:50Z</time>
      </trkpt>
      <trkpt lat="45.18605" lon="5.67805">
        <ele>491</ele>
        <time>2021-01-30T12:57:51Z</time>
      </trkpt>
      <trkpt lat="45.18604" lon="5.67808">
        <ele>490.6</ele>
        <time>2021-01-30T12:57:52Z</time>
      </trkpt>
      <trkpt lat="45.18602" lon="5.67811">
        <ele>490</ele>
        <time>2021-01-30T12:57:53Z</time>
      </trkpt>
      <trkpt lat="45.18601" lon="5.67814">
        <ele>489.6</ele>
        <time>2021-01-30T12:57:54Z</time>
      </trkpt>
      <trkpt lat="45.18599" lon="5.67818">
        <ele>489</ele>
        <time>2021-01-30T12:57:55Z</time>
      </trkpt>
      <trkpt lat="45.18597" lon="5.67821">
        <ele>488.6</ele>
        <time>2021-01-30T12:57:56Z</time>
      </trkpt>
      <trkpt lat="45.18596" lon="5.67824">
        <ele>488</ele>
        <time>2021-01-30T12:57:57Z</time>
      </trkpt>
      <trkpt lat="45.18593" lon="5.67828">
        <ele>487.6</ele>
        <time>2021-01-30T12:57:58Z</time>
      </trkpt>
      <trkpt lat="45.18592" lon="5.67831">
        <ele>487.4</ele>
        <time>2021-01-30T12:57:59Z</time>
      </trkpt>
      <trkpt lat="45.1859" lon="5.67834">
        <ele>487.2</ele>
        <time>2021-01-30T12:58:00Z</time>
      </trkpt>
      <trkpt lat="45.18588" lon="5.67837">
        <ele>487</ele>
        <time>2021-01-30T12:58:01Z</time>
      </trkpt>
      <trkpt lat="45.18586" lon="5.6784">
        <ele>487</ele>
        <time>2021-01-30T12:58:02Z</time>
      </trkpt>
      <trkpt lat="45.18584" lon="5.67843">
        <ele>486.6</ele>
        <time>2021-01-30T12:58:03Z</time>
      </trkpt>
      <trkpt lat="45.18583" lon="5.67847">
        <ele>486.6</ele>
        <time>2021-01-30T12:58:04Z</time>
      </trkpt>
      <trkpt lat="45.18581" lon="5.6785">
        <ele>486.4</ele>
        <time>2021-01-30T12:58:05Z</time>
      </trkpt>
      <trkpt lat="45.18579" lon="5.67853">
        <ele>486.2</ele>
        <time>2021-01-30T12:58:06Z</time>
      </trkpt>
      <trkpt lat="45.18577" lon="5.67857">
        <ele>486</ele>
        <time>2021-01-30T12:58:07Z</time>
      </trkpt>
      <trkpt lat="45.18575" lon="5.6786">
        <ele>486</ele>
        <time>2021-01-30T12:58:08Z</time>
      </trkpt>
      <trkpt lat="45.18573" lon="5.67863">
        <ele>485.6</ele>
        <time>2021-01-30T12:58:09Z</time>
      </trkpt>
      <trkpt lat="45.18571" lon="5.67866">
        <ele>485.6</ele>
        <time>2021-01-30T12:58:10Z</time>
      </trkpt>
      <trkpt lat="45.1857" lon="5.67869">
        <ele>485.4</ele>
        <time>2021-01-30T12:58:11Z</time>
      </trkpt>
      <trkpt lat="45.18569" lon="5.67872">
        <ele>485.2</ele>
        <time>2021-01-30T12:58:12Z</time>
      </trkpt>
      <trkpt lat="45.18567" lon="5.67875">
        <ele>485</ele>
        <time>2021-01-30T12:58:13Z</time>
      </trkpt>
      <trkpt lat="45.18566" lon="5.67878">
        <ele>485</ele>
        <time>2021-01-30T12:58:14Z</time>
      </trkpt>
      <trkpt lat="45.18564" lon="5.67881">
        <ele>484.8</ele>
        <time>2021-01-30T12:58:15Z</time>
      </trkpt>
      <trkpt lat="45.18563" lon="5.67885">
        <ele>484.6</ele>
        <time>2021-01-30T12:58:16Z</time>
      </trkpt>
      <trkpt lat="45.18561" lon="5.67888">
        <ele>484.4</ele>
        <time>2021-01-30T12:58:17Z</time>
      </trkpt>
      <trkpt lat="45.18559" lon="5.67892">
        <ele>484.2</ele>
        <time>2021-01-30T12:58:18Z</time>
      </trkpt>
      <trkpt lat="45.18557" lon="5.67896">
        <ele>484</ele>
        <time>2021-01-30T12:58:19Z</time>
      </trkpt>
      <trkpt lat="45.18557" lon="5.67899">
        <ele>484</ele>
        <time>2021-01-30T12:58:20Z</time>
      </trkpt>
      <trkpt lat="45.18557" lon="5.67903">
        <ele>483.8</ele>
        <time>2021-01-30T12:58:21Z</time>
      </trkpt>
      <trkpt lat="45.18556" lon="5.67908">
        <ele>483.6</ele>
        <time>2021-01-30T12:58:22Z</time>
      </trkpt>
      <trkpt lat="45.18556" lon="5.67912">
        <ele>483.4</ele>
        <time>2021-01-30T12:58:23Z</time>
      </trkpt>
      <trkpt lat="45.18555" lon="5.67916">
        <ele>483</ele>
        <time>2021-01-30T12:58:24Z</time>
      </trkpt>
      <trkpt lat="45.18555" lon="5.67919">
        <ele>482.6</ele>
        <time>2021-01-30T12:58:25Z</time>
      </trkpt>
      <trkpt lat="45.18555" lon="5.67923">
        <ele>482.2</ele>
        <time>2021-01-30T12:58:26Z</time>
      </trkpt>
      <trkpt lat="45.18555" lon="5.67926">
        <ele>482</ele>
        <time>2021-01-30T12:58:27Z</time>
      </trkpt>
      <trkpt lat="45.18554" lon="5.67929">
        <ele>481.6</ele>
        <time>2021-01-30T12:58:28Z</time>
      </trkpt>
      <trkpt lat="45.18553" lon="5.67937">
        <ele>480.4</ele>
        <time>2021-01-30T12:58:30Z</time>
      </trkpt>
      <trkpt lat="45.18552" lon="5.67941">
        <ele>480</ele>
        <time>2021-01-30T12:58:31Z</time>
      </trkpt>
      <trkpt lat="45.18552" lon="5.67945">
        <ele>479.8</ele>
        <time>2021-01-30T12:58:32Z</time>
      </trkpt>
      <trkpt lat="45.18552" lon="5.6795">
        <ele>479.6</ele>
        <time>2021-01-30T12:58:33Z</time>
      </trkpt>
      <trkpt lat="45.18552" lon="5.67954">
        <ele>479.4</ele>
        <time>2021-01-30T12:58:34Z</time>
      </trkpt>
      <trkpt lat="45.18552" lon="5.67958">
        <ele>479.2</ele>
        <time>2021-01-30T12:58:35Z</time>
      </trkpt>
      <trkpt lat="45.18552" lon="5.67963">
        <ele>478.8</ele>
        <time>2021-01-30T12:58:36Z</time>
      </trkpt>
      <trkpt lat="45.18554" lon="5.67976">
        <ele>477.6</ele>
        <time>2021-01-30T12:58:39Z</time>
      </trkpt>
      <trkpt lat="45.18556" lon="5.67984">
        <ele>476.6</ele>
        <time>2021-01-30T12:58:41Z</time>
      </trkpt>
      <trkpt lat="45.18558" lon="5.67989">
        <ele>476.2</ele>
        <time>2021-01-30T12:58:42Z</time>
      </trkpt>
      <trkpt lat="45.1856" lon="5.67993">
        <ele>476</ele>
        <time>2021-01-30T12:58:43Z</time>
      </trkpt>
      <trkpt lat="45.18562" lon="5.67997">
        <ele>475.8</ele>
        <time>2021-01-30T12:58:44Z</time>
      </trkpt>
      <trkpt lat="45.18564" lon="5.68001">
        <ele>475.6</ele>
        <time>2021-01-30T12:58:45Z</time>
      </trkpt>
      <trkpt lat="45.18565" lon="5.68005">
        <ele>475.6</ele>
        <time>2021-01-30T12:58:46Z</time>
      </trkpt>
      <trkpt lat="45.18567" lon="5.68009">
        <ele>475.2</ele>
        <time>2021-01-30T12:58:47Z</time>
      </trkpt>
      <trkpt lat="45.18567" lon="5.68012">
        <ele>475.2</ele>
        <time>2021-01-30T12:58:48Z</time>
      </trkpt>
      <trkpt lat="45.18568" lon="5.68017">
        <ele>474.8</ele>
        <time>2021-01-30T12:58:49Z</time>
      </trkpt>
      <trkpt lat="45.1857" lon="5.68022">
        <ele>474.8</ele>
        <time>2021-01-30T12:58:50Z</time>
      </trkpt>
      <trkpt lat="45.1857" lon="5.68027">
        <ele>474.6</ele>
        <time>2021-01-30T12:58:51Z</time>
      </trkpt>
      <trkpt lat="45.1857" lon="5.68031">
        <ele>474.4</ele>
        <time>2021-01-30T12:58:52Z</time>
      </trkpt>
      <trkpt lat="45.1857" lon="5.68035">
        <ele>474.2</ele>
        <time>2021-01-30T12:58:53Z</time>
      </trkpt>
      <trkpt lat="45.18569" lon="5.68039">
        <ele>473.8</ele>
        <time>2021-01-30T12:58:54Z</time>
      </trkpt>
      <trkpt lat="45.18569" lon="5.68044">
        <ele>473.6</ele>
        <time>2021-01-30T12:58:55Z</time>
      </trkpt>
      <trkpt lat="45.18569" lon="5.68048">
        <ele>473.4</ele>
        <time>2021-01-30T12:58:56Z</time>
      </trkpt>
      <trkpt lat="45.18569" lon="5.68052">
        <ele>473.2</ele>
        <time>2021-01-30T12:58:57Z</time>
      </trkpt>
      <trkpt lat="45.18568" lon="5.68056">
        <ele>473</ele>
        <time>2021-01-30T12:58:58Z</time>
      </trkpt>
      <trkpt lat="45.18568" lon="5.6806">
        <ele>472.8</ele>
        <time>2021-01-30T12:58:59Z</time>
      </trkpt>
      <trkpt lat="45.18567" lon="5.68063">
        <ele>472.8</ele>
        <time>2021-01-30T12:59:00Z</time>
      </trkpt>
      <trkpt lat="45.18565" lon="5.68066">
        <ele>472.4</ele>
        <time>2021-01-30T12:59:01Z</time>
      </trkpt>
      <trkpt lat="45.18564" lon="5.6807">
        <ele>472.4</ele>
        <time>2021-01-30T12:59:02Z</time>
      </trkpt>
      <trkpt lat="45.18562" lon="5.68073">
        <ele>472.2</ele>
        <time>2021-01-30T12:59:03Z</time>
      </trkpt>
      <trkpt lat="45.18561" lon="5.68076">
        <ele>472</ele>
        <time>2021-01-30T12:59:04Z</time>
      </trkpt>
      <trkpt lat="45.18559" lon="5.6808">
        <ele>471.8</ele>
        <time>2021-01-30T12:59:05Z</time>
      </trkpt>
      <trkpt lat="45.18559" lon="5.68083">
        <ele>471.8</ele>
        <time>2021-01-30T12:59:06Z</time>
      </trkpt>
      <trkpt lat="45.18558" lon="5.68086">
        <ele>471.4</ele>
        <time>2021-01-30T12:59:07Z</time>
      </trkpt>
      <trkpt lat="45.18556" lon="5.6809">
        <ele>471.4</ele>
        <time>2021-01-30T12:59:08Z</time>
      </trkpt>
      <trkpt lat="45.18555" lon="5.68093">
        <ele>471.2</ele>
        <time>2021-01-30T12:59:09Z</time>
      </trkpt>
      <trkpt lat="45.18554" lon="5.68096">
        <ele>471</ele>
        <time>2021-01-30T12:59:10Z</time>
      </trkpt>
      <trkpt lat="45.18554" lon="5.681">
        <ele>470.8</ele>
        <time>2021-01-30T12:59:11Z</time>
      </trkpt>
      <trkpt lat="45.18553" lon="5.68103">
        <ele>470.6</ele>
        <time>2021-01-30T12:59:12Z</time>
      </trkpt>
      <trkpt lat="45.18552" lon="5.68107">
        <ele>470.4</ele>
        <time>2021-01-30T12:59:13Z</time>
      </trkpt>
      <trkpt lat="45.18551" lon="5.6811">
        <ele>470.4</ele>
        <time>2021-01-30T12:59:14Z</time>
      </trkpt>
      <trkpt lat="45.1855" lon="5.68113">
        <ele>470</ele>
        <time>2021-01-30T12:59:15Z</time>
      </trkpt>
      <trkpt lat="45.18548" lon="5.68117">
        <ele>470</ele>
        <time>2021-01-30T12:59:16Z</time>
      </trkpt>
      <trkpt lat="45.18547" lon="5.6812">
        <ele>469.8</ele>
        <time>2021-01-30T12:59:17Z</time>
      </trkpt>
      <trkpt lat="45.18546" lon="5.68123">
        <ele>469.6</ele>
        <time>2021-01-30T12:59:18Z</time>
      </trkpt>
      <trkpt lat="45.18545" lon="5.68126">
        <ele>469.4</ele>
        <time>2021-01-30T12:59:19Z</time>
      </trkpt>
      <trkpt lat="45.18544" lon="5.68129">
        <ele>469.4</ele>
        <time>2021-01-30T12:59:20Z</time>
      </trkpt>
      <trkpt lat="45.18543" lon="5.68132">
        <ele>469</ele>
        <time>2021-01-30T12:59:21Z</time>
      </trkpt>
      <trkpt lat="45.18543" lon="5.68139">
        <ele>468.8</ele>
        <time>2021-01-30T12:59:23Z</time>
      </trkpt>
      <trkpt lat="45.18543" lon="5.68143">
        <ele>468.6</ele>
        <time>2021-01-30T12:59:24Z</time>
      </trkpt>
      <trkpt lat="45.18542" lon="5.68147">
        <ele>468.4</ele>
        <time>2021-01-30T12:59:25Z</time>
      </trkpt>
      <trkpt lat="45.18541" lon="5.68151">
        <ele>468.4</ele>
        <time>2021-01-30T12:59:26Z</time>
      </trkpt>
      <trkpt lat="45.1854" lon="5.68155">
        <ele>468</ele>
        <time>2021-01-30T12:59:27Z</time>
      </trkpt>
      <trkpt lat="45.18539" lon="5.68158">
        <ele>468</ele>
        <time>2021-01-30T12:59:28Z</time>
      </trkpt>
      <trkpt lat="45.18539" lon="5.68161">
        <ele>467.8</ele>
        <time>2021-01-30T12:59:29Z</time>
      </trkpt>
      <trkpt lat="45.18538" lon="5.68164">
        <ele>467.6</ele>
        <time>2021-01-30T12:59:30Z</time>
      </trkpt>
      <trkpt lat="45.18537" lon="5.68168">
        <ele>467.4</ele>
        <time>2021-01-30T12:59:31Z</time>
      </trkpt>
      <trkpt lat="45.18536" lon="5.68171">
        <ele>467.2</ele>
        <time>2021-01-30T12:59:32Z</time>
      </trkpt>
      <trkpt lat="45.18535" lon="5.68174">
        <ele>467</ele>
        <time>2021-01-30T12:59:33Z</time>
      </trkpt>
      <trkpt lat="45.18534" lon="5.68177">
        <ele>467</ele>
        <time>2021-01-30T12:59:34Z</time>
      </trkpt>
      <trkpt lat="45.1853" lon="5.68191">
        <ele>465.4</ele>
        <time>2021-01-30T12:59:38Z</time>
      </trkpt>
      <trkpt lat="45.18525" lon="5.68206">
        <ele>463.4</ele>
        <time>2021-01-30T12:59:42Z</time>
      </trkpt>
      <trkpt lat="45.18522" lon="5.68217">
        <ele>462</ele>
        <time>2021-01-30T12:59:45Z</time>
      </trkpt>
      <trkpt lat="45.18521" lon="5.68221">
        <ele>461.6</ele>
        <time>2021-01-30T12:59:46Z</time>
      </trkpt>
      <trkpt lat="45.1852" lon="5.68225">
        <ele>461.2</ele>
        <time>2021-01-30T12:59:47Z</time>
      </trkpt>
      <trkpt lat="45.18519" lon="5.68228">
        <ele>460.8</ele>
        <time>2021-01-30T12:59:48Z</time>
      </trkpt>
      <trkpt lat="45.18518" lon="5.68231">
        <ele>460.2</ele>
        <time>2021-01-30T12:59:49Z</time>
      </trkpt>
      <trkpt lat="45.18517" lon="5.68234">
        <ele>459.8</ele>
        <time>2021-01-30T12:59:50Z</time>
      </trkpt>
      <trkpt lat="45.18516" lon="5.68238">
        <ele>459.2</ele>
        <time>2021-01-30T12:59:51Z</time>
      </trkpt>
      <trkpt lat="45.18512" lon="5.68248">
        <ele>458</ele>
        <time>2021-01-30T12:59:54Z</time>
      </trkpt>
      <trkpt lat="45.1851" lon="5.68251">
        <ele>457.4</ele>
        <time>2021-01-30T12:59:55Z</time>
      </trkpt>
      <trkpt lat="45.18508" lon="5.68254">
        <ele>457</ele>
        <time>2021-01-30T12:59:56Z</time>
      </trkpt>
      <trkpt lat="45.18507" lon="5.68257">
        <ele>456.6</ele>
        <time>2021-01-30T12:59:57Z</time>
      </trkpt>
      <trkpt lat="45.18503" lon="5.68263">
        <ele>455.6</ele>
        <time>2021-01-30T12:59:59Z</time>
      </trkpt>
      <trkpt lat="45.18501" lon="5.68266">
        <ele>299.9</ele>
        <time>2021-01-30T13:00:00Z</time>
      </trkpt>
      <trkpt lat="45.18497" lon="5.68275">
        <ele>453.8</ele>
        <time>2021-01-30T13:00:03Z</time>
      </trkpt>
      <trkpt lat="45.18496" lon="5.68279">
        <ele>453.4</ele>
        <time>2021-01-30T13:00:04Z</time>
      </trkpt>
      <trkpt lat="45.18495" lon="5.68282">
        <ele>452.8</ele>
        <time>2021-01-30T13:00:05Z</time>
      </trkpt>
      <trkpt lat="45.18493" lon="5.68285">
        <ele>452.6</ele>
        <time>2021-01-30T13:00:06Z</time>
      </trkpt>
      <trkpt lat="45.18491" lon="5.68287">
        <ele>452</ele>
        <time>2021-01-30T13:00:07Z</time>
      </trkpt>
      <trkpt lat="45.18483" lon="5.68294">
        <ele>450.8</ele>
        <time>2021-01-30T13:00:10Z</time>
      </trkpt>
      <trkpt lat="45.18481" lon="5.68297">
        <ele>450.2</ele>
        <time>2021-01-30T13:00:11Z</time>
      </trkpt>
      <trkpt lat="45.18478" lon="5.683">
        <ele>450</ele>
        <time>2021-01-30T13:00:12Z</time>
      </trkpt>
      <trkpt lat="45.18476" lon="5.68303">
        <ele>449.4</ele>
        <time>2021-01-30T13:00:13Z</time>
      </trkpt>
      <trkpt lat="45.18467" lon="5.68313">
        <ele>447.6</ele>
        <time>2021-01-30T13:00:17Z</time>
      </trkpt>
      <trkpt lat="45.18462" lon="5.6832">
        <ele>446.4</ele>
        <time>2021-01-30T13:00:20Z</time>
      </trkpt>
      <trkpt lat="45.18455" lon="5.68331">
        <ele>444.8</ele>
        <time>2021-01-30T13:00:24Z</time>
      </trkpt>
      <trkpt lat="45.18447" lon="5.68343">
        <ele>443.2</ele>
        <time>2021-01-30T13:00:28Z</time>
      </trkpt>
      <trkpt lat="45.18441" lon="5.68353">
        <ele>441.8</ele>
        <time>2021-01-30T13:00:31Z</time>
      </trkpt>
      <trkpt lat="45.18436" lon="5.68366">
        <ele>440.2</ele>
        <time>2021-01-30T13:00:35Z</time>
      </trkpt>
      <trkpt lat="45.18435" lon="5.6837">
        <ele>439.8</ele>
        <time>2021-01-30T13:00:36Z</time>
      </trkpt>
      <trkpt lat="45.18432" lon="5.68383">
        <ele>438.2</ele>
        <time>2021-01-30T13:00:40Z</time>
      </trkpt>
      <trkpt lat="45.1843" lon="5.68387">
        <ele>437.8</ele>
        <time>2021-01-30T13:00:41Z</time>
      </trkpt>
      <trkpt lat="45.18429" lon="5.6839">
        <ele>437.4</ele>
        <time>2021-01-30T13:00:42Z</time>
      </trkpt>
      <trkpt lat="45.18429" lon="5.68394">
        <ele>437</ele>
        <time>2021-01-30T13:00:43Z</time>
      </trkpt>
      <trkpt lat="45.18431" lon="5.68396">
        <ele>436</ele>
        <time>2021-01-30T13:00:45Z</time>
      </trkpt>
      <trkpt lat="45.18434" lon="5.68396">
        <ele>435.2</ele>
        <time>2021-01-30T13:00:47Z</time>
      </trkpt>
      <trkpt lat="45.18433" lon="5.68398">
        <ele>434.8</ele>
        <time>2021-01-30T13:00:49Z</time>
      </trkpt>
      <trkpt lat="45.18429" lon="5.68401">
        <ele>434.4</ele>
        <time>2021-01-30T13:00:51Z</time>
      </trkpt>
      <trkpt lat="45.18427" lon="5.68404">
        <ele>434.4</ele>
        <time>2021-01-30T13:00:52Z</time>
      </trkpt>
      <trkpt lat="45.18425" lon="5.68407">
        <ele>433.8</ele>
        <time>2021-01-30T13:00:53Z</time>
      </trkpt>
      <trkpt lat="45.18422" lon="5.68411">
        <ele>433.6</ele>
        <time>2021-01-30T13:00:54Z</time>
      </trkpt>
      <trkpt lat="45.1842" lon="5.68414">
        <ele>433</ele>
        <time>2021-01-30T13:00:55Z</time>
      </trkpt>
      <trkpt lat="45.18414" lon="5.68424">
        <ele>432</ele>
        <time>2021-01-30T13:00:58Z</time>
      </trkpt>
      <trkpt lat="45.18411" lon="5.68428">
        <ele>431.4</ele>
        <time>2021-01-30T13:00:59Z</time>
      </trkpt>
      <trkpt lat="45.18406" lon="5.68436">
        <ele>430.6</ele>
        <time>2021-01-30T13:01:01Z</time>
      </trkpt>
      <trkpt lat="45.18405" lon="5.6844">
        <ele>430.4</ele>
        <time>2021-01-30T13:01:02Z</time>
      </trkpt>
      <trkpt lat="45.18403" lon="5.68444">
        <ele>429.8</ele>
        <time>2021-01-30T13:01:03Z</time>
      </trkpt>
      <trkpt lat="45.18402" lon="5.68448">
        <ele>429.6</ele>
        <time>2021-01-30T13:01:04Z</time>
      </trkpt>
      <trkpt lat="45.18401" lon="5.68452">
        <ele>429</ele>
        <time>2021-01-30T13:01:05Z</time>
      </trkpt>
      <trkpt lat="45.184" lon="5.68456">
        <ele>428.8</ele>
        <time>2021-01-30T13:01:06Z</time>
      </trkpt>
      <trkpt lat="45.18399" lon="5.68459">
        <ele>428.2</ele>
        <time>2021-01-30T13:01:07Z</time>
      </trkpt>
      <trkpt lat="45.18397" lon="5.68463">
        <ele>428</ele>
        <time>2021-01-30T13:01:08Z</time>
      </trkpt>
      <trkpt lat="45.18392" lon="5.68475">
        <ele>426.4</ele>
        <time>2021-01-30T13:01:12Z</time>
      </trkpt>
      <trkpt lat="45.18383" lon="5.68485">
        <ele>424.4</ele>
        <time>2021-01-30T13:01:17Z</time>
      </trkpt>
      <trkpt lat="45.18374" lon="5.68493">
        <ele>422.6</ele>
        <time>2021-01-30T13:01:22Z</time>
      </trkpt>
      <trkpt lat="45.18365" lon="5.685">
        <ele>421.2</ele>
        <time>2021-01-30T13:01:26Z</time>
      </trkpt>
      <trkpt lat="45.18356" lon="5.6851">
        <ele>419.8</ele>
        <time>2021-01-30T13:01:30Z</time>
      </trkpt>
      <trkpt lat="45.18348" lon="5.68516">
        <ele>418.6</ele>
        <time>2021-01-30T13:01:33Z</time>
      </trkpt>
      <trkpt lat="45.1834" lon="5.68528">
        <ele>417.2</ele>
        <time>2021-01-30T13:01:37Z</time>
      </trkpt>
      <trkpt lat="45.18337" lon="5.68533">
        <ele>416.4</ele>
        <time>2021-01-30T13:01:39Z</time>
      </trkpt>
      <trkpt lat="45.18336" lon="5.68536">
        <ele>416.2</ele>
        <time>2021-01-30T13:01:40Z</time>
      </trkpt>
      <trkpt lat="45.18331" lon="5.68544">
        <ele>415</ele>
        <time>2021-01-30T13:01:43Z</time>
      </trkpt>
      <trkpt lat="45.18329" lon="5.68546">
        <ele>414.8</ele>
        <time>2021-01-30T13:01:44Z</time>
      </trkpt>
      <trkpt lat="45.18327" lon="5.68548">
        <ele>414.2</ele>
        <time>2021-01-30T13:01:45Z</time>
      </trkpt>
      <trkpt lat="45.18326" lon="5.6855">
        <ele>414</ele>
        <time>2021-01-30T13:01:46Z</time>
      </trkpt>
      <trkpt lat="45.18324" lon="5.68553">
        <ele>413.4</ele>
        <time>2021-01-30T13:01:48Z</time>
      </trkpt>
      <trkpt lat="45.18315" lon="5.68561">
        <ele>411.2</ele>
        <time>2021-01-30T13:01:54Z</time>
      </trkpt>
      <trkpt lat="45.18313" lon="5.68563">
        <ele>410.8</ele>
        <time>2021-01-30T13:01:55Z</time>
      </trkpt>
      <trkpt lat="45.18311" lon="5.68564">
        <ele>410.4</ele>
        <time>2021-01-30T13:01:56Z</time>
      </trkpt>
      <trkpt lat="45.18307" lon="5.68566">
        <ele>409.8</ele>
        <time>2021-01-30T13:01:58Z</time>
      </trkpt>
      <trkpt lat="45.18305" lon="5.68567">
        <ele>409.4</ele>
        <time>2021-01-30T13:01:59Z</time>
      </trkpt>
      <trkpt lat="45.18303" lon="5.68569">
        <ele>409</ele>
        <time>2021-01-30T13:02:00Z</time>
      </trkpt>
      <trkpt lat="45.183" lon="5.68571">
        <ele>408.4</ele>
        <time>2021-01-30T13:02:02Z</time>
      </trkpt>
      <trkpt lat="45.18298" lon="5.68572">
        <ele>408</ele>
        <time>2021-01-30T13:02:03Z</time>
      </trkpt>
      <trkpt lat="45.18296" lon="5.68573">
        <ele>407.6</ele>
        <time>2021-01-30T13:02:04Z</time>
      </trkpt>
      <trkpt lat="45.18293" lon="5.68575">
        <ele>407</ele>
        <time>2021-01-30T13:02:06Z</time>
      </trkpt>
      <trkpt lat="45.18291" lon="5.68576">
        <ele>406.6</ele>
        <time>2021-01-30T13:02:07Z</time>
      </trkpt>
      <trkpt lat="45.18287" lon="5.68579">
        <ele>405.8</ele>
        <time>2021-01-30T13:02:09Z</time>
      </trkpt>
      <trkpt lat="45.18278" lon="5.68586">
        <ele>404.4</ele>
        <time>2021-01-30T13:02:13Z</time>
      </trkpt>
      <trkpt lat="45.18269" lon="5.68596">
        <ele>403.2</ele>
        <time>2021-01-30T13:02:17Z</time>
      </trkpt>
      <trkpt lat="45.1826" lon="5.68598">
        <ele>402</ele>
        <time>2021-01-30T13:02:21Z</time>
      </trkpt>
      <trkpt lat="45.18251" lon="5.68599">
        <ele>400.6</ele>
        <time>2021-01-30T13:02:26Z</time>
      </trkpt>
      <trkpt lat="45.18242" lon="5.68599">
        <ele>398.8</ele>
        <time>2021-01-30T13:02:32Z</time>
      </trkpt>
      <trkpt lat="45.18233" lon="5.686">
        <ele>397.8</ele>
        <time>2021-01-30T13:02:38Z</time>
      </trkpt>
      <trkpt lat="45.18223" lon="5.68603">
        <ele>396.8</ele>
        <time>2021-01-30T13:02:43Z</time>
      </trkpt>
      <trkpt lat="45.18212" lon="5.68607">
        <ele>395.6</ele>
        <time>2021-01-30T13:02:48Z</time>
      </trkpt>
      <trkpt lat="45.18201" lon="5.68609">
        <ele>394.4</ele>
        <time>2021-01-30T13:02:52Z</time>
      </trkpt>
      <trkpt lat="45.18192" lon="5.68615">
        <ele>393.4</ele>
        <time>2021-01-30T13:02:56Z</time>
      </trkpt>
      <trkpt lat="45.18182" lon="5.68617">
        <ele>392</ele>
        <time>2021-01-30T13:03:02Z</time>
      </trkpt>
      <trkpt lat="45.18173" lon="5.6861">
        <ele>390.4</ele>
        <time>2021-01-30T13:03:09Z</time>
      </trkpt>
      <trkpt lat="45.18166" lon="5.68601">
        <ele>389.6</ele>
        <time>2021-01-30T13:03:14Z</time>
      </trkpt>
      <trkpt lat="45.18155" lon="5.68596">
        <ele>388.6</ele>
        <time>2021-01-30T13:03:19Z</time>
      </trkpt>
      <trkpt lat="45.18145" lon="5.68594">
        <ele>388.2</ele>
        <time>2021-01-30T13:03:22Z</time>
      </trkpt>
      <trkpt lat="45.18135" lon="5.68592">
        <ele>387.6</ele>
        <time>2021-01-30T13:03:26Z</time>
      </trkpt>
      <trkpt lat="45.18124" lon="5.68592">
        <ele>386.8</ele>
        <time>2021-01-30T13:03:30Z</time>
      </trkpt>
      <trkpt lat="45.18114" lon="5.68589">
        <ele>386</ele>
        <time>2021-01-30T13:03:34Z</time>
      </trkpt>
      <trkpt lat="45.18105" lon="5.68587">
        <ele>385.2</ele>
        <time>2021-01-30T13:03:38Z</time>
      </trkpt>
      <trkpt lat="45.18096" lon="5.68586">
        <ele>384.2</ele>
        <time>2021-01-30T13:03:42Z</time>
      </trkpt>
      <trkpt lat="45.18088" lon="5.68595">
        <ele>383.4</ele>
        <time>2021-01-30T13:03:45Z</time>
      </trkpt>
      <trkpt lat="45.18093" lon="5.68606">
        <ele>382.8</ele>
        <time>2021-01-30T13:03:48Z</time>
      </trkpt>
      <trkpt lat="45.181" lon="5.68615">
        <ele>382.2</ele>
        <time>2021-01-30T13:03:51Z</time>
      </trkpt>
      <trkpt lat="45.18108" lon="5.68624">
        <ele>381.6</ele>
        <time>2021-01-30T13:03:55Z</time>
      </trkpt>
      <trkpt lat="45.18117" lon="5.68631">
        <ele>380.8</ele>
        <time>2021-01-30T13:03:59Z</time>
      </trkpt>
      <trkpt lat="45.18127" lon="5.68637">
        <ele>380.2</ele>
        <time>2021-01-30T13:04:03Z</time>
      </trkpt>
      <trkpt lat="45.18136" lon="5.68643">
        <ele>379.4</ele>
        <time>2021-01-30T13:04:07Z</time>
      </trkpt>
      <trkpt lat="45.18142" lon="5.68655">
        <ele>378.6</ele>
        <time>2021-01-30T13:04:12Z</time>
      </trkpt>
      <trkpt lat="45.1815" lon="5.68663">
        <ele>377.8</ele>
        <time>2021-01-30T13:04:16Z</time>
      </trkpt>
      <trkpt lat="45.18158" lon="5.68669">
        <ele>377.2</ele>
        <time>2021-01-30T13:04:19Z</time>
      </trkpt>
      <trkpt lat="45.18167" lon="5.68677">
        <ele>376.4</ele>
        <time>2021-01-30T13:04:23Z</time>
      </trkpt>
      <trkpt lat="45.18158" lon="5.68674">
        <ele>374.6</ele>
        <time>2021-01-30T13:04:33Z</time>
      </trkpt>
      <trkpt lat="45.18149" lon="5.68669">
        <ele>373.8</ele>
        <time>2021-01-30T13:04:38Z</time>
      </trkpt>
      <trkpt lat="45.1814" lon="5.68675">
        <ele>373.2</ele>
        <time>2021-01-30T13:04:41Z</time>
      </trkpt>
      <trkpt lat="45.18137" lon="5.68688">
        <ele>372.8</ele>
        <time>2021-01-30T13:04:44Z</time>
      </trkpt>
      <trkpt lat="45.18141" lon="5.687">
        <ele>372</ele>
        <time>2021-01-30T13:04:47Z</time>
      </trkpt>
      <trkpt lat="45.18148" lon="5.6871">
        <ele>371.4</ele>
        <time>2021-01-30T13:04:51Z</time>
      </trkpt>
      <trkpt lat="45.18153" lon="5.68723">
        <ele>370.4</ele>
        <time>2021-01-30T13:04:56Z</time>
      </trkpt>
      <trkpt lat="45.18159" lon="5.68733">
        <ele>369.4</ele>
        <time>2021-01-30T13:05:01Z</time>
      </trkpt>
      <trkpt lat="45.18164" lon="5.68745">
        <ele>368.6</ele>
        <time>2021-01-30T13:05:06Z</time>
      </trkpt>
      <trkpt lat="45.18165" lon="5.68758">
        <ele>367.6</ele>
        <time>2021-01-30T13:05:12Z</time>
      </trkpt>
      <trkpt lat="45.1817" lon="5.68771">
        <ele>366.4</ele>
        <time>2021-01-30T13:05:17Z</time>
      </trkpt>
      <trkpt lat="45.18179" lon="5.68781">
        <ele>365.8</ele>
        <time>2021-01-30T13:05:21Z</time>
      </trkpt>
      <trkpt lat="45.18188" lon="5.68787">
        <ele>365</ele>
        <time>2021-01-30T13:05:25Z</time>
      </trkpt>
      <trkpt lat="45.18189" lon="5.68803">
        <ele>364.2</ele>
        <time>2021-01-30T13:05:30Z</time>
      </trkpt>
      <trkpt lat="45.1819" lon="5.68817">
        <ele>363.4</ele>
        <time>2021-01-30T13:05:34Z</time>
      </trkpt>
      <trkpt lat="45.18193" lon="5.68829">
        <ele>362.4</ele>
        <time>2021-01-30T13:05:39Z</time>
      </trkpt>
      <trkpt lat="45.18201" lon="5.68839">
        <ele>361.6</ele>
        <time>2021-01-30T13:05:44Z</time>
      </trkpt>
      <trkpt lat="45.18205" lon="5.68845">
        <ele>361.2</ele>
        <time>2021-01-30T13:05:46Z</time>
      </trkpt>
      <trkpt lat="45.18211" lon="5.68856">
        <ele>360.6</ele>
        <time>2021-01-30T13:05:50Z</time>
      </trkpt>
      <trkpt lat="45.18214" lon="5.68868">
        <ele>359.8</ele>
        <time>2021-01-30T13:05:54Z</time>
      </trkpt>
      <trkpt lat="45.18217" lon="5.6888">
        <ele>359</ele>
        <time>2021-01-30T13:05:58Z</time>
      </trkpt>
      <trkpt lat="45.18219" lon="5.68894">
        <ele>358.4</ele>
        <time>2021-01-30T13:06:02Z</time>
      </trkpt>
      <trkpt lat="45.18215" lon="5.689">
        <ele>357.8</ele>
        <time>2021-01-30T13:06:05Z</time>
      </trkpt>
      <trkpt lat="45.18211" lon="5.68903">
        <ele>357.4</ele>
        <time>2021-01-30T13:06:07Z</time>
      </trkpt>
      <trkpt lat="45.18209" lon="5.68904">
        <ele>357.2</ele>
        <time>2021-01-30T13:06:08Z</time>
      </trkpt>
      <trkpt lat="45.18202" lon="5.68907">
        <ele>356.6</ele>
        <time>2021-01-30T13:06:11Z</time>
      </trkpt>
      <trkpt lat="45.18199" lon="5.68908">
        <ele>356.6</ele>
        <time>2021-01-30T13:06:12Z</time>
      </trkpt>
      <trkpt lat="45.18196" lon="5.68908">
        <ele>356.2</ele>
        <time>2021-01-30T13:06:13Z</time>
      </trkpt>
      <trkpt lat="45.18194" lon="5.68909">
        <ele>356.2</ele>
        <time>2021-01-30T13:06:14Z</time>
      </trkpt>
      <trkpt lat="45.18192" lon="5.68909">
        <ele>356</ele>
        <time>2021-01-30T13:06:15Z</time>
      </trkpt>
      <trkpt lat="45.18189" lon="5.6891">
        <ele>355.8</ele>
        <time>2021-01-30T13:06:16Z</time>
      </trkpt>
      <trkpt lat="45.18187" lon="5.68911">
        <ele>355.6</ele>
        <time>2021-01-30T13:06:17Z</time>
      </trkpt>
      <trkpt lat="45.18184" lon="5.68912">
        <ele>355.2</ele>
        <time>2021-01-30T13:06:19Z</time>
      </trkpt>
      <trkpt lat="45.18182" lon="5.68913">
        <ele>355</ele>
        <time>2021-01-30T13:06:20Z</time>
      </trkpt>
      <trkpt lat="45.1818" lon="5.68913">
        <ele>354.6</ele>
        <time>2021-01-30T13:06:21Z</time>
      </trkpt>
      <trkpt lat="45.18178" lon="5.68914">
        <ele>354.4</ele>
        <time>2021-01-30T13:06:22Z</time>
      </trkpt>
      <trkpt lat="45.18176" lon="5.68915">
        <ele>354</ele>
        <time>2021-01-30T13:06:23Z</time>
      </trkpt>
      <trkpt lat="45.18165" lon="5.68916">
        <ele>352.4</ele>
        <time>2021-01-30T13:06:28Z</time>
      </trkpt>
      <trkpt lat="45.18157" lon="5.68917">
        <ele>351.4</ele>
        <time>2021-01-30T13:06:31Z</time>
      </trkpt>
      <trkpt lat="45.18148" lon="5.68919">
        <ele>350.2</ele>
        <time>2021-01-30T13:06:35Z</time>
      </trkpt>
      <trkpt lat="45.18137" lon="5.6892">
        <ele>349</ele>
        <time>2021-01-30T13:06:39Z</time>
      </trkpt>
      <trkpt lat="45.18127" lon="5.6892">
        <ele>347.6</ele>
        <time>2021-01-30T13:06:43Z</time>
      </trkpt>
      <trkpt lat="45.18116" lon="5.68923">
        <ele>346.8</ele>
        <time>2021-01-30T13:06:47Z</time>
      </trkpt>
      <trkpt lat="45.18114" lon="5.68924">
        <ele>346.6</ele>
        <time>2021-01-30T13:06:48Z</time>
      </trkpt>
      <trkpt lat="45.18112" lon="5.68925">
        <ele>346.4</ele>
        <time>2021-01-30T13:06:49Z</time>
      </trkpt>
      <trkpt lat="45.18107" lon="5.68928">
        <ele>346</ele>
        <time>2021-01-30T13:06:51Z</time>
      </trkpt>
      <trkpt lat="45.18105" lon="5.68929">
        <ele>346</ele>
        <time>2021-01-30T13:06:52Z</time>
      </trkpt>
      <trkpt lat="45.18102" lon="5.68931">
        <ele>345.8</ele>
        <time>2021-01-30T13:06:53Z</time>
      </trkpt>
      <trkpt lat="45.181" lon="5.68931">
        <ele>345.6</ele>
        <time>2021-01-30T13:06:54Z</time>
      </trkpt>
      <trkpt lat="45.18098" lon="5.68931">
        <ele>345.4</ele>
        <time>2021-01-30T13:06:55Z</time>
      </trkpt>
      <trkpt lat="45.18096" lon="5.6893">
        <ele>345.2</ele>
        <time>2021-01-30T13:06:56Z</time>
      </trkpt>
      <trkpt lat="45.18094" lon="5.6893">
        <ele>345</ele>
        <time>2021-01-30T13:06:57Z</time>
      </trkpt>
      <trkpt lat="45.18089" lon="5.68929">
        <ele>344.6</ele>
        <time>2021-01-30T13:06:59Z</time>
      </trkpt>
      <trkpt lat="45.18087" lon="5.68929">
        <ele>344.6</ele>
        <time>2021-01-30T13:07:00Z</time>
      </trkpt>
      <trkpt lat="45.18076" lon="5.68929">
        <ele>344</ele>
        <time>2021-01-30T13:07:04Z</time>
      </trkpt>
      <trkpt lat="45.18071" lon="5.68943">
        <ele>343.2</ele>
        <time>2021-01-30T13:07:08Z</time>
      </trkpt>
      <trkpt lat="45.1807" lon="5.68959">
        <ele>342.6</ele>
        <time>2021-01-30T13:07:12Z</time>
      </trkpt>
      <trkpt lat="45.18071" lon="5.68969">
        <ele>342.2</ele>
        <time>2021-01-30T13:07:14Z</time>
      </trkpt>
      <trkpt lat="45.18071" lon="5.68974">
        <ele>342</ele>
        <time>2021-01-30T13:07:15Z</time>
      </trkpt>
      <trkpt lat="45.18071" lon="5.68978">
        <ele>341.8</ele>
        <time>2021-01-30T13:07:16Z</time>
      </trkpt>
      <trkpt lat="45.18071" lon="5.68982">
        <ele>341.6</ele>
        <time>2021-01-30T13:07:17Z</time>
      </trkpt>
      <trkpt lat="45.18071" lon="5.68987">
        <ele>341.4</ele>
        <time>2021-01-30T13:07:18Z</time>
      </trkpt>
      <trkpt lat="45.1807" lon="5.6899">
        <ele>341.2</ele>
        <time>2021-01-30T13:07:19Z</time>
      </trkpt>
      <trkpt lat="45.18069" lon="5.68994">
        <ele>341.2</ele>
        <time>2021-01-30T13:07:20Z</time>
      </trkpt>
      <trkpt lat="45.18069" lon="5.68998">
        <ele>340.8</ele>
        <time>2021-01-30T13:07:21Z</time>
      </trkpt>
      <trkpt lat="45.18069" lon="5.69002">
        <ele>340.8</ele>
        <time>2021-01-30T13:07:22Z</time>
      </trkpt>
      <trkpt lat="45.18068" lon="5.69005">
        <ele>340.6</ele>
        <time>2021-01-30T13:07:23Z</time>
      </trkpt>
      <trkpt lat="45.18068" lon="5.69009">
        <ele>340.4</ele>
        <time>2021-01-30T13:07:24Z</time>
      </trkpt>
      <trkpt lat="45.18069" lon="5.69013">
        <ele>340.2</ele>
        <time>2021-01-30T13:07:25Z</time>
      </trkpt>
      <trkpt lat="45.18069" lon="5.69017">
        <ele>340.2</ele>
        <time>2021-01-30T13:07:26Z</time>
      </trkpt>
      <trkpt lat="45.1807" lon="5.6902">
        <ele>339.8</ele>
        <time>2021-01-30T13:07:27Z</time>
      </trkpt>
      <trkpt lat="45.18071" lon="5.69023">
        <ele>339.8</ele>
        <time>2021-01-30T13:07:28Z</time>
      </trkpt>
      <trkpt lat="45.18074" lon="5.69036">
        <ele>338.8</ele>
        <time>2021-01-30T13:07:33Z</time>
      </trkpt>
      <trkpt lat="45.18076" lon="5.69049">
        <ele>338.2</ele>
        <time>2021-01-30T13:07:37Z</time>
      </trkpt>
      <trkpt lat="45.18078" lon="5.69062">
        <ele>337.6</ele>
        <time>2021-01-30T13:07:41Z</time>
      </trkpt>
      <trkpt lat="45.18079" lon="5.69066">
        <ele>337.4</ele>
        <time>2021-01-30T13:07:42Z</time>
      </trkpt>
      <trkpt lat="45.18083" lon="5.6908">
        <ele>336.8</ele>
        <time>2021-01-30T13:07:46Z</time>
      </trkpt>
      <trkpt lat="45.18085" lon="5.69091">
        <ele>336.2</ele>
        <time>2021-01-30T13:07:49Z</time>
      </trkpt>
      <trkpt lat="45.18085" lon="5.69095">
        <ele>336</ele>
        <time>2021-01-30T13:07:50Z</time>
      </trkpt>
      <trkpt lat="45.18086" lon="5.69099">
        <ele>335.8</ele>
        <time>2021-01-30T13:07:51Z</time>
      </trkpt>
      <trkpt lat="45.18086" lon="5.69102">
        <ele>335.8</ele>
        <time>2021-01-30T13:07:52Z</time>
      </trkpt>
      <trkpt lat="45.18088" lon="5.69118">
        <ele>334.8</ele>
        <time>2021-01-30T13:07:57Z</time>
      </trkpt>
      <trkpt lat="45.18089" lon="5.69121">
        <ele>334.6</ele>
        <time>2021-01-30T13:07:58Z</time>
      </trkpt>
      <trkpt lat="45.18089" lon="5.69124">
        <ele>334.4</ele>
        <time>2021-01-30T13:07:59Z</time>
      </trkpt>
      <trkpt lat="45.1809" lon="5.69127">
        <ele>334.4</ele>
        <time>2021-01-30T13:08:00Z</time>
      </trkpt>
      <trkpt lat="45.18091" lon="5.69131">
        <ele>334</ele>
        <time>2021-01-30T13:08:01Z</time>
      </trkpt>
      <trkpt lat="45.18092" lon="5.69133">
        <ele>334</ele>
        <time>2021-01-30T13:08:02Z</time>
      </trkpt>
      <trkpt lat="45.18093" lon="5.69136">
        <ele>333.8</ele>
        <time>2021-01-30T13:08:03Z</time>
      </trkpt>
      <trkpt lat="45.18094" lon="5.69139">
        <ele>333.6</ele>
        <time>2021-01-30T13:08:04Z</time>
      </trkpt>
      <trkpt lat="45.18094" lon="5.69142">
        <ele>333.4</ele>
        <time>2021-01-30T13:08:05Z</time>
      </trkpt>
      <trkpt lat="45.18095" lon="5.69145">
        <ele>333.4</ele>
        <time>2021-01-30T13:08:06Z</time>
      </trkpt>
      <trkpt lat="45.18096" lon="5.69151">
        <ele>333</ele>
        <time>2021-01-30T13:08:08Z</time>
      </trkpt>
      <trkpt lat="45.18097" lon="5.69155">
        <ele>332.8</ele>
        <time>2021-01-30T13:08:09Z</time>
      </trkpt>
      <trkpt lat="45.18098" lon="5.69158">
        <ele>332.6</ele>
        <time>2021-01-30T13:08:10Z</time>
      </trkpt>
      <trkpt lat="45.18098" lon="5.69162">
        <ele>332.4</ele>
        <time>2021-01-30T13:08:11Z</time>
      </trkpt>
      <trkpt lat="45.181" lon="5.69165">
        <ele>332.4</ele>
        <time>2021-01-30T13:08:12Z</time>
      </trkpt>
      <trkpt lat="45.18101" lon="5.69169">
        <ele>332</ele>
        <time>2021-01-30T13:08:13Z</time>
      </trkpt>
      <trkpt lat="45.18102" lon="5.69173">
        <ele>332</ele>
        <time>2021-01-30T13:08:14Z</time>
      </trkpt>
      <trkpt lat="45.18104" lon="5.69176">
        <ele>331.8</ele>
        <time>2021-01-30T13:08:15Z</time>
      </trkpt>
      <trkpt lat="45.18105" lon="5.69179">
        <ele>331.6</ele>
        <time>2021-01-30T13:08:16Z</time>
      </trkpt>
      <trkpt lat="45.18109" lon="5.69191">
        <ele>331</ele>
        <time>2021-01-30T13:08:20Z</time>
      </trkpt>
      <trkpt lat="45.18111" lon="5.69204">
        <ele>330.2</ele>
        <time>2021-01-30T13:08:24Z</time>
      </trkpt>
      <trkpt lat="45.18113" lon="5.69217">
        <ele>329.6</ele>
        <time>2021-01-30T13:08:28Z</time>
      </trkpt>
      <trkpt lat="45.18116" lon="5.69231">
        <ele>329</ele>
        <time>2021-01-30T13:08:32Z</time>
      </trkpt>
      <trkpt lat="45.18114" lon="5.69245">
        <ele>328.2</ele>
        <time>2021-01-30T13:08:36Z</time>
      </trkpt>
      <trkpt lat="45.18113" lon="5.69248">
        <ele>328</ele>
        <time>2021-01-30T13:08:37Z</time>
      </trkpt>
      <trkpt lat="45.18114" lon="5.69252">
        <ele>328</ele>
        <time>2021-01-30T13:08:38Z</time>
      </trkpt>
      <trkpt lat="45.18115" lon="5.69255">
        <ele>327.8</ele>
        <time>2021-01-30T13:08:39Z</time>
      </trkpt>
      <trkpt lat="45.18115" lon="5.69258">
        <ele>327.6</ele>
        <time>2021-01-30T13:08:40Z</time>
      </trkpt>
      <trkpt lat="45.18117" lon="5.69261">
        <ele>327.4</ele>
        <time>2021-01-30T13:08:41Z</time>
      </trkpt>
      <trkpt lat="45.18117" lon="5.69264">
        <ele>327.2</ele>
        <time>2021-01-30T13:08:42Z</time>
      </trkpt>
      <trkpt lat="45.18118" lon="5.69267">
        <ele>327</ele>
        <time>2021-01-30T13:08:43Z</time>
      </trkpt>
      <trkpt lat="45.18116" lon="5.69272">
        <ele>326.8</ele>
        <time>2021-01-30T13:08:45Z</time>
      </trkpt>
      <trkpt lat="45.18115" lon="5.69274">
        <ele>326.6</ele>
        <time>2021-01-30T13:08:46Z</time>
      </trkpt>
      <trkpt lat="45.18113" lon="5.69277">
        <ele>326.4</ele>
        <time>2021-01-30T13:08:47Z</time>
      </trkpt>
      <trkpt lat="45.18112" lon="5.6928">
        <ele>326.4</ele>
        <time>2021-01-30T13:08:48Z</time>
      </trkpt>
      <trkpt lat="45.1811" lon="5.69282">
        <ele>326</ele>
        <time>2021-01-30T13:08:49Z</time>
      </trkpt>
      <trkpt lat="45.18109" lon="5.69285">
        <ele>326</ele>
        <time>2021-01-30T13:08:50Z</time>
      </trkpt>
      <trkpt lat="45.18107" lon="5.69287">
        <ele>325.8</ele>
        <time>2021-01-30T13:08:51Z</time>
      </trkpt>
      <trkpt lat="45.18105" lon="5.69289">
        <ele>325.6</ele>
        <time>2021-01-30T13:08:52Z</time>
      </trkpt>
      <trkpt lat="45.18103" lon="5.69291">
        <ele>325.4</ele>
        <time>2021-01-30T13:08:53Z</time>
      </trkpt>
      <trkpt lat="45.18101" lon="5.69293">
        <ele>325.4</ele>
        <time>2021-01-30T13:08:54Z</time>
      </trkpt>
      <trkpt lat="45.18099" lon="5.69295">
        <ele>325</ele>
        <time>2021-01-30T13:08:55Z</time>
      </trkpt>
      <trkpt lat="45.18097" lon="5.69297">
        <ele>325</ele>
        <time>2021-01-30T13:08:56Z</time>
      </trkpt>
      <trkpt lat="45.18095" lon="5.693">
        <ele>324.8</ele>
        <time>2021-01-30T13:08:57Z</time>
      </trkpt>
      <trkpt lat="45.18093" lon="5.69302">
        <ele>324.6</ele>
        <time>2021-01-30T13:08:58Z</time>
      </trkpt>
      <trkpt lat="45.18091" lon="5.69304">
        <ele>324.4</ele>
        <time>2021-01-30T13:08:59Z</time>
      </trkpt>
      <trkpt lat="45.18089" lon="5.69306">
        <ele>324.4</ele>
        <time>2021-01-30T13:09:00Z</time>
      </trkpt>
      <trkpt lat="45.18088" lon="5.69308">
        <ele>324</ele>
        <time>2021-01-30T13:09:01Z</time>
      </trkpt>
      <trkpt lat="45.18087" lon="5.6931">
        <ele>324</ele>
        <time>2021-01-30T13:09:02Z</time>
      </trkpt>
      <trkpt lat="45.18085" lon="5.69312">
        <ele>323.8</ele>
        <time>2021-01-30T13:09:03Z</time>
      </trkpt>
      <trkpt lat="45.18083" lon="5.69314">
        <ele>323.6</ele>
        <time>2021-01-30T13:09:04Z</time>
      </trkpt>
      <trkpt lat="45.18081" lon="5.69316">
        <ele>323.4</ele>
        <time>2021-01-30T13:09:05Z</time>
      </trkpt>
      <trkpt lat="45.18079" lon="5.69319">
        <ele>323.4</ele>
        <time>2021-01-30T13:09:06Z</time>
      </trkpt>
      <trkpt lat="45.18078" lon="5.69321">
        <ele>323.2</ele>
        <time>2021-01-30T13:09:07Z</time>
      </trkpt>
      <trkpt lat="45.18075" lon="5.69323">
        <ele>323</ele>
        <time>2021-01-30T13:09:08Z</time>
      </trkpt>
      <trkpt lat="45.18073" lon="5.69325">
        <ele>322.8</ele>
        <time>2021-01-30T13:09:09Z</time>
      </trkpt>
      <trkpt lat="45.18071" lon="5.69328">
        <ele>322.8</ele>
        <time>2021-01-30T13:09:10Z</time>
      </trkpt>
      <trkpt lat="45.1807" lon="5.69331">
        <ele>322.4</ele>
        <time>2021-01-30T13:09:11Z</time>
      </trkpt>
      <trkpt lat="45.18068" lon="5.69333">
        <ele>322.4</ele>
        <time>2021-01-30T13:09:12Z</time>
      </trkpt>
      <trkpt lat="45.18066" lon="5.69335">
        <ele>322.2</ele>
        <time>2021-01-30T13:09:13Z</time>
      </trkpt>
      <trkpt lat="45.18064" lon="5.69337">
        <ele>322</ele>
        <time>2021-01-30T13:09:14Z</time>
      </trkpt>
      <trkpt lat="45.18063" lon="5.69339">
        <ele>321.8</ele>
        <time>2021-01-30T13:09:15Z</time>
      </trkpt>
      <trkpt lat="45.18061" lon="5.69341">
        <ele>321.8</ele>
        <time>2021-01-30T13:09:16Z</time>
      </trkpt>
      <trkpt lat="45.18059" lon="5.69343">
        <ele>321.4</ele>
        <time>2021-01-30T13:09:17Z</time>
      </trkpt>
      <trkpt lat="45.18056" lon="5.69348">
        <ele>321.2</ele>
        <time>2021-01-30T13:09:19Z</time>
      </trkpt>
      <trkpt lat="45.18053" lon="5.6935">
        <ele>321</ele>
        <time>2021-01-30T13:09:20Z</time>
      </trkpt>
      <trkpt lat="45.18051" lon="5.69352">
        <ele>320.8</ele>
        <time>2021-01-30T13:09:21Z</time>
      </trkpt>
      <trkpt lat="45.1805" lon="5.69354">
        <ele>320.8</ele>
        <time>2021-01-30T13:09:22Z</time>
      </trkpt>
      <trkpt lat="45.18048" lon="5.69357">
        <ele>320.6</ele>
        <time>2021-01-30T13:09:23Z</time>
      </trkpt>
      <trkpt lat="45.18046" lon="5.69363">
        <ele>320.2</ele>
        <time>2021-01-30T13:09:25Z</time>
      </trkpt>
      <trkpt lat="45.18045" lon="5.69366">
        <ele>320.2</ele>
        <time>2021-01-30T13:09:26Z</time>
      </trkpt>
      <trkpt lat="45.18043" lon="5.69369">
        <ele>319.8</ele>
        <time>2021-01-30T13:09:27Z</time>
      </trkpt>
      <trkpt lat="45.18043" lon="5.69372">
        <ele>319.8</ele>
        <time>2021-01-30T13:09:28Z</time>
      </trkpt>
      <trkpt lat="45.18042" lon="5.69375">
        <ele>319.6</ele>
        <time>2021-01-30T13:09:29Z</time>
      </trkpt>
      <trkpt lat="45.18041" lon="5.69377">
        <ele>319.4</ele>
        <time>2021-01-30T13:09:30Z</time>
      </trkpt>
      <trkpt lat="45.1804" lon="5.69382">
        <ele>319.2</ele>
        <time>2021-01-30T13:09:32Z</time>
      </trkpt>
      <trkpt lat="45.18039" lon="5.69384">
        <ele>319</ele>
        <time>2021-01-30T13:09:33Z</time>
      </trkpt>
      <trkpt lat="45.18036" lon="5.6939">
        <ele>318.6</ele>
        <time>2021-01-30T13:09:35Z</time>
      </trkpt>
      <trkpt lat="45.18035" lon="5.69393">
        <ele>318.6</ele>
        <time>2021-01-30T13:09:36Z</time>
      </trkpt>
      <trkpt lat="45.18033" lon="5.69396">
        <ele>318.2</ele>
        <time>2021-01-30T13:09:37Z</time>
      </trkpt>
      <trkpt lat="45.18032" lon="5.69399">
        <ele>318.2</ele>
        <time>2021-01-30T13:09:38Z</time>
      </trkpt>
      <trkpt lat="45.18031" lon="5.69402">
        <ele>318</ele>
        <time>2021-01-30T13:09:39Z</time>
      </trkpt>
      <trkpt lat="45.18031" lon="5.69404">
        <ele>317.8</ele>
        <time>2021-01-30T13:09:40Z</time>
      </trkpt>
      <trkpt lat="45.18032" lon="5.69408">
        <ele>317.6</ele>
        <time>2021-01-30T13:09:41Z</time>
      </trkpt>
      <trkpt lat="45.18032" lon="5.69412">
        <ele>317.6</ele>
        <time>2021-01-30T13:09:42Z</time>
      </trkpt>
      <trkpt lat="45.18032" lon="5.69416">
        <ele>317.4</ele>
        <time>2021-01-30T13:09:43Z</time>
      </trkpt>
      <trkpt lat="45.18033" lon="5.69419">
        <ele>317.2</ele>
        <time>2021-01-30T13:09:44Z</time>
      </trkpt>
      <trkpt lat="45.18033" lon="5.69423">
        <ele>317</ele>
        <time>2021-01-30T13:09:45Z</time>
      </trkpt>
      <trkpt lat="45.18033" lon="5.69426">
        <ele>317</ele>
        <time>2021-01-30T13:09:46Z</time>
      </trkpt>
      <trkpt lat="45.18033" lon="5.6943">
        <ele>316.8</ele>
        <time>2021-01-30T13:09:47Z</time>
      </trkpt>
      <trkpt lat="45.18032" lon="5.69434">
        <ele>316.6</ele>
        <time>2021-01-30T13:09:48Z</time>
      </trkpt>
      <trkpt lat="45.18031" lon="5.69436">
        <ele>316.4</ele>
        <time>2021-01-30T13:09:49Z</time>
      </trkpt>
      <trkpt lat="45.1803" lon="5.69439">
        <ele>316.4</ele>
        <time>2021-01-30T13:09:50Z</time>
      </trkpt>
      <trkpt lat="45.18029" lon="5.69442">
        <ele>316</ele>
        <time>2021-01-30T13:09:51Z</time>
      </trkpt>
      <trkpt lat="45.18028" lon="5.69445">
        <ele>316</ele>
        <time>2021-01-30T13:09:52Z</time>
      </trkpt>
      <trkpt lat="45.18028" lon="5.69449">
        <ele>315.8</ele>
        <time>2021-01-30T13:09:53Z</time>
      </trkpt>
      <trkpt lat="45.18027" lon="5.69452">
        <ele>315.6</ele>
        <time>2021-01-30T13:09:54Z</time>
      </trkpt>
      <trkpt lat="45.18027" lon="5.69455">
        <ele>315.4</ele>
        <time>2021-01-30T13:09:55Z</time>
      </trkpt>
      <trkpt lat="45.18026" lon="5.69458">
        <ele>315.4</ele>
        <time>2021-01-30T13:09:56Z</time>
      </trkpt>
      <trkpt lat="45.18026" lon="5.69462">
        <ele>315.2</ele>
        <time>2021-01-30T13:09:57Z</time>
      </trkpt>
      <trkpt lat="45.18026" lon="5.69466">
        <ele>315</ele>
        <time>2021-01-30T13:09:58Z</time>
      </trkpt>
      <trkpt lat="45.18027" lon="5.69471">
        <ele>314.8</ele>
        <time>2021-01-30T13:09:59Z</time>
      </trkpt>
      <trkpt lat="45.18027" lon="5.69475">
        <ele>217</ele>
        <time>2021-01-30T13:10:00Z</time>
      </trkpt>
      <trkpt lat="45.18028" lon="5.6948">
        <ele>314.6</ele>
        <time>2021-01-30T13:10:01Z</time>
      </trkpt>
      <trkpt lat="45.18029" lon="5.69484">
        <ele>314.4</ele>
        <time>2021-01-30T13:10:02Z</time>
      </trkpt>
      <trkpt lat="45.1803" lon="5.69488">
        <ele>314.2</ele>
        <time>2021-01-30T13:10:03Z</time>
      </trkpt>
      <trkpt lat="45.1803" lon="5.69493">
        <ele>314.2</ele>
        <time>2021-01-30T13:10:04Z</time>
      </trkpt>
      <trkpt lat="45.18031" lon="5.69497">
        <ele>314</ele>
        <time>2021-01-30T13:10:05Z</time>
      </trkpt>
      <trkpt lat="45.18033" lon="5.69501">
        <ele>313.8</ele>
        <time>2021-01-30T13:10:06Z</time>
      </trkpt>
      <trkpt lat="45.18033" lon="5.69505">
        <ele>313.6</ele>
        <time>2021-01-30T13:10:07Z</time>
      </trkpt>
      <trkpt lat="45.18034" lon="5.69509">
        <ele>313.6</ele>
        <time>2021-01-30T13:10:08Z</time>
      </trkpt>
      <trkpt lat="45.18035" lon="5.69513">
        <ele>313.2</ele>
        <time>2021-01-30T13:10:09Z</time>
      </trkpt>
      <trkpt lat="45.18036" lon="5.69516">
        <ele>313.2</ele>
        <time>2021-01-30T13:10:10Z</time>
      </trkpt>
      <trkpt lat="45.18038" lon="5.69519">
        <ele>313</ele>
        <time>2021-01-30T13:10:11Z</time>
      </trkpt>
      <trkpt lat="45.18039" lon="5.69522">
        <ele>313</ele>
        <time>2021-01-30T13:10:12Z</time>
      </trkpt>
      <trkpt lat="45.18039" lon="5.69525">
        <ele>312.6</ele>
        <time>2021-01-30T13:10:13Z</time>
      </trkpt>
      <trkpt lat="45.1804" lon="5.69528">
        <ele>312.6</ele>
        <time>2021-01-30T13:10:14Z</time>
      </trkpt>
      <trkpt lat="45.1804" lon="5.69531">
        <ele>312.4</ele>
        <time>2021-01-30T13:10:15Z</time>
      </trkpt>
      <trkpt lat="45.18039" lon="5.69535">
        <ele>312.2</ele>
        <time>2021-01-30T13:10:16Z</time>
      </trkpt>
      <trkpt lat="45.18039" lon="5.69539">
        <ele>312</ele>
        <time>2021-01-30T13:10:17Z</time>
      </trkpt>
      <trkpt lat="45.18038" lon="5.69543">
        <ele>312</ele>
        <time>2021-01-30T13:10:18Z</time>
      </trkpt>
      <trkpt lat="45.18037" lon="5.69546">
        <ele>311.8</ele>
        <time>2021-01-30T13:10:19Z</time>
      </trkpt>
      <trkpt lat="45.18038" lon="5.6955">
        <ele>311.6</ele>
        <time>2021-01-30T13:10:20Z</time>
      </trkpt>
      <trkpt lat="45.18038" lon="5.69554">
        <ele>311.4</ele>
        <time>2021-01-30T13:10:21Z</time>
      </trkpt>
      <trkpt lat="45.18037" lon="5.69557">
        <ele>311.4</ele>
        <time>2021-01-30T13:10:22Z</time>
      </trkpt>
      <trkpt lat="45.18037" lon="5.6956">
        <ele>311.2</ele>
        <time>2021-01-30T13:10:23Z</time>
      </trkpt>
      <trkpt lat="45.18037" lon="5.69563">
        <ele>311</ele>
        <time>2021-01-30T13:10:24Z</time>
      </trkpt>
      <trkpt lat="45.18036" lon="5.69567">
        <ele>310.8</ele>
        <time>2021-01-30T13:10:25Z</time>
      </trkpt>
      <trkpt lat="45.18035" lon="5.6957">
        <ele>310.8</ele>
        <time>2021-01-30T13:10:26Z</time>
      </trkpt>
      <trkpt lat="45.18035" lon="5.69572">
        <ele>310.6</ele>
        <time>2021-01-30T13:10:27Z</time>
      </trkpt>
      <trkpt lat="45.18035" lon="5.69576">
        <ele>310.4</ele>
        <time>2021-01-30T13:10:28Z</time>
      </trkpt>
      <trkpt lat="45.18034" lon="5.69579">
        <ele>310.2</ele>
        <time>2021-01-30T13:10:29Z</time>
      </trkpt>
      <trkpt lat="45.18033" lon="5.69581">
        <ele>310.2</ele>
        <time>2021-01-30T13:10:30Z</time>
      </trkpt>
      <trkpt lat="45.18033" lon="5.69584">
        <ele>310</ele>
        <time>2021-01-30T13:10:31Z</time>
      </trkpt>
      <trkpt lat="45.18032" lon="5.69587">
        <ele>309.8</ele>
        <time>2021-01-30T13:10:32Z</time>
      </trkpt>
      <trkpt lat="45.18032" lon="5.6959">
        <ele>309.6</ele>
        <time>2021-01-30T13:10:33Z</time>
      </trkpt>
      <trkpt lat="45.18031" lon="5.69593">
        <ele>309.6</ele>
        <time>2021-01-30T13:10:34Z</time>
      </trkpt>
      <trkpt lat="45.18031" lon="5.69596">
        <ele>309.4</ele>
        <time>2021-01-30T13:10:35Z</time>
      </trkpt>
      <trkpt lat="45.18031" lon="5.69599">
        <ele>309.2</ele>
        <time>2021-01-30T13:10:36Z</time>
      </trkpt>
      <trkpt lat="45.18031" lon="5.69603">
        <ele>309</ele>
        <time>2021-01-30T13:10:37Z</time>
      </trkpt>
      <trkpt lat="45.18031" lon="5.69606">
        <ele>309</ele>
        <time>2021-01-30T13:10:38Z</time>
      </trkpt>
      <trkpt lat="45.18031" lon="5.6961">
        <ele>308.8</ele>
        <time>2021-01-30T13:10:39Z</time>
      </trkpt>
      <trkpt lat="45.18031" lon="5.69613">
        <ele>308.6</ele>
        <time>2021-01-30T13:10:40Z</time>
      </trkpt>
      <trkpt lat="45.1803" lon="5.69616">
        <ele>308.4</ele>
        <time>2021-01-30T13:10:41Z</time>
      </trkpt>
      <trkpt lat="45.1803" lon="5.6962">
        <ele>308.4</ele>
        <time>2021-01-30T13:10:42Z</time>
      </trkpt>
      <trkpt lat="45.18029" lon="5.69623">
        <ele>308.2</ele>
        <time>2021-01-30T13:10:43Z</time>
      </trkpt>
      <trkpt lat="45.18029" lon="5.69626">
        <ele>308</ele>
        <time>2021-01-30T13:10:44Z</time>
      </trkpt>
      <trkpt lat="45.18028" lon="5.69629">
        <ele>307.8</ele>
        <time>2021-01-30T13:10:45Z</time>
      </trkpt>
      <trkpt lat="45.18027" lon="5.69632">
        <ele>307.8</ele>
        <time>2021-01-30T13:10:46Z</time>
      </trkpt>
      <trkpt lat="45.18027" lon="5.69635">
        <ele>307.6</ele>
        <time>2021-01-30T13:10:47Z</time>
      </trkpt>
      <trkpt lat="45.18027" lon="5.69639">
        <ele>307.4</ele>
        <time>2021-01-30T13:10:48Z</time>
      </trkpt>
      <trkpt lat="45.18027" lon="5.69642">
        <ele>307.2</ele>
        <time>2021-01-30T13:10:49Z</time>
      </trkpt>
      <trkpt lat="45.18027" lon="5.69646">
        <ele>307.2</ele>
        <time>2021-01-30T13:10:50Z</time>
      </trkpt>
      <trkpt lat="45.18027" lon="5.69649">
        <ele>307</ele>
        <time>2021-01-30T13:10:51Z</time>
      </trkpt>
      <trkpt lat="45.18026" lon="5.69652">
        <ele>306.8</ele>
        <time>2021-01-30T13:10:52Z</time>
      </trkpt>
      <trkpt lat="45.18026" lon="5.69655">
        <ele>306.6</ele>
        <time>2021-01-30T13:10:53Z</time>
      </trkpt>
      <trkpt lat="45.18025" lon="5.6966">
        <ele>306.6</ele>
        <time>2021-01-30T13:10:54Z</time>
      </trkpt>
      <trkpt lat="45.18025" lon="5.69663">
        <ele>306.4</ele>
        <time>2021-01-30T13:10:55Z</time>
      </trkpt>
      <trkpt lat="45.18025" lon="5.69667">
        <ele>306.2</ele>
        <time>2021-01-30T13:10:56Z</time>
      </trkpt>
      <trkpt lat="45.18025" lon="5.6967">
        <ele>306</ele>
        <time>2021-01-30T13:10:57Z</time>
      </trkpt>
      <trkpt lat="45.18024" lon="5.69673">
        <ele>306</ele>
        <time>2021-01-30T13:10:58Z</time>
      </trkpt>
      <trkpt lat="45.18024" lon="5.69679">
        <ele>305.6</ele>
        <time>2021-01-30T13:11:00Z</time>
      </trkpt>
      <trkpt lat="45.18024" lon="5.69682">
        <ele>305.4</ele>
        <time>2021-01-30T13:11:01Z</time>
      </trkpt>
      <trkpt lat="45.18024" lon="5.69686">
        <ele>305.4</ele>
        <time>2021-01-30T13:11:02Z</time>
      </trkpt>
      <trkpt lat="45.18025" lon="5.6969">
        <ele>305.2</ele>
        <time>2021-01-30T13:11:03Z</time>
      </trkpt>
      <trkpt lat="45.18025" lon="5.69693">
        <ele>305</ele>
        <time>2021-01-30T13:11:04Z</time>
      </trkpt>
      <trkpt lat="45.18027" lon="5.69697">
        <ele>304.8</ele>
        <time>2021-01-30T13:11:05Z</time>
      </trkpt>
      <trkpt lat="45.18028" lon="5.69701">
        <ele>304.8</ele>
        <time>2021-01-30T13:11:06Z</time>
      </trkpt>
      <trkpt lat="45.18028" lon="5.69705">
        <ele>304.6</ele>
        <time>2021-01-30T13:11:07Z</time>
      </trkpt>
      <trkpt lat="45.18028" lon="5.69709">
        <ele>304.4</ele>
        <time>2021-01-30T13:11:08Z</time>
      </trkpt>
      <trkpt lat="45.18028" lon="5.69712">
        <ele>304.2</ele>
        <time>2021-01-30T13:11:09Z</time>
      </trkpt>
      <trkpt lat="45.18028" lon="5.69716">
        <ele>304.2</ele>
        <time>2021-01-30T13:11:10Z</time>
      </trkpt>
      <trkpt lat="45.18028" lon="5.69719">
        <ele>304</ele>
        <time>2021-01-30T13:11:11Z</time>
      </trkpt>
      <trkpt lat="45.18025" lon="5.69719">
        <ele>303.6</ele>
        <time>2021-01-30T13:11:13Z</time>
      </trkpt>
      <trkpt lat="45.18023" lon="5.69718">
        <ele>303.6</ele>
        <time>2021-01-30T13:11:14Z</time>
      </trkpt>
      <trkpt lat="45.18021" lon="5.69717">
        <ele>303.4</ele>
        <time>2021-01-30T13:11:15Z</time>
      </trkpt>
      <trkpt lat="45.18019" lon="5.69716">
        <ele>303.2</ele>
        <time>2021-01-30T13:11:16Z</time>
      </trkpt>
      <trkpt lat="45.18017" lon="5.69714">
        <ele>303</ele>
        <time>2021-01-30T13:11:17Z</time>
      </trkpt>
      <trkpt lat="45.18015" lon="5.69714">
        <ele>303</ele>
        <time>2021-01-30T13:11:18Z</time>
      </trkpt>
      <trkpt lat="45.18013" lon="5.69714">
        <ele>302.8</ele>
        <time>2021-01-30T13:11:19Z</time>
      </trkpt>
      <trkpt lat="45.1801" lon="5.69714">
        <ele>302.8</ele>
        <time>2021-01-30T13:11:20Z</time>
      </trkpt>
      <trkpt lat="45.18009" lon="5.69716">
        <ele>302.4</ele>
        <time>2021-01-30T13:11:21Z</time>
      </trkpt>
      <trkpt lat="45.18007" lon="5.69719">
        <ele>302.4</ele>
        <time>2021-01-30T13:11:22Z</time>
      </trkpt>
      <trkpt lat="45.18006" lon="5.69722">
        <ele>302.2</ele>
        <time>2021-01-30T13:11:23Z</time>
      </trkpt>
      <trkpt lat="45.18005" lon="5.69725">
        <ele>302</ele>
        <time>2021-01-30T13:11:24Z</time>
      </trkpt>
      <trkpt lat="45.18005" lon="5.69728">
        <ele>302</ele>
        <time>2021-01-30T13:11:25Z</time>
      </trkpt>
      <trkpt lat="45.18006" lon="5.69731">
        <ele>301.8</ele>
        <time>2021-01-30T13:11:26Z</time>
      </trkpt>
      <trkpt lat="45.18006" lon="5.69735">
        <ele>301.6</ele>
        <time>2021-01-30T13:11:27Z</time>
      </trkpt>
      <trkpt lat="45.18006" lon="5.69739">
        <ele>301.6</ele>
        <time>2021-01-30T13:11:28Z</time>
      </trkpt>
      <trkpt lat="45.18006" lon="5.69742">
        <ele>301.4</ele>
        <time>2021-01-30T13:11:29Z</time>
      </trkpt>
      <trkpt lat="45.18006" lon="5.69746">
        <ele>301.2</ele>
        <time>2021-01-30T13:11:30Z</time>
      </trkpt>
      <trkpt lat="45.18005" lon="5.69759">
        <ele>300.6</ele>
        <time>2021-01-30T13:11:34Z</time>
      </trkpt>
      <trkpt lat="45.18" lon="5.69771">
        <ele>300.2</ele>
        <time>2021-01-30T13:11:37Z</time>
      </trkpt>
      <trkpt lat="45.18" lon="5.69778">
        <ele>300</ele>
        <time>2021-01-30T13:11:39Z</time>
      </trkpt>
      <trkpt lat="45.18001" lon="5.69784">
        <ele>299.6</ele>
        <time>2021-01-30T13:11:41Z</time>
      </trkpt>
      <trkpt lat="45.18001" lon="5.69792">
        <ele>299.4</ele>
        <time>2021-01-30T13:11:43Z</time>
      </trkpt>
      <trkpt lat="45.18002" lon="5.69796">
        <ele>299.2</ele>
        <time>2021-01-30T13:11:44Z</time>
      </trkpt>
      <trkpt lat="45.18002" lon="5.69799">
        <ele>299.2</ele>
        <time>2021-01-30T13:11:45Z</time>
      </trkpt>
      <trkpt lat="45.18002" lon="5.69802">
        <ele>299</ele>
        <time>2021-01-30T13:11:46Z</time>
      </trkpt>
      <trkpt lat="45.18003" lon="5.69807">
        <ele>298.8</ele>
        <time>2021-01-30T13:11:47Z</time>
      </trkpt>
      <trkpt lat="45.18004" lon="5.69811">
        <ele>298.6</ele>
        <time>2021-01-30T13:11:48Z</time>
      </trkpt>
      <trkpt lat="45.18005" lon="5.69822">
        <ele>298.4</ele>
        <time>2021-01-30T13:11:51Z</time>
      </trkpt>
      <trkpt lat="45.18004" lon="5.69825">
        <ele>298.2</ele>
        <time>2021-01-30T13:11:52Z</time>
      </trkpt>
      <trkpt lat="45.18005" lon="5.69829">
        <ele>298</ele>
        <time>2021-01-30T13:11:53Z</time>
      </trkpt>
      <trkpt lat="45.18004" lon="5.69833">
        <ele>297.8</ele>
        <time>2021-01-30T13:11:54Z</time>
      </trkpt>
      <trkpt lat="45.18005" lon="5.69843">
        <ele>297.6</ele>
        <time>2021-01-30T13:11:57Z</time>
      </trkpt>
      <trkpt lat="45.18004" lon="5.69848">
        <ele>297.2</ele>
        <time>2021-01-30T13:11:59Z</time>
      </trkpt>
      <trkpt lat="45.18003" lon="5.69852">
        <ele>297</ele>
        <time>2021-01-30T13:12:00Z</time>
      </trkpt>
      <trkpt lat="45.18002" lon="5.69856">
        <ele>297</ele>
        <time>2021-01-30T13:12:01Z</time>
      </trkpt>
      <trkpt lat="45.18002" lon="5.69859">
        <ele>296.8</ele>
        <time>2021-01-30T13:12:02Z</time>
      </trkpt>
      <trkpt lat="45.18001" lon="5.69862">
        <ele>296.8</ele>
        <time>2021-01-30T13:12:03Z</time>
      </trkpt>
      <trkpt lat="45.18001" lon="5.69866">
        <ele>296.6</ele>
        <time>2021-01-30T13:12:04Z</time>
      </trkpt>
      <trkpt lat="45.18001" lon="5.69869">
        <ele>296.6</ele>
        <time>2021-01-30T13:12:05Z</time>
      </trkpt>
      <trkpt lat="45.18002" lon="5.69872">
        <ele>296.4</ele>
        <time>2021-01-30T13:12:06Z</time>
      </trkpt>
      <trkpt lat="45.18002" lon="5.69875">
        <ele>296.2</ele>
        <time>2021-01-30T13:12:07Z</time>
      </trkpt>
      <trkpt lat="45.18001" lon="5.69877">
        <ele>296</ele>
        <time>2021-01-30T13:12:08Z</time>
      </trkpt>
      <trkpt lat="45.18001" lon="5.6988">
        <ele>296</ele>
        <time>2021-01-30T13:12:09Z</time>
      </trkpt>
      <trkpt lat="45.18001" lon="5.69883">
        <ele>295.8</ele>
        <time>2021-01-30T13:12:10Z</time>
      </trkpt>
      <trkpt lat="45.18001" lon="5.69887">
        <ele>295.8</ele>
        <time>2021-01-30T13:12:11Z</time>
      </trkpt>
      <trkpt lat="45.18001" lon="5.6989">
        <ele>295.6</ele>
        <time>2021-01-30T13:12:12Z</time>
      </trkpt>
      <trkpt lat="45.18001" lon="5.69893">
        <ele>295.4</ele>
        <time>2021-01-30T13:12:13Z</time>
      </trkpt>
      <trkpt lat="45.18" lon="5.69896">
        <ele>295.2</ele>
        <time>2021-01-30T13:12:14Z</time>
      </trkpt>
      <trkpt lat="45.18" lon="5.69899">
        <ele>295.2</ele>
        <time>2021-01-30T13:12:15Z</time>
      </trkpt>
      <trkpt lat="45.18" lon="5.69902">
        <ele>295</ele>
        <time>2021-01-30T13:12:16Z</time>
      </trkpt>
      <trkpt lat="45.17999" lon="5.69905">
        <ele>295</ele>
        <time>2021-01-30T13:12:17Z</time>
      </trkpt>
      <trkpt lat="45.17999" lon="5.69909">
        <ele>294.8</ele>
        <time>2021-01-30T13:12:18Z</time>
      </trkpt>
      <trkpt lat="45.17999" lon="5.69914">
        <ele>294.4</ele>
        <time>2021-01-30T13:12:20Z</time>
      </trkpt>
      <trkpt lat="45.17999" lon="5.69918">
        <ele>294.2</ele>
        <time>2021-01-30T13:12:22Z</time>
      </trkpt>
      <trkpt lat="45.17999" lon="5.69921">
        <ele>294.2</ele>
        <time>2021-01-30T13:12:23Z</time>
      </trkpt>
      <trkpt lat="45.17999" lon="5.69925">
        <ele>294</ele>
        <time>2021-01-30T13:12:24Z</time>
      </trkpt>
      <trkpt lat="45.17999" lon="5.69928">
        <ele>294</ele>
        <time>2021-01-30T13:12:25Z</time>
      </trkpt>
      <trkpt lat="45.17999" lon="5.69932">
        <ele>293.8</ele>
        <time>2021-01-30T13:12:26Z</time>
      </trkpt>
      <trkpt lat="45.17999" lon="5.69934">
        <ele>293.6</ele>
        <time>2021-01-30T13:12:27Z</time>
      </trkpt>
      <trkpt lat="45.17999" lon="5.69937">
        <ele>293.4</ele>
        <time>2021-01-30T13:12:28Z</time>
      </trkpt>
      <trkpt lat="45.18" lon="5.6994">
        <ele>293.4</ele>
        <time>2021-01-30T13:12:29Z</time>
      </trkpt>
      <trkpt lat="45.18" lon="5.69943">
        <ele>293.2</ele>
        <time>2021-01-30T13:12:30Z</time>
      </trkpt>
      <trkpt lat="45.18001" lon="5.69946">
        <ele>293.2</ele>
        <time>2021-01-30T13:12:31Z</time>
      </trkpt>
      <trkpt lat="45.18001" lon="5.69949">
        <ele>293</ele>
        <time>2021-01-30T13:12:32Z</time>
      </trkpt>
      <trkpt lat="45.18001" lon="5.69952">
        <ele>293</ele>
        <time>2021-01-30T13:12:33Z</time>
      </trkpt>
      <trkpt lat="45.18001" lon="5.69955">
        <ele>292.8</ele>
        <time>2021-01-30T13:12:34Z</time>
      </trkpt>
      <trkpt lat="45.18001" lon="5.69957">
        <ele>292.6</ele>
        <time>2021-01-30T13:12:35Z</time>
      </trkpt>
      <trkpt lat="45.18001" lon="5.6996">
        <ele>292.4</ele>
        <time>2021-01-30T13:12:36Z</time>
      </trkpt>
      <trkpt lat="45.18" lon="5.69963">
        <ele>292.4</ele>
        <time>2021-01-30T13:12:37Z</time>
      </trkpt>
      <trkpt lat="45.17999" lon="5.69966">
        <ele>292.2</ele>
        <time>2021-01-30T13:12:38Z</time>
      </trkpt>
      <trkpt lat="45.17998" lon="5.6997">
        <ele>292.2</ele>
        <time>2021-01-30T13:12:39Z</time>
      </trkpt>
      <trkpt lat="45.17997" lon="5.69975">
        <ele>292</ele>
        <time>2021-01-30T13:12:41Z</time>
      </trkpt>
      <trkpt lat="45.17996" lon="5.69978">
        <ele>291.8</ele>
        <time>2021-01-30T13:12:42Z</time>
      </trkpt>
      <trkpt lat="45.17996" lon="5.69981">
        <ele>291.8</ele>
        <time>2021-01-30T13:12:43Z</time>
      </trkpt>
      <trkpt lat="45.17996" lon="5.69985">
        <ele>291.4</ele>
        <time>2021-01-30T13:12:44Z</time>
      </trkpt>
      <trkpt lat="45.17997" lon="5.69988">
        <ele>291.4</ele>
        <time>2021-01-30T13:12:45Z</time>
      </trkpt>
      <trkpt lat="45.17997" lon="5.69992">
        <ele>291.2</ele>
        <time>2021-01-30T13:12:46Z</time>
      </trkpt>
      <trkpt lat="45.17997" lon="5.69996">
        <ele>291.2</ele>
        <time>2021-01-30T13:12:47Z</time>
      </trkpt>
      <trkpt lat="45.17997" lon="5.69999">
        <ele>291</ele>
        <time>2021-01-30T13:12:48Z</time>
      </trkpt>
      <trkpt lat="45.17997" lon="5.70002">
        <ele>291</ele>
        <time>2021-01-30T13:12:49Z</time>
      </trkpt>
      <trkpt lat="45.17997" lon="5.70004">
        <ele>290.8</ele>
        <time>2021-01-30T13:12:50Z</time>
      </trkpt>
      <trkpt lat="45.17997" lon="5.70007">
        <ele>290.8</ele>
        <time>2021-01-30T13:12:51Z</time>
      </trkpt>
      <trkpt lat="45.17997" lon="5.7001">
        <ele>290.6</ele>
        <time>2021-01-30T13:12:52Z</time>
      </trkpt>
      <trkpt lat="45.17997" lon="5.70015">
        <ele>290.2</ele>
        <time>2021-01-30T13:12:54Z</time>
      </trkpt>
      <trkpt lat="45.17998" lon="5.70019">
        <ele>290.2</ele>
        <time>2021-01-30T13:12:55Z</time>
      </trkpt>
      <trkpt lat="45.17998" lon="5.70022">
        <ele>290</ele>
        <time>2021-01-30T13:12:56Z</time>
      </trkpt>
      <trkpt lat="45.17998" lon="5.70025">
        <ele>290</ele>
        <time>2021-01-30T13:12:57Z</time>
      </trkpt>
      <trkpt lat="45.17998" lon="5.70028">
        <ele>289.8</ele>
        <time>2021-01-30T13:12:58Z</time>
      </trkpt>
      <trkpt lat="45.17998" lon="5.70031">
        <ele>289.8</ele>
        <time>2021-01-30T13:12:59Z</time>
      </trkpt>
      <trkpt lat="45.17997" lon="5.70034">
        <ele>289.6</ele>
        <time>2021-01-30T13:13:00Z</time>
      </trkpt>
      <trkpt lat="45.17997" lon="5.70037">
        <ele>289.4</ele>
        <time>2021-01-30T13:13:01Z</time>
      </trkpt>
      <trkpt lat="45.17997" lon="5.7004">
        <ele>289.2</ele>
        <time>2021-01-30T13:13:02Z</time>
      </trkpt>
      <trkpt lat="45.17997" lon="5.70043">
        <ele>289.2</ele>
        <time>2021-01-30T13:13:03Z</time>
      </trkpt>
      <trkpt lat="45.17997" lon="5.70046">
        <ele>289</ele>
        <time>2021-01-30T13:13:04Z</time>
      </trkpt>
      <trkpt lat="45.17997" lon="5.70049">
        <ele>289</ele>
        <time>2021-01-30T13:13:05Z</time>
      </trkpt>
      <trkpt lat="45.17997" lon="5.70053">
        <ele>288.8</ele>
        <time>2021-01-30T13:13:06Z</time>
      </trkpt>
      <trkpt lat="45.17997" lon="5.70056">
        <ele>288.8</ele>
        <time>2021-01-30T13:13:07Z</time>
      </trkpt>
      <trkpt lat="45.17997" lon="5.70059">
        <ele>288.6</ele>
        <time>2021-01-30T13:13:08Z</time>
      </trkpt>
      <trkpt lat="45.17997" lon="5.70062">
        <ele>288.6</ele>
        <time>2021-01-30T13:13:09Z</time>
      </trkpt>
      <trkpt lat="45.17997" lon="5.70065">
        <ele>288.4</ele>
        <time>2021-01-30T13:13:10Z</time>
      </trkpt>
      <trkpt lat="45.17996" lon="5.70068">
        <ele>288.2</ele>
        <time>2021-01-30T13:13:11Z</time>
      </trkpt>
      <trkpt lat="45.17996" lon="5.7007">
        <ele>288</ele>
        <time>2021-01-30T13:13:12Z</time>
      </trkpt>
      <trkpt lat="45.17996" lon="5.70073">
        <ele>288</ele>
        <time>2021-01-30T13:13:13Z</time>
      </trkpt>
      <trkpt lat="45.17996" lon="5.70076">
        <ele>287.8</ele>
        <time>2021-01-30T13:13:14Z</time>
      </trkpt>
      <trkpt lat="45.17996" lon="5.70079">
        <ele>287.8</ele>
        <time>2021-01-30T13:13:15Z</time>
      </trkpt>
      <trkpt lat="45.17996" lon="5.70082">
        <ele>287.6</ele>
        <time>2021-01-30T13:13:16Z</time>
      </trkpt>
      <trkpt lat="45.17996" lon="5.70085">
        <ele>287.6</ele>
        <time>2021-01-30T13:13:17Z</time>
      </trkpt>
      <trkpt lat="45.17996" lon="5.70088">
        <ele>287.4</ele>
        <time>2021-01-30T13:13:18Z</time>
      </trkpt>
      <trkpt lat="45.17996" lon="5.70091">
        <ele>287.4</ele>
        <time>2021-01-30T13:13:19Z</time>
      </trkpt>
      <trkpt lat="45.17996" lon="5.70094">
        <ele>287.2</ele>
        <time>2021-01-30T13:13:20Z</time>
      </trkpt>
      <trkpt lat="45.17996" lon="5.70097">
        <ele>287</ele>
        <time>2021-01-30T13:13:21Z</time>
      </trkpt>
      <trkpt lat="45.17996" lon="5.70101">
        <ele>286.8</ele>
        <time>2021-01-30T13:13:23Z</time>
      </trkpt>
      <trkpt lat="45.17996" lon="5.70107">
        <ele>286.6</ele>
        <time>2021-01-30T13:13:25Z</time>
      </trkpt>
      <trkpt lat="45.17996" lon="5.70109">
        <ele>286.4</ele>
        <time>2021-01-30T13:13:26Z</time>
      </trkpt>
      <trkpt lat="45.17996" lon="5.70112">
        <ele>286.4</ele>
        <time>2021-01-30T13:13:27Z</time>
      </trkpt>
      <trkpt lat="45.17996" lon="5.70116">
        <ele>286.2</ele>
        <time>2021-01-30T13:13:28Z</time>
      </trkpt>
      <trkpt lat="45.17996" lon="5.70119">
        <ele>286.2</ele>
        <time>2021-01-30T13:13:29Z</time>
      </trkpt>
      <trkpt lat="45.17995" lon="5.70122">
        <ele>286</ele>
        <time>2021-01-30T13:13:30Z</time>
      </trkpt>
      <trkpt lat="45.17995" lon="5.70125">
        <ele>286</ele>
        <time>2021-01-30T13:13:31Z</time>
      </trkpt>
      <trkpt lat="45.17995" lon="5.70129">
        <ele>285.8</ele>
        <time>2021-01-30T13:13:32Z</time>
      </trkpt>
      <trkpt lat="45.17995" lon="5.70132">
        <ele>285.6</ele>
        <time>2021-01-30T13:13:33Z</time>
      </trkpt>
      <trkpt lat="45.17995" lon="5.70135">
        <ele>285.4</ele>
        <time>2021-01-30T13:13:34Z</time>
      </trkpt>
      <trkpt lat="45.17995" lon="5.70138">
        <ele>285.4</ele>
        <time>2021-01-30T13:13:35Z</time>
      </trkpt>
      <trkpt lat="45.17995" lon="5.70141">
        <ele>285.2</ele>
        <time>2021-01-30T13:13:36Z</time>
      </trkpt>
      <trkpt lat="45.17995" lon="5.70144">
        <ele>285.2</ele>
        <time>2021-01-30T13:13:37Z</time>
      </trkpt>
      <trkpt lat="45.17996" lon="5.70148">
        <ele>285</ele>
        <time>2021-01-30T13:13:38Z</time>
      </trkpt>
      <trkpt lat="45.17996" lon="5.70151">
        <ele>285</ele>
        <time>2021-01-30T13:13:39Z</time>
      </trkpt>
      <trkpt lat="45.17996" lon="5.70154">
        <ele>284.8</ele>
        <time>2021-01-30T13:13:40Z</time>
      </trkpt>
      <trkpt lat="45.17996" lon="5.70158">
        <ele>284.8</ele>
        <time>2021-01-30T13:13:41Z</time>
      </trkpt>
      <trkpt lat="45.17996" lon="5.70161">
        <ele>284.6</ele>
        <time>2021-01-30T13:13:42Z</time>
      </trkpt>
      <trkpt lat="45.17996" lon="5.70165">
        <ele>284.4</ele>
        <time>2021-01-30T13:13:43Z</time>
      </trkpt>
      <trkpt lat="45.17995" lon="5.70168">
        <ele>284.4</ele>
        <time>2021-01-30T13:13:44Z</time>
      </trkpt>
      <trkpt lat="45.17995" lon="5.7017">
        <ele>284.2</ele>
        <time>2021-01-30T13:13:45Z</time>
      </trkpt>
      <trkpt lat="45.17995" lon="5.70173">
        <ele>284</ele>
        <time>2021-01-30T13:13:46Z</time>
      </trkpt>
      <trkpt lat="45.17995" lon="5.70176">
        <ele>284</ele>
        <time>2021-01-30T13:13:47Z</time>
      </trkpt>
      <trkpt lat="45.17995" lon="5.70179">
        <ele>283.8</ele>
        <time>2021-01-30T13:13:48Z</time>
      </trkpt>
      <trkpt lat="45.17995" lon="5.70183">
        <ele>283.8</ele>
        <time>2021-01-30T13:13:49Z</time>
      </trkpt>
      <trkpt lat="45.17995" lon="5.70186">
        <ele>283.6</ele>
        <time>2021-01-30T13:13:50Z</time>
      </trkpt>
      <trkpt lat="45.17995" lon="5.7019">
        <ele>283.6</ele>
        <time>2021-01-30T13:13:51Z</time>
      </trkpt>
      <trkpt lat="45.17995" lon="5.70193">
        <ele>283.4</ele>
        <time>2021-01-30T13:13:52Z</time>
      </trkpt>
      <trkpt lat="45.17995" lon="5.70196">
        <ele>283.4</ele>
        <time>2021-01-30T13:13:53Z</time>
      </trkpt>
      <trkpt lat="45.17995" lon="5.702">
        <ele>283.2</ele>
        <time>2021-01-30T13:13:54Z</time>
      </trkpt>
      <trkpt lat="45.17994" lon="5.70204">
        <ele>283</ele>
        <time>2021-01-30T13:13:55Z</time>
      </trkpt>
      <trkpt lat="45.17994" lon="5.70206">
        <ele>282.8</ele>
        <time>2021-01-30T13:13:56Z</time>
      </trkpt>
      <trkpt lat="45.17994" lon="5.7021">
        <ele>282.8</ele>
        <time>2021-01-30T13:13:57Z</time>
      </trkpt>
      <trkpt lat="45.17994" lon="5.70213">
        <ele>282.6</ele>
        <time>2021-01-30T13:13:58Z</time>
      </trkpt>
      <trkpt lat="45.17994" lon="5.70216">
        <ele>282.6</ele>
        <time>2021-01-30T13:13:59Z</time>
      </trkpt>
      <trkpt lat="45.17994" lon="5.7022">
        <ele>282.4</ele>
        <time>2021-01-30T13:14:00Z</time>
      </trkpt>
      <trkpt lat="45.17994" lon="5.70223">
        <ele>282.4</ele>
        <time>2021-01-30T13:14:01Z</time>
      </trkpt>
      <trkpt lat="45.17993" lon="5.70227">
        <ele>282.2</ele>
        <time>2021-01-30T13:14:02Z</time>
      </trkpt>
      <trkpt lat="45.17993" lon="5.70231">
        <ele>282.2</ele>
        <time>2021-01-30T13:14:03Z</time>
      </trkpt>
      <trkpt lat="45.17993" lon="5.70234">
        <ele>282</ele>
        <time>2021-01-30T13:14:04Z</time>
      </trkpt>
      <trkpt lat="45.17993" lon="5.70237">
        <ele>282</ele>
        <time>2021-01-30T13:14:05Z</time>
      </trkpt>
      <trkpt lat="45.17993" lon="5.70241">
        <ele>281.8</ele>
        <time>2021-01-30T13:14:06Z</time>
      </trkpt>
      <trkpt lat="45.17993" lon="5.70244">
        <ele>281.6</ele>
        <time>2021-01-30T13:14:07Z</time>
      </trkpt>
      <trkpt lat="45.17993" lon="5.70247">
        <ele>281.4</ele>
        <time>2021-01-30T13:14:08Z</time>
      </trkpt>
      <trkpt lat="45.17993" lon="5.70251">
        <ele>281.4</ele>
        <time>2021-01-30T13:14:09Z</time>
      </trkpt>
      <trkpt lat="45.17993" lon="5.70254">
        <ele>281.2</ele>
        <time>2021-01-30T13:14:10Z</time>
      </trkpt>
      <trkpt lat="45.17993" lon="5.70257">
        <ele>281.2</ele>
        <time>2021-01-30T13:14:11Z</time>
      </trkpt>
      <trkpt lat="45.17993" lon="5.7026">
        <ele>281</ele>
        <time>2021-01-30T13:14:12Z</time>
      </trkpt>
      <trkpt lat="45.17993" lon="5.70264">
        <ele>281</ele>
        <time>2021-01-30T13:14:13Z</time>
      </trkpt>
      <trkpt lat="45.17994" lon="5.70268">
        <ele>280.8</ele>
        <time>2021-01-30T13:14:14Z</time>
      </trkpt>
      <trkpt lat="45.17993" lon="5.70271">
        <ele>280.8</ele>
        <time>2021-01-30T13:14:15Z</time>
      </trkpt>
      <trkpt lat="45.17993" lon="5.70274">
        <ele>280.6</ele>
        <time>2021-01-30T13:14:16Z</time>
      </trkpt>
      <trkpt lat="45.17993" lon="5.70278">
        <ele>280.6</ele>
        <time>2021-01-30T13:14:17Z</time>
      </trkpt>
      <trkpt lat="45.17993" lon="5.70281">
        <ele>280.4</ele>
        <time>2021-01-30T13:14:18Z</time>
      </trkpt>
      <trkpt lat="45.17993" lon="5.70284">
        <ele>280.2</ele>
        <time>2021-01-30T13:14:19Z</time>
      </trkpt>
      <trkpt lat="45.17993" lon="5.70288">
        <ele>280</ele>
        <time>2021-01-30T13:14:20Z</time>
      </trkpt>
      <trkpt lat="45.17992" lon="5.70291">
        <ele>280</ele>
        <time>2021-01-30T13:14:21Z</time>
      </trkpt>
      <trkpt lat="45.17993" lon="5.70294">
        <ele>279.8</ele>
        <time>2021-01-30T13:14:22Z</time>
      </trkpt>
      <trkpt lat="45.17992" lon="5.70297">
        <ele>279.8</ele>
        <time>2021-01-30T13:14:23Z</time>
      </trkpt>
      <trkpt lat="45.17992" lon="5.703">
        <ele>279.6</ele>
        <time>2021-01-30T13:14:24Z</time>
      </trkpt>
      <trkpt lat="45.17991" lon="5.70303">
        <ele>279.6</ele>
        <time>2021-01-30T13:14:25Z</time>
      </trkpt>
      <trkpt lat="45.17991" lon="5.70306">
        <ele>279.4</ele>
        <time>2021-01-30T13:14:26Z</time>
      </trkpt>
      <trkpt lat="45.1799" lon="5.70309">
        <ele>279.4</ele>
        <time>2021-01-30T13:14:27Z</time>
      </trkpt>
      <trkpt lat="45.17989" lon="5.70312">
        <ele>279.2</ele>
        <time>2021-01-30T13:14:28Z</time>
      </trkpt>
      <trkpt lat="45.17989" lon="5.70315">
        <ele>279.2</ele>
        <time>2021-01-30T13:14:29Z</time>
      </trkpt>
      <trkpt lat="45.17988" lon="5.70319">
        <ele>279</ele>
        <time>2021-01-30T13:14:30Z</time>
      </trkpt>
      <trkpt lat="45.17988" lon="5.70322">
        <ele>278.8</ele>
        <time>2021-01-30T13:14:31Z</time>
      </trkpt>
      <trkpt lat="45.17988" lon="5.70325">
        <ele>278.8</ele>
        <time>2021-01-30T13:14:32Z</time>
      </trkpt>
      <trkpt lat="45.17987" lon="5.70329">
        <ele>278.6</ele>
        <time>2021-01-30T13:14:33Z</time>
      </trkpt>
      <trkpt lat="45.17987" lon="5.70332">
        <ele>278.4</ele>
        <time>2021-01-30T13:14:34Z</time>
      </trkpt>
      <trkpt lat="45.17987" lon="5.70335">
        <ele>278.4</ele>
        <time>2021-01-30T13:14:35Z</time>
      </trkpt>
      <trkpt lat="45.17987" lon="5.70339">
        <ele>278.2</ele>
        <time>2021-01-30T13:14:36Z</time>
      </trkpt>
      <trkpt lat="45.17987" lon="5.70342">
        <ele>278.2</ele>
        <time>2021-01-30T13:14:37Z</time>
      </trkpt>
      <trkpt lat="45.17986" lon="5.70345">
        <ele>278</ele>
        <time>2021-01-30T13:14:38Z</time>
      </trkpt>
      <trkpt lat="45.17985" lon="5.70347">
        <ele>278</ele>
        <time>2021-01-30T13:14:39Z</time>
      </trkpt>
      <trkpt lat="45.17984" lon="5.7035">
        <ele>277.8</ele>
        <time>2021-01-30T13:14:40Z</time>
      </trkpt>
      <trkpt lat="45.17984" lon="5.70354">
        <ele>277.8</ele>
        <time>2021-01-30T13:14:41Z</time>
      </trkpt>
      <trkpt lat="45.17983" lon="5.70358">
        <ele>277.6</ele>
        <time>2021-01-30T13:14:42Z</time>
      </trkpt>
      <trkpt lat="45.17983" lon="5.70362">
        <ele>277.6</ele>
        <time>2021-01-30T13:14:43Z</time>
      </trkpt>
      <trkpt lat="45.17983" lon="5.70366">
        <ele>277.4</ele>
        <time>2021-01-30T13:14:44Z</time>
      </trkpt>
      <trkpt lat="45.17983" lon="5.7037">
        <ele>277.2</ele>
        <time>2021-01-30T13:14:45Z</time>
      </trkpt>
      <trkpt lat="45.17983" lon="5.70373">
        <ele>277</ele>
        <time>2021-01-30T13:14:46Z</time>
      </trkpt>
      <trkpt lat="45.17983" lon="5.70377">
        <ele>277</ele>
        <time>2021-01-30T13:14:47Z</time>
      </trkpt>
      <trkpt lat="45.17983" lon="5.70381">
        <ele>276.8</ele>
        <time>2021-01-30T13:14:48Z</time>
      </trkpt>
      <trkpt lat="45.17984" lon="5.70385">
        <ele>276.8</ele>
        <time>2021-01-30T13:14:49Z</time>
      </trkpt>
      <trkpt lat="45.17984" lon="5.70389">
        <ele>276.6</ele>
        <time>2021-01-30T13:14:50Z</time>
      </trkpt>
      <trkpt lat="45.17984" lon="5.70393">
        <ele>276.6</ele>
        <time>2021-01-30T13:14:51Z</time>
      </trkpt>
      <trkpt lat="45.17984" lon="5.70397">
        <ele>276.4</ele>
        <time>2021-01-30T13:14:52Z</time>
      </trkpt>
      <trkpt lat="45.17985" lon="5.70411">
        <ele>276</ele>
        <time>2021-01-30T13:14:56Z</time>
      </trkpt>
      <trkpt lat="45.17985" lon="5.70415">
        <ele>275.8</ele>
        <time>2021-01-30T13:14:57Z</time>
      </trkpt>
      <trkpt lat="45.17984" lon="5.70419">
        <ele>275.8</ele>
        <time>2021-01-30T13:14:58Z</time>
      </trkpt>
      <trkpt lat="45.17983" lon="5.70424">
        <ele>275.6</ele>
        <time>2021-01-30T13:14:59Z</time>
      </trkpt>
      <trkpt lat="45.17983" lon="5.70428">
        <ele>275.4</ele>
        <time>2021-01-30T13:15:00Z</time>
      </trkpt>
      <trkpt lat="45.17983" lon="5.70432">
        <ele>275.4</ele>
        <time>2021-01-30T13:15:01Z</time>
      </trkpt>
      <trkpt lat="45.17983" lon="5.70437">
        <ele>275.2</ele>
        <time>2021-01-30T13:15:02Z</time>
      </trkpt>
      <trkpt lat="45.17983" lon="5.70441">
        <ele>275.2</ele>
        <time>2021-01-30T13:15:03Z</time>
      </trkpt>
      <trkpt lat="45.17982" lon="5.70445">
        <ele>275</ele>
        <time>2021-01-30T13:15:04Z</time>
      </trkpt>
      <trkpt lat="45.17982" lon="5.70449">
        <ele>275</ele>
        <time>2021-01-30T13:15:05Z</time>
      </trkpt>
      <trkpt lat="45.17983" lon="5.70452">
        <ele>274.8</ele>
        <time>2021-01-30T13:15:06Z</time>
      </trkpt>
      <trkpt lat="45.17983" lon="5.70456">
        <ele>274.6</ele>
        <time>2021-01-30T13:15:07Z</time>
      </trkpt>
      <trkpt lat="45.17983" lon="5.70459">
        <ele>274.4</ele>
        <time>2021-01-30T13:15:08Z</time>
      </trkpt>
      <trkpt lat="45.17983" lon="5.70463">
        <ele>274.2</ele>
        <time>2021-01-30T13:15:09Z</time>
      </trkpt>
      <trkpt lat="45.17983" lon="5.70467">
        <ele>273.8</ele>
        <time>2021-01-30T13:15:10Z</time>
      </trkpt>
      <trkpt lat="45.17983" lon="5.70471">
        <ele>273.8</ele>
        <time>2021-01-30T13:15:11Z</time>
      </trkpt>
      <trkpt lat="45.17983" lon="5.70475">
        <ele>273.4</ele>
        <time>2021-01-30T13:15:12Z</time>
      </trkpt>
      <trkpt lat="45.17984" lon="5.70478">
        <ele>273.2</ele>
        <time>2021-01-30T13:15:13Z</time>
      </trkpt>
      <trkpt lat="45.17984" lon="5.70482">
        <ele>273</ele>
        <time>2021-01-30T13:15:14Z</time>
      </trkpt>
      <trkpt lat="45.17984" lon="5.70485">
        <ele>272.8</ele>
        <time>2021-01-30T13:15:15Z</time>
      </trkpt>
      <trkpt lat="45.17985" lon="5.70489">
        <ele>272.6</ele>
        <time>2021-01-30T13:15:16Z</time>
      </trkpt>
      <trkpt lat="45.17985" lon="5.70492">
        <ele>272.6</ele>
        <time>2021-01-30T13:15:17Z</time>
      </trkpt>
      <trkpt lat="45.17985" lon="5.70496">
        <ele>272.4</ele>
        <time>2021-01-30T13:15:18Z</time>
      </trkpt>
      <trkpt lat="45.17985" lon="5.70499">
        <ele>272.4</ele>
        <time>2021-01-30T13:15:19Z</time>
      </trkpt>
      <trkpt lat="45.17987" lon="5.70504">
        <ele>272.2</ele>
        <time>2021-01-30T13:15:20Z</time>
      </trkpt>
      <trkpt lat="45.17989" lon="5.70506">
        <ele>272.2</ele>
        <time>2021-01-30T13:15:21Z</time>
      </trkpt>
      <trkpt lat="45.17991" lon="5.70508">
        <ele>272</ele>
        <time>2021-01-30T13:15:22Z</time>
      </trkpt>
      <trkpt lat="45.17994" lon="5.7051">
        <ele>272</ele>
        <time>2021-01-30T13:15:23Z</time>
      </trkpt>
      <trkpt lat="45.18003" lon="5.70513">
        <ele>271.6</ele>
        <time>2021-01-30T13:15:26Z</time>
      </trkpt>
      <trkpt lat="45.18014" lon="5.70511">
        <ele>271</ele>
        <time>2021-01-30T13:15:30Z</time>
      </trkpt>
      <trkpt lat="45.1802" lon="5.70514">
        <ele>270.8</ele>
        <time>2021-01-30T13:15:33Z</time>
      </trkpt>
      <trkpt lat="45.18023" lon="5.70519">
        <ele>270.6</ele>
        <time>2021-01-30T13:15:35Z</time>
      </trkpt>
      <trkpt lat="45.18024" lon="5.70522">
        <ele>270.4</ele>
        <time>2021-01-30T13:15:36Z</time>
      </trkpt>
      <trkpt lat="45.18026" lon="5.70528">
        <ele>270</ele>
        <time>2021-01-30T13:15:39Z</time>
      </trkpt>
      <trkpt lat="45.18027" lon="5.70531">
        <ele>270</ele>
        <time>2021-01-30T13:15:40Z</time>
      </trkpt>
      <trkpt lat="45.18028" lon="5.70533">
        <ele>269.8</ele>
        <time>2021-01-30T13:15:41Z</time>
      </trkpt>
      <trkpt lat="45.18029" lon="5.70537">
        <ele>269.6</ele>
        <time>2021-01-30T13:15:43Z</time>
      </trkpt>
      <trkpt lat="45.1803" lon="5.7054">
        <ele>269.4</ele>
        <time>2021-01-30T13:15:45Z</time>
      </trkpt>
      <trkpt lat="45.18033" lon="5.7054">
        <ele>269</ele>
        <time>2021-01-30T13:15:48Z</time>
      </trkpt>
      <trkpt lat="45.18036" lon="5.70541">
        <ele>268.8</ele>
        <time>2021-01-30T13:15:50Z</time>
      </trkpt>
      <trkpt lat="45.18045" lon="5.70548">
        <ele>268.2</ele>
        <time>2021-01-30T13:15:55Z</time>
      </trkpt>
      <trkpt lat="45.18057" lon="5.70551">
        <ele>268</ele>
        <time>2021-01-30T13:15:57Z</time>
      </trkpt>
      <trkpt lat="45.18064" lon="5.70565">
        <ele>267.6</ele>
        <time>2021-01-30T13:16:00Z</time>
      </trkpt>
      <trkpt lat="45.18068" lon="5.70578">
        <ele>267.2</ele>
        <time>2021-01-30T13:16:04Z</time>
      </trkpt>
      <trkpt lat="45.18071" lon="5.70591">
        <ele>266.8</ele>
        <time>2021-01-30T13:16:08Z</time>
      </trkpt>
      <trkpt lat="45.18074" lon="5.70604">
        <ele>266.2</ele>
        <time>2021-01-30T13:16:14Z</time>
      </trkpt>
      <trkpt lat="45.18075" lon="5.70607">
        <ele>266</ele>
        <time>2021-01-30T13:16:15Z</time>
      </trkpt>
      <trkpt lat="45.18076" lon="5.70609">
        <ele>265.8</ele>
        <time>2021-01-30T13:16:16Z</time>
      </trkpt>
      <trkpt lat="45.18077" lon="5.70612">
        <ele>265.8</ele>
        <time>2021-01-30T13:16:17Z</time>
      </trkpt>
    </trkseg>
  </trk>
</gpx>